<?xml version='1.0' encoding='UTF-8'?><gpx version="1.1" creator="JPX - https://github.com/jenetics/jpx" xmlns="http://www.topografix.com/GPX/1/1"><trk><trkseg><trkpt lat="43.4220951" lon="11.1822966"><ele>175.0</ele><time>2026-03-28T13:23:48.031Z</time></trkpt><trkpt lat="43.4221206" lon="11.1824087"><ele>175.0</ele><time>2026-03-28T13:23:51.02Z</time></trkpt><trkpt lat="43.4221602" lon="11.182517"><ele>175.0</ele><time>2026-03-28T13:23:54.041Z</time></trkpt><trkpt lat="43.4221849" lon="11.1826341"><ele>175.0</ele><time>2026-03-28T13:23:57.042Z</time></trkpt><trkpt lat="43.4221145" lon="11.1827283"><ele>175.0</ele><time>2026-03-28T13:24:00.03Z</time></trkpt><trkpt lat="43.422046" lon="11.1827819"><ele>175.0</ele><time>2026-03-28T13:24:02.017Z</time></trkpt><trkpt lat="43.4219808" lon="11.1828346"><ele>175.0</ele><time>2026-03-28T13:24:04.018Z</time></trkpt><trkpt lat="43.4219184" lon="11.1828948"><ele>175.0</ele><time>2026-03-28T13:24:06.047Z</time></trkpt><trkpt lat="43.4218561" lon="11.1829478"><ele>175.0</ele><time>2026-03-28T13:24:08.012Z</time></trkpt><trkpt lat="43.4217875" lon="11.1830068"><ele>175.0</ele><time>2026-03-28T13:24:10.043Z</time></trkpt><trkpt lat="43.4217319" lon="11.1830665"><ele>175.0</ele><time>2026-03-28T13:24:12.051Z</time></trkpt><trkpt lat="43.4216539" lon="11.1831262"><ele>175.0</ele><time>2026-03-28T13:24:15.047Z</time></trkpt><trkpt lat="43.4215974" lon="11.1831681"><ele>175.0</ele><time>2026-03-28T13:24:17.04Z</time></trkpt><trkpt lat="43.4215407" lon="11.1832207"><ele>175.0</ele><time>2026-03-28T13:24:19.026Z</time></trkpt><trkpt lat="43.421481" lon="11.1832753"><ele>175.0</ele><time>2026-03-28T13:24:21.008Z</time></trkpt><trkpt lat="43.4214188" lon="11.1833363"><ele>175.0</ele><time>2026-03-28T13:24:23.033Z</time></trkpt><trkpt lat="43.421359" lon="11.1833918"><ele>175.0</ele><time>2026-03-28T13:24:25.028Z</time></trkpt><trkpt lat="43.421301" lon="11.1834519"><ele>175.0</ele><time>2026-03-28T13:24:27.042Z</time></trkpt><trkpt lat="43.4212429" lon="11.183525"><ele>175.0</ele><time>2026-03-28T13:24:29.046Z</time></trkpt><trkpt lat="43.4211865" lon="11.1835876"><ele>175.16666666666669</ele><time>2026-03-28T13:24:31.032Z</time></trkpt><trkpt lat="43.4211301" lon="11.183648"><ele>175.33333333333334</ele><time>2026-03-28T13:24:33.015Z</time></trkpt><trkpt lat="43.421082" lon="11.1837098"><ele>175.5</ele><time>2026-03-28T13:24:35.018Z</time></trkpt><trkpt lat="43.4210349" lon="11.183785"><ele>175.66666666666666</ele><time>2026-03-28T13:24:37.014Z</time></trkpt><trkpt lat="43.4209847" lon="11.1838733"><ele>175.83333333333331</ele><time>2026-03-28T13:24:39.024Z</time></trkpt><trkpt lat="43.4209333" lon="11.1839774"><ele>176.0</ele><time>2026-03-28T13:24:41.037Z</time></trkpt><trkpt lat="43.4208757" lon="11.1840806"><ele>176.20000000000002</ele><time>2026-03-28T13:24:43.007Z</time></trkpt><trkpt lat="43.4208121" lon="11.184182"><ele>176.4</ele><time>2026-03-28T13:24:45.012Z</time></trkpt><trkpt lat="43.4207538" lon="11.1842899"><ele>176.6</ele><time>2026-03-28T13:24:47.053Z</time></trkpt><trkpt lat="43.4206988" lon="11.1843968"><ele>176.8</ele><time>2026-03-28T13:24:49.013Z</time></trkpt><trkpt lat="43.4206509" lon="11.1844934"><ele>177.0</ele><time>2026-03-28T13:24:51.021Z</time></trkpt><trkpt lat="43.4206014" lon="11.1845985"><ele>177.0</ele><time>2026-03-28T13:24:53.021Z</time></trkpt><trkpt lat="43.4205439" lon="11.1846952"><ele>177.0</ele><time>2026-03-28T13:24:55.016Z</time></trkpt><trkpt lat="43.4204914" lon="11.1847858"><ele>177.0</ele><time>2026-03-28T13:24:57.016Z</time></trkpt><trkpt lat="43.4204399" lon="11.1848907"><ele>177.0</ele><time>2026-03-28T13:24:59.033Z</time></trkpt><trkpt lat="43.420387" lon="11.184998"><ele>177.0</ele><time>2026-03-28T13:25:01.015Z</time></trkpt><trkpt lat="43.4203291" lon="11.1851013"><ele>176.83333333333334</ele><time>2026-03-28T13:25:03.021Z</time></trkpt><trkpt lat="43.4202754" lon="11.1852052"><ele>176.66666666666666</ele><time>2026-03-28T13:25:05.001Z</time></trkpt><trkpt lat="43.4202222" lon="11.1853015"><ele>176.5</ele><time>2026-03-28T13:25:07.034Z</time></trkpt><trkpt lat="43.4201683" lon="11.1853922"><ele>176.33333333333331</ele><time>2026-03-28T13:25:09.015Z</time></trkpt><trkpt lat="43.4201139" lon="11.1854891"><ele>176.16666666666666</ele><time>2026-03-28T13:25:11.084Z</time></trkpt><trkpt lat="43.420058" lon="11.1855692"><ele>176.0</ele><time>2026-03-28T13:25:13.05Z</time></trkpt><trkpt lat="43.4200075" lon="11.1856571"><ele>176.0</ele><time>2026-03-28T13:25:15.055Z</time></trkpt><trkpt lat="43.4199575" lon="11.1857452"><ele>176.0</ele><time>2026-03-28T13:25:17.051Z</time></trkpt><trkpt lat="43.4199105" lon="11.1858348"><ele>176.0</ele><time>2026-03-28T13:25:19.038Z</time></trkpt><trkpt lat="43.4198586" lon="11.185931"><ele>176.0</ele><time>2026-03-28T13:25:21.015Z</time></trkpt><trkpt lat="43.4198069" lon="11.1860342"><ele>176.0</ele><time>2026-03-28T13:25:23.038Z</time></trkpt><trkpt lat="43.4197533" lon="11.186139"><ele>176.0</ele><time>2026-03-28T13:25:25.036Z</time></trkpt><trkpt lat="43.4196969" lon="11.1862476"><ele>175.60000000000002</ele><time>2026-03-28T13:25:27.028Z</time></trkpt><trkpt lat="43.4196441" lon="11.1863636"><ele>175.2</ele><time>2026-03-28T13:25:29.039Z</time></trkpt><trkpt lat="43.4195812" lon="11.1864805"><ele>174.8</ele><time>2026-03-28T13:25:31.051Z</time></trkpt><trkpt lat="43.4195014" lon="11.1866075"><ele>174.39999999999998</ele><time>2026-03-28T13:25:33.029Z</time></trkpt><trkpt lat="43.419458" lon="11.186678"><ele>174.0</ele><time>2026-03-28T13:25:34.034Z</time></trkpt><trkpt lat="43.4194135" lon="11.1867565"><ele>174.0</ele><time>2026-03-28T13:25:35.017Z</time></trkpt><trkpt lat="43.419368" lon="11.1868384"><ele>174.0</ele><time>2026-03-28T13:25:36.014Z</time></trkpt><trkpt lat="43.4193253" lon="11.1869275"><ele>174.0</ele><time>2026-03-28T13:25:37.038Z</time></trkpt><trkpt lat="43.4192777" lon="11.187018"><ele>174.0</ele><time>2026-03-28T13:25:38.025Z</time></trkpt><trkpt lat="43.4192311" lon="11.1871042"><ele>174.0</ele><time>2026-03-28T13:25:39.016Z</time></trkpt><trkpt lat="43.4191852" lon="11.1871927"><ele>174.0</ele><time>2026-03-28T13:25:40.024Z</time></trkpt><trkpt lat="43.4191399" lon="11.1872872"><ele>173.66666666666666</ele><time>2026-03-28T13:25:41.02Z</time></trkpt><trkpt lat="43.4190946" lon="11.1873815"><ele>173.33333333333334</ele><time>2026-03-28T13:25:42.026Z</time></trkpt><trkpt lat="43.4190495" lon="11.1874817"><ele>173.0</ele><time>2026-03-28T13:25:43.026Z</time></trkpt><trkpt lat="43.4190042" lon="11.1875779"><ele>172.66666666666669</ele><time>2026-03-28T13:25:44.009Z</time></trkpt><trkpt lat="43.4189581" lon="11.1876724"><ele>172.33333333333334</ele><time>2026-03-28T13:25:45.033Z</time></trkpt><trkpt lat="43.418906" lon="11.1877575"><ele>172.0</ele><time>2026-03-28T13:25:46.044Z</time></trkpt><trkpt lat="43.4188521" lon="11.1878383"><ele>172.0</ele><time>2026-03-28T13:25:47.025Z</time></trkpt><trkpt lat="43.4188016" lon="11.1879216"><ele>172.0</ele><time>2026-03-28T13:25:48.038Z</time></trkpt><trkpt lat="43.4187525" lon="11.1880019"><ele>172.0</ele><time>2026-03-28T13:25:49.019Z</time></trkpt><trkpt lat="43.4187049" lon="11.1880797"><ele>172.0</ele><time>2026-03-28T13:25:50.038Z</time></trkpt><trkpt lat="43.4186583" lon="11.1881602"><ele>172.0</ele><time>2026-03-28T13:25:51.037Z</time></trkpt><trkpt lat="43.4186108" lon="11.1882405"><ele>172.0</ele><time>2026-03-28T13:25:52.024Z</time></trkpt><trkpt lat="43.4185631" lon="11.1883171"><ele>171.57142857142858</ele><time>2026-03-28T13:25:53.033Z</time></trkpt><trkpt lat="43.4185145" lon="11.1883852"><ele>171.14285714285714</ele><time>2026-03-28T13:25:54.059Z</time></trkpt><trkpt lat="43.4184659" lon="11.1884534"><ele>170.71428571428572</ele><time>2026-03-28T13:25:55.021Z</time></trkpt><trkpt lat="43.4184145" lon="11.1885164"><ele>170.28571428571428</ele><time>2026-03-28T13:25:56.018Z</time></trkpt><trkpt lat="43.4183593" lon="11.1885622"><ele>169.85714285714286</ele><time>2026-03-28T13:25:57.029Z</time></trkpt><trkpt lat="43.4183007" lon="11.1886001"><ele>169.42857142857144</ele><time>2026-03-28T13:25:58.017Z</time></trkpt><trkpt lat="43.4182379" lon="11.1886301"><ele>169.0</ele><time>2026-03-28T13:25:59.016Z</time></trkpt><trkpt lat="43.4181773" lon="11.1886567"><ele>169.0</ele><time>2026-03-28T13:26:00.019Z</time></trkpt><trkpt lat="43.418119" lon="11.1886941"><ele>169.0</ele><time>2026-03-28T13:26:01.03Z</time></trkpt><trkpt lat="43.4180367" lon="11.1888079"><ele>169.0</ele><time>2026-03-28T13:26:03.038Z</time></trkpt><trkpt lat="43.4179647" lon="11.1888913"><ele>169.0</ele><time>2026-03-28T13:26:05.014Z</time></trkpt><trkpt lat="43.4179561" lon="11.1889897"><ele>169.0</ele><time>2026-03-28T13:26:07.02Z</time></trkpt><trkpt lat="43.4180307" lon="11.1890813"><ele>169.0</ele><time>2026-03-28T13:26:09.023Z</time></trkpt><trkpt lat="43.4180917" lon="11.1891934"><ele>169.2</ele><time>2026-03-28T13:26:11.035Z</time></trkpt><trkpt lat="43.4181013" lon="11.1893259"><ele>169.39999999999998</ele><time>2026-03-28T13:26:13.033Z</time></trkpt><trkpt lat="43.4180667" lon="11.1894561"><ele>169.6</ele><time>2026-03-28T13:26:15.033Z</time></trkpt><trkpt lat="43.4180375" lon="11.1895879"><ele>169.8</ele><time>2026-03-28T13:26:17.043Z</time></trkpt><trkpt lat="43.418007" lon="11.1897204"><ele>170.0</ele><time>2026-03-28T13:26:19.012Z</time></trkpt><trkpt lat="43.4179776" lon="11.18985"><ele>170.8</ele><time>2026-03-28T13:26:21.047Z</time></trkpt><trkpt lat="43.417945" lon="11.1899731"><ele>171.6</ele><time>2026-03-28T13:26:23.025Z</time></trkpt><trkpt lat="43.4179118" lon="11.1900876"><ele>172.39999999999998</ele><time>2026-03-28T13:26:25.025Z</time></trkpt><trkpt lat="43.4178765" lon="11.1902022"><ele>173.2</ele><time>2026-03-28T13:26:27.032Z</time></trkpt><trkpt lat="43.4178245" lon="11.190313"><ele>174.0</ele><time>2026-03-28T13:26:29.019Z</time></trkpt><trkpt lat="43.4177756" lon="11.1904258"><ele>174.0</ele><time>2026-03-28T13:26:31.023Z</time></trkpt><trkpt lat="43.417729" lon="11.1905346"><ele>174.0</ele><time>2026-03-28T13:26:33.023Z</time></trkpt><trkpt lat="43.4176876" lon="11.1906383"><ele>174.0</ele><time>2026-03-28T13:26:35.022Z</time></trkpt><trkpt lat="43.4176503" lon="11.1907421"><ele>174.0</ele><time>2026-03-28T13:26:37.022Z</time></trkpt><trkpt lat="43.4176168" lon="11.1908387"><ele>174.0</ele><time>2026-03-28T13:26:39.018Z</time></trkpt><trkpt lat="43.4175817" lon="11.1909238"><ele>174.0</ele><time>2026-03-28T13:26:41.028Z</time></trkpt><trkpt lat="43.4175409" lon="11.1910201"><ele>174.0</ele><time>2026-03-28T13:26:43.012Z</time></trkpt><trkpt lat="43.4174993" lon="11.1911105"><ele>174.0</ele><time>2026-03-28T13:26:45.028Z</time></trkpt><trkpt lat="43.4174601" lon="11.1912164"><ele>174.0</ele><time>2026-03-28T13:26:47.029Z</time></trkpt><trkpt lat="43.4174136" lon="11.1913383"><ele>174.0</ele><time>2026-03-28T13:26:49.033Z</time></trkpt><trkpt lat="43.417365" lon="11.1914767"><ele>174.0</ele><time>2026-03-28T13:26:51.026Z</time></trkpt><trkpt lat="43.4173343" lon="11.1915548"><ele>174.0</ele><time>2026-03-28T13:26:52.01Z</time></trkpt><trkpt lat="43.4173003" lon="11.1916344"><ele>174.0</ele><time>2026-03-28T13:26:53.021Z</time></trkpt><trkpt lat="43.4172673" lon="11.1917158"><ele>174.0</ele><time>2026-03-28T13:26:54.011Z</time></trkpt><trkpt lat="43.4172371" lon="11.1918004"><ele>174.0</ele><time>2026-03-28T13:26:55.011Z</time></trkpt><trkpt lat="43.4172094" lon="11.1918874"><ele>174.0</ele><time>2026-03-28T13:26:56.004Z</time></trkpt><trkpt lat="43.4171756" lon="11.1919846"><ele>174.0</ele><time>2026-03-28T13:26:57.111Z</time></trkpt><trkpt lat="43.4171377" lon="11.1920864"><ele>174.0</ele><time>2026-03-28T13:26:58.095Z</time></trkpt><trkpt lat="43.4170976" lon="11.1921994"><ele>173.79999999999998</ele><time>2026-03-28T13:26:59.025Z</time></trkpt><trkpt lat="43.4170572" lon="11.1923236"><ele>173.6</ele><time>2026-03-28T13:26:59.998Z</time></trkpt><trkpt lat="43.4170281" lon="11.1924458"><ele>173.4</ele><time>2026-03-28T13:27:01.024Z</time></trkpt><trkpt lat="43.4170026" lon="11.1925614"><ele>173.2</ele><time>2026-03-28T13:27:02.049Z</time></trkpt><trkpt lat="43.4169832" lon="11.1926856"><ele>173.0</ele><time>2026-03-28T13:27:03.012Z</time></trkpt><trkpt lat="43.4169703" lon="11.1928077"><ele>172.60000000000002</ele><time>2026-03-28T13:27:04.026Z</time></trkpt><trkpt lat="43.416958" lon="11.1929251"><ele>172.20000000000002</ele><time>2026-03-28T13:27:05.035Z</time></trkpt><trkpt lat="43.4169474" lon="11.1930428"><ele>171.8</ele><time>2026-03-28T13:27:06.035Z</time></trkpt><trkpt lat="43.4169389" lon="11.1931608"><ele>171.4</ele><time>2026-03-28T13:27:07.094Z</time></trkpt><trkpt lat="43.416914" lon="11.193308"><ele>171.0</ele><time>2026-03-28T13:27:08.06Z</time></trkpt><trkpt lat="43.4168724" lon="11.1934637"><ele>170.5</ele><time>2026-03-28T13:27:09.022Z</time></trkpt><trkpt lat="43.416834" lon="11.1935677"><ele>170.0</ele><time>2026-03-28T13:27:10.022Z</time></trkpt><trkpt lat="43.4167878" lon="11.1936312"><ele>169.5</ele><time>2026-03-28T13:27:11.031Z</time></trkpt><trkpt lat="43.4166903" lon="11.1937324"><ele>169.0</ele><time>2026-03-28T13:27:13.088Z</time></trkpt><trkpt lat="43.416631" lon="11.1937754"><ele>168.5</ele><time>2026-03-28T13:27:14.008Z</time></trkpt><trkpt lat="43.4165757" lon="11.1938205"><ele>168.0</ele><time>2026-03-28T13:27:15.034Z</time></trkpt><trkpt lat="43.4165323" lon="11.1939497"><ele>167.83333333333334</ele><time>2026-03-28T13:27:17.109Z</time></trkpt><trkpt lat="43.4164976" lon="11.1941158"><ele>167.66666666666666</ele><time>2026-03-28T13:27:19.014Z</time></trkpt><trkpt lat="43.4164797" lon="11.1942088"><ele>167.5</ele><time>2026-03-28T13:27:20.028Z</time></trkpt><trkpt lat="43.4164662" lon="11.1942981"><ele>167.33333333333331</ele><time>2026-03-28T13:27:21.096Z</time></trkpt><trkpt lat="43.4164472" lon="11.1943881"><ele>167.16666666666666</ele><time>2026-03-28T13:27:22.093Z</time></trkpt><trkpt lat="43.41642" lon="11.1944809"><ele>167.0</ele><time>2026-03-28T13:27:23.114Z</time></trkpt><trkpt lat="43.4163975" lon="11.1945745"><ele>167.0</ele><time>2026-03-28T13:27:24.035Z</time></trkpt><trkpt lat="43.4164008" lon="11.1946638"><ele>167.0</ele><time>2026-03-28T13:27:25.03Z</time></trkpt><trkpt lat="43.4164704" lon="11.194797"><ele>167.0</ele><time>2026-03-28T13:27:27.1Z</time></trkpt><trkpt lat="43.4165529" lon="11.1949194"><ele>167.0</ele><time>2026-03-28T13:27:29.02Z</time></trkpt><trkpt lat="43.4165922" lon="11.1949949"><ele>167.0</ele><time>2026-03-28T13:27:30.027Z</time></trkpt><trkpt lat="43.4166285" lon="11.1950721"><ele>167.0</ele><time>2026-03-28T13:27:31.086Z</time></trkpt><trkpt lat="43.4166851" lon="11.1952119"><ele>167.66666666666666</ele><time>2026-03-28T13:27:33.098Z</time></trkpt><trkpt lat="43.4167093" lon="11.1954494"><ele>168.33333333333331</ele><time>2026-03-28T13:27:36.028Z</time></trkpt><trkpt lat="43.4167135" lon="11.1955363"><ele>169.0</ele><time>2026-03-28T13:27:38.03Z</time></trkpt><trkpt lat="43.4167089" lon="11.1956328"><ele>169.66666666666666</ele><time>2026-03-28T13:27:40.039Z</time></trkpt><trkpt lat="43.4166959" lon="11.1957213"><ele>170.33333333333334</ele><time>2026-03-28T13:27:42.011Z</time></trkpt><trkpt lat="43.4166814" lon="11.1958083"><ele>171.0</ele><time>2026-03-28T13:27:44.015Z</time></trkpt><trkpt lat="43.4166547" lon="11.195893"><ele>171.5</ele><time>2026-03-28T13:27:46.093Z</time></trkpt><trkpt lat="43.4166117" lon="11.1959859"><ele>172.0</ele><time>2026-03-28T13:27:48.092Z</time></trkpt><trkpt lat="43.4165902" lon="11.1960727"><ele>172.5</ele><time>2026-03-28T13:27:50.035Z</time></trkpt><trkpt lat="43.416553" lon="11.1961899"><ele>173.0</ele><time>2026-03-28T13:27:53.028Z</time></trkpt><trkpt lat="43.416514" lon="11.1963049"><ele>173.5</ele><time>2026-03-28T13:27:56.031Z</time></trkpt><trkpt lat="43.4164879" lon="11.1963841"><ele>174.0</ele><time>2026-03-28T13:27:58.002Z</time></trkpt><trkpt lat="43.4164348" lon="11.1964483"><ele>174.33333333333334</ele><time>2026-03-28T13:28:01.097Z</time></trkpt><trkpt lat="43.4164089" lon="11.1965593"><ele>174.66666666666666</ele><time>2026-03-28T13:28:03.085Z</time></trkpt><trkpt lat="43.416371" lon="11.1966695"><ele>175.0</ele><time>2026-03-28T13:28:05.036Z</time></trkpt><trkpt lat="43.4163441" lon="11.196778"><ele>175.33333333333331</ele><time>2026-03-28T13:28:07.092Z</time></trkpt><trkpt lat="43.4163112" lon="11.1968866"><ele>175.66666666666666</ele><time>2026-03-28T13:28:09.027Z</time></trkpt><trkpt lat="43.4162669" lon="11.1969808"><ele>176.0</ele><time>2026-03-28T13:28:11.102Z</time></trkpt><trkpt lat="43.4162172" lon="11.1970794"><ele>176.0</ele><time>2026-03-28T13:28:13.033Z</time></trkpt><trkpt lat="43.4161699" lon="11.1971494"><ele>176.0</ele><time>2026-03-28T13:28:15.045Z</time></trkpt><trkpt lat="43.4161168" lon="11.1972155"><ele>176.0</ele><time>2026-03-28T13:28:17.021Z</time></trkpt><trkpt lat="43.4160683" lon="11.1972937"><ele>176.0</ele><time>2026-03-28T13:28:19.029Z</time></trkpt><trkpt lat="43.4160206" lon="11.1973712"><ele>176.0</ele><time>2026-03-28T13:28:21.037Z</time></trkpt><trkpt lat="43.4159763" lon="11.1974547"><ele>176.0</ele><time>2026-03-28T13:28:23.029Z</time></trkpt><trkpt lat="43.4159346" lon="11.1975467"><ele>176.0</ele><time>2026-03-28T13:28:25.028Z</time></trkpt><trkpt lat="43.4158963" lon="11.1976331"><ele>176.33333333333331</ele><time>2026-03-28T13:28:27.03Z</time></trkpt><trkpt lat="43.4158485" lon="11.1977176"><ele>176.66666666666666</ele><time>2026-03-28T13:28:29.029Z</time></trkpt><trkpt lat="43.4158028" lon="11.1978078"><ele>177.0</ele><time>2026-03-28T13:28:31.038Z</time></trkpt><trkpt lat="43.415759" lon="11.1979036"><ele>177.33333333333334</ele><time>2026-03-28T13:28:33.09Z</time></trkpt><trkpt lat="43.4157204" lon="11.1980093"><ele>177.66666666666669</ele><time>2026-03-28T13:28:35.021Z</time></trkpt><trkpt lat="43.4156731" lon="11.1981038"><ele>178.0</ele><time>2026-03-28T13:28:37.027Z</time></trkpt><trkpt lat="43.4156271" lon="11.1981995"><ele>178.0</ele><time>2026-03-28T13:28:39.035Z</time></trkpt><trkpt lat="43.4155836" lon="11.1982964"><ele>178.0</ele><time>2026-03-28T13:28:41.098Z</time></trkpt><trkpt lat="43.4155632" lon="11.1984231"><ele>178.0</ele><time>2026-03-28T13:28:43.093Z</time></trkpt><trkpt lat="43.4154892" lon="11.1985601"><ele>178.0</ele><time>2026-03-28T13:28:45.033Z</time></trkpt><trkpt lat="43.4154328" lon="11.1986631"><ele>178.0</ele><time>2026-03-28T13:28:48.085Z</time></trkpt><trkpt lat="43.4153898" lon="11.1987611"><ele>178.83333333333334</ele><time>2026-03-28T13:28:50.017Z</time></trkpt><trkpt lat="43.4153297" lon="11.1988703"><ele>179.66666666666669</ele><time>2026-03-28T13:28:53.022Z</time></trkpt><trkpt lat="43.4152883" lon="11.1989523"><ele>180.5</ele><time>2026-03-28T13:28:55.035Z</time></trkpt><trkpt lat="43.4152762" lon="11.1990638"><ele>181.33333333333334</ele><time>2026-03-28T13:28:58.098Z</time></trkpt><trkpt lat="43.4152799" lon="11.1991536"><ele>182.16666666666666</ele><time>2026-03-28T13:29:00.02Z</time></trkpt><trkpt lat="43.4152684" lon="11.1992532"><ele>183.0</ele><time>2026-03-28T13:29:02.027Z</time></trkpt><trkpt lat="43.4152531" lon="11.1993476"><ele>183.0</ele><time>2026-03-28T13:29:04.036Z</time></trkpt><trkpt lat="43.4152335" lon="11.1994501"><ele>183.0</ele><time>2026-03-28T13:29:06.023Z</time></trkpt><trkpt lat="43.4152177" lon="11.1995708"><ele>183.0</ele><time>2026-03-28T13:29:08.045Z</time></trkpt><trkpt lat="43.4151933" lon="11.1996917"><ele>183.0</ele><time>2026-03-28T13:29:10.032Z</time></trkpt><trkpt lat="43.4151713" lon="11.1998112"><ele>183.0</ele><time>2026-03-28T13:29:12.031Z</time></trkpt><trkpt lat="43.415146" lon="11.1999224"><ele>183.0</ele><time>2026-03-28T13:29:14.027Z</time></trkpt><trkpt lat="43.4151212" lon="11.2000321"><ele>182.66666666666666</ele><time>2026-03-28T13:29:16.038Z</time></trkpt><trkpt lat="43.4150979" lon="11.2001401"><ele>182.33333333333334</ele><time>2026-03-28T13:29:18.097Z</time></trkpt><trkpt lat="43.4150659" lon="11.2002446"><ele>182.0</ele><time>2026-03-28T13:29:20.027Z</time></trkpt><trkpt lat="43.4150325" lon="11.2003506"><ele>181.66666666666669</ele><time>2026-03-28T13:29:22.027Z</time></trkpt><trkpt lat="43.4150004" lon="11.2004553"><ele>181.33333333333334</ele><time>2026-03-28T13:29:24.028Z</time></trkpt><trkpt lat="43.4149638" lon="11.2005599"><ele>181.0</ele><time>2026-03-28T13:29:26.032Z</time></trkpt><trkpt lat="43.4149281" lon="11.200665"><ele>181.16666666666669</ele><time>2026-03-28T13:29:28.105Z</time></trkpt><trkpt lat="43.4148868" lon="11.2007694"><ele>181.33333333333334</ele><time>2026-03-28T13:29:30.029Z</time></trkpt><trkpt lat="43.4148437" lon="11.2008757"><ele>181.5</ele><time>2026-03-28T13:29:32.098Z</time></trkpt><trkpt lat="43.4147948" lon="11.2009689"><ele>181.66666666666666</ele><time>2026-03-28T13:29:34.007Z</time></trkpt><trkpt lat="43.4147423" lon="11.2010703"><ele>181.83333333333331</ele><time>2026-03-28T13:29:36.04Z</time></trkpt><trkpt lat="43.4146807" lon="11.2011695"><ele>182.0</ele><time>2026-03-28T13:29:38.087Z</time></trkpt><trkpt lat="43.414619" lon="11.2012834"><ele>182.33333333333331</ele><time>2026-03-28T13:29:40.034Z</time></trkpt><trkpt lat="43.4145748" lon="11.2013783"><ele>182.66666666666666</ele><time>2026-03-28T13:29:42.089Z</time></trkpt><trkpt lat="43.4145285" lon="11.2014525"><ele>183.0</ele><time>2026-03-28T13:29:44.019Z</time></trkpt><trkpt lat="43.4144801" lon="11.2015437"><ele>183.33333333333334</ele><time>2026-03-28T13:29:46.096Z</time></trkpt><trkpt lat="43.4144237" lon="11.2016353"><ele>183.66666666666669</ele><time>2026-03-28T13:29:48.086Z</time></trkpt><trkpt lat="43.4143733" lon="11.2017327"><ele>184.0</ele><time>2026-03-28T13:29:50.039Z</time></trkpt><trkpt lat="43.4143212" lon="11.201821"><ele>184.0</ele><time>2026-03-28T13:29:52.035Z</time></trkpt><trkpt lat="43.4142667" lon="11.2019103"><ele>184.0</ele><time>2026-03-28T13:29:54.031Z</time></trkpt><trkpt lat="43.4142102" lon="11.2020037"><ele>184.0</ele><time>2026-03-28T13:29:56.038Z</time></trkpt><trkpt lat="43.4141538" lon="11.2020952"><ele>184.0</ele><time>2026-03-28T13:29:58.04Z</time></trkpt><trkpt lat="43.4140929" lon="11.2021806"><ele>184.0</ele><time>2026-03-28T13:30:00.025Z</time></trkpt><trkpt lat="43.4140281" lon="11.2022642"><ele>184.0</ele><time>2026-03-28T13:30:02.037Z</time></trkpt><trkpt lat="43.4139662" lon="11.2023484"><ele>184.0</ele><time>2026-03-28T13:30:04.028Z</time></trkpt><trkpt lat="43.4139" lon="11.2024334"><ele>184.0</ele><time>2026-03-28T13:30:06.029Z</time></trkpt><trkpt lat="43.4138302" lon="11.2025061"><ele>184.0</ele><time>2026-03-28T13:30:08.045Z</time></trkpt><trkpt lat="43.4137679" lon="11.2025799"><ele>184.0</ele><time>2026-03-28T13:30:10.023Z</time></trkpt><trkpt lat="43.4137098" lon="11.2026524"><ele>184.0</ele><time>2026-03-28T13:30:12.028Z</time></trkpt><trkpt lat="43.4136534" lon="11.2027253"><ele>184.0</ele><time>2026-03-28T13:30:14.022Z</time></trkpt><trkpt lat="43.4135967" lon="11.2027919"><ele>184.57142857142858</ele><time>2026-03-28T13:30:16.03Z</time></trkpt><trkpt lat="43.4135411" lon="11.2028543"><ele>185.14285714285714</ele><time>2026-03-28T13:30:18.023Z</time></trkpt><trkpt lat="43.4134851" lon="11.2029177"><ele>185.71428571428572</ele><time>2026-03-28T13:30:20.025Z</time></trkpt><trkpt lat="43.4134299" lon="11.2029851"><ele>186.28571428571428</ele><time>2026-03-28T13:30:22.038Z</time></trkpt><trkpt lat="43.4133746" lon="11.203053"><ele>186.85714285714283</ele><time>2026-03-28T13:30:24.044Z</time></trkpt><trkpt lat="43.4133203" lon="11.2031215"><ele>187.42857142857142</ele><time>2026-03-28T13:30:26.038Z</time></trkpt><trkpt lat="43.4132717" lon="11.2031928"><ele>188.0</ele><time>2026-03-28T13:30:28.086Z</time></trkpt><trkpt lat="43.4131522" lon="11.2033512"><ele>188.0</ele><time>2026-03-28T13:30:32.099Z</time></trkpt><trkpt lat="43.4131062" lon="11.2034475"><ele>188.0</ele><time>2026-03-28T13:30:34.035Z</time></trkpt><trkpt lat="43.4130516" lon="11.2035311"><ele>188.0</ele><time>2026-03-28T13:30:36.029Z</time></trkpt><trkpt lat="43.4129961" lon="11.2035928"><ele>188.0</ele><time>2026-03-28T13:30:38.035Z</time></trkpt><trkpt lat="43.4129448" lon="11.203689"><ele>188.0</ele><time>2026-03-28T13:30:41.022Z</time></trkpt><trkpt lat="43.4129748" lon="11.2037928"><ele>188.0</ele><time>2026-03-28T13:30:43.091Z</time></trkpt><trkpt lat="43.4130306" lon="11.2038879"><ele>187.8</ele><time>2026-03-28T13:30:45.023Z</time></trkpt><trkpt lat="43.4130873" lon="11.2040008"><ele>187.60000000000002</ele><time>2026-03-28T13:30:47.025Z</time></trkpt><trkpt lat="43.413147" lon="11.2041138"><ele>187.39999999999998</ele><time>2026-03-28T13:30:49.038Z</time></trkpt><trkpt lat="43.4132078" lon="11.2042417"><ele>187.2</ele><time>2026-03-28T13:30:51.093Z</time></trkpt><trkpt lat="43.4132543" lon="11.2043737"><ele>187.0</ele><time>2026-03-28T13:30:53.028Z</time></trkpt><trkpt lat="43.4133165" lon="11.2045091"><ele>187.0</ele><time>2026-03-28T13:30:55.026Z</time></trkpt><trkpt lat="43.4133792" lon="11.2046593"><ele>187.0</ele><time>2026-03-28T13:30:57.109Z</time></trkpt><trkpt lat="43.4134104" lon="11.2047346"><ele>187.0</ele><time>2026-03-28T13:30:58.031Z</time></trkpt><trkpt lat="43.4134397" lon="11.2048148"><ele>187.0</ele><time>2026-03-28T13:30:59.02Z</time></trkpt><trkpt lat="43.4134672" lon="11.2048958"><ele>187.0</ele><time>2026-03-28T13:31:00.033Z</time></trkpt><trkpt lat="43.4135212" lon="11.205052"><ele>187.0</ele><time>2026-03-28T13:31:02.035Z</time></trkpt><trkpt lat="43.4135793" lon="11.2052054"><ele>187.0</ele><time>2026-03-28T13:31:04.024Z</time></trkpt><trkpt lat="43.4136111" lon="11.2052808"><ele>187.0</ele><time>2026-03-28T13:31:05.031Z</time></trkpt><trkpt lat="43.4136693" lon="11.2054249"><ele>187.0</ele><time>2026-03-28T13:31:07.11Z</time></trkpt><trkpt lat="43.4136754" lon="11.205515"><ele>187.0</ele><time>2026-03-28T13:31:08.015Z</time></trkpt><trkpt lat="43.413675" lon="11.2056047"><ele>187.0</ele><time>2026-03-28T13:31:09.035Z</time></trkpt><trkpt lat="43.413756" lon="11.2057161"><ele>187.0</ele><time>2026-03-28T13:31:11.029Z</time></trkpt><trkpt lat="43.4138154" lon="11.2058342"><ele>186.8</ele><time>2026-03-28T13:31:13.018Z</time></trkpt><trkpt lat="43.4138688" lon="11.2059611"><ele>186.6</ele><time>2026-03-28T13:31:15.025Z</time></trkpt><trkpt lat="43.413925" lon="11.2060898"><ele>186.4</ele><time>2026-03-28T13:31:17.121Z</time></trkpt><trkpt lat="43.4139723" lon="11.2062201"><ele>186.20000000000002</ele><time>2026-03-28T13:31:19.028Z</time></trkpt><trkpt lat="43.4140194" lon="11.206353"><ele>186.0</ele><time>2026-03-28T13:31:21.027Z</time></trkpt><trkpt lat="43.4140706" lon="11.2064817"><ele>186.0</ele><time>2026-03-28T13:31:23.03Z</time></trkpt><trkpt lat="43.4141224" lon="11.2066159"><ele>186.0</ele><time>2026-03-28T13:31:25.02Z</time></trkpt><trkpt lat="43.4141761" lon="11.2067497"><ele>186.0</ele><time>2026-03-28T13:31:27.093Z</time></trkpt><trkpt lat="43.4142332" lon="11.2068813"><ele>186.0</ele><time>2026-03-28T13:31:29.034Z</time></trkpt><trkpt lat="43.4142872" lon="11.2070152"><ele>186.0</ele><time>2026-03-28T13:31:31.038Z</time></trkpt><trkpt lat="43.4143353" lon="11.2071463"><ele>186.0</ele><time>2026-03-28T13:31:33.035Z</time></trkpt><trkpt lat="43.4143847" lon="11.2072762"><ele>186.0</ele><time>2026-03-28T13:31:35.029Z</time></trkpt><trkpt lat="43.4144388" lon="11.2074068"><ele>186.0</ele><time>2026-03-28T13:31:37.09Z</time></trkpt><trkpt lat="43.4144306" lon="11.2075159"><ele>186.0</ele><time>2026-03-28T13:31:39.04Z</time></trkpt><trkpt lat="43.4144829" lon="11.2076244"><ele>186.0</ele><time>2026-03-28T13:31:41.104Z</time></trkpt><trkpt lat="43.4145258" lon="11.2076887"><ele>186.0</ele><time>2026-03-28T13:31:42.094Z</time></trkpt><trkpt lat="43.4145938" lon="11.2078088"><ele>186.0</ele><time>2026-03-28T13:31:44.038Z</time></trkpt><trkpt lat="43.4146425" lon="11.2079203"><ele>186.0</ele><time>2026-03-28T13:31:46.034Z</time></trkpt><trkpt lat="43.4146853" lon="11.2080184"><ele>186.0</ele><time>2026-03-28T13:31:48.085Z</time></trkpt><trkpt lat="43.4147708" lon="11.2081961"><ele>186.0</ele><time>2026-03-28T13:31:52.031Z</time></trkpt><trkpt lat="43.4148033" lon="11.2082813"><ele>185.83333333333334</ele><time>2026-03-28T13:31:54.043Z</time></trkpt><trkpt lat="43.4148338" lon="11.2083782"><ele>185.66666666666666</ele><time>2026-03-28T13:31:56.019Z</time></trkpt><trkpt lat="43.4148749" lon="11.2084734"><ele>185.5</ele><time>2026-03-28T13:31:58.021Z</time></trkpt><trkpt lat="43.4149118" lon="11.2085682"><ele>185.33333333333331</ele><time>2026-03-28T13:32:00.027Z</time></trkpt><trkpt lat="43.4149466" lon="11.2086699"><ele>185.16666666666666</ele><time>2026-03-28T13:32:02.026Z</time></trkpt><trkpt lat="43.4149817" lon="11.2087725"><ele>185.0</ele><time>2026-03-28T13:32:04.031Z</time></trkpt><trkpt lat="43.4150201" lon="11.2088816"><ele>185.0</ele><time>2026-03-28T13:32:06.032Z</time></trkpt><trkpt lat="43.4150594" lon="11.2089812"><ele>185.0</ele><time>2026-03-28T13:32:08.035Z</time></trkpt><trkpt lat="43.4150988" lon="11.2090731"><ele>185.0</ele><time>2026-03-28T13:32:10.036Z</time></trkpt><trkpt lat="43.415138" lon="11.2091759"><ele>185.0</ele><time>2026-03-28T13:32:12.014Z</time></trkpt><trkpt lat="43.4151797" lon="11.209281"><ele>185.0</ele><time>2026-03-28T13:32:14.024Z</time></trkpt><trkpt lat="43.4152294" lon="11.2094155"><ele>185.0</ele><time>2026-03-28T13:32:16.032Z</time></trkpt><trkpt lat="43.4152921" lon="11.2095547"><ele>184.83333333333331</ele><time>2026-03-28T13:32:18.029Z</time></trkpt><trkpt lat="43.4153532" lon="11.2097073"><ele>184.66666666666666</ele><time>2026-03-28T13:32:20.029Z</time></trkpt><trkpt lat="43.4153845" lon="11.2097879"><ele>184.5</ele><time>2026-03-28T13:32:21.037Z</time></trkpt><trkpt lat="43.4154164" lon="11.2098675"><ele>184.33333333333334</ele><time>2026-03-28T13:32:22.047Z</time></trkpt><trkpt lat="43.4154503" lon="11.2099497"><ele>184.16666666666669</ele><time>2026-03-28T13:32:23.035Z</time></trkpt><trkpt lat="43.4154843" lon="11.2100346"><ele>184.0</ele><time>2026-03-28T13:32:24.028Z</time></trkpt><trkpt lat="43.4155204" lon="11.2101233"><ele>184.0</ele><time>2026-03-28T13:32:25.029Z</time></trkpt><trkpt lat="43.4155532" lon="11.2102185"><ele>184.0</ele><time>2026-03-28T13:32:26.095Z</time></trkpt><trkpt lat="43.415583" lon="11.2103154"><ele>184.0</ele><time>2026-03-28T13:32:27.091Z</time></trkpt><trkpt lat="43.4156141" lon="11.2104099"><ele>184.0</ele><time>2026-03-28T13:32:28.023Z</time></trkpt><trkpt lat="43.4156443" lon="11.2105121"><ele>184.0</ele><time>2026-03-28T13:32:29.033Z</time></trkpt><trkpt lat="43.4156767" lon="11.2106133"><ele>184.0</ele><time>2026-03-28T13:32:30.031Z</time></trkpt><trkpt lat="43.4157206" lon="11.210711"><ele>184.16666666666669</ele><time>2026-03-28T13:32:31.026Z</time></trkpt><trkpt lat="43.4157739" lon="11.210802"><ele>184.33333333333334</ele><time>2026-03-28T13:32:32.024Z</time></trkpt><trkpt lat="43.4158206" lon="11.210901"><ele>184.5</ele><time>2026-03-28T13:32:33.025Z</time></trkpt><trkpt lat="43.415865" lon="11.2110038"><ele>184.66666666666666</ele><time>2026-03-28T13:32:34.032Z</time></trkpt><trkpt lat="43.4159075" lon="11.2111127"><ele>184.83333333333331</ele><time>2026-03-28T13:32:35.035Z</time></trkpt><trkpt lat="43.4159513" lon="11.2112211"><ele>185.0</ele><time>2026-03-28T13:32:36.027Z</time></trkpt><trkpt lat="43.4159965" lon="11.2113318"><ele>185.0</ele><time>2026-03-28T13:32:37.036Z</time></trkpt><trkpt lat="43.4160383" lon="11.2114376"><ele>185.0</ele><time>2026-03-28T13:32:38.023Z</time></trkpt><trkpt lat="43.4160797" lon="11.2115449"><ele>185.0</ele><time>2026-03-28T13:32:39.023Z</time></trkpt><trkpt lat="43.4161221" lon="11.2116525"><ele>185.0</ele><time>2026-03-28T13:32:40.032Z</time></trkpt><trkpt lat="43.4161663" lon="11.2117614"><ele>185.0</ele><time>2026-03-28T13:32:41.01Z</time></trkpt><trkpt lat="43.4162135" lon="11.2118763"><ele>185.0</ele><time>2026-03-28T13:32:42.025Z</time></trkpt><trkpt lat="43.416263" lon="11.2119924"><ele>185.0</ele><time>2026-03-28T13:32:43.1Z</time></trkpt><trkpt lat="43.4163107" lon="11.2121023"><ele>185.0</ele><time>2026-03-28T13:32:44.018Z</time></trkpt><trkpt lat="43.4163606" lon="11.2122185"><ele>185.0</ele><time>2026-03-28T13:32:45.026Z</time></trkpt><trkpt lat="43.4164082" lon="11.2123326"><ele>185.0</ele><time>2026-03-28T13:32:46.039Z</time></trkpt><trkpt lat="43.4164523" lon="11.2124443"><ele>184.16666666666666</ele><time>2026-03-28T13:32:47.027Z</time></trkpt><trkpt lat="43.4164958" lon="11.2125549"><ele>183.33333333333331</ele><time>2026-03-28T13:32:48.027Z</time></trkpt><trkpt lat="43.4165399" lon="11.2126604"><ele>182.5</ele><time>2026-03-28T13:32:49.026Z</time></trkpt><trkpt lat="43.4165821" lon="11.2127631"><ele>181.66666666666666</ele><time>2026-03-28T13:32:50.029Z</time></trkpt><trkpt lat="43.4166244" lon="11.2128653"><ele>180.83333333333334</ele><time>2026-03-28T13:32:51.038Z</time></trkpt><trkpt lat="43.4166667" lon="11.212968"><ele>180.0</ele><time>2026-03-28T13:32:52.033Z</time></trkpt><trkpt lat="43.4167084" lon="11.2130661"><ele>179.83333333333334</ele><time>2026-03-28T13:32:53.032Z</time></trkpt><trkpt lat="43.4167483" lon="11.213161"><ele>179.66666666666666</ele><time>2026-03-28T13:32:54.031Z</time></trkpt><trkpt lat="43.4167881" lon="11.2132578"><ele>179.5</ele><time>2026-03-28T13:32:55.026Z</time></trkpt><trkpt lat="43.4168268" lon="11.2133515"><ele>179.33333333333331</ele><time>2026-03-28T13:32:56.037Z</time></trkpt><trkpt lat="43.4168631" lon="11.2134428"><ele>179.16666666666666</ele><time>2026-03-28T13:32:57.026Z</time></trkpt><trkpt lat="43.4169026" lon="11.2135312"><ele>179.0</ele><time>2026-03-28T13:32:58.091Z</time></trkpt><trkpt lat="43.4169405" lon="11.2136095"><ele>179.00000000000003</ele><time>2026-03-28T13:32:59.025Z</time></trkpt><trkpt lat="43.4169771" lon="11.2136909"><ele>179.0</ele><time>2026-03-28T13:33:00.034Z</time></trkpt><trkpt lat="43.4170105" lon="11.213779"><ele>179.0</ele><time>2026-03-28T13:33:01.052Z</time></trkpt><trkpt lat="43.4170437" lon="11.213854"><ele>179.0</ele><time>2026-03-28T13:33:02.031Z</time></trkpt><trkpt lat="43.4170783" lon="11.2139422"><ele>179.0</ele><time>2026-03-28T13:33:03.11Z</time></trkpt><trkpt lat="43.4171068" lon="11.2140213"><ele>179.00000000000003</ele><time>2026-03-28T13:33:04.025Z</time></trkpt><trkpt lat="43.41714" lon="11.214101"><ele>179.0</ele><time>2026-03-28T13:33:05.031Z</time></trkpt><trkpt lat="43.417173" lon="11.2141758"><ele>178.57142857142858</ele><time>2026-03-28T13:33:06.017Z</time></trkpt><trkpt lat="43.4172088" lon="11.2142556"><ele>178.14285714285714</ele><time>2026-03-28T13:33:07.101Z</time></trkpt><trkpt lat="43.4172398" lon="11.2143319"><ele>177.71428571428572</ele><time>2026-03-28T13:33:08.045Z</time></trkpt><trkpt lat="43.4172712" lon="11.2144139"><ele>177.28571428571428</ele><time>2026-03-28T13:33:09.034Z</time></trkpt><trkpt lat="43.4172971" lon="11.2144981"><ele>176.85714285714286</ele><time>2026-03-28T13:33:10.03Z</time></trkpt><trkpt lat="43.4173278" lon="11.2145748"><ele>176.42857142857144</ele><time>2026-03-28T13:33:11.024Z</time></trkpt><trkpt lat="43.4173643" lon="11.2146611"><ele>176.0</ele><time>2026-03-28T13:33:12.105Z</time></trkpt><trkpt lat="43.4174006" lon="11.2147446"><ele>176.14285714285714</ele><time>2026-03-28T13:33:13.095Z</time></trkpt><trkpt lat="43.4174374" lon="11.214831"><ele>176.28571428571428</ele><time>2026-03-28T13:33:14.035Z</time></trkpt><trkpt lat="43.4174722" lon="11.2149196"><ele>176.42857142857144</ele><time>2026-03-28T13:33:15.023Z</time></trkpt><trkpt lat="43.4175027" lon="11.2150092"><ele>176.57142857142856</ele><time>2026-03-28T13:33:16.036Z</time></trkpt><trkpt lat="43.4175405" lon="11.2150926"><ele>176.7142857142857</ele><time>2026-03-28T13:33:17.01Z</time></trkpt><trkpt lat="43.4175782" lon="11.2151756"><ele>176.85714285714286</ele><time>2026-03-28T13:33:18.108Z</time></trkpt><trkpt lat="43.4176114" lon="11.2152622"><ele>177.0</ele><time>2026-03-28T13:33:19.01Z</time></trkpt><trkpt lat="43.4176474" lon="11.2153485"><ele>177.0</ele><time>2026-03-28T13:33:20.043Z</time></trkpt><trkpt lat="43.4176845" lon="11.2154318"><ele>177.0</ele><time>2026-03-28T13:33:21.008Z</time></trkpt><trkpt lat="43.4177204" lon="11.215519"><ele>177.0</ele><time>2026-03-28T13:33:22.037Z</time></trkpt><trkpt lat="43.417753" lon="11.2156072"><ele>177.0</ele><time>2026-03-28T13:33:23.033Z</time></trkpt><trkpt lat="43.4177862" lon="11.2156959"><ele>177.0</ele><time>2026-03-28T13:33:24.032Z</time></trkpt><trkpt lat="43.4178179" lon="11.2157822"><ele>177.0</ele><time>2026-03-28T13:33:25.028Z</time></trkpt><trkpt lat="43.417851" lon="11.2158621"><ele>177.0</ele><time>2026-03-28T13:33:26.02Z</time></trkpt><trkpt lat="43.4178836" lon="11.2159427"><ele>177.39999999999998</ele><time>2026-03-28T13:33:27.093Z</time></trkpt><trkpt lat="43.4179401" lon="11.2160846"><ele>177.79999999999998</ele><time>2026-03-28T13:33:29.016Z</time></trkpt><trkpt lat="43.4179962" lon="11.2162136"><ele>178.2</ele><time>2026-03-28T13:33:31.033Z</time></trkpt><trkpt lat="43.4180396" lon="11.216333"><ele>178.6</ele><time>2026-03-28T13:33:33.026Z</time></trkpt><trkpt lat="43.4180823" lon="11.216439"><ele>179.0</ele><time>2026-03-28T13:33:35.028Z</time></trkpt><trkpt lat="43.4181168" lon="11.2165437"><ele>180.2</ele><time>2026-03-28T13:33:37.091Z</time></trkpt><trkpt lat="43.4181525" lon="11.216642"><ele>181.39999999999998</ele><time>2026-03-28T13:33:39.031Z</time></trkpt><trkpt lat="43.4182209" lon="11.2168435"><ele>182.6</ele><time>2026-03-28T13:33:43.087Z</time></trkpt><trkpt lat="43.418268" lon="11.2169128"><ele>183.8</ele><time>2026-03-28T13:33:44.019Z</time></trkpt><trkpt lat="43.4183058" lon="11.2170036"><ele>185.0</ele><time>2026-03-28T13:33:46.085Z</time></trkpt><trkpt lat="43.4183379" lon="11.2171058"><ele>185.0</ele><time>2026-03-28T13:33:48.096Z</time></trkpt><trkpt lat="43.4183616" lon="11.2172035"><ele>185.0</ele><time>2026-03-28T13:33:50.038Z</time></trkpt><trkpt lat="43.4184006" lon="11.2173294"><ele>185.0</ele><time>2026-03-28T13:33:53.087Z</time></trkpt><trkpt lat="43.4184404" lon="11.217412"><ele>185.0</ele><time>2026-03-28T13:33:55.027Z</time></trkpt><trkpt lat="43.4184742" lon="11.2175007"><ele>185.0</ele><time>2026-03-28T13:33:57.106Z</time></trkpt><trkpt lat="43.4185003" lon="11.2175888"><ele>185.0</ele><time>2026-03-28T13:33:59.064Z</time></trkpt><trkpt lat="43.4185279" lon="11.2176747"><ele>185.5</ele><time>2026-03-28T13:34:01.024Z</time></trkpt><trkpt lat="43.418558" lon="11.2177579"><ele>186.0</ele><time>2026-03-28T13:34:03.031Z</time></trkpt><trkpt lat="43.4185887" lon="11.2178366"><ele>186.5</ele><time>2026-03-28T13:34:05.025Z</time></trkpt><trkpt lat="43.4186281" lon="11.2179452"><ele>187.0</ele><time>2026-03-28T13:34:08.023Z</time></trkpt><trkpt lat="43.4186719" lon="11.2180592"><ele>187.5</ele><time>2026-03-28T13:34:11.016Z</time></trkpt><trkpt lat="43.4187047" lon="11.2181351"><ele>188.0</ele><time>2026-03-28T13:34:13.033Z</time></trkpt><trkpt lat="43.4187511" lon="11.2182442"><ele>188.5</ele><time>2026-03-28T13:34:16.036Z</time></trkpt><trkpt lat="43.4187995" lon="11.2183463"><ele>189.0</ele><time>2026-03-28T13:34:19.032Z</time></trkpt><trkpt lat="43.4188493" lon="11.2184435"><ele>189.5</ele><time>2026-03-28T13:34:22.019Z</time></trkpt><trkpt lat="43.4189064" lon="11.2185466"><ele>190.0</ele><time>2026-03-28T13:34:25.046Z</time></trkpt><trkpt lat="43.4189602" lon="11.2186216"><ele>190.5</ele><time>2026-03-28T13:34:28.088Z</time></trkpt><trkpt lat="43.4190268" lon="11.2186899"><ele>191.0</ele><time>2026-03-28T13:34:31.109Z</time></trkpt><trkpt lat="43.4190721" lon="11.2187687"><ele>191.0</ele><time>2026-03-28T13:34:33.093Z</time></trkpt><trkpt lat="43.4191372" lon="11.2188215"><ele>191.0</ele><time>2026-03-28T13:34:35.03Z</time></trkpt><trkpt lat="43.4191859" lon="11.2188824"><ele>191.0</ele><time>2026-03-28T13:34:37.092Z</time></trkpt><trkpt lat="43.4192152" lon="11.2189683"><ele>191.0</ele><time>2026-03-28T13:34:39.01Z</time></trkpt><trkpt lat="43.4192539" lon="11.2190487"><ele>191.0</ele><time>2026-03-28T13:34:41.097Z</time></trkpt><trkpt lat="43.4192732" lon="11.2191452"><ele>191.0</ele><time>2026-03-28T13:34:43.094Z</time></trkpt><trkpt lat="43.4193171" lon="11.2192468"><ele>191.0</ele><time>2026-03-28T13:34:47.018Z</time></trkpt><trkpt lat="43.4193968" lon="11.2193125"><ele>191.33333333333331</ele><time>2026-03-28T13:34:48.008Z</time></trkpt><trkpt lat="43.419441" lon="11.2194148"><ele>191.66666666666666</ele><time>2026-03-28T13:34:51.014Z</time></trkpt><trkpt lat="43.4194883" lon="11.2195232"><ele>192.0</ele><time>2026-03-28T13:34:54.018Z</time></trkpt><trkpt lat="43.4195255" lon="11.2196419"><ele>192.33333333333331</ele><time>2026-03-28T13:34:57.026Z</time></trkpt><trkpt lat="43.4195489" lon="11.21976"><ele>192.66666666666666</ele><time>2026-03-28T13:35:00.014Z</time></trkpt><trkpt lat="43.4195683" lon="11.2198444"><ele>193.0</ele><time>2026-03-28T13:35:02.017Z</time></trkpt><trkpt lat="43.4195846" lon="11.2199329"><ele>193.16666666666666</ele><time>2026-03-28T13:35:04.011Z</time></trkpt><trkpt lat="43.4195995" lon="11.2200219"><ele>193.33333333333331</ele><time>2026-03-28T13:35:06.015Z</time></trkpt><trkpt lat="43.419624" lon="11.2201084"><ele>193.5</ele><time>2026-03-28T13:35:08.009Z</time></trkpt><trkpt lat="43.4196562" lon="11.2201875"><ele>193.66666666666669</ele><time>2026-03-28T13:35:10.011Z</time></trkpt><trkpt lat="43.4196756" lon="11.2203559"><ele>193.83333333333334</ele><time>2026-03-28T13:35:14.018Z</time></trkpt><trkpt lat="43.419681" lon="11.2204508"><ele>194.0</ele><time>2026-03-28T13:35:16.016Z</time></trkpt><trkpt lat="43.4196876" lon="11.2205374"><ele>194.0</ele><time>2026-03-28T13:35:18.014Z</time></trkpt><trkpt lat="43.419696" lon="11.220632"><ele>194.0</ele><time>2026-03-28T13:35:20.022Z</time></trkpt><trkpt lat="43.4197048" lon="11.2207219"><ele>194.0</ele><time>2026-03-28T13:35:22.014Z</time></trkpt><trkpt lat="43.4197125" lon="11.2208081"><ele>194.0</ele><time>2026-03-28T13:35:24.019Z</time></trkpt><trkpt lat="43.4197235" lon="11.2208971"><ele>194.0</ele><time>2026-03-28T13:35:25.995Z</time></trkpt><trkpt lat="43.4197349" lon="11.2209838"><ele>194.0</ele><time>2026-03-28T13:35:28.095Z</time></trkpt><trkpt lat="43.4197581" lon="11.2211058"><ele>194.0</ele><time>2026-03-28T13:35:31.026Z</time></trkpt><trkpt lat="43.4197726" lon="11.2211922"><ele>194.57142857142856</ele><time>2026-03-28T13:35:33.018Z</time></trkpt><trkpt lat="43.4197871" lon="11.2212809"><ele>195.14285714285717</ele><time>2026-03-28T13:35:35.014Z</time></trkpt><trkpt lat="43.419818" lon="11.221386"><ele>195.71428571428572</ele><time>2026-03-28T13:35:38.02Z</time></trkpt><trkpt lat="43.4198398" lon="11.2214694"><ele>196.28571428571428</ele><time>2026-03-28T13:35:40.017Z</time></trkpt><trkpt lat="43.4198629" lon="11.2215642"><ele>196.85714285714283</ele><time>2026-03-28T13:35:42.021Z</time></trkpt><trkpt lat="43.419884" lon="11.2216507"><ele>197.42857142857144</ele><time>2026-03-28T13:35:44.02Z</time></trkpt><trkpt lat="43.419911" lon="11.221734"><ele>198.0</ele><time>2026-03-28T13:35:46.019Z</time></trkpt><trkpt lat="43.4199508" lon="11.2218482"><ele>198.33333333333334</ele><time>2026-03-28T13:35:49.019Z</time></trkpt><trkpt lat="43.4199938" lon="11.2219292"><ele>198.66666666666669</ele><time>2026-03-28T13:35:51.026Z</time></trkpt><trkpt lat="43.4200364" lon="11.222023"><ele>199.0</ele><time>2026-03-28T13:35:52.999Z</time></trkpt><trkpt lat="43.4200799" lon="11.2221084"><ele>199.33333333333334</ele><time>2026-03-28T13:35:55.02Z</time></trkpt><trkpt lat="43.4201262" lon="11.2221904"><ele>199.66666666666669</ele><time>2026-03-28T13:35:57.091Z</time></trkpt><trkpt lat="43.4201794" lon="11.2222722"><ele>200.0</ele><time>2026-03-28T13:36:00.012Z</time></trkpt><trkpt lat="43.4202252" lon="11.2223434"><ele>200.0</ele><time>2026-03-28T13:36:01.992Z</time></trkpt><trkpt lat="43.4202716" lon="11.2224492"><ele>200.0</ele><time>2026-03-28T13:36:04.023Z</time></trkpt><trkpt lat="43.4203367" lon="11.2225342"><ele>200.0</ele><time>2026-03-28T13:36:06.085Z</time></trkpt><trkpt lat="43.4204038" lon="11.2226098"><ele>200.0</ele><time>2026-03-28T13:36:07.991Z</time></trkpt><trkpt lat="43.4204863" lon="11.2226719"><ele>200.0</ele><time>2026-03-28T13:36:10.012Z</time></trkpt><trkpt lat="43.4205572" lon="11.222751"><ele>200.00000000000003</ele><time>2026-03-28T13:36:12.111Z</time></trkpt><trkpt lat="43.420612" lon="11.2228367"><ele>200.0</ele><time>2026-03-28T13:36:14.012Z</time></trkpt><trkpt lat="43.4206761" lon="11.2229259"><ele>200.0</ele><time>2026-03-28T13:36:16.019Z</time></trkpt><trkpt lat="43.4207407" lon="11.2230088"><ele>200.0</ele><time>2026-03-28T13:36:18.026Z</time></trkpt><trkpt lat="43.4208006" lon="11.2231069"><ele>200.00000000000003</ele><time>2026-03-28T13:36:20.021Z</time></trkpt><trkpt lat="43.4208601" lon="11.2231997"><ele>200.0</ele><time>2026-03-28T13:36:22.088Z</time></trkpt><trkpt lat="43.4209264" lon="11.2232802"><ele>200.4</ele><time>2026-03-28T13:36:24.028Z</time></trkpt><trkpt lat="43.4209938" lon="11.2233561"><ele>200.8</ele><time>2026-03-28T13:36:26.013Z</time></trkpt><trkpt lat="43.4210408" lon="11.2234581"><ele>201.2</ele><time>2026-03-28T13:36:28.031Z</time></trkpt><trkpt lat="43.4210938" lon="11.2235703"><ele>201.6</ele><time>2026-03-28T13:36:30.018Z</time></trkpt><trkpt lat="43.4211459" lon="11.2236845"><ele>202.0</ele><time>2026-03-28T13:36:32.014Z</time></trkpt><trkpt lat="43.4211914" lon="11.2238146"><ele>202.0</ele><time>2026-03-28T13:36:34.016Z</time></trkpt><trkpt lat="43.421234" lon="11.2239392"><ele>202.0</ele><time>2026-03-28T13:36:36.007Z</time></trkpt><trkpt lat="43.4212875" lon="11.2240671"><ele>202.0</ele><time>2026-03-28T13:36:37.995Z</time></trkpt><trkpt lat="43.4213504" lon="11.2242089"><ele>202.0</ele><time>2026-03-28T13:36:40.011Z</time></trkpt><trkpt lat="43.4213858" lon="11.2243155"><ele>202.0</ele><time>2026-03-28T13:36:42.089Z</time></trkpt><trkpt lat="43.4214217" lon="11.2244103"><ele>201.66666666666666</ele><time>2026-03-28T13:36:44.023Z</time></trkpt><trkpt lat="43.4214623" lon="11.2245446"><ele>201.33333333333331</ele><time>2026-03-28T13:36:46.021Z</time></trkpt><trkpt lat="43.4214803" lon="11.2246325"><ele>201.0</ele><time>2026-03-28T13:36:47.009Z</time></trkpt><trkpt lat="43.421495" lon="11.2247185"><ele>200.66666666666669</ele><time>2026-03-28T13:36:48.113Z</time></trkpt><trkpt lat="43.4215302" lon="11.2248761"><ele>200.33333333333334</ele><time>2026-03-28T13:36:50.027Z</time></trkpt><trkpt lat="43.4215474" lon="11.2249599"><ele>200.0</ele><time>2026-03-28T13:36:51.026Z</time></trkpt><trkpt lat="43.4215659" lon="11.225043"><ele>199.75</ele><time>2026-03-28T13:36:52.088Z</time></trkpt><trkpt lat="43.4215988" lon="11.2251704"><ele>199.5</ele><time>2026-03-28T13:36:54.031Z</time></trkpt><trkpt lat="43.4216458" lon="11.2253184"><ele>199.25</ele><time>2026-03-28T13:36:56.015Z</time></trkpt><trkpt lat="43.4216815" lon="11.2254623"><ele>199.0</ele><time>2026-03-28T13:36:58.085Z</time></trkpt><trkpt lat="43.4217114" lon="11.225634"><ele>198.85714285714283</ele><time>2026-03-28T13:37:00.019Z</time></trkpt><trkpt lat="43.4217383" lon="11.2257343"><ele>198.71428571428572</ele><time>2026-03-28T13:37:01.03Z</time></trkpt><trkpt lat="43.4217606" lon="11.2258313"><ele>198.57142857142856</ele><time>2026-03-28T13:37:02.021Z</time></trkpt><trkpt lat="43.4217799" lon="11.2259251"><ele>198.42857142857142</ele><time>2026-03-28T13:37:03.013Z</time></trkpt><trkpt lat="43.421805" lon="11.2260169"><ele>198.28571428571428</ele><time>2026-03-28T13:37:04.04Z</time></trkpt><trkpt lat="43.4218273" lon="11.2261021"><ele>198.14285714285714</ele><time>2026-03-28T13:37:05.022Z</time></trkpt><trkpt lat="43.4218483" lon="11.2261863"><ele>198.0</ele><time>2026-03-28T13:37:06.038Z</time></trkpt><trkpt lat="43.4218813" lon="11.2263476"><ele>197.5</ele><time>2026-03-28T13:37:08.001Z</time></trkpt><trkpt lat="43.4219202" lon="11.2265076"><ele>197.0</ele><time>2026-03-28T13:37:10.024Z</time></trkpt><trkpt lat="43.4219588" lon="11.2266627"><ele>196.5</ele><time>2026-03-28T13:37:12.029Z</time></trkpt><trkpt lat="43.422003" lon="11.2268136"><ele>196.0</ele><time>2026-03-28T13:37:14.029Z</time></trkpt><trkpt lat="43.4220473" lon="11.2269736"><ele>196.0</ele><time>2026-03-28T13:37:16.028Z</time></trkpt><trkpt lat="43.4220773" lon="11.2271419"><ele>196.0</ele><time>2026-03-28T13:37:18.12Z</time></trkpt><trkpt lat="43.4221088" lon="11.2273046"><ele>196.0</ele><time>2026-03-28T13:37:20.03Z</time></trkpt><trkpt lat="43.4221271" lon="11.227391"><ele>196.0</ele><time>2026-03-28T13:37:21.102Z</time></trkpt><trkpt lat="43.4221777" lon="11.2275592"><ele>196.0</ele><time>2026-03-28T13:37:23.029Z</time></trkpt><trkpt lat="43.4222169" lon="11.2276536"><ele>196.33333333333331</ele><time>2026-03-28T13:37:24.009Z</time></trkpt><trkpt lat="43.4222417" lon="11.2277355"><ele>196.66666666666666</ele><time>2026-03-28T13:37:25.031Z</time></trkpt><trkpt lat="43.4222828" lon="11.2278828"><ele>197.0</ele><time>2026-03-28T13:37:27.026Z</time></trkpt><trkpt lat="43.422304" lon="11.2279645"><ele>197.33333333333331</ele><time>2026-03-28T13:37:28.091Z</time></trkpt><trkpt lat="43.4223437" lon="11.228123"><ele>197.66666666666666</ele><time>2026-03-28T13:37:30.033Z</time></trkpt><trkpt lat="43.4223631" lon="11.2282066"><ele>198.0</ele><time>2026-03-28T13:37:31.041Z</time></trkpt><trkpt lat="43.4223854" lon="11.2282884"><ele>198.0</ele><time>2026-03-28T13:37:32.014Z</time></trkpt><trkpt lat="43.4224111" lon="11.2283748"><ele>198.0</ele><time>2026-03-28T13:37:33.096Z</time></trkpt><trkpt lat="43.4224379" lon="11.2284566"><ele>198.0</ele><time>2026-03-28T13:37:34.02Z</time></trkpt><trkpt lat="43.4224662" lon="11.2285443"><ele>198.0</ele><time>2026-03-28T13:37:35.02Z</time></trkpt><trkpt lat="43.4224933" lon="11.2286305"><ele>198.0</ele><time>2026-03-28T13:37:36.027Z</time></trkpt><trkpt lat="43.4225181" lon="11.2287169"><ele>198.0</ele><time>2026-03-28T13:37:37.097Z</time></trkpt><trkpt lat="43.4225627" lon="11.2288739"><ele>197.66666666666666</ele><time>2026-03-28T13:37:39.024Z</time></trkpt><trkpt lat="43.4226212" lon="11.2290302"><ele>197.33333333333331</ele><time>2026-03-28T13:37:41.029Z</time></trkpt><trkpt lat="43.4226515" lon="11.2291212"><ele>197.0</ele><time>2026-03-28T13:37:42.037Z</time></trkpt><trkpt lat="43.422684" lon="11.2292149"><ele>196.66666666666666</ele><time>2026-03-28T13:37:43.026Z</time></trkpt><trkpt lat="43.4227132" lon="11.2293016"><ele>196.33333333333331</ele><time>2026-03-28T13:37:44.04Z</time></trkpt><trkpt lat="43.4227413" lon="11.2293847"><ele>196.0</ele><time>2026-03-28T13:37:45.026Z</time></trkpt><trkpt lat="43.4227709" lon="11.2294661"><ele>195.99999999999997</ele><time>2026-03-28T13:37:46.028Z</time></trkpt><trkpt lat="43.4227999" lon="11.229547"><ele>196.0</ele><time>2026-03-28T13:37:47.026Z</time></trkpt><trkpt lat="43.4228265" lon="11.2296295"><ele>196.0</ele><time>2026-03-28T13:37:48.037Z</time></trkpt><trkpt lat="43.4228524" lon="11.2297098"><ele>196.0</ele><time>2026-03-28T13:37:49.04Z</time></trkpt><trkpt lat="43.422905" lon="11.2298693"><ele>195.99999999999997</ele><time>2026-03-28T13:37:51.033Z</time></trkpt><trkpt lat="43.4229308" lon="11.2299528"><ele>196.0</ele><time>2026-03-28T13:37:52.036Z</time></trkpt><trkpt lat="43.4229565" lon="11.2300341"><ele>196.14285714285714</ele><time>2026-03-28T13:37:53.026Z</time></trkpt><trkpt lat="43.4229817" lon="11.2301154"><ele>196.28571428571428</ele><time>2026-03-28T13:37:54.048Z</time></trkpt><trkpt lat="43.4230076" lon="11.2301955"><ele>196.42857142857144</ele><time>2026-03-28T13:37:55.035Z</time></trkpt><trkpt lat="43.4230348" lon="11.2302787"><ele>196.57142857142856</ele><time>2026-03-28T13:37:56.023Z</time></trkpt><trkpt lat="43.4230611" lon="11.2303596"><ele>196.71428571428572</ele><time>2026-03-28T13:37:57.023Z</time></trkpt><trkpt lat="43.4230887" lon="11.2304429"><ele>196.85714285714286</ele><time>2026-03-28T13:37:58.03Z</time></trkpt><trkpt lat="43.4231146" lon="11.2305238"><ele>197.0</ele><time>2026-03-28T13:37:59.04Z</time></trkpt><trkpt lat="43.4231433" lon="11.2306062"><ele>196.83333333333334</ele><time>2026-03-28T13:38:00.033Z</time></trkpt><trkpt lat="43.4231713" lon="11.2306892"><ele>196.66666666666669</ele><time>2026-03-28T13:38:01.036Z</time></trkpt><trkpt lat="43.4232292" lon="11.2308426"><ele>196.5</ele><time>2026-03-28T13:38:03.019Z</time></trkpt><trkpt lat="43.4232749" lon="11.2309972"><ele>196.33333333333331</ele><time>2026-03-28T13:38:05.023Z</time></trkpt><trkpt lat="43.4233035" lon="11.2310798"><ele>196.16666666666666</ele><time>2026-03-28T13:38:06.012Z</time></trkpt><trkpt lat="43.4233319" lon="11.23116"><ele>196.0</ele><time>2026-03-28T13:38:07.033Z</time></trkpt><trkpt lat="43.4233559" lon="11.2312414"><ele>195.99999999999997</ele><time>2026-03-28T13:38:08.014Z</time></trkpt><trkpt lat="43.4233822" lon="11.2313285"><ele>196.0</ele><time>2026-03-28T13:38:09.021Z</time></trkpt><trkpt lat="43.4234099" lon="11.2314112"><ele>196.0</ele><time>2026-03-28T13:38:10.021Z</time></trkpt><trkpt lat="43.4234363" lon="11.2314917"><ele>196.0</ele><time>2026-03-28T13:38:11.028Z</time></trkpt><trkpt lat="43.4234849" lon="11.2316539"><ele>195.99999999999997</ele><time>2026-03-28T13:38:13.096Z</time></trkpt><trkpt lat="43.4235269" lon="11.231806"><ele>196.0</ele><time>2026-03-28T13:38:15.037Z</time></trkpt><trkpt lat="43.423578" lon="11.2319681"><ele>195.8</ele><time>2026-03-28T13:38:17.016Z</time></trkpt><trkpt lat="43.4236085" lon="11.2320487"><ele>195.60000000000002</ele><time>2026-03-28T13:38:18.112Z</time></trkpt><trkpt lat="43.4236635" lon="11.2322119"><ele>195.4</ele><time>2026-03-28T13:38:20.03Z</time></trkpt><trkpt lat="43.4236927" lon="11.2322949"><ele>195.2</ele><time>2026-03-28T13:38:21.026Z</time></trkpt><trkpt lat="43.4237216" lon="11.2323772"><ele>195.0</ele><time>2026-03-28T13:38:22.091Z</time></trkpt><trkpt lat="43.4237727" lon="11.2325337"><ele>195.33333333333334</ele><time>2026-03-28T13:38:24.021Z</time></trkpt><trkpt lat="43.4237988" lon="11.2326138"><ele>195.66666666666669</ele><time>2026-03-28T13:38:25.02Z</time></trkpt><trkpt lat="43.4238257" lon="11.2326947"><ele>196.0</ele><time>2026-03-28T13:38:26.028Z</time></trkpt><trkpt lat="43.4238536" lon="11.2327756"><ele>196.33333333333334</ele><time>2026-03-28T13:38:27.025Z</time></trkpt><trkpt lat="43.4238814" lon="11.2328534"><ele>196.66666666666669</ele><time>2026-03-28T13:38:28.004Z</time></trkpt><trkpt lat="43.4239355" lon="11.2330063"><ele>197.0</ele><time>2026-03-28T13:38:30.002Z</time></trkpt><trkpt lat="43.4239912" lon="11.2331593"><ele>197.39999999999998</ele><time>2026-03-28T13:38:32.01Z</time></trkpt><trkpt lat="43.4240458" lon="11.2333139"><ele>197.79999999999998</ele><time>2026-03-28T13:38:34.034Z</time></trkpt><trkpt lat="43.4241028" lon="11.2334663"><ele>198.2</ele><time>2026-03-28T13:38:36.039Z</time></trkpt><trkpt lat="43.424132" lon="11.2335469"><ele>198.6</ele><time>2026-03-28T13:38:37.099Z</time></trkpt><trkpt lat="43.424156" lon="11.2336323"><ele>199.0</ele><time>2026-03-28T13:38:38.017Z</time></trkpt><trkpt lat="43.4241803" lon="11.2337232"><ele>199.0</ele><time>2026-03-28T13:38:39.015Z</time></trkpt><trkpt lat="43.4242336" lon="11.2338612"><ele>199.0</ele><time>2026-03-28T13:38:41.034Z</time></trkpt><trkpt lat="43.4242805" lon="11.233996"><ele>199.0</ele><time>2026-03-28T13:38:43.093Z</time></trkpt><trkpt lat="43.4243307" lon="11.2341343"><ele>199.0</ele><time>2026-03-28T13:38:45.032Z</time></trkpt><trkpt lat="43.4243801" lon="11.2342725"><ele>199.0</ele><time>2026-03-28T13:38:47.026Z</time></trkpt><trkpt lat="43.4244192" lon="11.2344002"><ele>198.79999999999998</ele><time>2026-03-28T13:38:49.024Z</time></trkpt><trkpt lat="43.4244604" lon="11.2345447"><ele>198.6</ele><time>2026-03-28T13:38:51.099Z</time></trkpt><trkpt lat="43.4245038" lon="11.2346808"><ele>198.4</ele><time>2026-03-28T13:38:53.013Z</time></trkpt><trkpt lat="43.4245516" lon="11.2348272"><ele>198.2</ele><time>2026-03-28T13:38:55.024Z</time></trkpt><trkpt lat="43.4245849" lon="11.2349738"><ele>198.0</ele><time>2026-03-28T13:38:57.026Z</time></trkpt><trkpt lat="43.4245979" lon="11.2351217"><ele>197.8</ele><time>2026-03-28T13:38:59.032Z</time></trkpt><trkpt lat="43.4246101" lon="11.2352785"><ele>197.60000000000002</ele><time>2026-03-28T13:39:01.022Z</time></trkpt><trkpt lat="43.4246143" lon="11.2354248"><ele>197.39999999999998</ele><time>2026-03-28T13:39:03.023Z</time></trkpt><trkpt lat="43.4245979" lon="11.2355624"><ele>197.2</ele><time>2026-03-28T13:39:05.024Z</time></trkpt><trkpt lat="43.4245718" lon="11.2357056"><ele>197.0</ele><time>2026-03-28T13:39:07.104Z</time></trkpt><trkpt lat="43.4245165" lon="11.2358315"><ele>197.39999999999998</ele><time>2026-03-28T13:39:09.029Z</time></trkpt><trkpt lat="43.4244801" lon="11.2359536"><ele>197.79999999999998</ele><time>2026-03-28T13:39:11.028Z</time></trkpt><trkpt lat="43.4244388" lon="11.2360765"><ele>198.2</ele><time>2026-03-28T13:39:13.035Z</time></trkpt><trkpt lat="43.4243877" lon="11.2362069"><ele>198.6</ele><time>2026-03-28T13:39:15.034Z</time></trkpt><trkpt lat="43.4243341" lon="11.2363351"><ele>199.0</ele><time>2026-03-28T13:39:17.001Z</time></trkpt><trkpt lat="43.4242842" lon="11.2364629"><ele>199.25</ele><time>2026-03-28T13:39:19.035Z</time></trkpt><trkpt lat="43.4242363" lon="11.2365892"><ele>199.5</ele><time>2026-03-28T13:39:21.038Z</time></trkpt><trkpt lat="43.424185" lon="11.2367146"><ele>199.75</ele><time>2026-03-28T13:39:23.095Z</time></trkpt><trkpt lat="43.4241008" lon="11.2369635"><ele>200.0</ele><time>2026-03-28T13:39:27.095Z</time></trkpt><trkpt lat="43.4240685" lon="11.2370558"><ele>200.0</ele><time>2026-03-28T13:39:29.01Z</time></trkpt><trkpt lat="43.424041" lon="11.237181"><ele>200.0</ele><time>2026-03-28T13:39:31.093Z</time></trkpt><trkpt lat="43.4240088" lon="11.23731"><ele>200.0</ele><time>2026-03-28T13:39:33.09Z</time></trkpt><trkpt lat="43.423947" lon="11.2374157"><ele>200.0</ele><time>2026-03-28T13:39:35.018Z</time></trkpt><trkpt lat="43.4239587" lon="11.2375492"><ele>200.0</ele><time>2026-03-28T13:39:37.093Z</time></trkpt><trkpt lat="43.4239524" lon="11.2376692"><ele>200.14285714285717</ele><time>2026-03-28T13:39:39.02Z</time></trkpt><trkpt lat="43.4239515" lon="11.2377635"><ele>200.28571428571428</ele><time>2026-03-28T13:39:41.033Z</time></trkpt><trkpt lat="43.423963" lon="11.2378707"><ele>200.42857142857144</ele><time>2026-03-28T13:39:43.095Z</time></trkpt><trkpt lat="43.4239653" lon="11.2379685"><ele>200.57142857142858</ele><time>2026-03-28T13:39:45.027Z</time></trkpt><trkpt lat="43.4239677" lon="11.2380724"><ele>200.71428571428572</ele><time>2026-03-28T13:39:47.027Z</time></trkpt><trkpt lat="43.4239767" lon="11.2381714"><ele>200.85714285714286</ele><time>2026-03-28T13:39:49.041Z</time></trkpt><trkpt lat="43.4239865" lon="11.2382702"><ele>201.0</ele><time>2026-03-28T13:39:51.008Z</time></trkpt><trkpt lat="43.4240039" lon="11.2383625"><ele>201.16666666666666</ele><time>2026-03-28T13:39:53.028Z</time></trkpt><trkpt lat="43.4240252" lon="11.2384514"><ele>201.33333333333331</ele><time>2026-03-28T13:39:55.004Z</time></trkpt><trkpt lat="43.4240463" lon="11.2385371"><ele>201.5</ele><time>2026-03-28T13:39:57.045Z</time></trkpt><trkpt lat="43.4240751" lon="11.2386562"><ele>201.66666666666666</ele><time>2026-03-28T13:40:00.026Z</time></trkpt><trkpt lat="43.424098" lon="11.2387469"><ele>201.83333333333331</ele><time>2026-03-28T13:40:02.024Z</time></trkpt><trkpt lat="43.4241395" lon="11.2388347"><ele>202.0</ele><time>2026-03-28T13:40:05.03Z</time></trkpt><trkpt lat="43.4241797" lon="11.2389311"><ele>202.99999999999997</ele><time>2026-03-28T13:40:08.036Z</time></trkpt><trkpt lat="43.4242213" lon="11.2389971"><ele>204.0</ele><time>2026-03-28T13:40:11.027Z</time></trkpt><trkpt lat="43.4242698" lon="11.2391047"><ele>205.0</ele><time>2026-03-28T13:40:14.029Z</time></trkpt><trkpt lat="43.4243178" lon="11.2392093"><ele>206.0</ele><time>2026-03-28T13:40:17.039Z</time></trkpt><trkpt lat="43.4243635" lon="11.2392789"><ele>206.99999999999997</ele><time>2026-03-28T13:40:20.014Z</time></trkpt><trkpt lat="43.4244184" lon="11.2393613"><ele>208.0</ele><time>2026-03-28T13:40:23.092Z</time></trkpt><trkpt lat="43.4244689" lon="11.2394499"><ele>208.0</ele><time>2026-03-28T13:40:26.04Z</time></trkpt><trkpt lat="43.4245119" lon="11.2395398"><ele>208.0</ele><time>2026-03-28T13:40:29.012Z</time></trkpt><trkpt lat="43.4245603" lon="11.2396234"><ele>208.0</ele><time>2026-03-28T13:40:32.023Z</time></trkpt><trkpt lat="43.4246089" lon="11.2397022"><ele>208.0</ele><time>2026-03-28T13:40:35.011Z</time></trkpt><trkpt lat="43.4246588" lon="11.2397779"><ele>208.0</ele><time>2026-03-28T13:40:38.033Z</time></trkpt><trkpt lat="43.4247011" lon="11.2398543"><ele>208.0</ele><time>2026-03-28T13:40:41.04Z</time></trkpt><trkpt lat="43.4247452" lon="11.2399261"><ele>208.0</ele><time>2026-03-28T13:40:44.038Z</time></trkpt><trkpt lat="43.4247886" lon="11.2400019"><ele>208.42857142857142</ele><time>2026-03-28T13:40:47.024Z</time></trkpt><trkpt lat="43.424835" lon="11.2400736"><ele>208.85714285714286</ele><time>2026-03-28T13:40:50.02Z</time></trkpt><trkpt lat="43.4248801" lon="11.2401524"><ele>209.28571428571428</ele><time>2026-03-28T13:40:53.023Z</time></trkpt><trkpt lat="43.4249247" lon="11.2402218"><ele>209.71428571428572</ele><time>2026-03-28T13:40:56.022Z</time></trkpt><trkpt lat="43.4249638" lon="11.240293"><ele>210.14285714285717</ele><time>2026-03-28T13:40:59.027Z</time></trkpt><trkpt lat="43.4250239" lon="11.2403774"><ele>210.57142857142858</ele><time>2026-03-28T13:41:03.094Z</time></trkpt><trkpt lat="43.4250709" lon="11.2404496"><ele>211.0</ele><time>2026-03-28T13:41:06.095Z</time></trkpt><trkpt lat="43.4251273" lon="11.2405347"><ele>210.99999999999997</ele><time>2026-03-28T13:41:09.011Z</time></trkpt><trkpt lat="43.4251806" lon="11.2405818"><ele>211.0</ele><time>2026-03-28T13:41:12.089Z</time></trkpt><trkpt lat="43.4252502" lon="11.2406416"><ele>211.0</ele><time>2026-03-28T13:41:16.016Z</time></trkpt><trkpt lat="43.4253109" lon="11.2406878"><ele>211.0</ele><time>2026-03-28T13:41:19.023Z</time></trkpt><trkpt lat="43.4253648" lon="11.2407403"><ele>210.99999999999997</ele><time>2026-03-28T13:41:22.089Z</time></trkpt><trkpt lat="43.4254745" lon="11.240802"><ele>211.0</ele><time>2026-03-28T13:41:26.015Z</time></trkpt><trkpt lat="43.4255444" lon="11.2408364"><ele>212.28571428571428</ele><time>2026-03-28T13:41:30.028Z</time></trkpt><trkpt lat="43.4256173" lon="11.2408778"><ele>213.57142857142858</ele><time>2026-03-28T13:41:34.013Z</time></trkpt><trkpt lat="43.4256865" lon="11.2408934"><ele>214.85714285714283</ele><time>2026-03-28T13:41:37.019Z</time></trkpt><trkpt lat="43.425755" lon="11.2409102"><ele>216.14285714285714</ele><time>2026-03-28T13:41:40.026Z</time></trkpt><trkpt lat="43.4258214" lon="11.2409271"><ele>217.42857142857142</ele><time>2026-03-28T13:41:43.031Z</time></trkpt><trkpt lat="43.4258886" lon="11.2409409"><ele>218.7142857142857</ele><time>2026-03-28T13:41:46.029Z</time></trkpt><trkpt lat="43.4259658" lon="11.240948"><ele>220.0</ele><time>2026-03-28T13:41:49.028Z</time></trkpt><trkpt lat="43.4260371" lon="11.2409566"><ele>219.99999999999997</ele><time>2026-03-28T13:41:52.026Z</time></trkpt><trkpt lat="43.4261039" lon="11.2409629"><ele>220.0</ele><time>2026-03-28T13:41:55.027Z</time></trkpt><trkpt lat="43.4261729" lon="11.2409719"><ele>220.0</ele><time>2026-03-28T13:41:58.029Z</time></trkpt><trkpt lat="43.4262548" lon="11.2409603"><ele>220.0</ele><time>2026-03-28T13:42:01.032Z</time></trkpt><trkpt lat="43.4263173" lon="11.2409807"><ele>220.0</ele><time>2026-03-28T13:42:04.026Z</time></trkpt><trkpt lat="43.4263969" lon="11.2409925"><ele>219.99999999999997</ele><time>2026-03-28T13:42:08.014Z</time></trkpt><trkpt lat="43.426479" lon="11.2410018"><ele>220.0</ele><time>2026-03-28T13:42:12.022Z</time></trkpt><trkpt lat="43.4265467" lon="11.2410118"><ele>220.57142857142856</ele><time>2026-03-28T13:42:15.032Z</time></trkpt><trkpt lat="43.4266099" lon="11.2410238"><ele>221.14285714285714</ele><time>2026-03-28T13:42:18.037Z</time></trkpt><trkpt lat="43.4266747" lon="11.2410338"><ele>221.71428571428572</ele><time>2026-03-28T13:42:21.035Z</time></trkpt><trkpt lat="43.4267433" lon="11.2410464"><ele>222.28571428571428</ele><time>2026-03-28T13:42:24.027Z</time></trkpt><trkpt lat="43.4268234" lon="11.2410682"><ele>222.85714285714286</ele><time>2026-03-28T13:42:27.031Z</time></trkpt><trkpt lat="43.426893" lon="11.2410958"><ele>223.42857142857142</ele><time>2026-03-28T13:42:30.036Z</time></trkpt><trkpt lat="43.4269627" lon="11.2411291"><ele>224.0</ele><time>2026-03-28T13:42:33.02Z</time></trkpt><trkpt lat="43.4270268" lon="11.2411655"><ele>224.0</ele><time>2026-03-28T13:42:36.001Z</time></trkpt><trkpt lat="43.4271085" lon="11.2412121"><ele>223.99999999999997</ele><time>2026-03-28T13:42:39.021Z</time></trkpt><trkpt lat="43.4271818" lon="11.2412546"><ele>223.99999999999997</ele><time>2026-03-28T13:42:42.093Z</time></trkpt><trkpt lat="43.4272031" lon="11.2413557"><ele>224.0</ele><time>2026-03-28T13:42:47.032Z</time></trkpt><trkpt lat="43.4273252" lon="11.2413832"><ele>224.0</ele><time>2026-03-28T13:42:48.027Z</time></trkpt><trkpt lat="43.427395" lon="11.2414581"><ele>225.50000000000003</ele><time>2026-03-28T13:42:52.083Z</time></trkpt><trkpt lat="43.4274489" lon="11.2415033"><ele>227.0</ele><time>2026-03-28T13:42:54.022Z</time></trkpt><trkpt lat="43.4275116" lon="11.2415923"><ele>228.5</ele><time>2026-03-28T13:42:58.016Z</time></trkpt><trkpt lat="43.4275744" lon="11.2416837"><ele>230.0</ele><time>2026-03-28T13:43:01.015Z</time></trkpt><trkpt lat="43.4276525" lon="11.2417907"><ele>231.50000000000003</ele><time>2026-03-28T13:43:04.022Z</time></trkpt><trkpt lat="43.4276917" lon="11.2418695"><ele>233.0</ele><time>2026-03-28T13:43:06.016Z</time></trkpt><trkpt lat="43.4277604" lon="11.2419476"><ele>233.00000000000003</ele><time>2026-03-28T13:43:09.026Z</time></trkpt><trkpt lat="43.4278112" lon="11.2420096"><ele>233.0</ele><time>2026-03-28T13:43:11.087Z</time></trkpt><trkpt lat="43.4278804" lon="11.2420676"><ele>233.0</ele><time>2026-03-28T13:43:13.094Z</time></trkpt><trkpt lat="43.427927" lon="11.2421405"><ele>233.0</ele><time>2026-03-28T13:43:15.022Z</time></trkpt><trkpt lat="43.4279885" lon="11.2422255"><ele>233.00000000000003</ele><time>2026-03-28T13:43:18.02Z</time></trkpt><trkpt lat="43.42805" lon="11.2423208"><ele>233.0</ele><time>2026-03-28T13:43:21.101Z</time></trkpt><trkpt lat="43.4280945" lon="11.2423833"><ele>232.57142857142858</ele><time>2026-03-28T13:43:23.098Z</time></trkpt><trkpt lat="43.4281717" lon="11.2424419"><ele>232.1428571428571</ele><time>2026-03-28T13:43:26.099Z</time></trkpt><trkpt lat="43.4282157" lon="11.2425257"><ele>231.7142857142857</ele><time>2026-03-28T13:43:28.085Z</time></trkpt><trkpt lat="43.4282519" lon="11.2426044"><ele>231.28571428571428</ele><time>2026-03-28T13:43:30.025Z</time></trkpt><trkpt lat="43.4282944" lon="11.2426845"><ele>230.85714285714283</ele><time>2026-03-28T13:43:32.026Z</time></trkpt><trkpt lat="43.4283276" lon="11.2427691"><ele>230.4285714285714</ele><time>2026-03-28T13:43:34.015Z</time></trkpt><trkpt lat="43.4283599" lon="11.242859"><ele>229.99999999999997</ele><time>2026-03-28T13:43:36.026Z</time></trkpt><trkpt lat="43.4283969" lon="11.2429685"><ele>230.00000000000003</ele><time>2026-03-28T13:43:38.005Z</time></trkpt><trkpt lat="43.4284244" lon="11.24307"><ele>230.0</ele><time>2026-03-28T13:43:40.034Z</time></trkpt><trkpt lat="43.4284452" lon="11.2431527"><ele>230.0</ele><time>2026-03-28T13:43:42.09Z</time></trkpt><trkpt lat="43.4284317" lon="11.2432797"><ele>230.0</ele><time>2026-03-28T13:43:45.021Z</time></trkpt><trkpt lat="43.4284472" lon="11.2433646"><ele>230.00000000000003</ele><time>2026-03-28T13:43:46.03Z</time></trkpt><trkpt lat="43.4284602" lon="11.2435116"><ele>230.0</ele><time>2026-03-28T13:43:48.098Z</time></trkpt><trkpt lat="43.4284331" lon="11.2436426"><ele>229.8</ele><time>2026-03-28T13:43:50.037Z</time></trkpt><trkpt lat="43.4284516" lon="11.2437654"><ele>229.6</ele><time>2026-03-28T13:43:52.096Z</time></trkpt><trkpt lat="43.4284404" lon="11.2438787"><ele>229.39999999999998</ele><time>2026-03-28T13:43:54.017Z</time></trkpt><trkpt lat="43.4284212" lon="11.2439942"><ele>229.2</ele><time>2026-03-28T13:43:56.085Z</time></trkpt><trkpt lat="43.428412" lon="11.2441317"><ele>229.0</ele><time>2026-03-28T13:43:58.094Z</time></trkpt><trkpt lat="43.4283962" lon="11.2442633"><ele>228.99999999999997</ele><time>2026-03-28T13:44:00.032Z</time></trkpt><trkpt lat="43.4283797" lon="11.2444011"><ele>229.0</ele><time>2026-03-28T13:44:02.093Z</time></trkpt><trkpt lat="43.4283612" lon="11.2445095"><ele>229.0</ele><time>2026-03-28T13:44:03.1Z</time></trkpt><trkpt lat="43.4283361" lon="11.24464"><ele>229.0</ele><time>2026-03-28T13:44:05.021Z</time></trkpt><trkpt lat="43.428322" lon="11.2447414"><ele>228.99999999999997</ele><time>2026-03-28T13:44:07.088Z</time></trkpt><trkpt lat="43.4283102" lon="11.2448656"><ele>229.0</ele><time>2026-03-28T13:44:09.023Z</time></trkpt><trkpt lat="43.4282953" lon="11.2450013"><ele>229.0</ele><time>2026-03-28T13:44:11.032Z</time></trkpt><trkpt lat="43.4282777" lon="11.2451343"><ele>228.99999999999997</ele><time>2026-03-28T13:44:13.029Z</time></trkpt><trkpt lat="43.4282556" lon="11.2452626"><ele>228.99999999999997</ele><time>2026-03-28T13:44:15.031Z</time></trkpt><trkpt lat="43.4282352" lon="11.2453998"><ele>229.0</ele><time>2026-03-28T13:44:17.009Z</time></trkpt><trkpt lat="43.4282276" lon="11.2455243"><ele>229.0</ele><time>2026-03-28T13:44:19.028Z</time></trkpt><trkpt lat="43.4282322" lon="11.245656"><ele>229.0</ele><time>2026-03-28T13:44:21.039Z</time></trkpt><trkpt lat="43.4282389" lon="11.2457901"><ele>228.99999999999997</ele><time>2026-03-28T13:44:23.031Z</time></trkpt><trkpt lat="43.4282514" lon="11.2459339"><ele>228.99999999999997</ele><time>2026-03-28T13:44:25.041Z</time></trkpt><trkpt lat="43.428286" lon="11.2460705"><ele>229.0</ele><time>2026-03-28T13:44:27.028Z</time></trkpt><trkpt lat="43.4283331" lon="11.2462012"><ele>229.0</ele><time>2026-03-28T13:44:29.034Z</time></trkpt><trkpt lat="43.4283838" lon="11.2463304"><ele>229.0</ele><time>2026-03-28T13:44:31.032Z</time></trkpt><trkpt lat="43.4284407" lon="11.2464581"><ele>228.99999999999997</ele><time>2026-03-28T13:44:33.097Z</time></trkpt><trkpt lat="43.4284998" lon="11.2465833"><ele>228.99999999999997</ele><time>2026-03-28T13:44:35.029Z</time></trkpt><trkpt lat="43.4285684" lon="11.2466983"><ele>229.0</ele><time>2026-03-28T13:44:37.093Z</time></trkpt><trkpt lat="43.428645" lon="11.2468121"><ele>229.0</ele><time>2026-03-28T13:44:39.034Z</time></trkpt><trkpt lat="43.4287201" lon="11.2469382"><ele>228.39999999999998</ele><time>2026-03-28T13:44:41.021Z</time></trkpt><trkpt lat="43.4288008" lon="11.2470574"><ele>227.79999999999998</ele><time>2026-03-28T13:44:43.093Z</time></trkpt><trkpt lat="43.4289058" lon="11.2471153"><ele>227.20000000000002</ele><time>2026-03-28T13:44:45.023Z</time></trkpt><trkpt lat="43.4289361" lon="11.2472029"><ele>226.60000000000002</ele><time>2026-03-28T13:44:46.018Z</time></trkpt><trkpt lat="43.4289648" lon="11.2472854"><ele>226.0</ele><time>2026-03-28T13:44:47.006Z</time></trkpt><trkpt lat="43.4290011" lon="11.2474319"><ele>227.4</ele><time>2026-03-28T13:44:49.013Z</time></trkpt><trkpt lat="43.4290235" lon="11.2475194"><ele>228.8</ele><time>2026-03-28T13:44:50.042Z</time></trkpt><trkpt lat="43.4290465" lon="11.247606"><ele>230.20000000000002</ele><time>2026-03-28T13:44:51.098Z</time></trkpt><trkpt lat="43.4290887" lon="11.2477547"><ele>231.60000000000002</ele><time>2026-03-28T13:44:53.018Z</time></trkpt><trkpt lat="43.4291266" lon="11.2479066"><ele>233.0</ele><time>2026-03-28T13:44:55.045Z</time></trkpt><trkpt lat="43.4291654" lon="11.2480544"><ele>231.66666666666669</ele><time>2026-03-28T13:44:57.026Z</time></trkpt><trkpt lat="43.4291997" lon="11.248219"><ele>230.33333333333334</ele><time>2026-03-28T13:44:59.034Z</time></trkpt><trkpt lat="43.4292166" lon="11.2483052"><ele>229.0</ele><time>2026-03-28T13:45:00.027Z</time></trkpt><trkpt lat="43.4292322" lon="11.2483913"><ele>227.66666666666669</ele><time>2026-03-28T13:45:01.114Z</time></trkpt><trkpt lat="43.4292682" lon="11.2485588"><ele>226.33333333333334</ele><time>2026-03-28T13:45:03.022Z</time></trkpt><trkpt lat="43.4292843" lon="11.248644"><ele>225.0</ele><time>2026-03-28T13:45:04.021Z</time></trkpt><trkpt lat="43.4293014" lon="11.248731"><ele>225.0</ele><time>2026-03-28T13:45:05.025Z</time></trkpt><trkpt lat="43.4293175" lon="11.2488163"><ele>225.0</ele><time>2026-03-28T13:45:06.025Z</time></trkpt><trkpt lat="43.4293337" lon="11.2489024"><ele>225.0</ele><time>2026-03-28T13:45:07.011Z</time></trkpt><trkpt lat="43.4293459" lon="11.248989"><ele>225.0</ele><time>2026-03-28T13:45:08.031Z</time></trkpt><trkpt lat="43.4293534" lon="11.2490762"><ele>225.0</ele><time>2026-03-28T13:45:09.026Z</time></trkpt><trkpt lat="43.4293582" lon="11.2491642"><ele>225.0</ele><time>2026-03-28T13:45:10.047Z</time></trkpt><trkpt lat="43.4293617" lon="11.2492524"><ele>225.0</ele><time>2026-03-28T13:45:11.013Z</time></trkpt><trkpt lat="43.4293631" lon="11.2493397"><ele>225.0</ele><time>2026-03-28T13:45:12.022Z</time></trkpt><trkpt lat="43.4293597" lon="11.249509"><ele>225.0</ele><time>2026-03-28T13:45:14.033Z</time></trkpt><trkpt lat="43.4293516" lon="11.2496626"><ele>225.0</ele><time>2026-03-28T13:45:16.026Z</time></trkpt><trkpt lat="43.4293457" lon="11.2498092"><ele>225.0</ele><time>2026-03-28T13:45:18.036Z</time></trkpt><trkpt lat="43.4293344" lon="11.2499442"><ele>225.0</ele><time>2026-03-28T13:45:20.026Z</time></trkpt><trkpt lat="43.4293269" lon="11.2500778"><ele>225.0</ele><time>2026-03-28T13:45:22.03Z</time></trkpt><trkpt lat="43.429322" lon="11.2502022"><ele>225.16666666666666</ele><time>2026-03-28T13:45:24.028Z</time></trkpt><trkpt lat="43.4293258" lon="11.2503261"><ele>225.33333333333331</ele><time>2026-03-28T13:45:26.025Z</time></trkpt><trkpt lat="43.4293297" lon="11.2504461"><ele>225.5</ele><time>2026-03-28T13:45:28.027Z</time></trkpt><trkpt lat="43.4293445" lon="11.2505806"><ele>225.66666666666666</ele><time>2026-03-28T13:45:30.035Z</time></trkpt><trkpt lat="43.4293715" lon="11.2506889"><ele>225.83333333333331</ele><time>2026-03-28T13:45:32.026Z</time></trkpt><trkpt lat="43.4293964" lon="11.2507971"><ele>226.0</ele><time>2026-03-28T13:45:34.023Z</time></trkpt><trkpt lat="43.4294233" lon="11.2508937"><ele>226.0</ele><time>2026-03-28T13:45:36.034Z</time></trkpt><trkpt lat="43.4294401" lon="11.2509945"><ele>226.0</ele><time>2026-03-28T13:45:38.02Z</time></trkpt><trkpt lat="43.4294547" lon="11.251084"><ele>226.0</ele><time>2026-03-28T13:45:40.028Z</time></trkpt><trkpt lat="43.4294843" lon="11.2511624"><ele>226.0</ele><time>2026-03-28T13:45:42.027Z</time></trkpt><trkpt lat="43.429511" lon="11.251255"><ele>226.0</ele><time>2026-03-28T13:45:44.038Z</time></trkpt><trkpt lat="43.4295364" lon="11.2513375"><ele>226.0</ele><time>2026-03-28T13:45:46.032Z</time></trkpt><trkpt lat="43.4295788" lon="11.2514517"><ele>226.0</ele><time>2026-03-28T13:45:49.037Z</time></trkpt><trkpt lat="43.4296093" lon="11.2515617"><ele>227.83333333333331</ele><time>2026-03-28T13:45:52.037Z</time></trkpt><trkpt lat="43.4296491" lon="11.2516545"><ele>229.66666666666666</ele><time>2026-03-28T13:45:55.03Z</time></trkpt><trkpt lat="43.429694" lon="11.2517424"><ele>231.5</ele><time>2026-03-28T13:45:58.018Z</time></trkpt><trkpt lat="43.4297326" lon="11.2518307"><ele>233.33333333333331</ele><time>2026-03-28T13:46:01.027Z</time></trkpt><trkpt lat="43.4297813" lon="11.2519155"><ele>235.16666666666666</ele><time>2026-03-28T13:46:04.031Z</time></trkpt><trkpt lat="43.4298317" lon="11.2519909"><ele>237.0</ele><time>2026-03-28T13:46:07.107Z</time></trkpt><trkpt lat="43.4298896" lon="11.2520537"><ele>237.0</ele><time>2026-03-28T13:46:10.033Z</time></trkpt><trkpt lat="43.4299507" lon="11.2521172"><ele>237.0</ele><time>2026-03-28T13:46:13.014Z</time></trkpt><trkpt lat="43.4300184" lon="11.2521719"><ele>237.0</ele><time>2026-03-28T13:46:16.026Z</time></trkpt><trkpt lat="43.4300912" lon="11.2522151"><ele>237.0</ele><time>2026-03-28T13:46:19.036Z</time></trkpt><trkpt lat="43.4301627" lon="11.2522673"><ele>237.0</ele><time>2026-03-28T13:46:22.034Z</time></trkpt><trkpt lat="43.4302295" lon="11.252322"><ele>237.0</ele><time>2026-03-28T13:46:25.023Z</time></trkpt><trkpt lat="43.430296" lon="11.252368"><ele>236.4285714285714</ele><time>2026-03-28T13:46:28.04Z</time></trkpt><trkpt lat="43.4303612" lon="11.2524153"><ele>235.85714285714283</ele><time>2026-03-28T13:46:31.029Z</time></trkpt><trkpt lat="43.4304268" lon="11.2524557"><ele>235.28571428571428</ele><time>2026-03-28T13:46:34.026Z</time></trkpt><trkpt lat="43.4304896" lon="11.2524967"><ele>234.7142857142857</ele><time>2026-03-28T13:46:37.026Z</time></trkpt><trkpt lat="43.4305508" lon="11.2525402"><ele>234.1428571428571</ele><time>2026-03-28T13:46:40.028Z</time></trkpt><trkpt lat="43.4306186" lon="11.2525853"><ele>233.57142857142858</ele><time>2026-03-28T13:46:43.033Z</time></trkpt><trkpt lat="43.4306856" lon="11.2526276"><ele>233.0</ele><time>2026-03-28T13:46:46.028Z</time></trkpt><trkpt lat="43.4307454" lon="11.2526733"><ele>234.14285714285717</ele><time>2026-03-28T13:46:49.028Z</time></trkpt><trkpt lat="43.4308106" lon="11.2527191"><ele>235.28571428571428</ele><time>2026-03-28T13:46:52.034Z</time></trkpt><trkpt lat="43.4308774" lon="11.2527674"><ele>236.42857142857144</ele><time>2026-03-28T13:46:55.032Z</time></trkpt><trkpt lat="43.4309459" lon="11.2528082"><ele>237.57142857142858</ele><time>2026-03-28T13:46:58.023Z</time></trkpt><trkpt lat="43.4310136" lon="11.2528408"><ele>238.71428571428572</ele><time>2026-03-28T13:47:01.024Z</time></trkpt><trkpt lat="43.4310788" lon="11.2528838"><ele>239.85714285714286</ele><time>2026-03-28T13:47:04.016Z</time></trkpt><trkpt lat="43.4311393" lon="11.2529282"><ele>241.0</ele><time>2026-03-28T13:47:07.03Z</time></trkpt><trkpt lat="43.4312015" lon="11.2529752"><ele>241.0</ele><time>2026-03-28T13:47:10.026Z</time></trkpt><trkpt lat="43.4312689" lon="11.2530209"><ele>241.00000000000003</ele><time>2026-03-28T13:47:13.03Z</time></trkpt><trkpt lat="43.4313337" lon="11.2530657"><ele>241.0</ele><time>2026-03-28T13:47:16.009Z</time></trkpt><trkpt lat="43.4314012" lon="11.25311"><ele>241.0</ele><time>2026-03-28T13:47:19.026Z</time></trkpt><trkpt lat="43.4314662" lon="11.2531512"><ele>241.00000000000003</ele><time>2026-03-28T13:47:22.039Z</time></trkpt><trkpt lat="43.43153" lon="11.2531891"><ele>241.0</ele><time>2026-03-28T13:47:25.034Z</time></trkpt><trkpt lat="43.4315925" lon="11.2532358"><ele>241.0</ele><time>2026-03-28T13:47:28.035Z</time></trkpt><trkpt lat="43.4316575" lon="11.2532746"><ele>241.42857142857144</ele><time>2026-03-28T13:47:31.038Z</time></trkpt><trkpt lat="43.4317176" lon="11.2533172"><ele>241.8571428571429</ele><time>2026-03-28T13:47:34.033Z</time></trkpt><trkpt lat="43.4317761" lon="11.2533595"><ele>242.28571428571428</ele><time>2026-03-28T13:47:37.029Z</time></trkpt><trkpt lat="43.4318401" lon="11.253398"><ele>242.71428571428572</ele><time>2026-03-28T13:47:40.039Z</time></trkpt><trkpt lat="43.4319063" lon="11.2534453"><ele>243.14285714285714</ele><time>2026-03-28T13:47:43.039Z</time></trkpt><trkpt lat="43.4319695" lon="11.2534976"><ele>243.57142857142856</ele><time>2026-03-28T13:47:46.035Z</time></trkpt><trkpt lat="43.4320335" lon="11.2535551"><ele>243.99999999999997</ele><time>2026-03-28T13:47:49.031Z</time></trkpt><trkpt lat="43.4320918" lon="11.2536152"><ele>244.66666666666666</ele><time>2026-03-28T13:47:52.03Z</time></trkpt><trkpt lat="43.4321473" lon="11.2536798"><ele>245.33333333333331</ele><time>2026-03-28T13:47:55.036Z</time></trkpt><trkpt lat="43.4321997" lon="11.2537478"><ele>246.0</ele><time>2026-03-28T13:47:58.035Z</time></trkpt><trkpt lat="43.4322463" lon="11.2538313"><ele>246.66666666666669</ele><time>2026-03-28T13:48:01.042Z</time></trkpt><trkpt lat="43.4322944" lon="11.2539207"><ele>247.33333333333334</ele><time>2026-03-28T13:48:04.027Z</time></trkpt><trkpt lat="43.4323355" lon="11.2540184"><ele>248.0</ele><time>2026-03-28T13:48:07.027Z</time></trkpt><trkpt lat="43.4323757" lon="11.2541199"><ele>248.00000000000003</ele><time>2026-03-28T13:48:10.032Z</time></trkpt><trkpt lat="43.4323993" lon="11.2542267"><ele>248.0</ele><time>2026-03-28T13:48:13.034Z</time></trkpt><trkpt lat="43.4324096" lon="11.2543361"><ele>248.0</ele><time>2026-03-28T13:48:15.03Z</time></trkpt><trkpt lat="43.4324436" lon="11.2544465"><ele>248.0</ele><time>2026-03-28T13:48:18.027Z</time></trkpt><trkpt lat="43.4324668" lon="11.2545532"><ele>248.00000000000003</ele><time>2026-03-28T13:48:21.028Z</time></trkpt><trkpt lat="43.4324872" lon="11.2546562"><ele>248.0</ele><time>2026-03-28T13:48:24.008Z</time></trkpt><trkpt lat="43.4325148" lon="11.2547549"><ele>247.71428571428572</ele><time>2026-03-28T13:48:27.102Z</time></trkpt><trkpt lat="43.4325216" lon="11.2548574"><ele>247.42857142857144</ele><time>2026-03-28T13:48:30.037Z</time></trkpt><trkpt lat="43.4325409" lon="11.2549646"><ele>247.14285714285717</ele><time>2026-03-28T13:48:33.025Z</time></trkpt><trkpt lat="43.4325744" lon="11.2550519"><ele>246.8571428571429</ele><time>2026-03-28T13:48:36.042Z</time></trkpt><trkpt lat="43.4326008" lon="11.2551348"><ele>246.57142857142858</ele><time>2026-03-28T13:48:39.036Z</time></trkpt><trkpt lat="43.4326236" lon="11.2552188"><ele>246.28571428571433</ele><time>2026-03-28T13:48:42.035Z</time></trkpt><trkpt lat="43.4326668" lon="11.255294"><ele>246.00000000000003</ele><time>2026-03-28T13:48:45.025Z</time></trkpt><trkpt lat="43.4327052" lon="11.2553723"><ele>246.00000000000003</ele><time>2026-03-28T13:48:48.039Z</time></trkpt><trkpt lat="43.4327092" lon="11.2554655"><ele>246.0</ele><time>2026-03-28T13:48:52.026Z</time></trkpt><trkpt lat="43.4327315" lon="11.2555712"><ele>246.00000000000003</ele><time>2026-03-28T13:48:55.035Z</time></trkpt><trkpt lat="43.432749" lon="11.2556638"><ele>246.00000000000003</ele><time>2026-03-28T13:48:58.078Z</time></trkpt><trkpt lat="43.432766" lon="11.2557501"><ele>246.0</ele><time>2026-03-28T13:49:01.031Z</time></trkpt><trkpt lat="43.4327885" lon="11.25586"><ele>246.00000000000003</ele><time>2026-03-28T13:49:05.029Z</time></trkpt><trkpt lat="43.43281" lon="11.2559417"><ele>246.00000000000003</ele><time>2026-03-28T13:49:08.023Z</time></trkpt><trkpt lat="43.432832" lon="11.2560362"><ele>246.00000000000003</ele><time>2026-03-28T13:49:12.097Z</time></trkpt><trkpt lat="43.432849" lon="11.2561254"><ele>246.0</ele><time>2026-03-28T13:49:16.024Z</time></trkpt><trkpt lat="43.4328571" lon="11.2562185"><ele>246.00000000000003</ele><time>2026-03-28T13:49:20.022Z</time></trkpt><trkpt lat="43.4328844" lon="11.2563015"><ele>246.00000000000003</ele><time>2026-03-28T13:49:24.03Z</time></trkpt><trkpt lat="43.4329107" lon="11.2563922"><ele>246.0</ele><time>2026-03-28T13:49:28.01Z</time></trkpt><trkpt lat="43.4329315" lon="11.2564819"><ele>246.00000000000003</ele><time>2026-03-28T13:49:32.021Z</time></trkpt><trkpt lat="43.432954" lon="11.2565676"><ele>246.00000000000003</ele><time>2026-03-28T13:49:36.027Z</time></trkpt><trkpt lat="43.4329778" lon="11.2566501"><ele>247.8571428571429</ele><time>2026-03-28T13:49:40.022Z</time></trkpt><trkpt lat="43.4330047" lon="11.2567441"><ele>249.71428571428572</ele><time>2026-03-28T13:49:45.021Z</time></trkpt><trkpt lat="43.4330266" lon="11.2568312"><ele>251.57142857142858</ele><time>2026-03-28T13:49:49.021Z</time></trkpt><trkpt lat="43.4330522" lon="11.2569315"><ele>253.42857142857144</ele><time>2026-03-28T13:49:54.027Z</time></trkpt><trkpt lat="43.4330755" lon="11.2570278"><ele>255.28571428571428</ele><time>2026-03-28T13:49:59.033Z</time></trkpt><trkpt lat="43.4330988" lon="11.2571173"><ele>257.14285714285717</ele><time>2026-03-28T13:50:04.085Z</time></trkpt><trkpt lat="43.4331243" lon="11.2572181"><ele>259.0</ele><time>2026-03-28T13:50:09.028Z</time></trkpt><trkpt lat="43.4331416" lon="11.2573025"><ele>260.14285714285717</ele><time>2026-03-28T13:50:13.024Z</time></trkpt><trkpt lat="43.4331648" lon="11.2574026"><ele>261.2857142857143</ele><time>2026-03-28T13:50:18.035Z</time></trkpt><trkpt lat="43.4332" lon="11.2574814"><ele>262.42857142857144</ele><time>2026-03-28T13:50:21.039Z</time></trkpt><trkpt lat="43.4332145" lon="11.2575807"><ele>263.57142857142856</ele><time>2026-03-28T13:50:26.013Z</time></trkpt><trkpt lat="43.4332305" lon="11.2576749"><ele>264.7142857142857</ele><time>2026-03-28T13:50:31.017Z</time></trkpt><trkpt lat="43.4332629" lon="11.2577547"><ele>265.8571428571429</ele><time>2026-03-28T13:50:35.011Z</time></trkpt><trkpt lat="43.4332751" lon="11.2578442"><ele>267.0</ele><time>2026-03-28T13:50:40.022Z</time></trkpt><trkpt lat="43.4332928" lon="11.2579463"><ele>267.00000000000006</ele><time>2026-03-28T13:50:45.041Z</time></trkpt><trkpt lat="43.4333097" lon="11.2580395"><ele>267.0</ele><time>2026-03-28T13:50:50.024Z</time></trkpt><trkpt lat="43.4333358" lon="11.2581423"><ele>267.0</ele><time>2026-03-28T13:50:55.019Z</time></trkpt><trkpt lat="43.4333419" lon="11.2582357"><ele>267.0</ele><time>2026-03-28T13:51:00.037Z</time></trkpt><trkpt lat="43.4333671" lon="11.2583231"><ele>267.0</ele><time>2026-03-28T13:51:04.09Z</time></trkpt><trkpt lat="43.4333915" lon="11.258409"><ele>267.00000000000006</ele><time>2026-03-28T13:51:08.104Z</time></trkpt><trkpt lat="43.4334179" lon="11.2584903"><ele>267.0</ele><time>2026-03-28T13:51:12.094Z</time></trkpt><trkpt lat="43.4334108" lon="11.2586164"><ele>267.7142857142857</ele><time>2026-03-28T13:51:16.017Z</time></trkpt><trkpt lat="43.4334483" lon="11.2586976"><ele>268.42857142857144</ele><time>2026-03-28T13:51:23.097Z</time></trkpt><trkpt lat="43.4334306" lon="11.2588165"><ele>269.1428571428571</ele><time>2026-03-28T13:51:26.01Z</time></trkpt><trkpt lat="43.4334717" lon="11.2588831"><ele>269.8571428571429</ele><time>2026-03-28T13:51:30.031Z</time></trkpt><trkpt lat="43.4334925" lon="11.2589762"><ele>270.57142857142856</ele><time>2026-03-28T13:51:35.036Z</time></trkpt><trkpt lat="43.4335084" lon="11.2590667"><ele>271.2857142857143</ele><time>2026-03-28T13:51:40.038Z</time></trkpt><trkpt lat="43.4335265" lon="11.2591686"><ele>272.0</ele><time>2026-03-28T13:51:45.041Z</time></trkpt><trkpt lat="43.4335377" lon="11.2592598"><ele>272.57142857142856</ele><time>2026-03-28T13:51:49.03Z</time></trkpt><trkpt lat="43.4335484" lon="11.2593509"><ele>273.1428571428571</ele><time>2026-03-28T13:51:53.039Z</time></trkpt><trkpt lat="43.433555" lon="11.2594388"><ele>273.7142857142857</ele><time>2026-03-28T13:51:57.04Z</time></trkpt><trkpt lat="43.4335599" lon="11.259529"><ele>274.2857142857143</ele><time>2026-03-28T13:52:01.031Z</time></trkpt><trkpt lat="43.4335649" lon="11.2596184"><ele>274.8571428571429</ele><time>2026-03-28T13:52:05.036Z</time></trkpt><trkpt lat="43.433565" lon="11.2597164"><ele>275.42857142857144</ele><time>2026-03-28T13:52:09.033Z</time></trkpt><trkpt lat="43.4335717" lon="11.259807"><ele>276.0</ele><time>2026-03-28T13:52:13.021Z</time></trkpt><trkpt lat="43.4335743" lon="11.2599073"><ele>277.0</ele><time>2026-03-28T13:52:18.053Z</time></trkpt><trkpt lat="43.4335707" lon="11.2600185"><ele>278.0</ele><time>2026-03-28T13:52:23.045Z</time></trkpt><trkpt lat="43.4335676" lon="11.2601165"><ele>279.0</ele><time>2026-03-28T13:52:27.039Z</time></trkpt><trkpt lat="43.4335616" lon="11.2602209"><ele>280.0</ele><time>2026-03-28T13:52:32.032Z</time></trkpt><trkpt lat="43.4335554" lon="11.260323"><ele>281.0</ele><time>2026-03-28T13:52:37.026Z</time></trkpt><trkpt lat="43.433552" lon="11.2604112"><ele>282.0</ele><time>2026-03-28T13:52:41.022Z</time></trkpt><trkpt lat="43.4335419" lon="11.260517"><ele>283.0</ele><time>2026-03-28T13:52:46.035Z</time></trkpt><trkpt lat="43.4335352" lon="11.2606073"><ele>284.14285714285717</ele><time>2026-03-28T13:52:50.039Z</time></trkpt><trkpt lat="43.4335286" lon="11.2607116"><ele>285.28571428571433</ele><time>2026-03-28T13:52:55.043Z</time></trkpt><trkpt lat="43.4335191" lon="11.2608085"><ele>286.42857142857144</ele><time>2026-03-28T13:53:00.036Z</time></trkpt><trkpt lat="43.433514" lon="11.2608955"><ele>287.57142857142856</ele><time>2026-03-28T13:53:04.034Z</time></trkpt><trkpt lat="43.4334992" lon="11.2609908"><ele>288.71428571428567</ele><time>2026-03-28T13:53:09.024Z</time></trkpt><trkpt lat="43.4334819" lon="11.2610932"><ele>289.85714285714283</ele><time>2026-03-28T13:53:14.034Z</time></trkpt><trkpt lat="43.433464" lon="11.2611816"><ele>291.0</ele><time>2026-03-28T13:53:18.034Z</time></trkpt><trkpt lat="43.4334482" lon="11.2612736"><ele>291.0</ele><time>2026-03-28T13:53:22.042Z</time></trkpt><trkpt lat="43.4334298" lon="11.2613767"><ele>291.0</ele><time>2026-03-28T13:53:26.036Z</time></trkpt><trkpt lat="43.4334098" lon="11.2614624"><ele>291.0</ele><time>2026-03-28T13:53:30.038Z</time></trkpt><trkpt lat="43.4333899" lon="11.2615629"><ele>291.0</ele><time>2026-03-28T13:53:35.026Z</time></trkpt><trkpt lat="43.4333812" lon="11.2616518"><ele>291.0</ele><time>2026-03-28T13:53:39.039Z</time></trkpt><trkpt lat="43.4333596" lon="11.2617535"><ele>291.0</ele><time>2026-03-28T13:53:44.035Z</time></trkpt><trkpt lat="43.4333413" lon="11.2618564"><ele>291.0</ele><time>2026-03-28T13:53:48.028Z</time></trkpt><trkpt lat="43.4333224" lon="11.2619429"><ele>292.1428571428571</ele><time>2026-03-28T13:53:52.027Z</time></trkpt><trkpt lat="43.433301" lon="11.262045"><ele>293.2857142857143</ele><time>2026-03-28T13:53:57.026Z</time></trkpt><trkpt lat="43.4332877" lon="11.2621305"><ele>294.42857142857144</ele><time>2026-03-28T13:54:01.029Z</time></trkpt><trkpt lat="43.4332673" lon="11.2622144"><ele>295.57142857142856</ele><time>2026-03-28T13:54:05.031Z</time></trkpt><trkpt lat="43.4332555" lon="11.2623104"><ele>296.7142857142857</ele><time>2026-03-28T13:54:09.023Z</time></trkpt><trkpt lat="43.433241" lon="11.262402"><ele>297.85714285714283</ele><time>2026-03-28T13:54:13.039Z</time></trkpt><trkpt lat="43.4332174" lon="11.2624872"><ele>299.0</ele><time>2026-03-28T13:54:17.043Z</time></trkpt><trkpt lat="43.4332021" lon="11.2625803"><ele>300.0</ele><time>2026-03-28T13:54:21.03Z</time></trkpt><trkpt lat="43.433191" lon="11.2626693"><ele>301.0</ele><time>2026-03-28T13:54:25.039Z</time></trkpt><trkpt lat="43.4331769" lon="11.2627606"><ele>302.0</ele><time>2026-03-28T13:54:29.045Z</time></trkpt><trkpt lat="43.4331546" lon="11.2628505"><ele>303.0</ele><time>2026-03-28T13:54:33.035Z</time></trkpt><trkpt lat="43.4331426" lon="11.2629474"><ele>304.0</ele><time>2026-03-28T13:54:37.039Z</time></trkpt><trkpt lat="43.4331184" lon="11.2630418"><ele>305.0</ele><time>2026-03-28T13:54:41.037Z</time></trkpt><trkpt lat="43.4330957" lon="11.2631503"><ele>306.0</ele><time>2026-03-28T13:54:45.032Z</time></trkpt><trkpt lat="43.4330693" lon="11.2632559"><ele>307.0</ele><time>2026-03-28T13:54:49.031Z</time></trkpt><trkpt lat="43.4330488" lon="11.2633662"><ele>308.0</ele><time>2026-03-28T13:54:53.024Z</time></trkpt><trkpt lat="43.4330333" lon="11.2634659"><ele>309.0</ele><time>2026-03-28T13:54:57.028Z</time></trkpt><trkpt lat="43.4330182" lon="11.2635735"><ele>310.0</ele><time>2026-03-28T13:55:01.017Z</time></trkpt><trkpt lat="43.4330035" lon="11.263679"><ele>311.0</ele><time>2026-03-28T13:55:05.03Z</time></trkpt><trkpt lat="43.4329931" lon="11.2637889"><ele>312.0</ele><time>2026-03-28T13:55:09.04Z</time></trkpt><trkpt lat="43.4329845" lon="11.2639026"><ele>313.0</ele><time>2026-03-28T13:55:13.038Z</time></trkpt><trkpt lat="43.432985" lon="11.263991"><ele>314.0</ele><time>2026-03-28T13:55:16.043Z</time></trkpt><trkpt lat="43.4329812" lon="11.2641018"><ele>315.0</ele><time>2026-03-28T13:55:20.038Z</time></trkpt><trkpt lat="43.4329856" lon="11.2641895"><ele>316.0</ele><time>2026-03-28T13:55:23.033Z</time></trkpt><trkpt lat="43.4329907" lon="11.2642819"><ele>317.0</ele><time>2026-03-28T13:55:26.039Z</time></trkpt><trkpt lat="43.4329988" lon="11.2643724"><ele>318.0</ele><time>2026-03-28T13:55:29.031Z</time></trkpt><trkpt lat="43.4330119" lon="11.264465"><ele>319.0</ele><time>2026-03-28T13:55:32.037Z</time></trkpt><trkpt lat="43.4330383" lon="11.2645636"><ele>319.0</ele><time>2026-03-28T13:55:35.026Z</time></trkpt><trkpt lat="43.433075" lon="11.2646556"><ele>319.0</ele><time>2026-03-28T13:55:38.033Z</time></trkpt><trkpt lat="43.4330856" lon="11.2647686"><ele>319.0</ele><time>2026-03-28T13:55:42.029Z</time></trkpt><trkpt lat="43.4331012" lon="11.2648591"><ele>319.0</ele><time>2026-03-28T13:55:45.028Z</time></trkpt><trkpt lat="43.4331214" lon="11.2649448"><ele>319.0</ele><time>2026-03-28T13:55:48.028Z</time></trkpt><trkpt lat="43.4331491" lon="11.2650386"><ele>319.0</ele><time>2026-03-28T13:55:51.036Z</time></trkpt><trkpt lat="43.433172" lon="11.2651221"><ele>319.0</ele><time>2026-03-28T13:55:54.033Z</time></trkpt><trkpt lat="43.4331985" lon="11.2652024"><ele>319.2857142857143</ele><time>2026-03-28T13:55:57.038Z</time></trkpt><trkpt lat="43.4332318" lon="11.2652784"><ele>319.57142857142856</ele><time>2026-03-28T13:56:00.04Z</time></trkpt><trkpt lat="43.4332741" lon="11.2653774"><ele>319.85714285714283</ele><time>2026-03-28T13:56:04.036Z</time></trkpt><trkpt lat="43.4333097" lon="11.2654499"><ele>320.1428571428571</ele><time>2026-03-28T13:56:07.03Z</time></trkpt><trkpt lat="43.433341" lon="11.2655312"><ele>320.42857142857144</ele><time>2026-03-28T13:56:10.035Z</time></trkpt><trkpt lat="43.4333798" lon="11.265604"><ele>320.71428571428567</ele><time>2026-03-28T13:56:13.031Z</time></trkpt><trkpt lat="43.4334194" lon="11.2656753"><ele>321.0</ele><time>2026-03-28T13:56:16.037Z</time></trkpt><trkpt lat="43.4334608" lon="11.2657444"><ele>320.99999999999994</ele><time>2026-03-28T13:56:19.03Z</time></trkpt><trkpt lat="43.4335079" lon="11.2658083"><ele>321.0</ele><time>2026-03-28T13:56:22.041Z</time></trkpt><trkpt lat="43.433552" lon="11.2658767"><ele>321.0</ele><time>2026-03-28T13:56:25.045Z</time></trkpt><trkpt lat="43.4335979" lon="11.2659436"><ele>321.0</ele><time>2026-03-28T13:56:28.029Z</time></trkpt><trkpt lat="43.4336453" lon="11.2660069"><ele>321.0</ele><time>2026-03-28T13:56:31.029Z</time></trkpt><trkpt lat="43.4337055" lon="11.2660824"><ele>320.99999999999994</ele><time>2026-03-28T13:56:35.033Z</time></trkpt><trkpt lat="43.433765" lon="11.2661561"><ele>321.0</ele><time>2026-03-28T13:56:39.034Z</time></trkpt><trkpt lat="43.433825" lon="11.2662285"><ele>321.3333333333333</ele><time>2026-03-28T13:56:43.018Z</time></trkpt><trkpt lat="43.433882" lon="11.2662932"><ele>321.6666666666667</ele><time>2026-03-28T13:56:47.048Z</time></trkpt><trkpt lat="43.4339398" lon="11.2663703"><ele>322.0</ele><time>2026-03-28T13:56:51.041Z</time></trkpt><trkpt lat="43.4339832" lon="11.266446"><ele>322.33333333333337</ele><time>2026-03-28T13:56:54.036Z</time></trkpt><trkpt lat="43.4340373" lon="11.2665243"><ele>322.6666666666667</ele><time>2026-03-28T13:56:58.041Z</time></trkpt><trkpt lat="43.4340943" lon="11.2665983"><ele>323.0</ele><time>2026-03-28T13:57:02.047Z</time></trkpt><trkpt lat="43.4341543" lon="11.266665"><ele>323.0</ele><time>2026-03-28T13:57:06.036Z</time></trkpt><trkpt lat="43.4342081" lon="11.266747"><ele>323.0</ele><time>2026-03-28T13:57:10.045Z</time></trkpt><trkpt lat="43.434264" lon="11.2668207"><ele>323.0</ele><time>2026-03-28T13:57:14.041Z</time></trkpt><trkpt lat="43.434321" lon="11.2668864"><ele>323.0</ele><time>2026-03-28T13:57:18.036Z</time></trkpt><trkpt lat="43.4343776" lon="11.2669562"><ele>323.0</ele><time>2026-03-28T13:57:22.053Z</time></trkpt><trkpt lat="43.4344296" lon="11.2670194"><ele>323.0</ele><time>2026-03-28T13:57:26.043Z</time></trkpt><trkpt lat="43.4344832" lon="11.2670936"><ele>323.00000000000006</ele><time>2026-03-28T13:57:30.022Z</time></trkpt><trkpt lat="43.4345338" lon="11.2671696"><ele>323.0</ele><time>2026-03-28T13:57:34.035Z</time></trkpt><trkpt lat="43.4345831" lon="11.2672396"><ele>323.0</ele><time>2026-03-28T13:57:38.047Z</time></trkpt><trkpt lat="43.4346419" lon="11.2673074"><ele>323.0</ele><time>2026-03-28T13:57:42.035Z</time></trkpt><trkpt lat="43.4346943" lon="11.267375"><ele>323.0</ele><time>2026-03-28T13:57:46.04Z</time></trkpt><trkpt lat="43.4347461" lon="11.2674334"><ele>323.00000000000006</ele><time>2026-03-28T13:57:50.031Z</time></trkpt><trkpt lat="43.4347986" lon="11.2675079"><ele>323.0</ele><time>2026-03-28T13:57:54.035Z</time></trkpt><trkpt lat="43.4348509" lon="11.2675767"><ele>324.5</ele><time>2026-03-28T13:57:58.034Z</time></trkpt><trkpt lat="43.4349101" lon="11.2676559"><ele>326.0</ele><time>2026-03-28T13:58:02.04Z</time></trkpt><trkpt lat="43.434973" lon="11.2677228"><ele>327.5</ele><time>2026-03-28T13:58:06.044Z</time></trkpt><trkpt lat="43.435024" lon="11.2677907"><ele>329.0</ele><time>2026-03-28T13:58:10.041Z</time></trkpt><trkpt lat="43.4350789" lon="11.2678624"><ele>330.5</ele><time>2026-03-28T13:58:14.038Z</time></trkpt><trkpt lat="43.4351382" lon="11.2679368"><ele>332.0</ele><time>2026-03-28T13:58:18.032Z</time></trkpt><trkpt lat="43.4351925" lon="11.2680058"><ele>332.0</ele><time>2026-03-28T13:58:22.037Z</time></trkpt><trkpt lat="43.4352454" lon="11.2680836"><ele>332.0</ele><time>2026-03-28T13:58:26.044Z</time></trkpt><trkpt lat="43.4353027" lon="11.2681525"><ele>332.0</ele><time>2026-03-28T13:58:30.039Z</time></trkpt><trkpt lat="43.4353571" lon="11.2682128"><ele>332.0</ele><time>2026-03-28T13:58:34.049Z</time></trkpt><trkpt lat="43.4354119" lon="11.2682792"><ele>332.0</ele><time>2026-03-28T13:58:38.041Z</time></trkpt><trkpt lat="43.4354686" lon="11.2683401"><ele>332.0</ele><time>2026-03-28T13:58:42.031Z</time></trkpt><trkpt lat="43.4355186" lon="11.2684032"><ele>332.0</ele><time>2026-03-28T13:58:46.035Z</time></trkpt><trkpt lat="43.4355625" lon="11.2684759"><ele>333.1428571428571</ele><time>2026-03-28T13:58:50.042Z</time></trkpt><trkpt lat="43.4356181" lon="11.2685517"><ele>334.28571428571433</ele><time>2026-03-28T13:58:54.012Z</time></trkpt><trkpt lat="43.4356719" lon="11.2686148"><ele>335.42857142857144</ele><time>2026-03-28T13:58:58.033Z</time></trkpt><trkpt lat="43.4357251" lon="11.2686844"><ele>336.57142857142856</ele><time>2026-03-28T13:59:02.029Z</time></trkpt><trkpt lat="43.4357768" lon="11.2687494"><ele>337.71428571428567</ele><time>2026-03-28T13:59:06.04Z</time></trkpt><trkpt lat="43.4358293" lon="11.2688194"><ele>338.8571428571429</ele><time>2026-03-28T13:59:10.028Z</time></trkpt><trkpt lat="43.4358755" lon="11.2688845"><ele>340.0</ele><time>2026-03-28T13:59:14.036Z</time></trkpt><trkpt lat="43.4359228" lon="11.2689426"><ele>340.8571428571429</ele><time>2026-03-28T13:59:18.032Z</time></trkpt><trkpt lat="43.4359812" lon="11.2690098"><ele>341.71428571428567</ele><time>2026-03-28T13:59:23.047Z</time></trkpt><trkpt lat="43.4360376" lon="11.2690809"><ele>342.57142857142856</ele><time>2026-03-28T13:59:28.033Z</time></trkpt><trkpt lat="43.4360867" lon="11.2691443"><ele>343.42857142857144</ele><time>2026-03-28T13:59:32.029Z</time></trkpt><trkpt lat="43.4361387" lon="11.2692098"><ele>344.28571428571433</ele><time>2026-03-28T13:59:36.039Z</time></trkpt><trkpt lat="43.4361869" lon="11.269275"><ele>345.1428571428571</ele><time>2026-03-28T13:59:40.046Z</time></trkpt><trkpt lat="43.4362361" lon="11.2693393"><ele>346.0</ele><time>2026-03-28T13:59:44.026Z</time></trkpt><trkpt lat="43.4362928" lon="11.269415"><ele>345.4285714285714</ele><time>2026-03-28T13:59:49.031Z</time></trkpt><trkpt lat="43.4363503" lon="11.2694859"><ele>344.8571428571429</ele><time>2026-03-28T13:59:54.037Z</time></trkpt><trkpt lat="43.4364104" lon="11.2695599"><ele>344.2857142857143</ele><time>2026-03-28T13:59:59.03Z</time></trkpt><trkpt lat="43.4364628" lon="11.269619"><ele>343.71428571428567</ele><time>2026-03-28T14:00:03.039Z</time></trkpt><trkpt lat="43.4365206" lon="11.2696888"><ele>343.1428571428571</ele><time>2026-03-28T14:00:08.042Z</time></trkpt><trkpt lat="43.4365666" lon="11.2697511"><ele>342.57142857142856</ele><time>2026-03-28T14:00:12.029Z</time></trkpt><trkpt lat="43.4366174" lon="11.2698157"><ele>342.0</ele><time>2026-03-28T14:00:16.038Z</time></trkpt><trkpt lat="43.4366711" lon="11.2698798"><ele>343.4285714285714</ele><time>2026-03-28T14:00:20.028Z</time></trkpt><trkpt lat="43.4367232" lon="11.2699449"><ele>344.85714285714283</ele><time>2026-03-28T14:00:24.034Z</time></trkpt><trkpt lat="43.4367735" lon="11.2700148"><ele>346.2857142857143</ele><time>2026-03-28T14:00:28.031Z</time></trkpt><trkpt lat="43.4368199" lon="11.2700766"><ele>347.71428571428567</ele><time>2026-03-28T14:00:32.039Z</time></trkpt><trkpt lat="43.4368681" lon="11.2701386"><ele>349.1428571428571</ele><time>2026-03-28T14:00:36.035Z</time></trkpt><trkpt lat="43.4369221" lon="11.2702172"><ele>350.57142857142856</ele><time>2026-03-28T14:00:41.028Z</time></trkpt><trkpt lat="43.4369698" lon="11.2702759"><ele>352.0</ele><time>2026-03-28T14:00:45.04Z</time></trkpt><trkpt lat="43.4370163" lon="11.2703366"><ele>352.0</ele><time>2026-03-28T14:00:49.035Z</time></trkpt><trkpt lat="43.4370693" lon="11.2703988"><ele>352.0</ele><time>2026-03-28T14:00:53.037Z</time></trkpt><trkpt lat="43.4371127" lon="11.2704645"><ele>352.0</ele><time>2026-03-28T14:00:57.042Z</time></trkpt><trkpt lat="43.4371608" lon="11.2705209"><ele>352.0</ele><time>2026-03-28T14:01:01.034Z</time></trkpt><trkpt lat="43.4372125" lon="11.2705922"><ele>352.0</ele><time>2026-03-28T14:01:06.049Z</time></trkpt><trkpt lat="43.4372763" lon="11.2706479"><ele>352.0</ele><time>2026-03-28T14:01:11.03Z</time></trkpt><trkpt lat="43.4373242" lon="11.2707313"><ele>352.0</ele><time>2026-03-28T14:01:16.028Z</time></trkpt><trkpt lat="43.4373802" lon="11.2707964"><ele>352.8571428571429</ele><time>2026-03-28T14:01:21.046Z</time></trkpt><trkpt lat="43.4374304" lon="11.2708739"><ele>353.7142857142857</ele><time>2026-03-28T14:01:26.044Z</time></trkpt><trkpt lat="43.4374951" lon="11.2709333"><ele>354.57142857142856</ele><time>2026-03-28T14:01:31.032Z</time></trkpt><trkpt lat="43.4375441" lon="11.2710009"><ele>355.42857142857144</ele><time>2026-03-28T14:01:36.031Z</time></trkpt><trkpt lat="43.4375882" lon="11.271067"><ele>356.2857142857143</ele><time>2026-03-28T14:01:40.04Z</time></trkpt><trkpt lat="43.43763" lon="11.2711333"><ele>357.14285714285717</ele><time>2026-03-28T14:01:44.03Z</time></trkpt><trkpt lat="43.4376889" lon="11.2711998"><ele>358.0</ele><time>2026-03-28T14:01:49.027Z</time></trkpt><trkpt lat="43.4377429" lon="11.2712498"><ele>358.00000000000006</ele><time>2026-03-28T14:01:53.033Z</time></trkpt><trkpt lat="43.4378118" lon="11.2712962"><ele>358.0</ele><time>2026-03-28T14:01:58.011Z</time></trkpt><trkpt lat="43.437868" lon="11.2713356"><ele>358.0</ele><time>2026-03-28T14:02:02.039Z</time></trkpt><trkpt lat="43.437939" lon="11.2713735"><ele>358.0</ele><time>2026-03-28T14:02:07.038Z</time></trkpt><trkpt lat="43.4379991" lon="11.2714115"><ele>358.0</ele><time>2026-03-28T14:02:12.045Z</time></trkpt><trkpt lat="43.4380617" lon="11.2714245"><ele>358.00000000000006</ele><time>2026-03-28T14:02:15.026Z</time></trkpt><trkpt lat="43.4381351" lon="11.2714367"><ele>358.0</ele><time>2026-03-28T14:02:19.023Z</time></trkpt><trkpt lat="43.4382039" lon="11.2714432"><ele>359.5714285714286</ele><time>2026-03-28T14:02:23.027Z</time></trkpt><trkpt lat="43.4382711" lon="11.2714625"><ele>361.14285714285717</ele><time>2026-03-28T14:02:27.034Z</time></trkpt><trkpt lat="43.4383397" lon="11.2714654"><ele>362.7142857142857</ele><time>2026-03-28T14:02:31.042Z</time></trkpt><trkpt lat="43.4384041" lon="11.2714787"><ele>364.28571428571433</ele><time>2026-03-28T14:02:35.027Z</time></trkpt><trkpt lat="43.4384733" lon="11.2714919"><ele>365.85714285714283</ele><time>2026-03-28T14:02:40.041Z</time></trkpt><trkpt lat="43.4385478" lon="11.2714964"><ele>367.42857142857144</ele><time>2026-03-28T14:02:45.024Z</time></trkpt><trkpt lat="43.4386138" lon="11.2715103"><ele>369.0</ele><time>2026-03-28T14:02:49.027Z</time></trkpt><trkpt lat="43.4386779" lon="11.2715224"><ele>369.0</ele><time>2026-03-28T14:02:53.025Z</time></trkpt><trkpt lat="43.4387505" lon="11.2715334"><ele>369.0</ele><time>2026-03-28T14:02:58.098Z</time></trkpt><trkpt lat="43.4388136" lon="11.2715571"><ele>369.0</ele><time>2026-03-28T14:03:02.035Z</time></trkpt><trkpt lat="43.4388892" lon="11.2715644"><ele>369.0</ele><time>2026-03-28T14:03:07.037Z</time></trkpt><trkpt lat="43.4389645" lon="11.2715852"><ele>369.0</ele><time>2026-03-28T14:03:12.036Z</time></trkpt><trkpt lat="43.4390353" lon="11.2715992"><ele>369.0</ele><time>2026-03-28T14:03:17.043Z</time></trkpt><trkpt lat="43.4391098" lon="11.2716132"><ele>369.0</ele><time>2026-03-28T14:03:22.09Z</time></trkpt><trkpt lat="43.4391754" lon="11.2716223"><ele>371.1428571428571</ele><time>2026-03-28T14:03:26.022Z</time></trkpt><trkpt lat="43.4392514" lon="11.2716202"><ele>373.2857142857143</ele><time>2026-03-28T14:03:32.026Z</time></trkpt><trkpt lat="43.4393269" lon="11.2716055"><ele>375.42857142857144</ele><time>2026-03-28T14:03:37.032Z</time></trkpt><trkpt lat="43.439394" lon="11.2716004"><ele>377.57142857142856</ele><time>2026-03-28T14:03:41.025Z</time></trkpt><trkpt lat="43.4394636" lon="11.2715865"><ele>379.7142857142857</ele><time>2026-03-28T14:03:45.024Z</time></trkpt><trkpt lat="43.4395299" lon="11.2715626"><ele>381.85714285714283</ele><time>2026-03-28T14:03:49.025Z</time></trkpt><trkpt lat="43.4396036" lon="11.2715325"><ele>384.0</ele><time>2026-03-28T14:03:54.04Z</time></trkpt><trkpt lat="43.4396682" lon="11.2715034"><ele>384.85714285714283</ele><time>2026-03-28T14:03:58.029Z</time></trkpt><trkpt lat="43.4397419" lon="11.2714775"><ele>385.7142857142857</ele><time>2026-03-28T14:04:03.03Z</time></trkpt><trkpt lat="43.4398095" lon="11.2714526"><ele>386.57142857142856</ele><time>2026-03-28T14:04:07.03Z</time></trkpt><trkpt lat="43.439876" lon="11.271422"><ele>387.42857142857144</ele><time>2026-03-28T14:04:11.028Z</time></trkpt><trkpt lat="43.4399409" lon="11.2713943"><ele>388.2857142857143</ele><time>2026-03-28T14:04:15.039Z</time></trkpt><trkpt lat="43.4400067" lon="11.2713691"><ele>389.1428571428571</ele><time>2026-03-28T14:04:20.025Z</time></trkpt><trkpt lat="43.4400807" lon="11.2713391"><ele>390.0</ele><time>2026-03-28T14:04:26.037Z</time></trkpt><trkpt lat="43.4401423" lon="11.2713169"><ele>390.7142857142857</ele><time>2026-03-28T14:04:29.023Z</time></trkpt><trkpt lat="43.4402106" lon="11.2712881"><ele>391.42857142857144</ele><time>2026-03-28T14:04:33.029Z</time></trkpt><trkpt lat="43.4402832" lon="11.2712564"><ele>392.1428571428571</ele><time>2026-03-28T14:04:38.033Z</time></trkpt><trkpt lat="43.440347" lon="11.2712264"><ele>392.8571428571429</ele><time>2026-03-28T14:04:42.027Z</time></trkpt><trkpt lat="43.4404205" lon="11.2711977"><ele>393.5714285714286</ele><time>2026-03-28T14:04:47.037Z</time></trkpt><trkpt lat="43.4404929" lon="11.2711682"><ele>394.2857142857143</ele><time>2026-03-28T14:04:52.035Z</time></trkpt><trkpt lat="43.4405589" lon="11.2711463"><ele>395.0</ele><time>2026-03-28T14:04:56.03Z</time></trkpt><trkpt lat="43.4406194" lon="11.2711175"><ele>395.57142857142856</ele><time>2026-03-28T14:05:00.023Z</time></trkpt><trkpt lat="43.4406822" lon="11.2710881"><ele>396.14285714285717</ele><time>2026-03-28T14:05:06.046Z</time></trkpt><trkpt lat="43.4407566" lon="11.2710628"><ele>396.7142857142857</ele><time>2026-03-28T14:05:10.015Z</time></trkpt><trkpt lat="43.4408259" lon="11.271048"><ele>397.2857142857143</ele><time>2026-03-28T14:05:13.019Z</time></trkpt><trkpt lat="43.4408981" lon="11.2710277"><ele>397.8571428571429</ele><time>2026-03-28T14:05:17.016Z</time></trkpt><trkpt lat="43.4409699" lon="11.2709965"><ele>398.42857142857144</ele><time>2026-03-28T14:05:21.019Z</time></trkpt><trkpt lat="43.4410353" lon="11.2709642"><ele>399.0</ele><time>2026-03-28T14:05:25Z</time></trkpt><trkpt lat="43.4411016" lon="11.2709486"><ele>399.0</ele><time>2026-03-28T14:05:30.027Z</time></trkpt><trkpt lat="43.4411771" lon="11.2709138"><ele>399.0</ele><time>2026-03-28T14:05:34.023Z</time></trkpt><trkpt lat="43.4412449" lon="11.2708906"><ele>399.0</ele><time>2026-03-28T14:05:37.029Z</time></trkpt><trkpt lat="43.4413059" lon="11.2708688"><ele>399.0</ele><time>2026-03-28T14:05:40.028Z</time></trkpt><trkpt lat="43.4413823" lon="11.2708356"><ele>399.0</ele><time>2026-03-28T14:05:44.03Z</time></trkpt><trkpt lat="43.441444" lon="11.2708026"><ele>399.0</ele><time>2026-03-28T14:05:47.039Z</time></trkpt><trkpt lat="43.4415068" lon="11.2707742"><ele>399.0</ele><time>2026-03-28T14:05:50.039Z</time></trkpt><trkpt lat="43.4415672" lon="11.2707449"><ele>399.0</ele><time>2026-03-28T14:05:53.03Z</time></trkpt><trkpt lat="43.4416297" lon="11.2707196"><ele>399.0</ele><time>2026-03-28T14:05:56.026Z</time></trkpt><trkpt lat="43.4416932" lon="11.270701"><ele>399.0</ele><time>2026-03-28T14:05:59.037Z</time></trkpt><trkpt lat="43.4417568" lon="11.2706791"><ele>399.0</ele><time>2026-03-28T14:06:02.03Z</time></trkpt><trkpt lat="43.4418233" lon="11.2706563"><ele>399.0</ele><time>2026-03-28T14:06:05.032Z</time></trkpt><trkpt lat="43.4419021" lon="11.2706231"><ele>399.0</ele><time>2026-03-28T14:06:09.025Z</time></trkpt><trkpt lat="43.4419633" lon="11.2706005"><ele>399.0</ele><time>2026-03-28T14:06:12.032Z</time></trkpt><trkpt lat="43.4420358" lon="11.2705689"><ele>399.57142857142856</ele><time>2026-03-28T14:06:16.031Z</time></trkpt><trkpt lat="43.4420964" lon="11.2705436"><ele>400.1428571428571</ele><time>2026-03-28T14:06:19.095Z</time></trkpt><trkpt lat="43.4421697" lon="11.2705129"><ele>400.7142857142857</ele><time>2026-03-28T14:06:23.054Z</time></trkpt><trkpt lat="43.4422386" lon="11.2704881"><ele>401.2857142857143</ele><time>2026-03-28T14:06:26.028Z</time></trkpt><trkpt lat="43.4423082" lon="11.2704571"><ele>401.85714285714283</ele><time>2026-03-28T14:06:29.03Z</time></trkpt><trkpt lat="43.4423784" lon="11.2704342"><ele>402.42857142857144</ele><time>2026-03-28T14:06:32.009Z</time></trkpt><trkpt lat="43.4424489" lon="11.2704256"><ele>403.0</ele><time>2026-03-28T14:06:35.031Z</time></trkpt><trkpt lat="43.4425211" lon="11.2704153"><ele>403.5714285714286</ele><time>2026-03-28T14:06:38.029Z</time></trkpt><trkpt lat="43.4425871" lon="11.2704148"><ele>404.1428571428571</ele><time>2026-03-28T14:06:41.038Z</time></trkpt><trkpt lat="43.4426558" lon="11.270424"><ele>404.7142857142857</ele><time>2026-03-28T14:06:44.039Z</time></trkpt><trkpt lat="43.4427209" lon="11.2704463"><ele>405.28571428571433</ele><time>2026-03-28T14:06:47.033Z</time></trkpt><trkpt lat="43.4427923" lon="11.2704723"><ele>405.8571428571429</ele><time>2026-03-28T14:06:50.032Z</time></trkpt><trkpt lat="43.4428624" lon="11.2704974"><ele>406.42857142857144</ele><time>2026-03-28T14:06:53.039Z</time></trkpt><trkpt lat="43.4429298" lon="11.2705346"><ele>407.0</ele><time>2026-03-28T14:06:56.028Z</time></trkpt><trkpt lat="43.442993" lon="11.2705791"><ele>407.3333333333333</ele><time>2026-03-28T14:06:59.031Z</time></trkpt><trkpt lat="43.4430586" lon="11.2706316"><ele>407.66666666666663</ele><time>2026-03-28T14:07:02.04Z</time></trkpt><trkpt lat="43.4431325" lon="11.2706901"><ele>408.0</ele><time>2026-03-28T14:07:06.018Z</time></trkpt><trkpt lat="43.443188" lon="11.2707541"><ele>408.33333333333337</ele><time>2026-03-28T14:07:09.015Z</time></trkpt><trkpt lat="43.4432393" lon="11.2708314"><ele>408.6666666666667</ele><time>2026-03-28T14:07:12.045Z</time></trkpt><trkpt lat="43.4432832" lon="11.2709097"><ele>409.0</ele><time>2026-03-28T14:07:15.041Z</time></trkpt><trkpt lat="43.4433205" lon="11.2709942"><ele>409.0</ele><time>2026-03-28T14:07:18.028Z</time></trkpt><trkpt lat="43.4433519" lon="11.2710745"><ele>409.0</ele><time>2026-03-28T14:07:21.03Z</time></trkpt><trkpt lat="43.4433789" lon="11.2711597"><ele>409.0</ele><time>2026-03-28T14:07:24.027Z</time></trkpt><trkpt lat="43.4434047" lon="11.2712428"><ele>409.0</ele><time>2026-03-28T14:07:27.036Z</time></trkpt><trkpt lat="43.4434304" lon="11.2713288"><ele>409.0</ele><time>2026-03-28T14:07:30.031Z</time></trkpt><trkpt lat="43.443451" lon="11.2714134"><ele>409.0</ele><time>2026-03-28T14:07:33.026Z</time></trkpt><trkpt lat="43.4434757" lon="11.2714935"><ele>409.0</ele><time>2026-03-28T14:07:36.033Z</time></trkpt><trkpt lat="43.4435017" lon="11.2715767"><ele>408.57142857142856</ele><time>2026-03-28T14:07:39.039Z</time></trkpt><trkpt lat="43.4435237" lon="11.2716716"><ele>408.14285714285717</ele><time>2026-03-28T14:07:42.032Z</time></trkpt><trkpt lat="43.4435525" lon="11.271779"><ele>407.7142857142857</ele><time>2026-03-28T14:07:46.028Z</time></trkpt><trkpt lat="43.4435787" lon="11.2718644"><ele>407.2857142857143</ele><time>2026-03-28T14:07:49.006Z</time></trkpt><trkpt lat="43.4436003" lon="11.2719536"><ele>406.8571428571429</ele><time>2026-03-28T14:07:52.035Z</time></trkpt><trkpt lat="43.4436309" lon="11.2720661"><ele>406.42857142857144</ele><time>2026-03-28T14:07:56.034Z</time></trkpt><trkpt lat="43.4436546" lon="11.2721573"><ele>406.0</ele><time>2026-03-28T14:07:59.025Z</time></trkpt><trkpt lat="43.4436821" lon="11.2722483"><ele>405.57142857142856</ele><time>2026-03-28T14:08:02.037Z</time></trkpt><trkpt lat="43.4437114" lon="11.2723402"><ele>405.1428571428571</ele><time>2026-03-28T14:08:05.029Z</time></trkpt><trkpt lat="43.4437332" lon="11.2724341"><ele>404.7142857142857</ele><time>2026-03-28T14:08:08.024Z</time></trkpt><trkpt lat="43.4437676" lon="11.2725263"><ele>404.2857142857143</ele><time>2026-03-28T14:08:11.032Z</time></trkpt><trkpt lat="43.443798" lon="11.2726132"><ele>403.85714285714283</ele><time>2026-03-28T14:08:14.038Z</time></trkpt><trkpt lat="43.443832" lon="11.2726973"><ele>403.42857142857144</ele><time>2026-03-28T14:08:17.028Z</time></trkpt><trkpt lat="43.4438721" lon="11.2727856"><ele>403.0</ele><time>2026-03-28T14:08:20.032Z</time></trkpt><trkpt lat="43.4439219" lon="11.272873"><ele>404.42857142857144</ele><time>2026-03-28T14:08:23.037Z</time></trkpt><trkpt lat="43.4439735" lon="11.272954"><ele>405.85714285714283</ele><time>2026-03-28T14:08:26.038Z</time></trkpt><trkpt lat="43.4440278" lon="11.2730263"><ele>407.2857142857143</ele><time>2026-03-28T14:08:29.024Z</time></trkpt><trkpt lat="43.4440906" lon="11.2731118"><ele>408.7142857142857</ele><time>2026-03-28T14:08:32.04Z</time></trkpt><trkpt lat="43.4441431" lon="11.2731703"><ele>410.1428571428571</ele><time>2026-03-28T14:08:34.033Z</time></trkpt><trkpt lat="43.4441972" lon="11.2732159"><ele>411.57142857142856</ele><time>2026-03-28T14:08:36.036Z</time></trkpt><trkpt lat="43.4442554" lon="11.2732688"><ele>413.0</ele><time>2026-03-28T14:08:38.023Z</time></trkpt><trkpt lat="43.4443136" lon="11.2733214"><ele>413.0</ele><time>2026-03-28T14:08:40.028Z</time></trkpt><trkpt lat="43.4443794" lon="11.2733697"><ele>413.0</ele><time>2026-03-28T14:08:42.094Z</time></trkpt><trkpt lat="43.4444382" lon="11.2734218"><ele>413.0</ele><time>2026-03-28T14:08:44.022Z</time></trkpt><trkpt lat="43.4445075" lon="11.2734693"><ele>413.0</ele><time>2026-03-28T14:08:46.031Z</time></trkpt><trkpt lat="43.4445674" lon="11.2735138"><ele>413.0</ele><time>2026-03-28T14:08:48.002Z</time></trkpt><trkpt lat="43.4446341" lon="11.2735557"><ele>413.0</ele><time>2026-03-28T14:08:50.008Z</time></trkpt><trkpt lat="43.4447032" lon="11.2736004"><ele>413.0</ele><time>2026-03-28T14:08:52.008Z</time></trkpt><trkpt lat="43.4447698" lon="11.2736466"><ele>412.66666666666663</ele><time>2026-03-28T14:08:54.017Z</time></trkpt><trkpt lat="43.4448369" lon="11.2736965"><ele>412.3333333333333</ele><time>2026-03-28T14:08:56.036Z</time></trkpt><trkpt lat="43.4449417" lon="11.273765"><ele>412.0</ele><time>2026-03-28T14:08:59.022Z</time></trkpt><trkpt lat="43.4450029" lon="11.273789"><ele>411.66666666666663</ele><time>2026-03-28T14:09:01.018Z</time></trkpt><trkpt lat="43.4450741" lon="11.2738532"><ele>411.3333333333333</ele><time>2026-03-28T14:09:04.02Z</time></trkpt><trkpt lat="43.4451364" lon="11.2738996"><ele>411.0</ele><time>2026-03-28T14:09:07.026Z</time></trkpt><trkpt lat="43.4451992" lon="11.273946"><ele>411.0</ele><time>2026-03-28T14:09:09.036Z</time></trkpt><trkpt lat="43.4452568" lon="11.2739953"><ele>411.0</ele><time>2026-03-28T14:09:11.03Z</time></trkpt><trkpt lat="43.4453149" lon="11.2740505"><ele>411.0</ele><time>2026-03-28T14:09:13.036Z</time></trkpt><trkpt lat="43.4453673" lon="11.2741053"><ele>411.0</ele><time>2026-03-28T14:09:15.042Z</time></trkpt><trkpt lat="43.4454259" lon="11.274165"><ele>411.0</ele><time>2026-03-28T14:09:17.026Z</time></trkpt><trkpt lat="43.4454749" lon="11.2742224"><ele>411.0</ele><time>2026-03-28T14:09:19.017Z</time></trkpt><trkpt lat="43.4455176" lon="11.2742894"><ele>411.0</ele><time>2026-03-28T14:09:21.03Z</time></trkpt><trkpt lat="43.4455821" lon="11.2743826"><ele>411.1428571428571</ele><time>2026-03-28T14:09:24.035Z</time></trkpt><trkpt lat="43.4456212" lon="11.2744549"><ele>411.2857142857143</ele><time>2026-03-28T14:09:26.038Z</time></trkpt><trkpt lat="43.4456748" lon="11.2745685"><ele>411.42857142857144</ele><time>2026-03-28T14:09:29.025Z</time></trkpt><trkpt lat="43.4457087" lon="11.2746443"><ele>411.57142857142856</ele><time>2026-03-28T14:09:31.037Z</time></trkpt><trkpt lat="43.445737" lon="11.2747218"><ele>411.7142857142857</ele><time>2026-03-28T14:09:33.034Z</time></trkpt><trkpt lat="43.4457619" lon="11.2748019"><ele>411.85714285714283</ele><time>2026-03-28T14:09:35.026Z</time></trkpt><trkpt lat="43.4457895" lon="11.2748844"><ele>412.0</ele><time>2026-03-28T14:09:37.03Z</time></trkpt><trkpt lat="43.4458159" lon="11.2749642"><ele>412.00000000000006</ele><time>2026-03-28T14:09:39.026Z</time></trkpt><trkpt lat="43.4458483" lon="11.275073"><ele>412.0</ele><time>2026-03-28T14:09:42.037Z</time></trkpt><trkpt lat="43.4458739" lon="11.2751711"><ele>412.0</ele><time>2026-03-28T14:09:45.021Z</time></trkpt><trkpt lat="43.4459008" lon="11.2752714"><ele>412.0</ele><time>2026-03-28T14:09:48.025Z</time></trkpt><trkpt lat="43.4459309" lon="11.2753772"><ele>412.00000000000006</ele><time>2026-03-28T14:09:51.028Z</time></trkpt><trkpt lat="43.445951" lon="11.2754832"><ele>412.0</ele><time>2026-03-28T14:09:54.023Z</time></trkpt><trkpt lat="43.445971" lon="11.2755782"><ele>412.4285714285714</ele><time>2026-03-28T14:09:57.009Z</time></trkpt><trkpt lat="43.446004" lon="11.275667"><ele>412.85714285714283</ele><time>2026-03-28T14:10:01.034Z</time></trkpt><trkpt lat="43.4460173" lon="11.2757529"><ele>413.2857142857143</ele><time>2026-03-28T14:10:04.033Z</time></trkpt><trkpt lat="43.4460466" lon="11.2758524"><ele>413.71428571428567</ele><time>2026-03-28T14:10:08.042Z</time></trkpt><trkpt lat="43.4460714" lon="11.2759422"><ele>414.14285714285717</ele><time>2026-03-28T14:10:12.025Z</time></trkpt><trkpt lat="43.4460966" lon="11.2760316"><ele>414.57142857142856</ele><time>2026-03-28T14:10:16.035Z</time></trkpt><trkpt lat="43.4461195" lon="11.2761198"><ele>415.0</ele><time>2026-03-28T14:10:20.044Z</time></trkpt><trkpt lat="43.4461489" lon="11.2762075"><ele>415.0</ele><time>2026-03-28T14:10:24.04Z</time></trkpt><trkpt lat="43.4461754" lon="11.2762944"><ele>415.0</ele><time>2026-03-28T14:10:28.029Z</time></trkpt><trkpt lat="43.4461997" lon="11.2763815"><ele>415.0</ele><time>2026-03-28T14:10:32.036Z</time></trkpt><trkpt lat="43.4462328" lon="11.2764576"><ele>415.0</ele><time>2026-03-28T14:10:37.03Z</time></trkpt><trkpt lat="43.4462533" lon="11.276552"><ele>415.0</ele><time>2026-03-28T14:10:41.016Z</time></trkpt><trkpt lat="43.4462902" lon="11.2766311"><ele>415.0</ele><time>2026-03-28T14:10:45.027Z</time></trkpt><trkpt lat="43.4462925" lon="11.276732"><ele>415.0</ele><time>2026-03-28T14:10:51.03Z</time></trkpt><trkpt lat="43.4463319" lon="11.2768093"><ele>416.42857142857144</ele><time>2026-03-28T14:10:55.026Z</time></trkpt><trkpt lat="43.446369" lon="11.2768998"><ele>417.8571428571429</ele><time>2026-03-28T14:10:59.044Z</time></trkpt><trkpt lat="43.4464142" lon="11.2769898"><ele>419.2857142857143</ele><time>2026-03-28T14:11:04.035Z</time></trkpt><trkpt lat="43.4464558" lon="11.2770653"><ele>420.7142857142857</ele><time>2026-03-28T14:11:08.045Z</time></trkpt><trkpt lat="43.4464965" lon="11.2771412"><ele>422.1428571428571</ele><time>2026-03-28T14:11:12.035Z</time></trkpt><trkpt lat="43.4465446" lon="11.2772265"><ele>423.57142857142856</ele><time>2026-03-28T14:11:17.036Z</time></trkpt><trkpt lat="43.4465944" lon="11.277301"><ele>425.0</ele><time>2026-03-28T14:11:21.033Z</time></trkpt><trkpt lat="43.4466419" lon="11.2773612"><ele>425.2857142857143</ele><time>2026-03-28T14:11:24.041Z</time></trkpt><trkpt lat="43.4466939" lon="11.2774289"><ele>425.57142857142856</ele><time>2026-03-28T14:11:28.041Z</time></trkpt><trkpt lat="43.4467439" lon="11.2774922"><ele>425.8571428571429</ele><time>2026-03-28T14:11:32.02Z</time></trkpt><trkpt lat="43.4467958" lon="11.2775762"><ele>426.1428571428571</ele><time>2026-03-28T14:11:36.028Z</time></trkpt><trkpt lat="43.4468456" lon="11.2776539"><ele>426.42857142857144</ele><time>2026-03-28T14:11:40.028Z</time></trkpt><trkpt lat="43.4468923" lon="11.2777273"><ele>426.7142857142857</ele><time>2026-03-28T14:11:44.028Z</time></trkpt><trkpt lat="43.4469477" lon="11.2778034"><ele>427.0</ele><time>2026-03-28T14:11:49.028Z</time></trkpt><trkpt lat="43.4470061" lon="11.2778626"><ele>427.0</ele><time>2026-03-28T14:11:54.104Z</time></trkpt><trkpt lat="43.4470584" lon="11.2779371"><ele>427.0</ele><time>2026-03-28T14:11:59.034Z</time></trkpt><trkpt lat="43.4470961" lon="11.278007"><ele>427.0</ele><time>2026-03-28T14:12:03.093Z</time></trkpt><trkpt lat="43.447141" lon="11.2780687"><ele>427.0</ele><time>2026-03-28T14:12:06.036Z</time></trkpt><trkpt lat="43.4471916" lon="11.278124"><ele>427.0</ele><time>2026-03-28T14:12:09.022Z</time></trkpt><trkpt lat="43.4472438" lon="11.2781904"><ele>427.0</ele><time>2026-03-28T14:12:17.026Z</time></trkpt><trkpt lat="43.4473068" lon="11.2782382"><ele>427.0</ele><time>2026-03-28T14:12:21.029Z</time></trkpt><trkpt lat="43.4473577" lon="11.2783101"><ele>428.85714285714283</ele><time>2026-03-28T14:12:26.03Z</time></trkpt><trkpt lat="43.4474007" lon="11.2783988"><ele>430.7142857142857</ele><time>2026-03-28T14:12:30.024Z</time></trkpt><trkpt lat="43.4474515" lon="11.2784735"><ele>432.57142857142856</ele><time>2026-03-28T14:12:34.023Z</time></trkpt><trkpt lat="43.4474944" lon="11.2785392"><ele>434.42857142857144</ele><time>2026-03-28T14:12:38.035Z</time></trkpt><trkpt lat="43.4475381" lon="11.2786101"><ele>436.2857142857143</ele><time>2026-03-28T14:12:42.029Z</time></trkpt><trkpt lat="43.4475912" lon="11.2786685"><ele>438.1428571428571</ele><time>2026-03-28T14:12:47.033Z</time></trkpt><trkpt lat="43.4476301" lon="11.2787387"><ele>440.0</ele><time>2026-03-28T14:12:51.025Z</time></trkpt><trkpt lat="43.4476755" lon="11.2788043"><ele>439.99999999999994</ele><time>2026-03-28T14:12:55.022Z</time></trkpt><trkpt lat="43.4477133" lon="11.2788871"><ele>440.0</ele><time>2026-03-28T14:12:59.021Z</time></trkpt><trkpt lat="43.4477442" lon="11.2789741"><ele>440.0</ele><time>2026-03-28T14:13:03.031Z</time></trkpt><trkpt lat="43.4477843" lon="11.2790465"><ele>440.0</ele><time>2026-03-28T14:13:07.037Z</time></trkpt><trkpt lat="43.4478292" lon="11.2791362"><ele>440.0</ele><time>2026-03-28T14:13:13.012Z</time></trkpt><trkpt lat="43.4478619" lon="11.2792169"><ele>439.99999999999994</ele><time>2026-03-28T14:13:18.03Z</time></trkpt><trkpt lat="43.4478888" lon="11.2793082"><ele>440.0</ele><time>2026-03-28T14:13:23.024Z</time></trkpt><trkpt lat="43.447909" lon="11.2793992"><ele>439.71428571428567</ele><time>2026-03-28T14:13:28.031Z</time></trkpt><trkpt lat="43.4479341" lon="11.2794981"><ele>439.42857142857144</ele><time>2026-03-28T14:13:33.038Z</time></trkpt><trkpt lat="43.4479573" lon="11.279583"><ele>439.1428571428571</ele><time>2026-03-28T14:13:37.025Z</time></trkpt><trkpt lat="43.4479836" lon="11.2796807"><ele>438.85714285714283</ele><time>2026-03-28T14:13:41.037Z</time></trkpt><trkpt lat="43.447999" lon="11.279765"><ele>438.57142857142856</ele><time>2026-03-28T14:13:45.013Z</time></trkpt><trkpt lat="43.4480194" lon="11.2798673"><ele>438.2857142857143</ele><time>2026-03-28T14:13:50.034Z</time></trkpt><trkpt lat="43.4480331" lon="11.2799591"><ele>438.0</ele><time>2026-03-28T14:13:54.036Z</time></trkpt><trkpt lat="43.4480557" lon="11.2800447"><ele>439.14285714285717</ele><time>2026-03-28T14:13:58.044Z</time></trkpt><trkpt lat="43.4480819" lon="11.2801316"><ele>440.2857142857143</ele><time>2026-03-28T14:14:02.015Z</time></trkpt><trkpt lat="43.4480612" lon="11.2802264"><ele>441.42857142857144</ele><time>2026-03-28T14:14:06.032Z</time></trkpt><trkpt lat="43.4480935" lon="11.2803209"><ele>442.57142857142856</ele><time>2026-03-28T14:14:10.034Z</time></trkpt><trkpt lat="43.4481374" lon="11.2803894"><ele>443.71428571428567</ele><time>2026-03-28T14:14:12.029Z</time></trkpt><trkpt lat="43.4481674" lon="11.2804836"><ele>444.85714285714283</ele><time>2026-03-28T14:14:18.02Z</time></trkpt><trkpt lat="43.4482051" lon="11.2805742"><ele>446.0</ele><time>2026-03-28T14:14:23.019Z</time></trkpt><trkpt lat="43.4482427" lon="11.280658"><ele>447.7142857142857</ele><time>2026-03-28T14:14:27.02Z</time></trkpt><trkpt lat="43.448291" lon="11.2807262"><ele>449.42857142857144</ele><time>2026-03-28T14:14:31.019Z</time></trkpt><trkpt lat="43.4483339" lon="11.2808115"><ele>451.1428571428571</ele><time>2026-03-28T14:14:35.027Z</time></trkpt><trkpt lat="43.4483908" lon="11.2808675"><ele>452.8571428571429</ele><time>2026-03-28T14:14:40.019Z</time></trkpt><trkpt lat="43.4484394" lon="11.2809252"><ele>454.5714285714286</ele><time>2026-03-28T14:14:44.024Z</time></trkpt><trkpt lat="43.4484979" lon="11.2809607"><ele>456.2857142857143</ele><time>2026-03-28T14:14:47.016Z</time></trkpt><trkpt lat="43.448565" lon="11.2809996"><ele>458.0</ele><time>2026-03-28T14:14:52.098Z</time></trkpt><trkpt lat="43.4486207" lon="11.2810633"><ele>458.0</ele><time>2026-03-28T14:14:57.029Z</time></trkpt><trkpt lat="43.4486901" lon="11.2811109"><ele>458.0</ele><time>2026-03-28T14:15:02.023Z</time></trkpt><trkpt lat="43.4487445" lon="11.2811616"><ele>458.0</ele><time>2026-03-28T14:15:07.024Z</time></trkpt><trkpt lat="43.4488149" lon="11.2811961"><ele>458.0</ele><time>2026-03-28T14:15:11.023Z</time></trkpt><trkpt lat="43.4488838" lon="11.2812429"><ele>458.0</ele><time>2026-03-28T14:15:16.017Z</time></trkpt><trkpt lat="43.4489473" lon="11.2812718"><ele>458.0</ele><time>2026-03-28T14:15:21.02Z</time></trkpt><trkpt lat="43.4490081" lon="11.2813297"><ele>458.0</ele><time>2026-03-28T14:15:26.019Z</time></trkpt><trkpt lat="43.4490774" lon="11.2813789"><ele>459.85714285714283</ele><time>2026-03-28T14:15:31.025Z</time></trkpt><trkpt lat="43.4491343" lon="11.2814375"><ele>461.7142857142858</ele><time>2026-03-28T14:15:36.005Z</time></trkpt><trkpt lat="43.4491847" lon="11.2814961"><ele>463.5714285714286</ele><time>2026-03-28T14:15:39.999Z</time></trkpt><trkpt lat="43.4492405" lon="11.2815583"><ele>465.42857142857144</ele><time>2026-03-28T14:15:44.016Z</time></trkpt><trkpt lat="43.4493029" lon="11.2816189"><ele>467.28571428571433</ele><time>2026-03-28T14:15:48.094Z</time></trkpt><trkpt lat="43.449351" lon="11.2816874"><ele>469.1428571428572</ele><time>2026-03-28T14:15:52.019Z</time></trkpt><trkpt lat="43.4493871" lon="11.2817744"><ele>471.00000000000006</ele><time>2026-03-28T14:15:56.001Z</time></trkpt><trkpt lat="43.4494212" lon="11.2818631"><ele>471.00000000000006</ele><time>2026-03-28T14:16:01.022Z</time></trkpt><trkpt lat="43.4494559" lon="11.2819375"><ele>471.0</ele><time>2026-03-28T14:16:05.028Z</time></trkpt><trkpt lat="43.4494859" lon="11.2820153"><ele>471.00000000000006</ele><time>2026-03-28T14:16:09.023Z</time></trkpt><trkpt lat="43.4495233" lon="11.2820971"><ele>471.00000000000006</ele><time>2026-03-28T14:16:14.088Z</time></trkpt><trkpt lat="43.449572" lon="11.2822057"><ele>471.0</ele><time>2026-03-28T14:16:19.034Z</time></trkpt><trkpt lat="43.4496042" lon="11.2822853"><ele>471.00000000000006</ele><time>2026-03-28T14:16:24.011Z</time></trkpt><trkpt lat="43.4496378" lon="11.2823714"><ele>471.00000000000006</ele><time>2026-03-28T14:16:29.026Z</time></trkpt><trkpt lat="43.4496537" lon="11.2824665"><ele>470.8571428571429</ele><time>2026-03-28T14:16:34.035Z</time></trkpt><trkpt lat="43.4497007" lon="11.2825508"><ele>470.7142857142857</ele><time>2026-03-28T14:16:39.018Z</time></trkpt><trkpt lat="43.4497292" lon="11.2826296"><ele>470.57142857142856</ele><time>2026-03-28T14:16:43.021Z</time></trkpt><trkpt lat="43.4497699" lon="11.2827164"><ele>470.42857142857144</ele><time>2026-03-28T14:16:47.029Z</time></trkpt><trkpt lat="43.4498102" lon="11.282787"><ele>470.2857142857142</ele><time>2026-03-28T14:16:51.026Z</time></trkpt><trkpt lat="43.4498358" lon="11.2828888"><ele>470.1428571428571</ele><time>2026-03-28T14:16:56.018Z</time></trkpt><trkpt lat="43.4498762" lon="11.2829822"><ele>470.0</ele><time>2026-03-28T14:17:01.029Z</time></trkpt><trkpt lat="43.449909" lon="11.2830685"><ele>471.4285714285714</ele><time>2026-03-28T14:17:05.032Z</time></trkpt><trkpt lat="43.4499466" lon="11.2831393"><ele>472.8571428571428</ele><time>2026-03-28T14:17:09.024Z</time></trkpt><trkpt lat="43.4499688" lon="11.2832477"><ele>474.2857142857143</ele><time>2026-03-28T14:17:14.021Z</time></trkpt><trkpt lat="43.4500333" lon="11.2833108"><ele>475.71428571428567</ele><time>2026-03-28T14:17:19.01Z</time></trkpt><trkpt lat="43.450073" lon="11.2833865"><ele>477.1428571428571</ele><time>2026-03-28T14:17:23.016Z</time></trkpt><trkpt lat="43.4501278" lon="11.2834599"><ele>478.57142857142856</ele><time>2026-03-28T14:17:28.024Z</time></trkpt><trkpt lat="43.4501725" lon="11.2835255"><ele>480.0</ele><time>2026-03-28T14:17:33.023Z</time></trkpt><trkpt lat="43.45022" lon="11.2835855"><ele>480.0</ele><time>2026-03-28T14:17:37.023Z</time></trkpt><trkpt lat="43.4502793" lon="11.2836462"><ele>480.0</ele><time>2026-03-28T14:17:42.031Z</time></trkpt><trkpt lat="43.4503408" lon="11.2836978"><ele>480.0</ele><time>2026-03-28T14:17:46.034Z</time></trkpt><trkpt lat="43.4503972" lon="11.2837603"><ele>480.0</ele><time>2026-03-28T14:17:50.031Z</time></trkpt><trkpt lat="43.4504563" lon="11.2838103"><ele>480.0</ele><time>2026-03-28T14:17:54.083Z</time></trkpt><trkpt lat="43.4505301" lon="11.2838559"><ele>480.0</ele><time>2026-03-28T14:17:59.147Z</time></trkpt><trkpt lat="43.4505895" lon="11.2838914"><ele>480.0</ele><time>2026-03-28T14:18:02.03Z</time></trkpt><trkpt lat="43.4506705" lon="11.2839334"><ele>481.28571428571433</ele><time>2026-03-28T14:18:08.008Z</time></trkpt><trkpt lat="43.45073" lon="11.2839734"><ele>482.57142857142856</ele><time>2026-03-28T14:18:11.033Z</time></trkpt><trkpt lat="43.4507986" lon="11.2840175"><ele>483.8571428571429</ele><time>2026-03-28T14:18:15.024Z</time></trkpt><trkpt lat="43.4508654" lon="11.2840675"><ele>485.14285714285717</ele><time>2026-03-28T14:18:19.102Z</time></trkpt><trkpt lat="43.4509153" lon="11.2841284"><ele>486.42857142857144</ele><time>2026-03-28T14:18:23.028Z</time></trkpt><trkpt lat="43.4509851" lon="11.2841622"><ele>487.7142857142857</ele><time>2026-03-28T14:18:27.023Z</time></trkpt><trkpt lat="43.4510518" lon="11.284196"><ele>489.0</ele><time>2026-03-28T14:18:31.02Z</time></trkpt><trkpt lat="43.4511134" lon="11.2842305"><ele>489.0</ele><time>2026-03-28T14:18:35.094Z</time></trkpt><trkpt lat="43.4511776" lon="11.2843051"><ele>489.0</ele><time>2026-03-28T14:18:41.016Z</time></trkpt><trkpt lat="43.4512481" lon="11.284343"><ele>489.0</ele><time>2026-03-28T14:18:45.028Z</time></trkpt><trkpt lat="43.4513167" lon="11.2843946"><ele>489.0</ele><time>2026-03-28T14:18:50.033Z</time></trkpt><trkpt lat="43.4513876" lon="11.284421"><ele>489.0</ele><time>2026-03-28T14:18:54.029Z</time></trkpt><trkpt lat="43.4514587" lon="11.2844543"><ele>489.0</ele><time>2026-03-28T14:18:58.024Z</time></trkpt><trkpt lat="43.4515297" lon="11.2844926"><ele>489.0</ele><time>2026-03-28T14:19:02.02Z</time></trkpt><trkpt lat="43.4515911" lon="11.2845281"><ele>489.00000000000006</ele><time>2026-03-28T14:19:06.024Z</time></trkpt><trkpt lat="43.4516581" lon="11.2845732"><ele>489.0</ele><time>2026-03-28T14:19:10.033Z</time></trkpt><trkpt lat="43.4517193" lon="11.2846101"><ele>489.0</ele><time>2026-03-28T14:19:14.019Z</time></trkpt><trkpt lat="43.4517904" lon="11.2846506"><ele>489.00000000000006</ele><time>2026-03-28T14:19:19.094Z</time></trkpt><trkpt lat="43.4518503" lon="11.2846892"><ele>489.0</ele><time>2026-03-28T14:19:23.022Z</time></trkpt><trkpt lat="43.4519199" lon="11.284719"><ele>489.0</ele><time>2026-03-28T14:19:27.01Z</time></trkpt><trkpt lat="43.4519792" lon="11.2847565"><ele>490.5</ele><time>2026-03-28T14:19:31.027Z</time></trkpt><trkpt lat="43.4520399" lon="11.2847955"><ele>492.0</ele><time>2026-03-28T14:19:35.018Z</time></trkpt><trkpt lat="43.4521108" lon="11.2848288"><ele>493.5</ele><time>2026-03-28T14:19:39.035Z</time></trkpt><trkpt lat="43.4521788" lon="11.2848742"><ele>495.0</ele><time>2026-03-28T14:19:43.038Z</time></trkpt><trkpt lat="43.4522486" lon="11.2849198"><ele>496.5</ele><time>2026-03-28T14:19:47.03Z</time></trkpt><trkpt lat="43.4523231" lon="11.2849628"><ele>498.0</ele><time>2026-03-28T14:19:51.029Z</time></trkpt><trkpt lat="43.4523953" lon="11.2849947"><ele>498.0</ele><time>2026-03-28T14:19:55.033Z</time></trkpt><trkpt lat="43.4524647" lon="11.2850387"><ele>497.99999999999994</ele><time>2026-03-28T14:19:59.021Z</time></trkpt><trkpt lat="43.4525312" lon="11.2850798"><ele>498.0</ele><time>2026-03-28T14:20:03.029Z</time></trkpt><trkpt lat="43.4526013" lon="11.2851064"><ele>498.0</ele><time>2026-03-28T14:20:06.031Z</time></trkpt><trkpt lat="43.4526452" lon="11.2851827"><ele>497.99999999999994</ele><time>2026-03-28T14:20:11.036Z</time></trkpt><trkpt lat="43.4527171" lon="11.2852217"><ele>498.0</ele><time>2026-03-28T14:20:15.021Z</time></trkpt><trkpt lat="43.452784" lon="11.2852708"><ele>498.0</ele><time>2026-03-28T14:20:18.011Z</time></trkpt><trkpt lat="43.4528529" lon="11.2853171"><ele>498.0</ele><time>2026-03-28T14:20:21.034Z</time></trkpt><trkpt lat="43.4529186" lon="11.2853678"><ele>497.99999999999994</ele><time>2026-03-28T14:20:24.021Z</time></trkpt><trkpt lat="43.4529691" lon="11.2854268"><ele>498.0</ele><time>2026-03-28T14:20:27.031Z</time></trkpt><trkpt lat="43.4530191" lon="11.2854899"><ele>498.0</ele><time>2026-03-28T14:20:30.022Z</time></trkpt><trkpt lat="43.4530618" lon="11.2855629"><ele>497.99999999999994</ele><time>2026-03-28T14:20:33.031Z</time></trkpt><trkpt lat="43.4530923" lon="11.2856419"><ele>498.0</ele><time>2026-03-28T14:20:36.032Z</time></trkpt><trkpt lat="43.4531407" lon="11.2857312"><ele>498.0</ele><time>2026-03-28T14:20:40.03Z</time></trkpt><trkpt lat="43.4531663" lon="11.2858151"><ele>498.85714285714283</ele><time>2026-03-28T14:20:43.089Z</time></trkpt><trkpt lat="43.4531947" lon="11.2859055"><ele>499.71428571428567</ele><time>2026-03-28T14:20:46.03Z</time></trkpt><trkpt lat="43.4532125" lon="11.2859956"><ele>500.57142857142856</ele><time>2026-03-28T14:20:49.019Z</time></trkpt><trkpt lat="43.4532318" lon="11.2860964"><ele>501.42857142857144</ele><time>2026-03-28T14:20:52.046Z</time></trkpt><trkpt lat="43.4532297" lon="11.2861959"><ele>502.2857142857143</ele><time>2026-03-28T14:20:55.024Z</time></trkpt><trkpt lat="43.4532473" lon="11.2862833"><ele>503.1428571428571</ele><time>2026-03-28T14:20:58.023Z</time></trkpt><trkpt lat="43.4532566" lon="11.2863704"><ele>504.0</ele><time>2026-03-28T14:21:01.031Z</time></trkpt><trkpt lat="43.4532805" lon="11.2864606"><ele>504.57142857142856</ele><time>2026-03-28T14:21:04.088Z</time></trkpt><trkpt lat="43.4533064" lon="11.2865593"><ele>505.1428571428571</ele><time>2026-03-28T14:21:08.021Z</time></trkpt><trkpt lat="43.4533215" lon="11.2866454"><ele>505.7142857142857</ele><time>2026-03-28T14:21:11.018Z</time></trkpt><trkpt lat="43.4533574" lon="11.2867579"><ele>506.2857142857143</ele><time>2026-03-28T14:21:14.098Z</time></trkpt><trkpt lat="43.4534022" lon="11.2868404"><ele>506.85714285714283</ele><time>2026-03-28T14:21:17.03Z</time></trkpt><trkpt lat="43.453408" lon="11.2869372"><ele>507.42857142857144</ele><time>2026-03-28T14:21:21.018Z</time></trkpt><trkpt lat="43.4534263" lon="11.2870226"><ele>508.0</ele><time>2026-03-28T14:21:24.014Z</time></trkpt><trkpt lat="43.453449" lon="11.2871043"><ele>508.0</ele><time>2026-03-28T14:21:27.029Z</time></trkpt><trkpt lat="43.453463" lon="11.2871969"><ele>508.0</ele><time>2026-03-28T14:21:30.019Z</time></trkpt><trkpt lat="43.4535124" lon="11.2872776"><ele>508.0</ele><time>2026-03-28T14:21:33.016Z</time></trkpt><trkpt lat="43.4535682" lon="11.2873474"><ele>508.0</ele><time>2026-03-28T14:21:36.01Z</time></trkpt><trkpt lat="43.4536212" lon="11.2873967"><ele>508.0</ele><time>2026-03-28T14:21:39.006Z</time></trkpt><trkpt lat="43.4536664" lon="11.2874731"><ele>508.0</ele><time>2026-03-28T14:21:42.026Z</time></trkpt><trkpt lat="43.4537329" lon="11.2875282"><ele>508.0</ele><time>2026-03-28T14:21:45.011Z</time></trkpt><trkpt lat="43.4538" lon="11.287563"><ele>508.42857142857144</ele><time>2026-03-28T14:21:48.032Z</time></trkpt><trkpt lat="43.4538717" lon="11.2876002"><ele>508.85714285714283</ele><time>2026-03-28T14:21:51.031Z</time></trkpt><trkpt lat="43.4539356" lon="11.2876389"><ele>509.2857142857143</ele><time>2026-03-28T14:21:54.014Z</time></trkpt><trkpt lat="43.4539984" lon="11.2876723"><ele>509.7142857142857</ele><time>2026-03-28T14:21:57.019Z</time></trkpt><trkpt lat="43.4540669" lon="11.2876953"><ele>510.1428571428571</ele><time>2026-03-28T14:22:00.018Z</time></trkpt><trkpt lat="43.4541368" lon="11.2877236"><ele>510.57142857142856</ele><time>2026-03-28T14:22:03.018Z</time></trkpt><trkpt lat="43.4542034" lon="11.2877518"><ele>511.0</ele><time>2026-03-28T14:22:06.02Z</time></trkpt><trkpt lat="43.4542719" lon="11.28778"><ele>511.0</ele><time>2026-03-28T14:22:09.017Z</time></trkpt><trkpt lat="43.4543434" lon="11.2878028"><ele>511.0</ele><time>2026-03-28T14:22:12.01Z</time></trkpt><trkpt lat="43.4544064" lon="11.2878282"><ele>511.0</ele><time>2026-03-28T14:22:15.015Z</time></trkpt><trkpt lat="43.4544703" lon="11.2878454"><ele>511.0</ele><time>2026-03-28T14:22:18.032Z</time></trkpt><trkpt lat="43.4545345" lon="11.2878745"><ele>511.0</ele><time>2026-03-28T14:22:21.032Z</time></trkpt><trkpt lat="43.4545972" lon="11.2878993"><ele>511.0</ele><time>2026-03-28T14:22:24.017Z</time></trkpt><trkpt lat="43.4546594" lon="11.2879276"><ele>511.0</ele><time>2026-03-28T14:22:26.999Z</time></trkpt><trkpt lat="43.4547311" lon="11.2879622"><ele>509.83333333333337</ele><time>2026-03-28T14:22:30.031Z</time></trkpt><trkpt lat="43.4548028" lon="11.2879934"><ele>508.6666666666667</ele><time>2026-03-28T14:22:33.027Z</time></trkpt><trkpt lat="43.4548795" lon="11.2880104"><ele>507.5</ele><time>2026-03-28T14:22:36.025Z</time></trkpt><trkpt lat="43.454963" lon="11.2880445"><ele>506.33333333333337</ele><time>2026-03-28T14:22:39.035Z</time></trkpt><trkpt lat="43.4550373" lon="11.2880772"><ele>505.1666666666667</ele><time>2026-03-28T14:22:42.016Z</time></trkpt><trkpt lat="43.455109" lon="11.288114"><ele>504.0</ele><time>2026-03-28T14:22:45.025Z</time></trkpt><trkpt lat="43.4551836" lon="11.2881534"><ele>506.1428571428571</ele><time>2026-03-28T14:22:48.022Z</time></trkpt><trkpt lat="43.4552577" lon="11.2881874"><ele>508.2857142857143</ele><time>2026-03-28T14:22:51.023Z</time></trkpt><trkpt lat="43.4553225" lon="11.2882152"><ele>510.42857142857144</ele><time>2026-03-28T14:22:54.087Z</time></trkpt><trkpt lat="43.4553864" lon="11.288248"><ele>512.5714285714286</ele><time>2026-03-28T14:22:57.016Z</time></trkpt><trkpt lat="43.4554556" lon="11.2882802"><ele>514.7142857142857</ele><time>2026-03-28T14:23:00.02Z</time></trkpt><trkpt lat="43.4555261" lon="11.2883146"><ele>516.8571428571429</ele><time>2026-03-28T14:23:03.062Z</time></trkpt><trkpt lat="43.4555949" lon="11.2883434"><ele>519.0</ele><time>2026-03-28T14:23:06.016Z</time></trkpt><trkpt lat="43.4556551" lon="11.2883889"><ele>519.0</ele><time>2026-03-28T14:23:09.014Z</time></trkpt><trkpt lat="43.4557109" lon="11.2884387"><ele>519.0</ele><time>2026-03-28T14:23:12.015Z</time></trkpt><trkpt lat="43.4557809" lon="11.2884643"><ele>519.0</ele><time>2026-03-28T14:23:15.024Z</time></trkpt><trkpt lat="43.455843" lon="11.2884957"><ele>519.0</ele><time>2026-03-28T14:23:18.016Z</time></trkpt><trkpt lat="43.4559066" lon="11.2885407"><ele>519.0</ele><time>2026-03-28T14:23:21.021Z</time></trkpt><trkpt lat="43.4559646" lon="11.2885924"><ele>519.0</ele><time>2026-03-28T14:23:24.012Z</time></trkpt><trkpt lat="43.4560323" lon="11.2886502"><ele>519.0</ele><time>2026-03-28T14:23:28.031Z</time></trkpt><trkpt lat="43.456086" lon="11.2886957"><ele>519.0</ele><time>2026-03-28T14:23:31.018Z</time></trkpt><trkpt lat="43.4561377" lon="11.2887533"><ele>519.0</ele><time>2026-03-28T14:23:34.013Z</time></trkpt><trkpt lat="43.4561931" lon="11.2888113"><ele>519.0</ele><time>2026-03-28T14:23:37.017Z</time></trkpt><trkpt lat="43.4562464" lon="11.288868"><ele>519.0</ele><time>2026-03-28T14:23:40.015Z</time></trkpt><trkpt lat="43.456299" lon="11.2889354"><ele>519.0</ele><time>2026-03-28T14:23:43.023Z</time></trkpt><trkpt lat="43.4563513" lon="11.289"><ele>519.0</ele><time>2026-03-28T14:23:46.021Z</time></trkpt><trkpt lat="43.4564119" lon="11.2890757"><ele>519.0</ele><time>2026-03-28T14:23:50.084Z</time></trkpt><trkpt lat="43.4564592" lon="11.2891629"><ele>520.3333333333334</ele><time>2026-03-28T14:23:54.029Z</time></trkpt><trkpt lat="43.4565228" lon="11.2892302"><ele>521.6666666666666</ele><time>2026-03-28T14:23:57.026Z</time></trkpt><trkpt lat="43.4565737" lon="11.2892898"><ele>523.0</ele><time>2026-03-28T14:24:00.027Z</time></trkpt><trkpt lat="43.4566324" lon="11.2893518"><ele>524.3333333333333</ele><time>2026-03-28T14:24:03.026Z</time></trkpt><trkpt lat="43.4567402" lon="11.289456"><ele>525.6666666666666</ele><time>2026-03-28T14:24:09.017Z</time></trkpt><trkpt lat="43.4568142" lon="11.2895172"><ele>527.0</ele><time>2026-03-28T14:24:12.063Z</time></trkpt><trkpt lat="43.4568715" lon="11.2895657"><ele>527.0000000000001</ele><time>2026-03-28T14:24:15.029Z</time></trkpt><trkpt lat="43.4569256" lon="11.289623"><ele>527.0</ele><time>2026-03-28T14:24:18.028Z</time></trkpt><trkpt lat="43.4569809" lon="11.2896794"><ele>527.0</ele><time>2026-03-28T14:24:21.013Z</time></trkpt><trkpt lat="43.4570561" lon="11.2897186"><ele>527.0</ele><time>2026-03-28T14:24:24.025Z</time></trkpt><trkpt lat="43.4571201" lon="11.2897646"><ele>527.0</ele><time>2026-03-28T14:24:27.031Z</time></trkpt><trkpt lat="43.4571773" lon="11.2898168"><ele>527.0000000000001</ele><time>2026-03-28T14:24:30.004Z</time></trkpt><trkpt lat="43.4572362" lon="11.2898658"><ele>527.0</ele><time>2026-03-28T14:24:33.024Z</time></trkpt><trkpt lat="43.4572998" lon="11.2899041"><ele>527.5714285714287</ele><time>2026-03-28T14:24:37.001Z</time></trkpt><trkpt lat="43.4573734" lon="11.289952"><ele>528.1428571428571</ele><time>2026-03-28T14:24:40.032Z</time></trkpt><trkpt lat="43.4574423" lon="11.2899861"><ele>528.7142857142858</ele><time>2026-03-28T14:24:43.029Z</time></trkpt><trkpt lat="43.4575141" lon="11.2900274"><ele>529.2857142857143</ele><time>2026-03-28T14:24:46.022Z</time></trkpt><trkpt lat="43.4575848" lon="11.2900548"><ele>529.8571428571429</ele><time>2026-03-28T14:24:49.022Z</time></trkpt><trkpt lat="43.4576509" lon="11.290059"><ele>530.4285714285714</ele><time>2026-03-28T14:24:53.099Z</time></trkpt><trkpt lat="43.4577154" lon="11.2900824"><ele>531.0</ele><time>2026-03-28T14:24:56.013Z</time></trkpt><trkpt lat="43.4577812" lon="11.2901025"><ele>531.0</ele><time>2026-03-28T14:24:59.022Z</time></trkpt><trkpt lat="43.4578544" lon="11.2901198"><ele>531.0</ele><time>2026-03-28T14:25:02.014Z</time></trkpt><trkpt lat="43.4579331" lon="11.290135"><ele>531.0</ele><time>2026-03-28T14:25:05.02Z</time></trkpt><trkpt lat="43.4580145" lon="11.2901459"><ele>531.0</ele><time>2026-03-28T14:25:08.019Z</time></trkpt><trkpt lat="43.4580967" lon="11.2901571"><ele>531.0</ele><time>2026-03-28T14:25:11.021Z</time></trkpt><trkpt lat="43.4581747" lon="11.2901582"><ele>531.0</ele><time>2026-03-28T14:25:14.014Z</time></trkpt><trkpt lat="43.4582568" lon="11.2901567"><ele>531.3333333333334</ele><time>2026-03-28T14:25:17.028Z</time></trkpt><trkpt lat="43.458336" lon="11.2901496"><ele>531.6666666666666</ele><time>2026-03-28T14:25:20.024Z</time></trkpt><trkpt lat="43.4584204" lon="11.2901375"><ele>532.0</ele><time>2026-03-28T14:25:23.082Z</time></trkpt><trkpt lat="43.4584833" lon="11.2901318"><ele>532.3333333333333</ele><time>2026-03-28T14:25:27.02Z</time></trkpt><trkpt lat="43.4585671" lon="11.2901016"><ele>532.6666666666666</ele><time>2026-03-28T14:25:30.091Z</time></trkpt><trkpt lat="43.4586572" lon="11.2900663"><ele>533.0</ele><time>2026-03-28T14:25:33.03Z</time></trkpt><trkpt lat="43.4587304" lon="11.2900335"><ele>533.5</ele><time>2026-03-28T14:25:35.017Z</time></trkpt><trkpt lat="43.4587928" lon="11.2900103"><ele>534.0</ele><time>2026-03-28T14:25:37.025Z</time></trkpt><trkpt lat="43.4588742" lon="11.2899826"><ele>534.5</ele><time>2026-03-28T14:25:40.094Z</time></trkpt><trkpt lat="43.4589626" lon="11.2899176"><ele>535.0</ele><time>2026-03-28T14:25:43.02Z</time></trkpt><trkpt lat="43.4590341" lon="11.2899117"><ele>535.5</ele><time>2026-03-28T14:25:45.019Z</time></trkpt><trkpt lat="43.459092" lon="11.2898693"><ele>536.0</ele><time>2026-03-28T14:25:48.042Z</time></trkpt><trkpt lat="43.4591734" lon="11.2898286"><ele>536.0</ele><time>2026-03-28T14:25:52.031Z</time></trkpt><trkpt lat="43.4592609" lon="11.2898058"><ele>536.0</ele><time>2026-03-28T14:25:55.015Z</time></trkpt><trkpt lat="43.4593372" lon="11.289778"><ele>536.0</ele><time>2026-03-28T14:25:58.029Z</time></trkpt><trkpt lat="43.4594201" lon="11.2897524"><ele>536.0</ele><time>2026-03-28T14:26:01Z</time></trkpt><trkpt lat="43.4595007" lon="11.2897233"><ele>536.0</ele><time>2026-03-28T14:26:04.028Z</time></trkpt><trkpt lat="43.459581" lon="11.2896905"><ele>536.0</ele><time>2026-03-28T14:26:07.011Z</time></trkpt><trkpt lat="43.4596593" lon="11.2896534"><ele>535.0</ele><time>2026-03-28T14:26:10.019Z</time></trkpt><trkpt lat="43.4597396" lon="11.2896126"><ele>534.0</ele><time>2026-03-28T14:26:13.1Z</time></trkpt><trkpt lat="43.45981" lon="11.2895748"><ele>533.0</ele><time>2026-03-28T14:26:16.026Z</time></trkpt><trkpt lat="43.4598828" lon="11.2895404"><ele>532.0</ele><time>2026-03-28T14:26:19.104Z</time></trkpt><trkpt lat="43.4599538" lon="11.2895005"><ele>531.0</ele><time>2026-03-28T14:26:22.021Z</time></trkpt><trkpt lat="43.4600345" lon="11.2894486"><ele>530.0</ele><time>2026-03-28T14:26:25.023Z</time></trkpt><trkpt lat="43.4601151" lon="11.2893993"><ele>530.0</ele><time>2026-03-28T14:26:28.015Z</time></trkpt><trkpt lat="43.4601886" lon="11.289348"><ele>530.0</ele><time>2026-03-28T14:26:31.017Z</time></trkpt><trkpt lat="43.4602671" lon="11.289311"><ele>530.0</ele><time>2026-03-28T14:26:34.028Z</time></trkpt><trkpt lat="43.4603426" lon="11.2892624"><ele>530.0</ele><time>2026-03-28T14:26:37.033Z</time></trkpt><trkpt lat="43.4604224" lon="11.2892084"><ele>530.0</ele><time>2026-03-28T14:26:40.028Z</time></trkpt><trkpt lat="43.4604859" lon="11.2891618"><ele>530.0</ele><time>2026-03-28T14:26:43.023Z</time></trkpt><trkpt lat="43.4605549" lon="11.2891168"><ele>530.0</ele><time>2026-03-28T14:26:46.032Z</time></trkpt><trkpt lat="43.4606297" lon="11.2890647"><ele>530.0</ele><time>2026-03-28T14:26:49.101Z</time></trkpt><trkpt lat="43.4607092" lon="11.289013"><ele>530.0</ele><time>2026-03-28T14:26:53.093Z</time></trkpt><trkpt lat="43.4607618" lon="11.2889494"><ele>530.0</ele><time>2026-03-28T14:26:55.019Z</time></trkpt><trkpt lat="43.4608368" lon="11.2889373"><ele>530.0</ele><time>2026-03-28T14:26:57.008Z</time></trkpt><trkpt lat="43.4608989" lon="11.2889132"><ele>530.0</ele><time>2026-03-28T14:27:00.034Z</time></trkpt><trkpt lat="43.4609705" lon="11.2888701"><ele>529.9999999999999</ele><time>2026-03-28T14:27:03.069Z</time></trkpt><trkpt lat="43.4610398" lon="11.2888365"><ele>530.0</ele><time>2026-03-28T14:27:06.024Z</time></trkpt><trkpt lat="43.4611108" lon="11.2888048"><ele>530.0</ele><time>2026-03-28T14:27:09.016Z</time></trkpt><trkpt lat="43.4611784" lon="11.2887825"><ele>530.0</ele><time>2026-03-28T14:27:12.037Z</time></trkpt><trkpt lat="43.461253" lon="11.28875"><ele>530.0</ele><time>2026-03-28T14:27:15.021Z</time></trkpt><trkpt lat="43.46132" lon="11.288702"><ele>529.9999999999999</ele><time>2026-03-28T14:27:18.04Z</time></trkpt><trkpt lat="43.46139" lon="11.28866"><ele>530.0</ele><time>2026-03-28T14:27:21.039Z</time></trkpt><trkpt lat="43.4614616" lon="11.2886252"><ele>532.3333333333333</ele><time>2026-03-28T14:27:24.024Z</time></trkpt><trkpt lat="43.4615354" lon="11.2885849"><ele>534.6666666666666</ele><time>2026-03-28T14:27:27.009Z</time></trkpt><trkpt lat="43.4616084" lon="11.2885399"><ele>537.0</ele><time>2026-03-28T14:27:30.031Z</time></trkpt><trkpt lat="43.4616818" lon="11.2885014"><ele>539.3333333333334</ele><time>2026-03-28T14:27:33.013Z</time></trkpt><trkpt lat="43.4617539" lon="11.288462"><ele>541.6666666666667</ele><time>2026-03-28T14:27:36.019Z</time></trkpt><trkpt lat="43.4618288" lon="11.2884273"><ele>544.0</ele><time>2026-03-28T14:27:39Z</time></trkpt><trkpt lat="43.4619022" lon="11.2883874"><ele>543.9999999999999</ele><time>2026-03-28T14:27:42.005Z</time></trkpt><trkpt lat="43.4619735" lon="11.2883504"><ele>544.0</ele><time>2026-03-28T14:27:45.011Z</time></trkpt><trkpt lat="43.4620434" lon="11.2883212"><ele>544.0</ele><time>2026-03-28T14:27:48.004Z</time></trkpt><trkpt lat="43.462105" lon="11.2882918"><ele>544.0</ele><time>2026-03-28T14:27:51.014Z</time></trkpt><trkpt lat="43.4621701" lon="11.288261"><ele>544.0</ele><time>2026-03-28T14:27:54.014Z</time></trkpt><trkpt lat="43.4622316" lon="11.2882268"><ele>543.9999999999999</ele><time>2026-03-28T14:27:57.003Z</time></trkpt><trkpt lat="43.4622981" lon="11.2881958"><ele>544.0</ele><time>2026-03-28T14:28:00.013Z</time></trkpt><trkpt lat="43.4623639" lon="11.2881639"><ele>543.7142857142857</ele><time>2026-03-28T14:28:03.007Z</time></trkpt><trkpt lat="43.4624251" lon="11.2881362"><ele>543.4285714285714</ele><time>2026-03-28T14:28:06.005Z</time></trkpt><trkpt lat="43.4625028" lon="11.2880963"><ele>543.1428571428571</ele><time>2026-03-28T14:28:10.028Z</time></trkpt><trkpt lat="43.4625646" lon="11.2880603"><ele>542.8571428571429</ele><time>2026-03-28T14:28:13.013Z</time></trkpt><trkpt lat="43.4626417" lon="11.2880227"><ele>542.5714285714286</ele><time>2026-03-28T14:28:17.013Z</time></trkpt><trkpt lat="43.4627211" lon="11.2879948"><ele>542.2857142857142</ele><time>2026-03-28T14:28:21.012Z</time></trkpt><trkpt lat="43.4627844" lon="11.2879854"><ele>542.0</ele><time>2026-03-28T14:28:24.011Z</time></trkpt><trkpt lat="43.4628483" lon="11.2879762"><ele>542.0</ele><time>2026-03-28T14:28:27.011Z</time></trkpt><trkpt lat="43.4629117" lon="11.2879789"><ele>542.0</ele><time>2026-03-28T14:28:30.004Z</time></trkpt><trkpt lat="43.4629884" lon="11.2879901"><ele>542.0</ele><time>2026-03-28T14:28:34.025Z</time></trkpt><trkpt lat="43.463065" lon="11.2880041"><ele>542.0</ele><time>2026-03-28T14:28:38.009Z</time></trkpt><trkpt lat="43.4631315" lon="11.2880471"><ele>542.0</ele><time>2026-03-28T14:28:42.008Z</time></trkpt><trkpt lat="43.4631982" lon="11.2880714"><ele>542.0</ele><time>2026-03-28T14:28:46.017Z</time></trkpt><trkpt lat="43.4632683" lon="11.2881106"><ele>542.0</ele><time>2026-03-28T14:28:50.015Z</time></trkpt><trkpt lat="43.4633331" lon="11.2881438"><ele>543.8571428571429</ele><time>2026-03-28T14:28:54.005Z</time></trkpt><trkpt lat="43.4633965" lon="11.2881703"><ele>545.7142857142858</ele><time>2026-03-28T14:28:58.006Z</time></trkpt><trkpt lat="43.4634625" lon="11.2882035"><ele>547.5714285714287</ele><time>2026-03-28T14:29:02Z</time></trkpt><trkpt lat="43.4635353" lon="11.2882277"><ele>549.4285714285714</ele><time>2026-03-28T14:29:06.012Z</time></trkpt><trkpt lat="43.463597" lon="11.2882843"><ele>551.2857142857143</ele><time>2026-03-28T14:29:10.007Z</time></trkpt><trkpt lat="43.4636636" lon="11.288321"><ele>553.1428571428572</ele><time>2026-03-28T14:29:14.018Z</time></trkpt><trkpt lat="43.4637255" lon="11.2883691"><ele>555.0</ele><time>2026-03-28T14:29:18.011Z</time></trkpt><trkpt lat="43.4637951" lon="11.2884158"><ele>555.7142857142858</ele><time>2026-03-28T14:29:22.007Z</time></trkpt><trkpt lat="43.4638732" lon="11.2884524"><ele>556.4285714285714</ele><time>2026-03-28T14:29:26.028Z</time></trkpt><trkpt lat="43.4639344" lon="11.2885025"><ele>557.1428571428571</ele><time>2026-03-28T14:29:30.018Z</time></trkpt><trkpt lat="43.4639947" lon="11.2885611"><ele>557.8571428571429</ele><time>2026-03-28T14:29:34.002Z</time></trkpt><trkpt lat="43.4640452" lon="11.2886364"><ele>558.5714285714286</ele><time>2026-03-28T14:29:38.011Z</time></trkpt><trkpt lat="43.4640885" lon="11.2887269"><ele>559.2857142857143</ele><time>2026-03-28T14:29:42.028Z</time></trkpt><trkpt lat="43.4641119" lon="11.2888101"><ele>560.0</ele><time>2026-03-28T14:29:45.014Z</time></trkpt><trkpt lat="43.4641296" lon="11.2888942"><ele>560.1428571428571</ele><time>2026-03-28T14:29:48.015Z</time></trkpt><trkpt lat="43.4641458" lon="11.2889996"><ele>560.2857142857142</ele><time>2026-03-28T14:29:52.016Z</time></trkpt><trkpt lat="43.464174" lon="11.2891011"><ele>560.4285714285714</ele><time>2026-03-28T14:29:56.02Z</time></trkpt><trkpt lat="43.46419" lon="11.2891915"><ele>560.5714285714286</ele><time>2026-03-28T14:29:59.009Z</time></trkpt><trkpt lat="43.4642234" lon="11.2892792"><ele>560.7142857142857</ele><time>2026-03-28T14:30:02.027Z</time></trkpt><trkpt lat="43.4642374" lon="11.2893809"><ele>560.8571428571429</ele><time>2026-03-28T14:30:05.02Z</time></trkpt><trkpt lat="43.4642677" lon="11.2894675"><ele>561.0</ele><time>2026-03-28T14:30:08.023Z</time></trkpt><trkpt lat="43.4643113" lon="11.2895356"><ele>561.0</ele><time>2026-03-28T14:30:11.022Z</time></trkpt><trkpt lat="43.4643775" lon="11.2895728"><ele>561.0</ele><time>2026-03-28T14:30:15.011Z</time></trkpt><trkpt lat="43.4644524" lon="11.2895716"><ele>561.0</ele><time>2026-03-28T14:30:19.027Z</time></trkpt><trkpt lat="43.4645187" lon="11.2895442"><ele>561.0</ele><time>2026-03-28T14:30:22.01Z</time></trkpt><trkpt lat="43.464593" lon="11.2895201"><ele>561.0</ele><time>2026-03-28T14:30:25.011Z</time></trkpt><trkpt lat="43.4646679" lon="11.2894928"><ele>561.0</ele><time>2026-03-28T14:30:28.007Z</time></trkpt><trkpt lat="43.464743" lon="11.2894709"><ele>561.0</ele><time>2026-03-28T14:30:31.014Z</time></trkpt><trkpt lat="43.4648255" lon="11.2894529"><ele>561.5</ele><time>2026-03-28T14:30:34.013Z</time></trkpt><trkpt lat="43.4649081" lon="11.2894281"><ele>562.0</ele><time>2026-03-28T14:30:37.036Z</time></trkpt><trkpt lat="43.464987" lon="11.2894017"><ele>562.5</ele><time>2026-03-28T14:30:40.018Z</time></trkpt><trkpt lat="43.4650648" lon="11.2893861"><ele>563.0</ele><time>2026-03-28T14:30:43.013Z</time></trkpt><trkpt lat="43.4651411" lon="11.2893646"><ele>563.5</ele><time>2026-03-28T14:30:46.029Z</time></trkpt><trkpt lat="43.4652155" lon="11.289339"><ele>564.0</ele><time>2026-03-28T14:30:49.019Z</time></trkpt><trkpt lat="43.4652859" lon="11.2893147"><ele>564.0</ele><time>2026-03-28T14:30:52.011Z</time></trkpt><trkpt lat="43.4653577" lon="11.2892994"><ele>564.0</ele><time>2026-03-28T14:30:55.025Z</time></trkpt><trkpt lat="43.4654313" lon="11.289285"><ele>564.0</ele><time>2026-03-28T14:30:58.015Z</time></trkpt><trkpt lat="43.4655022" lon="11.2892714"><ele>564.0</ele><time>2026-03-28T14:31:01.005Z</time></trkpt><trkpt lat="43.4655747" lon="11.2892466"><ele>564.0</ele><time>2026-03-28T14:31:04.011Z</time></trkpt><trkpt lat="43.4656371" lon="11.2892283"><ele>564.0</ele><time>2026-03-28T14:31:07.025Z</time></trkpt><trkpt lat="43.4657012" lon="11.2892073"><ele>564.0</ele><time>2026-03-28T14:31:10.016Z</time></trkpt><trkpt lat="43.4657801" lon="11.2891823"><ele>564.4285714285714</ele><time>2026-03-28T14:31:14.02Z</time></trkpt><trkpt lat="43.4658414" lon="11.2891552"><ele>564.8571428571429</ele><time>2026-03-28T14:31:17.009Z</time></trkpt><trkpt lat="43.4659007" lon="11.289126"><ele>565.2857142857142</ele><time>2026-03-28T14:31:20.015Z</time></trkpt><trkpt lat="43.4659803" lon="11.2890955"><ele>565.7142857142858</ele><time>2026-03-28T14:31:24.009Z</time></trkpt><trkpt lat="43.4660488" lon="11.2890552"><ele>566.1428571428571</ele><time>2026-03-28T14:31:27.01Z</time></trkpt><trkpt lat="43.4661096" lon="11.2890242"><ele>566.5714285714286</ele><time>2026-03-28T14:31:30.016Z</time></trkpt><trkpt lat="43.4661734" lon="11.288998"><ele>567.0</ele><time>2026-03-28T14:31:33.014Z</time></trkpt><trkpt lat="43.4662427" lon="11.2889765"><ele>566.3333333333334</ele><time>2026-03-28T14:31:36.014Z</time></trkpt><trkpt lat="43.4663106" lon="11.2889485"><ele>565.6666666666666</ele><time>2026-03-28T14:31:39.027Z</time></trkpt><trkpt lat="43.4663794" lon="11.2888998"><ele>565.0</ele><time>2026-03-28T14:31:42.015Z</time></trkpt><trkpt lat="43.4664617" lon="11.2888474"><ele>564.3333333333333</ele><time>2026-03-28T14:31:45.006Z</time></trkpt><trkpt lat="43.4665418" lon="11.2887827"><ele>563.6666666666666</ele><time>2026-03-28T14:31:48.016Z</time></trkpt><trkpt lat="43.4665973" lon="11.2887389"><ele>563.0</ele><time>2026-03-28T14:31:50.03Z</time></trkpt><trkpt lat="43.4666648" lon="11.2887168"><ele>564.2857142857142</ele><time>2026-03-28T14:31:52.018Z</time></trkpt><trkpt lat="43.4667315" lon="11.2886992"><ele>565.5714285714286</ele><time>2026-03-28T14:31:54.007Z</time></trkpt><trkpt lat="43.4668231" lon="11.2886661"><ele>566.8571428571429</ele><time>2026-03-28T14:31:57.007Z</time></trkpt><trkpt lat="43.4668828" lon="11.2886257"><ele>568.1428571428571</ele><time>2026-03-28T14:31:59.02Z</time></trkpt><trkpt lat="43.466944" lon="11.288585"><ele>569.4285714285714</ele><time>2026-03-28T14:32:01.018Z</time></trkpt><trkpt lat="43.4670029" lon="11.2885361"><ele>570.7142857142857</ele><time>2026-03-28T14:32:03.018Z</time></trkpt><trkpt lat="43.4670513" lon="11.2884782"><ele>572.0</ele><time>2026-03-28T14:32:05.011Z</time></trkpt><trkpt lat="43.4671074" lon="11.2884314"><ele>571.5</ele><time>2026-03-28T14:32:07.015Z</time></trkpt><trkpt lat="43.4671791" lon="11.2883502"><ele>571.0</ele><time>2026-03-28T14:32:10.009Z</time></trkpt><trkpt lat="43.4672237" lon="11.2882798"><ele>570.5</ele><time>2026-03-28T14:32:12.02Z</time></trkpt><trkpt lat="43.4672782" lon="11.288177"><ele>570.0</ele><time>2026-03-28T14:32:15.012Z</time></trkpt><trkpt lat="43.467318" lon="11.2880808"><ele>569.5</ele><time>2026-03-28T14:32:18.013Z</time></trkpt><trkpt lat="43.4673679" lon="11.2879819"><ele>569.0</ele><time>2026-03-28T14:32:21.012Z</time></trkpt><trkpt lat="43.4674168" lon="11.2878875"><ele>569.0</ele><time>2026-03-28T14:32:24.022Z</time></trkpt><trkpt lat="43.4674542" lon="11.2877943"><ele>569.0</ele><time>2026-03-28T14:32:27.028Z</time></trkpt><trkpt lat="43.4675046" lon="11.2876995"><ele>569.0</ele><time>2026-03-28T14:32:30.03Z</time></trkpt><trkpt lat="43.4675526" lon="11.2876268"><ele>569.0</ele><time>2026-03-28T14:32:32.017Z</time></trkpt><trkpt lat="43.4676069" lon="11.2875492"><ele>569.0</ele><time>2026-03-28T14:32:34.02Z</time></trkpt><trkpt lat="43.4676625" lon="11.2874715"><ele>569.0</ele><time>2026-03-28T14:32:36.025Z</time></trkpt><trkpt lat="43.4677517" lon="11.2873964"><ele>569.0</ele><time>2026-03-28T14:32:38.016Z</time></trkpt><trkpt lat="43.4678469" lon="11.2873385"><ele>569.0</ele><time>2026-03-28T14:32:40.019Z</time></trkpt><trkpt lat="43.4679324" lon="11.2872967"><ele>569.0</ele><time>2026-03-28T14:32:42.004Z</time></trkpt><trkpt lat="43.4680243" lon="11.2872441"><ele>569.0</ele><time>2026-03-28T14:32:44.015Z</time></trkpt><trkpt lat="43.4681177" lon="11.2871896"><ele>569.0</ele><time>2026-03-28T14:32:46.012Z</time></trkpt><trkpt lat="43.4682005" lon="11.2871412"><ele>568.5714285714287</ele><time>2026-03-28T14:32:48.009Z</time></trkpt><trkpt lat="43.4682717" lon="11.2870806"><ele>568.1428571428571</ele><time>2026-03-28T14:32:50.023Z</time></trkpt><trkpt lat="43.4683251" lon="11.2870216"><ele>567.7142857142858</ele><time>2026-03-28T14:32:52.013Z</time></trkpt><trkpt lat="43.4683801" lon="11.2869644"><ele>567.2857142857143</ele><time>2026-03-28T14:32:54.006Z</time></trkpt><trkpt lat="43.4684312" lon="11.2868993"><ele>566.8571428571429</ele><time>2026-03-28T14:32:56.017Z</time></trkpt><trkpt lat="43.468482" lon="11.2868314"><ele>566.4285714285714</ele><time>2026-03-28T14:32:58.036Z</time></trkpt><trkpt lat="43.468533" lon="11.2867659"><ele>566.0</ele><time>2026-03-28T14:33:00.009Z</time></trkpt><trkpt lat="43.4685836" lon="11.2867"><ele>566.0</ele><time>2026-03-28T14:33:02.031Z</time></trkpt><trkpt lat="43.468633" lon="11.2866366"><ele>566.0</ele><time>2026-03-28T14:33:04.03Z</time></trkpt><trkpt lat="43.4686887" lon="11.286571"><ele>566.0</ele><time>2026-03-28T14:33:06.01Z</time></trkpt><trkpt lat="43.4687372" lon="11.2865053"><ele>566.0</ele><time>2026-03-28T14:33:08.025Z</time></trkpt><trkpt lat="43.4687787" lon="11.2864395"><ele>566.0</ele><time>2026-03-28T14:33:10.03Z</time></trkpt><trkpt lat="43.4688422" lon="11.286366"><ele>566.0</ele><time>2026-03-28T14:33:12.056Z</time></trkpt><trkpt lat="43.4689225" lon="11.2862985"><ele>566.0</ele><time>2026-03-28T14:33:14.005Z</time></trkpt><trkpt lat="43.4690003" lon="11.2862314"><ele>566.0</ele><time>2026-03-28T14:33:16.007Z</time></trkpt><trkpt lat="43.4690916" lon="11.2861785"><ele>566.0</ele><time>2026-03-28T14:33:18.016Z</time></trkpt><trkpt lat="43.4691796" lon="11.2861391"><ele>566.0</ele><time>2026-03-28T14:33:20.029Z</time></trkpt><trkpt lat="43.4692714" lon="11.2861291"><ele>566.0</ele><time>2026-03-28T14:33:22.019Z</time></trkpt><trkpt lat="43.4693626" lon="11.2861219"><ele>566.0</ele><time>2026-03-28T14:33:24.011Z</time></trkpt><trkpt lat="43.4694535" lon="11.2861197"><ele>566.0</ele><time>2026-03-28T14:33:26.007Z</time></trkpt><trkpt lat="43.4695459" lon="11.2861171"><ele>566.0</ele><time>2026-03-28T14:33:28.017Z</time></trkpt><trkpt lat="43.4696333" lon="11.2861166"><ele>566.0</ele><time>2026-03-28T14:33:30.036Z</time></trkpt><trkpt lat="43.4697268" lon="11.286107"><ele>566.0</ele><time>2026-03-28T14:33:32.031Z</time></trkpt><trkpt lat="43.4698176" lon="11.2860959"><ele>566.0</ele><time>2026-03-28T14:33:34.013Z</time></trkpt><trkpt lat="43.4699057" lon="11.2860517"><ele>566.3333333333333</ele><time>2026-03-28T14:33:36.034Z</time></trkpt><trkpt lat="43.4699943" lon="11.286018"><ele>566.6666666666666</ele><time>2026-03-28T14:33:38.017Z</time></trkpt><trkpt lat="43.4700728" lon="11.2859731"><ele>567.0</ele><time>2026-03-28T14:33:40.005Z</time></trkpt><trkpt lat="43.4701561" lon="11.2859173"><ele>567.3333333333334</ele><time>2026-03-28T14:33:42.031Z</time></trkpt><trkpt lat="43.4702328" lon="11.2858678"><ele>567.6666666666667</ele><time>2026-03-28T14:33:44.019Z</time></trkpt><trkpt lat="43.4702981" lon="11.2858323"><ele>568.0</ele><time>2026-03-28T14:33:46.013Z</time></trkpt><trkpt lat="43.4703597" lon="11.2857932"><ele>568.0</ele><time>2026-03-28T14:33:48.013Z</time></trkpt><trkpt lat="43.4704266" lon="11.2857647"><ele>568.0</ele><time>2026-03-28T14:33:50.01Z</time></trkpt><trkpt lat="43.4704901" lon="11.285732"><ele>568.0</ele><time>2026-03-28T14:33:52.017Z</time></trkpt><trkpt lat="43.4705535" lon="11.2856979"><ele>568.0</ele><time>2026-03-28T14:33:54.009Z</time></trkpt><trkpt lat="43.4706174" lon="11.2856605"><ele>568.0</ele><time>2026-03-28T14:33:56.014Z</time></trkpt><trkpt lat="43.4706807" lon="11.285621"><ele>568.0</ele><time>2026-03-28T14:33:58.008Z</time></trkpt><trkpt lat="43.4707401" lon="11.2855892"><ele>568.0</ele><time>2026-03-28T14:34:00.035Z</time></trkpt><trkpt lat="43.4708027" lon="11.2855552"><ele>567.1428571428571</ele><time>2026-03-28T14:34:02.02Z</time></trkpt><trkpt lat="43.4708659" lon="11.2855218"><ele>566.2857142857142</ele><time>2026-03-28T14:34:04.021Z</time></trkpt><trkpt lat="43.4709245" lon="11.2854883"><ele>565.4285714285714</ele><time>2026-03-28T14:34:06.01Z</time></trkpt><trkpt lat="43.4709838" lon="11.2854544"><ele>564.5714285714286</ele><time>2026-03-28T14:34:09.006Z</time></trkpt><trkpt lat="43.4710699" lon="11.2854395"><ele>563.7142857142858</ele><time>2026-03-28T14:34:13.022Z</time></trkpt><trkpt lat="43.4711451" lon="11.285444"><ele>562.8571428571429</ele><time>2026-03-28T14:34:16.013Z</time></trkpt><trkpt lat="43.4712156" lon="11.2854527"><ele>562.0</ele><time>2026-03-28T14:34:19.023Z</time></trkpt><trkpt lat="43.4712828" lon="11.2854752"><ele>564.0000000000001</ele><time>2026-03-28T14:34:23.047Z</time></trkpt><trkpt lat="43.4713361" lon="11.2855364"><ele>566.0</ele><time>2026-03-28T14:34:31.044Z</time></trkpt><trkpt lat="43.4713634" lon="11.2854504"><ele>568.0</ele><time>2026-03-28T14:34:37.025Z</time></trkpt><trkpt lat="43.4713492" lon="11.2853415"><ele>570.0</ele><time>2026-03-28T14:34:41.022Z</time></trkpt><trkpt lat="43.4713538" lon="11.2852321"><ele>572.0</ele><time>2026-03-28T14:34:45.031Z</time></trkpt><trkpt lat="43.4713617" lon="11.2851326"><ele>574.0000000000001</ele><time>2026-03-28T14:34:49.034Z</time></trkpt><trkpt lat="43.471365" lon="11.2850459"><ele>576.0</ele><time>2026-03-28T14:34:52.006Z</time></trkpt><trkpt lat="43.4713622" lon="11.284951"><ele>576.0000000000001</ele><time>2026-03-28T14:34:55.019Z</time></trkpt><trkpt lat="43.4713622" lon="11.2848494"><ele>576.0</ele><time>2026-03-28T14:34:58.02Z</time></trkpt><trkpt lat="43.4713769" lon="11.2847639"><ele>576.0</ele><time>2026-03-28T14:35:01.014Z</time></trkpt><trkpt lat="43.4713928" lon="11.2846588"><ele>576.0</ele><time>2026-03-28T14:35:05.027Z</time></trkpt><trkpt lat="43.4713997" lon="11.2845602"><ele>576.0</ele><time>2026-03-28T14:35:10.008Z</time></trkpt><trkpt lat="43.4713887" lon="11.2844647"><ele>576.0000000000001</ele><time>2026-03-28T14:36:26.016Z</time></trkpt><trkpt lat="43.4713887" lon="11.284355"><ele>576.0</ele><time>2026-03-28T14:36:30.04Z</time></trkpt><trkpt lat="43.4714006" lon="11.2842473"><ele>576.6</ele><time>2026-03-28T14:36:33.095Z</time></trkpt><trkpt lat="43.4714318" lon="11.2841247"><ele>577.2</ele><time>2026-03-28T14:36:36.037Z</time></trkpt><trkpt lat="43.4714419" lon="11.2840358"><ele>577.8</ele><time>2026-03-28T14:36:38.034Z</time></trkpt><trkpt lat="43.4714478" lon="11.2839463"><ele>578.4</ele><time>2026-03-28T14:36:40.025Z</time></trkpt><trkpt lat="43.4714636" lon="11.2838613"><ele>579.0</ele><time>2026-03-28T14:36:42.026Z</time></trkpt><trkpt lat="43.4714867" lon="11.2835373"><ele>579.1666666666666</ele><time>2026-03-28T14:36:46.021Z</time></trkpt><trkpt lat="43.4715231" lon="11.2834611"><ele>579.3333333333334</ele><time>2026-03-28T14:36:51.016Z</time></trkpt><trkpt lat="43.4715253" lon="11.2833463"><ele>579.5</ele><time>2026-03-28T14:36:54.017Z</time></trkpt><trkpt lat="43.4715253" lon="11.2832239"><ele>579.6666666666667</ele><time>2026-03-28T14:36:57.02Z</time></trkpt><trkpt lat="43.471504" lon="11.2831219"><ele>579.8333333333334</ele><time>2026-03-28T14:36:59.105Z</time></trkpt><trkpt lat="43.4714671" lon="11.2830251"><ele>580.0</ele><time>2026-03-28T14:37:01.021Z</time></trkpt><trkpt lat="43.4714264" lon="11.2829274"><ele>580.6666666666667</ele><time>2026-03-28T14:37:03.092Z</time></trkpt><trkpt lat="43.4713697" lon="11.2828595"><ele>581.3333333333334</ele><time>2026-03-28T14:37:05.039Z</time></trkpt><trkpt lat="43.4712784" lon="11.2828174"><ele>582.0</ele><time>2026-03-28T14:37:07.035Z</time></trkpt><trkpt lat="43.4711823" lon="11.2827686"><ele>582.6666666666666</ele><time>2026-03-28T14:37:09.028Z</time></trkpt><trkpt lat="43.4711261" lon="11.2827043"><ele>583.3333333333333</ele><time>2026-03-28T14:37:11.016Z</time></trkpt><trkpt lat="43.4710715" lon="11.2826264"><ele>584.0</ele><time>2026-03-28T14:37:14.034Z</time></trkpt><trkpt lat="43.4710158" lon="11.2825853"><ele>581.6666666666666</ele><time>2026-03-28T14:37:15.03Z</time></trkpt><trkpt lat="43.4709389" lon="11.2824994"><ele>579.3333333333333</ele><time>2026-03-28T14:37:17.066Z</time></trkpt><trkpt lat="43.4708974" lon="11.2823872"><ele>577.0</ele><time>2026-03-28T14:37:19.028Z</time></trkpt><trkpt lat="43.4708823" lon="11.2822722"><ele>574.6666666666666</ele><time>2026-03-28T14:37:21.017Z</time></trkpt><trkpt lat="43.4708812" lon="11.2821599"><ele>572.3333333333334</ele><time>2026-03-28T14:37:23.027Z</time></trkpt><trkpt lat="43.4708962" lon="11.2820477"><ele>570.0</ele><time>2026-03-28T14:37:25.019Z</time></trkpt><trkpt lat="43.4709173" lon="11.2819385"><ele>570.0</ele><time>2026-03-28T14:37:27.029Z</time></trkpt><trkpt lat="43.4709431" lon="11.2818365"><ele>570.0</ele><time>2026-03-28T14:37:29.087Z</time></trkpt><trkpt lat="43.4709978" lon="11.2817496"><ele>570.0</ele><time>2026-03-28T14:37:31.034Z</time></trkpt><trkpt lat="43.471019" lon="11.2816196"><ele>570.0</ele><time>2026-03-28T14:37:34.089Z</time></trkpt><trkpt lat="43.4710198" lon="11.2814843"><ele>570.0</ele><time>2026-03-28T14:37:36.026Z</time></trkpt><trkpt lat="43.4710182" lon="11.2813471"><ele>569.5</ele><time>2026-03-28T14:37:38.012Z</time></trkpt><trkpt lat="43.4710076" lon="11.2812392"><ele>569.0</ele><time>2026-03-28T14:37:40.102Z</time></trkpt><trkpt lat="43.4709804" lon="11.2811434"><ele>568.5</ele><time>2026-03-28T14:37:42.045Z</time></trkpt><trkpt lat="43.4709412" lon="11.2810521"><ele>568.0</ele><time>2026-03-28T14:37:44.084Z</time></trkpt><trkpt lat="43.470958" lon="11.2809582"><ele>567.5</ele><time>2026-03-28T14:37:45.088Z</time></trkpt><trkpt lat="43.4709798" lon="11.2808006"><ele>567.0</ele><time>2026-03-28T14:37:47.02Z</time></trkpt><trkpt lat="43.4709722" lon="11.2806756"><ele>565.8333333333334</ele><time>2026-03-28T14:37:49.02Z</time></trkpt><trkpt lat="43.4709691" lon="11.2805502"><ele>564.6666666666666</ele><time>2026-03-28T14:37:51.024Z</time></trkpt><trkpt lat="43.4710021" lon="11.280437"><ele>563.5</ele><time>2026-03-28T14:37:53.021Z</time></trkpt><trkpt lat="43.4710499" lon="11.2803396"><ele>562.3333333333333</ele><time>2026-03-28T14:37:55.089Z</time></trkpt><trkpt lat="43.4711044" lon="11.2802495"><ele>561.1666666666666</ele><time>2026-03-28T14:37:57.032Z</time></trkpt><trkpt lat="43.4711845" lon="11.2802188"><ele>560.0</ele><time>2026-03-28T14:37:59.009Z</time></trkpt><trkpt lat="43.4712655" lon="11.2802094"><ele>561.4</ele><time>2026-03-28T14:38:01.035Z</time></trkpt><trkpt lat="43.4713529" lon="11.2802221"><ele>562.8</ele><time>2026-03-28T14:38:03.083Z</time></trkpt><trkpt lat="43.4714334" lon="11.2802382"><ele>564.2</ele><time>2026-03-28T14:38:05.084Z</time></trkpt><trkpt lat="43.4715138" lon="11.2803063"><ele>565.6</ele><time>2026-03-28T14:38:08.021Z</time></trkpt><trkpt lat="43.4716062" lon="11.2803038"><ele>567.0</ele><time>2026-03-28T14:38:10.02Z</time></trkpt><trkpt lat="43.4717013" lon="11.2803011"><ele>567.0</ele><time>2026-03-28T14:38:12.022Z</time></trkpt><trkpt lat="43.471788" lon="11.2802849"><ele>567.0</ele><time>2026-03-28T14:38:14.089Z</time></trkpt><trkpt lat="43.4718752" lon="11.2802609"><ele>567.0</ele><time>2026-03-28T14:38:16.013Z</time></trkpt><trkpt lat="43.4719656" lon="11.2801824"><ele>567.0</ele><time>2026-03-28T14:38:18.1Z</time></trkpt><trkpt lat="43.472054" lon="11.2801033"><ele>567.0</ele><time>2026-03-28T14:38:20.095Z</time></trkpt><trkpt lat="43.4721301" lon="11.2799925"><ele>569.6</ele><time>2026-03-28T14:38:22.024Z</time></trkpt><trkpt lat="43.4721759" lon="11.2798872"><ele>572.2</ele><time>2026-03-28T14:38:24.084Z</time></trkpt><trkpt lat="43.4721864" lon="11.2797792"><ele>574.8</ele><time>2026-03-28T14:38:26.022Z</time></trkpt><trkpt lat="43.4722002" lon="11.2796439"><ele>577.4</ele><time>2026-03-28T14:38:28.098Z</time></trkpt><trkpt lat="43.472185" lon="11.2795154"><ele>580.0</ele><time>2026-03-28T14:38:30.093Z</time></trkpt><trkpt lat="43.4721509" lon="11.2793928"><ele>577.2</ele><time>2026-03-28T14:38:32.032Z</time></trkpt><trkpt lat="43.4721065" lon="11.279304"><ele>574.4</ele><time>2026-03-28T14:38:34.11Z</time></trkpt><trkpt lat="43.4720434" lon="11.2792461"><ele>571.6</ele><time>2026-03-28T14:38:36.032Z</time></trkpt><trkpt lat="43.4719817" lon="11.279174"><ele>568.8</ele><time>2026-03-28T14:38:38.026Z</time></trkpt><trkpt lat="43.4719148" lon="11.2790641"><ele>566.0</ele><time>2026-03-28T14:38:40.029Z</time></trkpt><trkpt lat="43.4718306" lon="11.2789624"><ele>568.0</ele><time>2026-03-28T14:38:42.019Z</time></trkpt><trkpt lat="43.4717503" lon="11.27887"><ele>570.0</ele><time>2026-03-28T14:38:44.025Z</time></trkpt><trkpt lat="43.471676" lon="11.2787853"><ele>572.0</ele><time>2026-03-28T14:38:46.029Z</time></trkpt><trkpt lat="43.4716052" lon="11.2786992"><ele>574.0</ele><time>2026-03-28T14:38:48.016Z</time></trkpt><trkpt lat="43.4715323" lon="11.278608"><ele>576.0</ele><time>2026-03-28T14:38:50.092Z</time></trkpt><trkpt lat="43.471481" lon="11.2785064"><ele>576.0</ele><time>2026-03-28T14:38:52.027Z</time></trkpt><trkpt lat="43.4714476" lon="11.2784028"><ele>576.0</ele><time>2026-03-28T14:38:54.042Z</time></trkpt><trkpt lat="43.4714403" lon="11.2782875"><ele>576.0</ele><time>2026-03-28T14:38:56.035Z</time></trkpt><trkpt lat="43.4714548" lon="11.2781694"><ele>576.0</ele><time>2026-03-28T14:38:58.088Z</time></trkpt><trkpt lat="43.4714913" lon="11.2780291"><ele>576.0</ele><time>2026-03-28T14:39:00.098Z</time></trkpt><trkpt lat="43.4715326" lon="11.2779242"><ele>576.0</ele><time>2026-03-28T14:39:02.031Z</time></trkpt><trkpt lat="43.4715673" lon="11.2778491"><ele>574.8333333333334</ele><time>2026-03-28T14:39:04.096Z</time></trkpt><trkpt lat="43.4716342" lon="11.2777844"><ele>573.6666666666666</ele><time>2026-03-28T14:39:06.027Z</time></trkpt><trkpt lat="43.4717041" lon="11.2776986"><ele>572.5</ele><time>2026-03-28T14:39:08.083Z</time></trkpt><trkpt lat="43.471764" lon="11.2776067"><ele>571.3333333333333</ele><time>2026-03-28T14:39:10.084Z</time></trkpt><trkpt lat="43.4718236" lon="11.2775147"><ele>570.1666666666666</ele><time>2026-03-28T14:39:12.019Z</time></trkpt><trkpt lat="43.4718838" lon="11.277425"><ele>569.0</ele><time>2026-03-28T14:39:14.085Z</time></trkpt><trkpt lat="43.4719363" lon="11.2773504"><ele>568.2</ele><time>2026-03-28T14:39:16.025Z</time></trkpt><trkpt lat="43.4720019" lon="11.2772474"><ele>567.4</ele><time>2026-03-28T14:39:18.1Z</time></trkpt><trkpt lat="43.4720581" lon="11.2771415"><ele>566.6</ele><time>2026-03-28T14:39:20.092Z</time></trkpt><trkpt lat="43.4721012" lon="11.2770276"><ele>565.8</ele><time>2026-03-28T14:39:22.023Z</time></trkpt><trkpt lat="43.4721103" lon="11.2768835"><ele>565.0</ele><time>2026-03-28T14:39:24.024Z</time></trkpt><trkpt lat="43.4720829" lon="11.2767426"><ele>565.0</ele><time>2026-03-28T14:39:26.023Z</time></trkpt><trkpt lat="43.4720227" lon="11.2766186"><ele>565.0</ele><time>2026-03-28T14:39:28.037Z</time></trkpt><trkpt lat="43.471964" lon="11.2765098"><ele>565.0</ele><time>2026-03-28T14:39:30.016Z</time></trkpt><trkpt lat="43.4719078" lon="11.2764171"><ele>565.0</ele><time>2026-03-28T14:39:32.026Z</time></trkpt><trkpt lat="43.4718613" lon="11.2763049"><ele>565.0</ele><time>2026-03-28T14:39:34.04Z</time></trkpt><trkpt lat="43.4718251" lon="11.2761922"><ele>565.2</ele><time>2026-03-28T14:39:36.039Z</time></trkpt><trkpt lat="43.4718088" lon="11.2760688"><ele>565.4</ele><time>2026-03-28T14:39:38.061Z</time></trkpt><trkpt lat="43.4718138" lon="11.2759432"><ele>565.6</ele><time>2026-03-28T14:39:40.097Z</time></trkpt><trkpt lat="43.4718108" lon="11.2758101"><ele>565.8</ele><time>2026-03-28T14:39:42.03Z</time></trkpt><trkpt lat="43.4718312" lon="11.2756843"><ele>566.0</ele><time>2026-03-28T14:39:44.111Z</time></trkpt><trkpt lat="43.4718528" lon="11.2755407"><ele>566.0</ele><time>2026-03-28T14:39:46.026Z</time></trkpt><trkpt lat="43.471872" lon="11.2753956"><ele>566.0</ele><time>2026-03-28T14:39:48.088Z</time></trkpt><trkpt lat="43.471886" lon="11.2752475"><ele>566.0</ele><time>2026-03-28T14:39:50.088Z</time></trkpt><trkpt lat="43.4719057" lon="11.2751072"><ele>566.0</ele><time>2026-03-28T14:39:52.013Z</time></trkpt><trkpt lat="43.4719296" lon="11.2749812"><ele>566.0</ele><time>2026-03-28T14:39:54.091Z</time></trkpt><trkpt lat="43.4719673" lon="11.274849"><ele>565.0</ele><time>2026-03-28T14:39:56.019Z</time></trkpt><trkpt lat="43.471984" lon="11.2747069"><ele>564.0</ele><time>2026-03-28T14:39:58.085Z</time></trkpt><trkpt lat="43.471982" lon="11.2745674"><ele>563.0</ele><time>2026-03-28T14:40:00.101Z</time></trkpt><trkpt lat="43.4719687" lon="11.2744271"><ele>562.0</ele><time>2026-03-28T14:40:02.027Z</time></trkpt><trkpt lat="43.4719613" lon="11.274284"><ele>561.0</ele><time>2026-03-28T14:40:04.023Z</time></trkpt><trkpt lat="43.471946" lon="11.2741382"><ele>561.0</ele><time>2026-03-28T14:40:06.025Z</time></trkpt><trkpt lat="43.4719361" lon="11.2739933"><ele>561.0</ele><time>2026-03-28T14:40:08.039Z</time></trkpt><trkpt lat="43.4719366" lon="11.2738535"><ele>561.0</ele><time>2026-03-28T14:40:10.012Z</time></trkpt><trkpt lat="43.4719665" lon="11.2737266"><ele>561.0</ele><time>2026-03-28T14:40:12.02Z</time></trkpt><trkpt lat="43.471981" lon="11.273578"><ele>561.0</ele><time>2026-03-28T14:40:14.021Z</time></trkpt><trkpt lat="43.4719809" lon="11.2734366"><ele>560.6</ele><time>2026-03-28T14:40:16.029Z</time></trkpt><trkpt lat="43.4719769" lon="11.2732914"><ele>560.2</ele><time>2026-03-28T14:40:18.085Z</time></trkpt><trkpt lat="43.4720046" lon="11.273187"><ele>559.8</ele><time>2026-03-28T14:40:19.011Z</time></trkpt><trkpt lat="43.4720402" lon="11.2730922"><ele>559.4</ele><time>2026-03-28T14:40:20.033Z</time></trkpt><trkpt lat="43.4720247" lon="11.2729791"><ele>559.0</ele><time>2026-03-28T14:40:22.029Z</time></trkpt><trkpt lat="43.4720172" lon="11.2728325"><ele>559.0</ele><time>2026-03-28T14:40:24.097Z</time></trkpt><trkpt lat="43.4720026" lon="11.2726632"><ele>559.0</ele><time>2026-03-28T14:40:26.004Z</time></trkpt><trkpt lat="43.4719854" lon="11.2724896"><ele>559.0</ele><time>2026-03-28T14:40:28.099Z</time></trkpt><trkpt lat="43.4719675" lon="11.2724013"><ele>559.0</ele><time>2026-03-28T14:40:29.098Z</time></trkpt><trkpt lat="43.4719412" lon="11.2723103"><ele>559.0</ele><time>2026-03-28T14:40:30.006Z</time></trkpt><trkpt lat="43.4719273" lon="11.2722233"><ele>559.6666666666667</ele><time>2026-03-28T14:40:31.023Z</time></trkpt><trkpt lat="43.4719128" lon="11.2721367"><ele>560.3333333333334</ele><time>2026-03-28T14:40:32.029Z</time></trkpt><trkpt lat="43.4719059" lon="11.2720478"><ele>561.0</ele><time>2026-03-28T14:40:33.096Z</time></trkpt><trkpt lat="43.471899" lon="11.2719505"><ele>561.6666666666666</ele><time>2026-03-28T14:40:34.093Z</time></trkpt><trkpt lat="43.4718946" lon="11.2718554"><ele>562.3333333333333</ele><time>2026-03-28T14:40:35.104Z</time></trkpt><trkpt lat="43.4719055" lon="11.2716974"><ele>563.0</ele><time>2026-03-28T14:40:37.021Z</time></trkpt><trkpt lat="43.4718667" lon="11.2715251"><ele>563.5</ele><time>2026-03-28T14:40:39.016Z</time></trkpt><trkpt lat="43.4718488" lon="11.2714396"><ele>564.0</ele><time>2026-03-28T14:40:40.017Z</time></trkpt><trkpt lat="43.4718354" lon="11.2713521"><ele>564.5</ele><time>2026-03-28T14:40:41.029Z</time></trkpt><trkpt lat="43.471812" lon="11.271253"><ele>565.0</ele><time>2026-03-28T14:40:42.01Z</time></trkpt><trkpt lat="43.4717799" lon="11.271152"><ele>565.5</ele><time>2026-03-28T14:40:43.017Z</time></trkpt><trkpt lat="43.47174" lon="11.2710448"><ele>566.0</ele><time>2026-03-28T14:40:44.047Z</time></trkpt><trkpt lat="43.4717043" lon="11.2709422"><ele>566.0</ele><time>2026-03-28T14:40:45.002Z</time></trkpt><trkpt lat="43.4716708" lon="11.2708474"><ele>566.0</ele><time>2026-03-28T14:40:46.047Z</time></trkpt><trkpt lat="43.4716355" lon="11.2707508"><ele>566.0</ele><time>2026-03-28T14:40:47.03Z</time></trkpt><trkpt lat="43.4716042" lon="11.2706534"><ele>566.0</ele><time>2026-03-28T14:40:48.04Z</time></trkpt><trkpt lat="43.4715699" lon="11.2705524"><ele>566.0</ele><time>2026-03-28T14:40:49.031Z</time></trkpt><trkpt lat="43.4715271" lon="11.2704368"><ele>566.0</ele><time>2026-03-28T14:40:50.009Z</time></trkpt><trkpt lat="43.471483" lon="11.270323"><ele>565.8</ele><time>2026-03-28T14:40:51.009Z</time></trkpt><trkpt lat="43.4714433" lon="11.2702002"><ele>565.6</ele><time>2026-03-28T14:40:52.022Z</time></trkpt><trkpt lat="43.4714163" lon="11.2700809"><ele>565.4</ele><time>2026-03-28T14:40:53.021Z</time></trkpt><trkpt lat="43.4713983" lon="11.2699576"><ele>565.2</ele><time>2026-03-28T14:40:54.023Z</time></trkpt><trkpt lat="43.4713962" lon="11.2698332"><ele>565.0</ele><time>2026-03-28T14:40:55.021Z</time></trkpt><trkpt lat="43.4714133" lon="11.2697188"><ele>564.0</ele><time>2026-03-28T14:40:56.015Z</time></trkpt><trkpt lat="43.4714437" lon="11.2696106"><ele>563.0</ele><time>2026-03-28T14:40:57.029Z</time></trkpt><trkpt lat="43.4714831" lon="11.2695059"><ele>562.0</ele><time>2026-03-28T14:40:58.018Z</time></trkpt><trkpt lat="43.4715358" lon="11.2694153"><ele>561.0</ele><time>2026-03-28T14:40:59.016Z</time></trkpt><trkpt lat="43.4716008" lon="11.26934"><ele>560.0</ele><time>2026-03-28T14:41:00.048Z</time></trkpt><trkpt lat="43.4716736" lon="11.2692747"><ele>559.0</ele><time>2026-03-28T14:41:01.008Z</time></trkpt><trkpt lat="43.4717544" lon="11.2692203"><ele>559.0</ele><time>2026-03-28T14:41:02.009Z</time></trkpt><trkpt lat="43.4718338" lon="11.2691692"><ele>559.0</ele><time>2026-03-28T14:41:03.013Z</time></trkpt><trkpt lat="43.4719126" lon="11.2691181"><ele>559.0</ele><time>2026-03-28T14:41:04.025Z</time></trkpt><trkpt lat="43.4719929" lon="11.2690674"><ele>559.0</ele><time>2026-03-28T14:41:05.014Z</time></trkpt><trkpt lat="43.4720685" lon="11.2690182"><ele>559.0</ele><time>2026-03-28T14:41:06.005Z</time></trkpt><trkpt lat="43.4721443" lon="11.2689622"><ele>559.0</ele><time>2026-03-28T14:41:07.013Z</time></trkpt><trkpt lat="43.4722286" lon="11.2689114"><ele>556.5</ele><time>2026-03-28T14:41:08.007Z</time></trkpt><trkpt lat="43.472312" lon="11.268868"><ele>554.0</ele><time>2026-03-28T14:41:09.024Z</time></trkpt><trkpt lat="43.4723968" lon="11.2688203"><ele>551.5</ele><time>2026-03-28T14:41:10.018Z</time></trkpt><trkpt lat="43.4724775" lon="11.2687748"><ele>549.0</ele><time>2026-03-28T14:41:11.015Z</time></trkpt><trkpt lat="43.4725622" lon="11.2687445"><ele>546.5</ele><time>2026-03-28T14:41:11.996Z</time></trkpt><trkpt lat="43.4726486" lon="11.2687232"><ele>544.0</ele><time>2026-03-28T14:41:13.023Z</time></trkpt><trkpt lat="43.4727369" lon="11.2687164"><ele>544.0</ele><time>2026-03-28T14:41:14.042Z</time></trkpt><trkpt lat="43.4728247" lon="11.2687307"><ele>544.0</ele><time>2026-03-28T14:41:15.028Z</time></trkpt><trkpt lat="43.4729182" lon="11.2687493"><ele>544.0</ele><time>2026-03-28T14:41:16.026Z</time></trkpt><trkpt lat="43.4730043" lon="11.2687708"><ele>544.0</ele><time>2026-03-28T14:41:17Z</time></trkpt><trkpt lat="43.4730884" lon="11.2688014"><ele>544.0</ele><time>2026-03-28T14:41:18.007Z</time></trkpt><trkpt lat="43.473173" lon="11.2688378"><ele>544.0</ele><time>2026-03-28T14:41:19.024Z</time></trkpt><trkpt lat="43.4732612" lon="11.2688744"><ele>543.1666666666667</ele><time>2026-03-28T14:41:20.027Z</time></trkpt><trkpt lat="43.473346" lon="11.2689131"><ele>542.3333333333334</ele><time>2026-03-28T14:41:21.021Z</time></trkpt><trkpt lat="43.4734261" lon="11.2689631"><ele>541.5</ele><time>2026-03-28T14:41:22.019Z</time></trkpt><trkpt lat="43.4735027" lon="11.2690164"><ele>540.6666666666666</ele><time>2026-03-28T14:41:23.021Z</time></trkpt><trkpt lat="43.4735764" lon="11.2690656"><ele>539.8333333333333</ele><time>2026-03-28T14:41:24.024Z</time></trkpt><trkpt lat="43.4736504" lon="11.2691106"><ele>539.0</ele><time>2026-03-28T14:41:25.007Z</time></trkpt><trkpt lat="43.4737247" lon="11.2691534"><ele>540.2857142857143</ele><time>2026-03-28T14:41:26.026Z</time></trkpt><trkpt lat="43.4737943" lon="11.2691938"><ele>541.5714285714286</ele><time>2026-03-28T14:41:27.006Z</time></trkpt><trkpt lat="43.4738644" lon="11.2692335"><ele>542.8571428571429</ele><time>2026-03-28T14:41:28.003Z</time></trkpt><trkpt lat="43.4739305" lon="11.2692803"><ele>544.1428571428571</ele><time>2026-03-28T14:41:29.028Z</time></trkpt><trkpt lat="43.4739959" lon="11.2693309"><ele>545.4285714285714</ele><time>2026-03-28T14:41:30.013Z</time></trkpt><trkpt lat="43.4740549" lon="11.2693783"><ele>546.7142857142858</ele><time>2026-03-28T14:41:31.017Z</time></trkpt><trkpt lat="43.4741069" lon="11.269435"><ele>548.0</ele><time>2026-03-28T14:41:32.022Z</time></trkpt><trkpt lat="43.4741564" lon="11.2694954"><ele>548.0000000000001</ele><time>2026-03-28T14:41:33.013Z</time></trkpt><trkpt lat="43.4742068" lon="11.2695575"><ele>548.0</ele><time>2026-03-28T14:41:34.012Z</time></trkpt><trkpt lat="43.4742585" lon="11.2696222"><ele>548.0</ele><time>2026-03-28T14:41:35.004Z</time></trkpt><trkpt lat="43.4743063" lon="11.2696807"><ele>548.0</ele><time>2026-03-28T14:41:36.018Z</time></trkpt><trkpt lat="43.4743628" lon="11.269725"><ele>548.0</ele><time>2026-03-28T14:41:37.001Z</time></trkpt><trkpt lat="43.4744328" lon="11.2697401"><ele>548.0000000000001</ele><time>2026-03-28T14:41:38.029Z</time></trkpt><trkpt lat="43.4745033" lon="11.269724"><ele>548.0</ele><time>2026-03-28T14:41:39.018Z</time></trkpt><trkpt lat="43.4745691" lon="11.2696849"><ele>550.0000000000001</ele><time>2026-03-28T14:41:40.009Z</time></trkpt><trkpt lat="43.4746188" lon="11.2696248"><ele>552.0</ele><time>2026-03-28T14:41:41.028Z</time></trkpt><trkpt lat="43.474658" lon="11.2695456"><ele>554.0</ele><time>2026-03-28T14:41:42.018Z</time></trkpt><trkpt lat="43.4746824" lon="11.2694642"><ele>556.0</ele><time>2026-03-28T14:41:43.017Z</time></trkpt><trkpt lat="43.4747011" lon="11.2693752"><ele>558.0</ele><time>2026-03-28T14:41:44.009Z</time></trkpt><trkpt lat="43.4747209" lon="11.2692879"><ele>560.0000000000001</ele><time>2026-03-28T14:41:45.033Z</time></trkpt><trkpt lat="43.474745" lon="11.2692065"><ele>562.0</ele><time>2026-03-28T14:41:46.013Z</time></trkpt><trkpt lat="43.4747872" lon="11.2690434"><ele>562.0000000000001</ele><time>2026-03-28T14:41:48.024Z</time></trkpt><trkpt lat="43.4748179" lon="11.2689662"><ele>562.0</ele><time>2026-03-28T14:41:49.002Z</time></trkpt><trkpt lat="43.474859" lon="11.2688969"><ele>562.0</ele><time>2026-03-28T14:41:50.018Z</time></trkpt><trkpt lat="43.4748983" lon="11.2688206"><ele>562.0</ele><time>2026-03-28T14:41:51.025Z</time></trkpt><trkpt lat="43.4749373" lon="11.2687507"><ele>562.0</ele><time>2026-03-28T14:41:52.005Z</time></trkpt><trkpt lat="43.4749778" lon="11.2686755"><ele>562.0000000000001</ele><time>2026-03-28T14:41:53.027Z</time></trkpt><trkpt lat="43.4750099" lon="11.2685914"><ele>562.0</ele><time>2026-03-28T14:41:54.019Z</time></trkpt><trkpt lat="43.4750245" lon="11.2685018"><ele>562.5714285714287</ele><time>2026-03-28T14:41:55.014Z</time></trkpt><trkpt lat="43.4750156" lon="11.2684096"><ele>563.1428571428571</ele><time>2026-03-28T14:41:56.018Z</time></trkpt><trkpt lat="43.4749801" lon="11.2683202"><ele>563.7142857142858</ele><time>2026-03-28T14:41:57.006Z</time></trkpt><trkpt lat="43.4749382" lon="11.2682381"><ele>564.2857142857143</ele><time>2026-03-28T14:41:58.034Z</time></trkpt><trkpt lat="43.4748904" lon="11.2681627"><ele>564.8571428571429</ele><time>2026-03-28T14:41:59.013Z</time></trkpt><trkpt lat="43.4748444" lon="11.2680864"><ele>565.4285714285714</ele><time>2026-03-28T14:42:00.014Z</time></trkpt><trkpt lat="43.4747986" lon="11.2680169"><ele>566.0</ele><time>2026-03-28T14:42:01.01Z</time></trkpt><trkpt lat="43.4747488" lon="11.2679442"><ele>566.0</ele><time>2026-03-28T14:42:02.008Z</time></trkpt><trkpt lat="43.4747007" lon="11.2678769"><ele>566.0</ele><time>2026-03-28T14:42:03.013Z</time></trkpt><trkpt lat="43.4746571" lon="11.267811"><ele>566.0</ele><time>2026-03-28T14:42:04.025Z</time></trkpt><trkpt lat="43.4745676" lon="11.2676892"><ele>566.0</ele><time>2026-03-28T14:42:06.013Z</time></trkpt><trkpt lat="43.4745153" lon="11.26763"><ele>566.0</ele><time>2026-03-28T14:42:07.019Z</time></trkpt><trkpt lat="43.4744591" lon="11.267567"><ele>566.0</ele><time>2026-03-28T14:42:08.029Z</time></trkpt><trkpt lat="43.4744054" lon="11.2675001"><ele>564.6666666666666</ele><time>2026-03-28T14:42:09.007Z</time></trkpt><trkpt lat="43.4743413" lon="11.2674358"><ele>563.3333333333333</ele><time>2026-03-28T14:42:10.035Z</time></trkpt><trkpt lat="43.4742801" lon="11.2673691"><ele>562.0</ele><time>2026-03-28T14:42:11.014Z</time></trkpt><trkpt lat="43.4742171" lon="11.2673037"><ele>560.6666666666666</ele><time>2026-03-28T14:42:12.007Z</time></trkpt><trkpt lat="43.4741576" lon="11.2672411"><ele>559.3333333333334</ele><time>2026-03-28T14:42:13.001Z</time></trkpt><trkpt lat="43.4740977" lon="11.2671737"><ele>558.0</ele><time>2026-03-28T14:42:14.01Z</time></trkpt><trkpt lat="43.4740298" lon="11.267107"><ele>558.0</ele><time>2026-03-28T14:42:15.037Z</time></trkpt><trkpt lat="43.4739662" lon="11.2670464"><ele>558.0</ele><time>2026-03-28T14:42:16.028Z</time></trkpt><trkpt lat="43.4739028" lon="11.2669848"><ele>558.0</ele><time>2026-03-28T14:42:17.008Z</time></trkpt><trkpt lat="43.4738446" lon="11.2669236"><ele>558.0</ele><time>2026-03-28T14:42:18.008Z</time></trkpt><trkpt lat="43.4737816" lon="11.2668553"><ele>558.0</ele><time>2026-03-28T14:42:19.01Z</time></trkpt><trkpt lat="43.4737233" lon="11.2667894"><ele>558.0</ele><time>2026-03-28T14:42:20.016Z</time></trkpt><trkpt lat="43.4736621" lon="11.2667279"><ele>556.8333333333334</ele><time>2026-03-28T14:42:21.016Z</time></trkpt><trkpt lat="43.4735975" lon="11.2666621"><ele>555.6666666666666</ele><time>2026-03-28T14:42:22.01Z</time></trkpt><trkpt lat="43.473533" lon="11.2666011"><ele>554.5</ele><time>2026-03-28T14:42:23.008Z</time></trkpt><trkpt lat="43.4734704" lon="11.2665388"><ele>553.3333333333333</ele><time>2026-03-28T14:42:24.015Z</time></trkpt><trkpt lat="43.4734095" lon="11.266474"><ele>552.1666666666666</ele><time>2026-03-28T14:42:25.022Z</time></trkpt><trkpt lat="43.4733491" lon="11.2664116"><ele>551.0</ele><time>2026-03-28T14:42:26.006Z</time></trkpt><trkpt lat="43.4732924" lon="11.2663512"><ele>550.9999999999999</ele><time>2026-03-28T14:42:27.004Z</time></trkpt><trkpt lat="43.4732386" lon="11.2662846"><ele>551.0</ele><time>2026-03-28T14:42:28.011Z</time></trkpt><trkpt lat="43.4731879" lon="11.2662098"><ele>551.0</ele><time>2026-03-28T14:42:29.02Z</time></trkpt><trkpt lat="43.4731372" lon="11.2661342"><ele>551.0</ele><time>2026-03-28T14:42:30.005Z</time></trkpt><trkpt lat="43.4730925" lon="11.2660498"><ele>551.0</ele><time>2026-03-28T14:42:31.015Z</time></trkpt><trkpt lat="43.4730528" lon="11.265967"><ele>550.9999999999999</ele><time>2026-03-28T14:42:32.013Z</time></trkpt><trkpt lat="43.4730181" lon="11.2658844"><ele>551.0</ele><time>2026-03-28T14:42:33.013Z</time></trkpt><trkpt lat="43.4729849" lon="11.2657961"><ele>550.9999999999999</ele><time>2026-03-28T14:42:34.017Z</time></trkpt><trkpt lat="43.4729609" lon="11.2657051"><ele>551.0</ele><time>2026-03-28T14:42:35.002Z</time></trkpt><trkpt lat="43.4729388" lon="11.2656086"><ele>551.0</ele><time>2026-03-28T14:42:36.009Z</time></trkpt><trkpt lat="43.4729169" lon="11.2655145"><ele>551.0</ele><time>2026-03-28T14:42:37.023Z</time></trkpt><trkpt lat="43.4728971" lon="11.265423"><ele>551.0</ele><time>2026-03-28T14:42:38.016Z</time></trkpt><trkpt lat="43.4728808" lon="11.2653261"><ele>550.9999999999999</ele><time>2026-03-28T14:42:39.02Z</time></trkpt><trkpt lat="43.4728677" lon="11.26523"><ele>551.0</ele><time>2026-03-28T14:42:40.009Z</time></trkpt><trkpt lat="43.4728672" lon="11.2651361"><ele>547.7142857142857</ele><time>2026-03-28T14:42:41.009Z</time></trkpt><trkpt lat="43.4728722" lon="11.2650432"><ele>544.4285714285714</ele><time>2026-03-28T14:42:42.012Z</time></trkpt><trkpt lat="43.472881" lon="11.264953"><ele>541.1428571428571</ele><time>2026-03-28T14:42:43.01Z</time></trkpt><trkpt lat="43.4728959" lon="11.2648641"><ele>537.8571428571429</ele><time>2026-03-28T14:42:44.019Z</time></trkpt><trkpt lat="43.4729258" lon="11.2647811"><ele>534.5714285714286</ele><time>2026-03-28T14:42:45.017Z</time></trkpt><trkpt lat="43.4729694" lon="11.2647138"><ele>531.2857142857142</ele><time>2026-03-28T14:42:46.02Z</time></trkpt><trkpt lat="43.4730244" lon="11.2646589"><ele>528.0</ele><time>2026-03-28T14:42:47.023Z</time></trkpt><trkpt lat="43.4730847" lon="11.2646156"><ele>528.0</ele><time>2026-03-28T14:42:48.009Z</time></trkpt><trkpt lat="43.4731473" lon="11.2645864"><ele>528.0</ele><time>2026-03-28T14:42:49.02Z</time></trkpt><trkpt lat="43.4732171" lon="11.2645703"><ele>528.0</ele><time>2026-03-28T14:42:50.009Z</time></trkpt><trkpt lat="43.4732869" lon="11.2645696"><ele>528.0</ele><time>2026-03-28T14:42:51.005Z</time></trkpt><trkpt lat="43.4733596" lon="11.2645773"><ele>528.0</ele><time>2026-03-28T14:42:52.021Z</time></trkpt><trkpt lat="43.4734303" lon="11.2645886"><ele>528.0</ele><time>2026-03-28T14:42:53.024Z</time></trkpt><trkpt lat="43.4734998" lon="11.2646091"><ele>528.0</ele><time>2026-03-28T14:42:54.024Z</time></trkpt><trkpt lat="43.4735714" lon="11.2646289"><ele>528.0</ele><time>2026-03-28T14:42:55.005Z</time></trkpt><trkpt lat="43.4736456" lon="11.2646394"><ele>528.0</ele><time>2026-03-28T14:42:56.007Z</time></trkpt><trkpt lat="43.4737177" lon="11.2646439"><ele>528.0</ele><time>2026-03-28T14:42:57.024Z</time></trkpt><trkpt lat="43.4737874" lon="11.2646331"><ele>528.0</ele><time>2026-03-28T14:42:58.01Z</time></trkpt><trkpt lat="43.4738614" lon="11.2646124"><ele>528.0</ele><time>2026-03-28T14:42:59.016Z</time></trkpt><trkpt lat="43.4739291" lon="11.26457"><ele>528.0</ele><time>2026-03-28T14:43:00.017Z</time></trkpt><trkpt lat="43.4739872" lon="11.2645051"><ele>528.0</ele><time>2026-03-28T14:43:01.016Z</time></trkpt><trkpt lat="43.4740394" lon="11.2644336"><ele>527.8333333333334</ele><time>2026-03-28T14:43:02.003Z</time></trkpt><trkpt lat="43.4740845" lon="11.2643481"><ele>527.6666666666666</ele><time>2026-03-28T14:43:03.028Z</time></trkpt><trkpt lat="43.4741222" lon="11.2642495"><ele>527.5</ele><time>2026-03-28T14:43:04.02Z</time></trkpt><trkpt lat="43.4741519" lon="11.2641554"><ele>527.3333333333333</ele><time>2026-03-28T14:43:05.01Z</time></trkpt><trkpt lat="43.4741857" lon="11.2640627"><ele>527.1666666666666</ele><time>2026-03-28T14:43:06.018Z</time></trkpt><trkpt lat="43.4742222" lon="11.2639674"><ele>527.0</ele><time>2026-03-28T14:43:07.016Z</time></trkpt><trkpt lat="43.4742567" lon="11.2638713"><ele>527.0000000000001</ele><time>2026-03-28T14:43:08.032Z</time></trkpt><trkpt lat="43.4742919" lon="11.2637826"><ele>527.0</ele><time>2026-03-28T14:43:09.011Z</time></trkpt><trkpt lat="43.4743251" lon="11.2636949"><ele>527.0</ele><time>2026-03-28T14:43:10.007Z</time></trkpt><trkpt lat="43.4743576" lon="11.2636067"><ele>527.0</ele><time>2026-03-28T14:43:11.021Z</time></trkpt><trkpt lat="43.4743886" lon="11.2635141"><ele>527.0</ele><time>2026-03-28T14:43:12.01Z</time></trkpt><trkpt lat="43.4744251" lon="11.26343"><ele>527.0000000000001</ele><time>2026-03-28T14:43:13.012Z</time></trkpt><trkpt lat="43.4744665" lon="11.2633537"><ele>527.0</ele><time>2026-03-28T14:43:14.008Z</time></trkpt><trkpt lat="43.4745171" lon="11.2632894"><ele>527.0000000000001</ele><time>2026-03-28T14:43:15.012Z</time></trkpt><trkpt lat="43.4745779" lon="11.2632463"><ele>527.0</ele><time>2026-03-28T14:43:16.002Z</time></trkpt><trkpt lat="43.4746419" lon="11.2632239"><ele>527.0</ele><time>2026-03-28T14:43:17.029Z</time></trkpt><trkpt lat="43.474709" lon="11.2632158"><ele>527.0</ele><time>2026-03-28T14:43:18.016Z</time></trkpt><trkpt lat="43.4747728" lon="11.2632262"><ele>527.0</ele><time>2026-03-28T14:43:19.009Z</time></trkpt><trkpt lat="43.4748342" lon="11.2632495"><ele>527.0000000000001</ele><time>2026-03-28T14:43:20.024Z</time></trkpt><trkpt lat="43.4748923" lon="11.2632836"><ele>527.0</ele><time>2026-03-28T14:43:21.012Z</time></trkpt><trkpt lat="43.4749496" lon="11.2633302"><ele>528.8000000000001</ele><time>2026-03-28T14:43:22.03Z</time></trkpt><trkpt lat="43.4750042" lon="11.2633809"><ele>530.6</ele><time>2026-03-28T14:43:23.017Z</time></trkpt><trkpt lat="43.4750582" lon="11.26343"><ele>532.4000000000001</ele><time>2026-03-28T14:43:24.016Z</time></trkpt><trkpt lat="43.4751597" lon="11.2635182"><ele>534.2</ele><time>2026-03-28T14:43:26.021Z</time></trkpt><trkpt lat="43.4752503" lon="11.2636135"><ele>536.0</ele><time>2026-03-28T14:43:28.021Z</time></trkpt><trkpt lat="43.4753485" lon="11.2637142"><ele>536.0</ele><time>2026-03-28T14:43:30.017Z</time></trkpt><trkpt lat="43.4753997" lon="11.2637699"><ele>536.0</ele><time>2026-03-28T14:43:31.018Z</time></trkpt><trkpt lat="43.4755006" lon="11.2638844"><ele>536.0</ele><time>2026-03-28T14:43:33.017Z</time></trkpt><trkpt lat="43.4755557" lon="11.2639451"><ele>536.0</ele><time>2026-03-28T14:43:34.004Z</time></trkpt><trkpt lat="43.4756119" lon="11.2640062"><ele>536.0</ele><time>2026-03-28T14:43:35.024Z</time></trkpt><trkpt lat="43.4756765" lon="11.2640613"><ele>536.0</ele><time>2026-03-28T14:43:36.022Z</time></trkpt><trkpt lat="43.4757391" lon="11.264113"><ele>536.5</ele><time>2026-03-28T14:43:37.008Z</time></trkpt><trkpt lat="43.4758072" lon="11.2641651"><ele>537.0</ele><time>2026-03-28T14:43:37.999Z</time></trkpt><trkpt lat="43.4758808" lon="11.2642034"><ele>537.5</ele><time>2026-03-28T14:43:39.01Z</time></trkpt><trkpt lat="43.4759585" lon="11.2642316"><ele>538.0</ele><time>2026-03-28T14:43:40.02Z</time></trkpt><trkpt lat="43.4760419" lon="11.2642499"><ele>538.5</ele><time>2026-03-28T14:43:41.019Z</time></trkpt><trkpt lat="43.4761215" lon="11.2642486"><ele>539.0</ele><time>2026-03-28T14:43:42.024Z</time></trkpt><trkpt lat="43.4761929" lon="11.2642148"><ele>539.0</ele><time>2026-03-28T14:43:43.003Z</time></trkpt><trkpt lat="43.4762609" lon="11.2641564"><ele>539.0</ele><time>2026-03-28T14:43:44.017Z</time></trkpt><trkpt lat="43.4763146" lon="11.2640676"><ele>539.0</ele><time>2026-03-28T14:43:45.009Z</time></trkpt><trkpt lat="43.4763461" lon="11.2639628"><ele>539.0</ele><time>2026-03-28T14:43:46.015Z</time></trkpt><trkpt lat="43.4763557" lon="11.2638528"><ele>539.0</ele><time>2026-03-28T14:43:47.013Z</time></trkpt><trkpt lat="43.4763529" lon="11.2637458"><ele>539.0</ele><time>2026-03-28T14:43:48.005Z</time></trkpt><trkpt lat="43.4763376" lon="11.2636358"><ele>541.1666666666666</ele><time>2026-03-28T14:43:49.011Z</time></trkpt><trkpt lat="43.4763159" lon="11.2635257"><ele>543.3333333333333</ele><time>2026-03-28T14:43:50.009Z</time></trkpt><trkpt lat="43.4762986" lon="11.2634118"><ele>545.5</ele><time>2026-03-28T14:43:51.021Z</time></trkpt><trkpt lat="43.4762758" lon="11.2633008"><ele>547.6666666666666</ele><time>2026-03-28T14:43:52.01Z</time></trkpt><trkpt lat="43.4762477" lon="11.2631899"><ele>549.8333333333334</ele><time>2026-03-28T14:43:53.013Z</time></trkpt><trkpt lat="43.4762222" lon="11.2630751"><ele>552.0</ele><time>2026-03-28T14:43:54.016Z</time></trkpt><trkpt lat="43.4762006" lon="11.2629545"><ele>545.2</ele><time>2026-03-28T14:43:55.024Z</time></trkpt><trkpt lat="43.4761851" lon="11.2628281"><ele>538.4000000000001</ele><time>2026-03-28T14:43:56.022Z</time></trkpt><trkpt lat="43.4761778" lon="11.262699"><ele>531.5999999999999</ele><time>2026-03-28T14:43:57.014Z</time></trkpt><trkpt lat="43.4761842" lon="11.2625736"><ele>524.8</ele><time>2026-03-28T14:43:58.025Z</time></trkpt><trkpt lat="43.4761936" lon="11.2624515"><ele>518.0</ele><time>2026-03-28T14:43:59.028Z</time></trkpt><trkpt lat="43.476212" lon="11.26233"><ele>517.1666666666666</ele><time>2026-03-28T14:44:00.01Z</time></trkpt><trkpt lat="43.4762316" lon="11.2622108"><ele>516.3333333333333</ele><time>2026-03-28T14:44:01.005Z</time></trkpt><trkpt lat="43.4762574" lon="11.2620945"><ele>515.5</ele><time>2026-03-28T14:44:02.008Z</time></trkpt><trkpt lat="43.4762749" lon="11.2619729"><ele>514.6666666666666</ele><time>2026-03-28T14:44:03.008Z</time></trkpt><trkpt lat="43.4762936" lon="11.2618557"><ele>513.8333333333334</ele><time>2026-03-28T14:44:04.008Z</time></trkpt><trkpt lat="43.4763164" lon="11.2617416"><ele>513.0</ele><time>2026-03-28T14:44:05.024Z</time></trkpt><trkpt lat="43.476338" lon="11.261629"><ele>517.1666666666666</ele><time>2026-03-28T14:44:06.006Z</time></trkpt><trkpt lat="43.4763614" lon="11.2615182"><ele>521.3333333333334</ele><time>2026-03-28T14:44:07Z</time></trkpt><trkpt lat="43.4763803" lon="11.2614027"><ele>525.5</ele><time>2026-03-28T14:44:08.001Z</time></trkpt><trkpt lat="43.4763933" lon="11.2612868"><ele>529.6666666666667</ele><time>2026-03-28T14:44:09.013Z</time></trkpt><trkpt lat="43.4763931" lon="11.2611729"><ele>533.8333333333334</ele><time>2026-03-28T14:44:10.002Z</time></trkpt><trkpt lat="43.4763798" lon="11.2610672"><ele>538.0</ele><time>2026-03-28T14:44:11.015Z</time></trkpt><trkpt lat="43.4763454" lon="11.2609752"><ele>538.0</ele><time>2026-03-28T14:44:12.014Z</time></trkpt><trkpt lat="43.4763064" lon="11.2608861"><ele>538.0</ele><time>2026-03-28T14:44:13.019Z</time></trkpt><trkpt lat="43.4762513" lon="11.2608052"><ele>538.0</ele><time>2026-03-28T14:44:14.014Z</time></trkpt><trkpt lat="43.4761902" lon="11.2607328"><ele>538.0</ele><time>2026-03-28T14:44:15.007Z</time></trkpt><trkpt lat="43.4761216" lon="11.260675"><ele>538.0</ele><time>2026-03-28T14:44:16.005Z</time></trkpt><trkpt lat="43.4760523" lon="11.2606223"><ele>538.0</ele><time>2026-03-28T14:44:17.021Z</time></trkpt><trkpt lat="43.4759868" lon="11.2605661"><ele>536.5</ele><time>2026-03-28T14:44:18.033Z</time></trkpt><trkpt lat="43.4759203" lon="11.2605159"><ele>535.0</ele><time>2026-03-28T14:44:19.02Z</time></trkpt><trkpt lat="43.4758557" lon="11.26046"><ele>533.5</ele><time>2026-03-28T14:44:20.016Z</time></trkpt><trkpt lat="43.4757927" lon="11.2603997"><ele>532.0</ele><time>2026-03-28T14:44:21.021Z</time></trkpt><trkpt lat="43.475731" lon="11.2603316"><ele>530.5</ele><time>2026-03-28T14:44:22.011Z</time></trkpt><trkpt lat="43.4756738" lon="11.2602584"><ele>529.0</ele><time>2026-03-28T14:44:23.017Z</time></trkpt><trkpt lat="43.47562" lon="11.260185"><ele>529.0</ele><time>2026-03-28T14:44:24.022Z</time></trkpt><trkpt lat="43.4755642" lon="11.2601106"><ele>529.0</ele><time>2026-03-28T14:44:25.012Z</time></trkpt><trkpt lat="43.4755066" lon="11.2600364"><ele>529.0</ele><time>2026-03-28T14:44:26.024Z</time></trkpt><trkpt lat="43.4754564" lon="11.2599615"><ele>529.0</ele><time>2026-03-28T14:44:27.016Z</time></trkpt><trkpt lat="43.4754071" lon="11.2598882"><ele>529.0</ele><time>2026-03-28T14:44:28.03Z</time></trkpt><trkpt lat="43.4753592" lon="11.2598131"><ele>529.0</ele><time>2026-03-28T14:44:29.022Z</time></trkpt><trkpt lat="43.4753108" lon="11.259738"><ele>529.0</ele><time>2026-03-28T14:44:30.009Z</time></trkpt><trkpt lat="43.4752594" lon="11.2596626"><ele>527.1666666666667</ele><time>2026-03-28T14:44:31.012Z</time></trkpt><trkpt lat="43.475213" lon="11.2595903"><ele>525.3333333333334</ele><time>2026-03-28T14:44:32.009Z</time></trkpt><trkpt lat="43.4751678" lon="11.2595194"><ele>523.5</ele><time>2026-03-28T14:44:33.011Z</time></trkpt><trkpt lat="43.4751201" lon="11.25945"><ele>521.6666666666666</ele><time>2026-03-28T14:44:34.016Z</time></trkpt><trkpt lat="43.4750772" lon="11.2593831"><ele>519.8333333333333</ele><time>2026-03-28T14:44:35.019Z</time></trkpt><trkpt lat="43.4750301" lon="11.2593146"><ele>518.0</ele><time>2026-03-28T14:44:36.026Z</time></trkpt><trkpt lat="43.4749502" lon="11.2591859"><ele>518.0</ele><time>2026-03-28T14:44:38.017Z</time></trkpt><trkpt lat="43.4749072" lon="11.2590261"><ele>518.0</ele><time>2026-03-28T14:44:40.036Z</time></trkpt><trkpt lat="43.4749101" lon="11.2588655"><ele>518.0</ele><time>2026-03-28T14:44:42.028Z</time></trkpt><trkpt lat="43.4749298" lon="11.2587178"><ele>518.0</ele><time>2026-03-28T14:44:44.009Z</time></trkpt><trkpt lat="43.4749836" lon="11.2585853"><ele>517.6</ele><time>2026-03-28T14:44:46.011Z</time></trkpt><trkpt lat="43.4750623" lon="11.2584727"><ele>517.1999999999999</ele><time>2026-03-28T14:44:48.024Z</time></trkpt><trkpt lat="43.4751553" lon="11.2583806"><ele>516.8</ele><time>2026-03-28T14:44:50.013Z</time></trkpt><trkpt lat="43.4752502" lon="11.2583099"><ele>516.4</ele><time>2026-03-28T14:44:52.021Z</time></trkpt><trkpt lat="43.4753475" lon="11.2582421"><ele>516.0</ele><time>2026-03-28T14:44:54.012Z</time></trkpt><trkpt lat="43.4754522" lon="11.2582119"><ele>516.0</ele><time>2026-03-28T14:44:56.018Z</time></trkpt><trkpt lat="43.4755637" lon="11.258219"><ele>516.0</ele><time>2026-03-28T14:44:58.023Z</time></trkpt><trkpt lat="43.4756729" lon="11.2582498"><ele>516.0</ele><time>2026-03-28T14:45:00.013Z</time></trkpt><trkpt lat="43.4757775" lon="11.2583038"><ele>516.0</ele><time>2026-03-28T14:45:02.002Z</time></trkpt><trkpt lat="43.4758761" lon="11.2583884"><ele>516.0</ele><time>2026-03-28T14:45:04.013Z</time></trkpt><trkpt lat="43.4759641" lon="11.2584956"><ele>516.0</ele><time>2026-03-28T14:45:06.012Z</time></trkpt><trkpt lat="43.4760476" lon="11.2586034"><ele>516.0</ele><time>2026-03-28T14:45:08.014Z</time></trkpt><trkpt lat="43.47613" lon="11.2587259"><ele>516.0</ele><time>2026-03-28T14:45:10.011Z</time></trkpt><trkpt lat="43.4762163" lon="11.2588471"><ele>516.0</ele><time>2026-03-28T14:45:12.006Z</time></trkpt><trkpt lat="43.4762601" lon="11.2589125"><ele>516.0</ele><time>2026-03-28T14:45:13.013Z</time></trkpt><trkpt lat="43.4763055" lon="11.2589737"><ele>516.0</ele><time>2026-03-28T14:45:14.02Z</time></trkpt><trkpt lat="43.4763972" lon="11.2590867"><ele>516.0</ele><time>2026-03-28T14:45:16.01Z</time></trkpt><trkpt lat="43.4765019" lon="11.2591811"><ele>516.0</ele><time>2026-03-28T14:45:18.023Z</time></trkpt><trkpt lat="43.4765573" lon="11.2592274"><ele>516.0</ele><time>2026-03-28T14:45:19.019Z</time></trkpt><trkpt lat="43.476672" lon="11.2592985"><ele>516.0</ele><time>2026-03-28T14:45:21.016Z</time></trkpt><trkpt lat="43.4767344" lon="11.2593254"><ele>516.0</ele><time>2026-03-28T14:45:22.013Z</time></trkpt><trkpt lat="43.4767961" lon="11.2593447"><ele>516.0</ele><time>2026-03-28T14:45:23.015Z</time></trkpt><trkpt lat="43.4768581" lon="11.2593652"><ele>516.0</ele><time>2026-03-28T14:45:24.015Z</time></trkpt><trkpt lat="43.4769845" lon="11.2594042"><ele>516.0</ele><time>2026-03-28T14:45:26.014Z</time></trkpt><trkpt lat="43.4770589" lon="11.25941"><ele>516.0</ele><time>2026-03-28T14:45:27.012Z</time></trkpt><trkpt lat="43.4771294" lon="11.2594117"><ele>514.4285714285713</ele><time>2026-03-28T14:45:28.018Z</time></trkpt><trkpt lat="43.4771988" lon="11.2594151"><ele>512.8571428571429</ele><time>2026-03-28T14:45:29.019Z</time></trkpt><trkpt lat="43.4772681" lon="11.2594191"><ele>511.2857142857142</ele><time>2026-03-28T14:45:30.004Z</time></trkpt><trkpt lat="43.4773367" lon="11.2594316"><ele>509.71428571428567</ele><time>2026-03-28T14:45:31.029Z</time></trkpt><trkpt lat="43.4774009" lon="11.2594474"><ele>508.1428571428571</ele><time>2026-03-28T14:45:32.019Z</time></trkpt><trkpt lat="43.4774612" lon="11.2594731"><ele>506.57142857142856</ele><time>2026-03-28T14:45:33.006Z</time></trkpt><trkpt lat="43.4775205" lon="11.259508"><ele>505.0</ele><time>2026-03-28T14:45:34.04Z</time></trkpt><trkpt lat="43.4775763" lon="11.2595524"><ele>505.0</ele><time>2026-03-28T14:45:35.016Z</time></trkpt><trkpt lat="43.4776756" lon="11.2596574"><ele>505.0</ele><time>2026-03-28T14:45:37.013Z</time></trkpt><trkpt lat="43.4777256" lon="11.2597143"><ele>505.0</ele><time>2026-03-28T14:45:38.017Z</time></trkpt><trkpt lat="43.4778177" lon="11.2598263"><ele>505.0</ele><time>2026-03-28T14:45:40.021Z</time></trkpt><trkpt lat="43.4779189" lon="11.2599263"><ele>505.0</ele><time>2026-03-28T14:45:42.026Z</time></trkpt><trkpt lat="43.4780247" lon="11.2600158"><ele>505.6</ele><time>2026-03-28T14:45:44.031Z</time></trkpt><trkpt lat="43.4781307" lon="11.2600938"><ele>506.2</ele><time>2026-03-28T14:45:46.025Z</time></trkpt><trkpt lat="43.4782361" lon="11.2601878"><ele>506.79999999999995</ele><time>2026-03-28T14:45:48.011Z</time></trkpt><trkpt lat="43.4782829" lon="11.2602462"><ele>507.4</ele><time>2026-03-28T14:45:49.016Z</time></trkpt><trkpt lat="43.4783566" lon="11.2603756"><ele>508.0</ele><time>2026-03-28T14:45:51.014Z</time></trkpt><trkpt lat="43.478401" lon="11.2605302"><ele>511.25</ele><time>2026-03-28T14:45:53.027Z</time></trkpt><trkpt lat="43.478435" lon="11.2606931"><ele>514.5</ele><time>2026-03-28T14:45:55.039Z</time></trkpt><trkpt lat="43.4784597" lon="11.2608589"><ele>517.75</ele><time>2026-03-28T14:45:57.017Z</time></trkpt><trkpt lat="43.4784985" lon="11.261025"><ele>521.0</ele><time>2026-03-28T14:45:59.007Z</time></trkpt><trkpt lat="43.4785352" lon="11.2611884"><ele>521.0</ele><time>2026-03-28T14:46:01.008Z</time></trkpt><trkpt lat="43.4785768" lon="11.2613432"><ele>521.0</ele><time>2026-03-28T14:46:03.016Z</time></trkpt><trkpt lat="43.4786465" lon="11.2614671"><ele>521.0</ele><time>2026-03-28T14:46:05.016Z</time></trkpt><trkpt lat="43.4787548" lon="11.2615452"><ele>521.0</ele><time>2026-03-28T14:46:07.014Z</time></trkpt><trkpt lat="43.4788163" lon="11.2615657"><ele>521.0</ele><time>2026-03-28T14:46:08.008Z</time></trkpt><trkpt lat="43.4788823" lon="11.2615664"><ele>521.4285714285714</ele><time>2026-03-28T14:46:09.014Z</time></trkpt><trkpt lat="43.4789451" lon="11.2615527"><ele>521.8571428571429</ele><time>2026-03-28T14:46:09.999Z</time></trkpt><trkpt lat="43.4790048" lon="11.2615229"><ele>522.2857142857143</ele><time>2026-03-28T14:46:11.017Z</time></trkpt><trkpt lat="43.4790636" lon="11.2614756"><ele>522.7142857142858</ele><time>2026-03-28T14:46:12.016Z</time></trkpt><trkpt lat="43.4791245" lon="11.2614172"><ele>523.1428571428572</ele><time>2026-03-28T14:46:13.019Z</time></trkpt><trkpt lat="43.4791909" lon="11.2613685"><ele>523.5714285714286</ele><time>2026-03-28T14:46:13.997Z</time></trkpt><trkpt lat="43.4792535" lon="11.261319"><ele>524.0</ele><time>2026-03-28T14:46:15.006Z</time></trkpt><trkpt lat="43.479318" lon="11.2612746"><ele>522.0</ele><time>2026-03-28T14:46:16.012Z</time></trkpt><trkpt lat="43.4793813" lon="11.261225"><ele>520.0</ele><time>2026-03-28T14:46:17.032Z</time></trkpt><trkpt lat="43.4794412" lon="11.2611724"><ele>518.0</ele><time>2026-03-28T14:46:18.03Z</time></trkpt><trkpt lat="43.4795012" lon="11.2611192"><ele>516.0</ele><time>2026-03-28T14:46:19.014Z</time></trkpt><trkpt lat="43.4795646" lon="11.2610634"><ele>514.0</ele><time>2026-03-28T14:46:20.032Z</time></trkpt><trkpt lat="43.4796337" lon="11.2610053"><ele>512.0</ele><time>2026-03-28T14:46:21.011Z</time></trkpt><trkpt lat="43.4797053" lon="11.2609494"><ele>511.99999999999994</ele><time>2026-03-28T14:46:22.032Z</time></trkpt><trkpt lat="43.4797767" lon="11.2609041"><ele>512.0</ele><time>2026-03-28T14:46:23.016Z</time></trkpt><trkpt lat="43.4798502" lon="11.260864"><ele>512.0</ele><time>2026-03-28T14:46:23.999Z</time></trkpt><trkpt lat="43.479926" lon="11.2608412"><ele>512.0</ele><time>2026-03-28T14:46:25.018Z</time></trkpt><trkpt lat="43.4800023" lon="11.2608261"><ele>511.99999999999994</ele><time>2026-03-28T14:46:26.019Z</time></trkpt><trkpt lat="43.4800761" lon="11.2608179"><ele>512.0</ele><time>2026-03-28T14:46:27.01Z</time></trkpt><trkpt lat="43.4801486" lon="11.2608084"><ele>511.99999999999994</ele><time>2026-03-28T14:46:27.999Z</time></trkpt><trkpt lat="43.4802222" lon="11.2608036"><ele>512.0</ele><time>2026-03-28T14:46:29.008Z</time></trkpt><trkpt lat="43.4802922" lon="11.2607951"><ele>512.0</ele><time>2026-03-28T14:46:29.998Z</time></trkpt><trkpt lat="43.480359" lon="11.2607864"><ele>512.0</ele><time>2026-03-28T14:46:31.023Z</time></trkpt><trkpt lat="43.4804218" lon="11.2607749"><ele>511.99999999999994</ele><time>2026-03-28T14:46:32.009Z</time></trkpt><trkpt lat="43.4805415" lon="11.260741"><ele>512.0</ele><time>2026-03-28T14:46:34.01Z</time></trkpt><trkpt lat="43.4806579" lon="11.2606787"><ele>512.3333333333333</ele><time>2026-03-28T14:46:36.021Z</time></trkpt><trkpt lat="43.4807239" lon="11.2606443"><ele>512.6666666666666</ele><time>2026-03-28T14:46:37.015Z</time></trkpt><trkpt lat="43.4807887" lon="11.2606095"><ele>513.0</ele><time>2026-03-28T14:46:38.018Z</time></trkpt><trkpt lat="43.4808475" lon="11.2605739"><ele>513.3333333333334</ele><time>2026-03-28T14:46:39.021Z</time></trkpt><trkpt lat="43.4809647" lon="11.2604948"><ele>513.6666666666667</ele><time>2026-03-28T14:46:41.013Z</time></trkpt><trkpt lat="43.4810269" lon="11.2604474"><ele>514.0</ele><time>2026-03-28T14:46:42.036Z</time></trkpt><trkpt lat="43.4810853" lon="11.2603993"><ele>514.7142857142857</ele><time>2026-03-28T14:46:43.007Z</time></trkpt><trkpt lat="43.4811372" lon="11.2603484"><ele>515.4285714285714</ele><time>2026-03-28T14:46:44.025Z</time></trkpt><trkpt lat="43.4811851" lon="11.26029"><ele>516.1428571428571</ele><time>2026-03-28T14:46:45.01Z</time></trkpt><trkpt lat="43.4812316" lon="11.26022"><ele>516.8571428571429</ele><time>2026-03-28T14:46:46.025Z</time></trkpt><trkpt lat="43.4812714" lon="11.2601305"><ele>517.5714285714286</ele><time>2026-03-28T14:46:47.023Z</time></trkpt><trkpt lat="43.4812858" lon="11.2600175"><ele>518.2857142857142</ele><time>2026-03-28T14:46:48.022Z</time></trkpt><trkpt lat="43.4812746" lon="11.2598968"><ele>519.0</ele><time>2026-03-28T14:46:49.016Z</time></trkpt><trkpt lat="43.4812587" lon="11.2597861"><ele>515.1666666666666</ele><time>2026-03-28T14:46:50.005Z</time></trkpt><trkpt lat="43.4812368" lon="11.2596729"><ele>511.33333333333337</ele><time>2026-03-28T14:46:51.017Z</time></trkpt><trkpt lat="43.4812197" lon="11.2595629"><ele>507.5</ele><time>2026-03-28T14:46:52.027Z</time></trkpt><trkpt lat="43.4812116" lon="11.2594513"><ele>503.6666666666667</ele><time>2026-03-28T14:46:53.025Z</time></trkpt><trkpt lat="43.4812015" lon="11.2593348"><ele>499.83333333333337</ele><time>2026-03-28T14:46:54.009Z</time></trkpt><trkpt lat="43.4811958" lon="11.2592208"><ele>496.0</ele><time>2026-03-28T14:46:54.998Z</time></trkpt><trkpt lat="43.4811939" lon="11.259107"><ele>496.00000000000006</ele><time>2026-03-28T14:46:56.014Z</time></trkpt><trkpt lat="43.4811951" lon="11.2589977"><ele>496.0</ele><time>2026-03-28T14:46:57.021Z</time></trkpt><trkpt lat="43.4811919" lon="11.2588893"><ele>496.0</ele><time>2026-03-28T14:46:58.019Z</time></trkpt><trkpt lat="43.4811859" lon="11.2587816"><ele>496.0</ele><time>2026-03-28T14:46:59.012Z</time></trkpt><trkpt lat="43.4811724" lon="11.258678"><ele>496.00000000000006</ele><time>2026-03-28T14:47:00.013Z</time></trkpt><trkpt lat="43.4811528" lon="11.2585734"><ele>496.0</ele><time>2026-03-28T14:47:01.01Z</time></trkpt><trkpt lat="43.4811256" lon="11.2584683"><ele>496.00000000000006</ele><time>2026-03-28T14:47:02.024Z</time></trkpt><trkpt lat="43.4810935" lon="11.2583652"><ele>496.0</ele><time>2026-03-28T14:47:03.011Z</time></trkpt><trkpt lat="43.4810611" lon="11.2582636"><ele>496.0</ele><time>2026-03-28T14:47:04.01Z</time></trkpt><trkpt lat="43.4810288" lon="11.258162"><ele>496.0</ele><time>2026-03-28T14:47:05.034Z</time></trkpt><trkpt lat="43.4809967" lon="11.2580569"><ele>496.00000000000006</ele><time>2026-03-28T14:47:06.011Z</time></trkpt><trkpt lat="43.4809646" lon="11.2579578"><ele>496.0</ele><time>2026-03-28T14:47:07.007Z</time></trkpt><trkpt lat="43.4809321" lon="11.2578597"><ele>497.42857142857144</ele><time>2026-03-28T14:47:08.034Z</time></trkpt><trkpt lat="43.4809003" lon="11.2577612"><ele>498.8571428571429</ele><time>2026-03-28T14:47:09.003Z</time></trkpt><trkpt lat="43.4808685" lon="11.2576642"><ele>500.28571428571433</ele><time>2026-03-28T14:47:10.017Z</time></trkpt><trkpt lat="43.4808402" lon="11.2575724"><ele>501.7142857142858</ele><time>2026-03-28T14:47:11.022Z</time></trkpt><trkpt lat="43.4808118" lon="11.2574842"><ele>503.14285714285717</ele><time>2026-03-28T14:47:12.02Z</time></trkpt><trkpt lat="43.4807842" lon="11.2574"><ele>504.57142857142867</ele><time>2026-03-28T14:47:13.028Z</time></trkpt><trkpt lat="43.4807588" lon="11.2573179"><ele>506.00000000000006</ele><time>2026-03-28T14:47:14.012Z</time></trkpt><trkpt lat="43.4807323" lon="11.2572328"><ele>506.4285714285715</ele><time>2026-03-28T14:47:15.013Z</time></trkpt><trkpt lat="43.4807044" lon="11.2571483"><ele>506.8571428571429</ele><time>2026-03-28T14:47:16.031Z</time></trkpt><trkpt lat="43.4806753" lon="11.2570617"><ele>507.2857142857143</ele><time>2026-03-28T14:47:17.015Z</time></trkpt><trkpt lat="43.4806463" lon="11.2569738"><ele>507.7142857142857</ele><time>2026-03-28T14:47:17.999Z</time></trkpt><trkpt lat="43.4806214" lon="11.2568872"><ele>508.1428571428571</ele><time>2026-03-28T14:47:19.014Z</time></trkpt><trkpt lat="43.4806004" lon="11.2568017"><ele>508.5714285714285</ele><time>2026-03-28T14:47:20.015Z</time></trkpt><trkpt lat="43.4805813" lon="11.2567069"><ele>508.99999999999994</ele><time>2026-03-28T14:47:21.012Z</time></trkpt><trkpt lat="43.4805695" lon="11.2566142"><ele>508.99999999999994</ele><time>2026-03-28T14:47:22.018Z</time></trkpt><trkpt lat="43.480563" lon="11.2565195"><ele>509.0</ele><time>2026-03-28T14:47:23.033Z</time></trkpt><trkpt lat="43.4805559" lon="11.2564293"><ele>509.0</ele><time>2026-03-28T14:47:24.018Z</time></trkpt><trkpt lat="43.4805474" lon="11.2563327"><ele>509.0</ele><time>2026-03-28T14:47:25.016Z</time></trkpt><trkpt lat="43.4805462" lon="11.25624"><ele>508.99999999999994</ele><time>2026-03-28T14:47:26.021Z</time></trkpt><trkpt lat="43.480554" lon="11.2561506"><ele>509.0</ele><time>2026-03-28T14:47:27.008Z</time></trkpt><trkpt lat="43.4806001" lon="11.2560004"><ele>507.6</ele><time>2026-03-28T14:47:28.998Z</time></trkpt><trkpt lat="43.4806398" lon="11.255933"><ele>506.2</ele><time>2026-03-28T14:47:30.006Z</time></trkpt><trkpt lat="43.4806849" lon="11.2558694"><ele>504.80000000000007</ele><time>2026-03-28T14:47:31.008Z</time></trkpt><trkpt lat="43.4807794" lon="11.2557634"><ele>503.40000000000003</ele><time>2026-03-28T14:47:33.022Z</time></trkpt><trkpt lat="43.4808799" lon="11.2556674"><ele>502.0</ele><time>2026-03-28T14:47:35.013Z</time></trkpt><trkpt lat="43.4809812" lon="11.2555612"><ele>500.8571428571428</ele><time>2026-03-28T14:47:37.025Z</time></trkpt><trkpt lat="43.4810353" lon="11.2555086"><ele>499.71428571428567</ele><time>2026-03-28T14:47:38.015Z</time></trkpt><trkpt lat="43.4810879" lon="11.2554549"><ele>498.57142857142856</ele><time>2026-03-28T14:47:39.006Z</time></trkpt><trkpt lat="43.4811421" lon="11.2554027"><ele>497.4285714285714</ele><time>2026-03-28T14:47:40.01Z</time></trkpt><trkpt lat="43.4811954" lon="11.2553522"><ele>496.2857142857142</ele><time>2026-03-28T14:47:41.008Z</time></trkpt><trkpt lat="43.4812976" lon="11.2552598"><ele>495.14285714285717</ele><time>2026-03-28T14:47:43.008Z</time></trkpt><trkpt lat="43.481353" lon="11.2552136"><ele>494.0</ele><time>2026-03-28T14:47:44.013Z</time></trkpt><trkpt lat="43.4814124" lon="11.2551731"><ele>494.0</ele><time>2026-03-28T14:47:45.01Z</time></trkpt><trkpt lat="43.4814719" lon="11.255141"><ele>494.0</ele><time>2026-03-28T14:47:46.01Z</time></trkpt><trkpt lat="43.4815377" lon="11.2551216"><ele>494.0</ele><time>2026-03-28T14:47:47.024Z</time></trkpt><trkpt lat="43.4816087" lon="11.2551256"><ele>494.0</ele><time>2026-03-28T14:47:48.025Z</time></trkpt><trkpt lat="43.4816745" lon="11.2551414"><ele>494.0</ele><time>2026-03-28T14:47:49.024Z</time></trkpt><trkpt lat="43.4817394" lon="11.2551732"><ele>494.0</ele><time>2026-03-28T14:47:50.019Z</time></trkpt><trkpt lat="43.4817952" lon="11.2552183"><ele>494.0</ele><time>2026-03-28T14:47:51.02Z</time></trkpt><trkpt lat="43.4818519" lon="11.2552671"><ele>494.0</ele><time>2026-03-28T14:47:52.009Z</time></trkpt><trkpt lat="43.4819054" lon="11.255319"><ele>494.0</ele><time>2026-03-28T14:47:53.004Z</time></trkpt><trkpt lat="43.4819589" lon="11.2553739"><ele>494.0</ele><time>2026-03-28T14:47:54.031Z</time></trkpt><trkpt lat="43.4820574" lon="11.2554787"><ele>494.0</ele><time>2026-03-28T14:47:56.026Z</time></trkpt><trkpt lat="43.4821536" lon="11.2555787"><ele>494.0</ele><time>2026-03-28T14:47:58.012Z</time></trkpt><trkpt lat="43.4822445" lon="11.2556771"><ele>494.2</ele><time>2026-03-28T14:48:00.046Z</time></trkpt><trkpt lat="43.4823215" lon="11.2557859"><ele>494.4</ele><time>2026-03-28T14:48:02.005Z</time></trkpt><trkpt lat="43.4823832" lon="11.2559072"><ele>494.6</ele><time>2026-03-28T14:48:04.028Z</time></trkpt><trkpt lat="43.4824378" lon="11.2560281"><ele>494.8</ele><time>2026-03-28T14:48:06.008Z</time></trkpt><trkpt lat="43.4824927" lon="11.2561599"><ele>495.0</ele><time>2026-03-28T14:48:08.017Z</time></trkpt><trkpt lat="43.4825543" lon="11.2562855"><ele>495.0</ele><time>2026-03-28T14:48:10.03Z</time></trkpt><trkpt lat="43.4826172" lon="11.2564084"><ele>495.0</ele><time>2026-03-28T14:48:12.032Z</time></trkpt><trkpt lat="43.4826948" lon="11.2565168"><ele>495.0</ele><time>2026-03-28T14:48:14.015Z</time></trkpt><trkpt lat="43.4827727" lon="11.2566136"><ele>495.0</ele><time>2026-03-28T14:48:16.004Z</time></trkpt><trkpt lat="43.4828565" lon="11.2566982"><ele>495.0</ele><time>2026-03-28T14:48:18.016Z</time></trkpt><trkpt lat="43.4829423" lon="11.2567864"><ele>494.4</ele><time>2026-03-28T14:48:20.005Z</time></trkpt><trkpt lat="43.4830365" lon="11.2568873"><ele>493.8</ele><time>2026-03-28T14:48:22.005Z</time></trkpt><trkpt lat="43.4831412" lon="11.2569761"><ele>493.20000000000005</ele><time>2026-03-28T14:48:23.997Z</time></trkpt><trkpt lat="43.4832566" lon="11.2570381"><ele>492.6</ele><time>2026-03-28T14:48:26.019Z</time></trkpt><trkpt lat="43.4833214" lon="11.2570596"><ele>492.0</ele><time>2026-03-28T14:48:27.006Z</time></trkpt><trkpt lat="43.4833859" lon="11.2570627"><ele>492.00000000000006</ele><time>2026-03-28T14:48:28.013Z</time></trkpt><trkpt lat="43.483451" lon="11.2570443"><ele>492.0</ele><time>2026-03-28T14:48:29.027Z</time></trkpt><trkpt lat="43.4835129" lon="11.2570126"><ele>492.00000000000006</ele><time>2026-03-28T14:48:30.001Z</time></trkpt><trkpt lat="43.4835682" lon="11.2569602"><ele>492.00000000000006</ele><time>2026-03-28T14:48:31.004Z</time></trkpt><trkpt lat="43.4836106" lon="11.2568896"><ele>492.0</ele><time>2026-03-28T14:48:32.011Z</time></trkpt><trkpt lat="43.4836488" lon="11.2568079"><ele>492.00000000000006</ele><time>2026-03-28T14:48:33.016Z</time></trkpt><trkpt lat="43.4836747" lon="11.2567209"><ele>492.00000000000006</ele><time>2026-03-28T14:48:34.022Z</time></trkpt><trkpt lat="43.4836966" lon="11.2566357"><ele>492.00000000000006</ele><time>2026-03-28T14:48:35.023Z</time></trkpt><trkpt lat="43.4837144" lon="11.2565448"><ele>492.0</ele><time>2026-03-28T14:48:36.011Z</time></trkpt><trkpt lat="43.4837316" lon="11.2564579"><ele>492.00000000000006</ele><time>2026-03-28T14:48:37.009Z</time></trkpt><trkpt lat="43.4837589" lon="11.2563704"><ele>492.00000000000006</ele><time>2026-03-28T14:48:38.006Z</time></trkpt><trkpt lat="43.4837979" lon="11.2562943"><ele>492.0</ele><time>2026-03-28T14:48:39.013Z</time></trkpt><trkpt lat="43.4838542" lon="11.256233"><ele>492.00000000000006</ele><time>2026-03-28T14:48:40.022Z</time></trkpt><trkpt lat="43.4839066" lon="11.2561672"><ele>492.00000000000006</ele><time>2026-03-28T14:48:41.015Z</time></trkpt><trkpt lat="43.4839518" lon="11.2560993"><ele>492.4285714285715</ele><time>2026-03-28T14:48:42.034Z</time></trkpt><trkpt lat="43.4839911" lon="11.2560276"><ele>492.8571428571429</ele><time>2026-03-28T14:48:43.011Z</time></trkpt><trkpt lat="43.4840189" lon="11.2559482"><ele>493.2857142857143</ele><time>2026-03-28T14:48:44.019Z</time></trkpt><trkpt lat="43.4840434" lon="11.2558545"><ele>493.7142857142857</ele><time>2026-03-28T14:48:45.04Z</time></trkpt><trkpt lat="43.4840601" lon="11.2557686"><ele>494.1428571428571</ele><time>2026-03-28T14:48:46.021Z</time></trkpt><trkpt lat="43.4840728" lon="11.255678"><ele>494.5714285714285</ele><time>2026-03-28T14:48:47.01Z</time></trkpt><trkpt lat="43.4840873" lon="11.2555828"><ele>494.99999999999994</ele><time>2026-03-28T14:48:48.016Z</time></trkpt><trkpt lat="43.484104" lon="11.2554884"><ele>493.8571428571428</ele><time>2026-03-28T14:48:49.029Z</time></trkpt><trkpt lat="43.4841258" lon="11.2554009"><ele>492.71428571428567</ele><time>2026-03-28T14:48:50.008Z</time></trkpt><trkpt lat="43.4841514" lon="11.2553115"><ele>491.57142857142856</ele><time>2026-03-28T14:48:51.025Z</time></trkpt><trkpt lat="43.4841832" lon="11.2552252"><ele>490.4285714285714</ele><time>2026-03-28T14:48:52.019Z</time></trkpt><trkpt lat="43.4842206" lon="11.2551416"><ele>489.2857142857142</ele><time>2026-03-28T14:48:53.021Z</time></trkpt><trkpt lat="43.4842601" lon="11.2550617"><ele>488.14285714285717</ele><time>2026-03-28T14:48:54.014Z</time></trkpt><trkpt lat="43.4842904" lon="11.2549806"><ele>487.0</ele><time>2026-03-28T14:48:55.005Z</time></trkpt><trkpt lat="43.4843134" lon="11.2548934"><ele>487.0</ele><time>2026-03-28T14:48:56.003Z</time></trkpt><trkpt lat="43.4843293" lon="11.2547992"><ele>487.0</ele><time>2026-03-28T14:48:57.016Z</time></trkpt><trkpt lat="43.4843286" lon="11.2547002"><ele>487.0</ele><time>2026-03-28T14:48:58.028Z</time></trkpt><trkpt lat="43.4843217" lon="11.2546026"><ele>487.0</ele><time>2026-03-28T14:48:59.011Z</time></trkpt><trkpt lat="43.4843088" lon="11.2545111"><ele>487.0</ele><time>2026-03-28T14:49:00.011Z</time></trkpt><trkpt lat="43.4842914" lon="11.2544167"><ele>487.0</ele><time>2026-03-28T14:49:01.017Z</time></trkpt><trkpt lat="43.4842673" lon="11.2543224"><ele>487.0</ele><time>2026-03-28T14:49:02.027Z</time></trkpt><trkpt lat="43.4842455" lon="11.2542262"><ele>486.8571428571429</ele><time>2026-03-28T14:49:03.024Z</time></trkpt><trkpt lat="43.4842222" lon="11.2541267"><ele>486.71428571428567</ele><time>2026-03-28T14:49:04.022Z</time></trkpt><trkpt lat="43.4842014" lon="11.2540298"><ele>486.57142857142856</ele><time>2026-03-28T14:49:05.012Z</time></trkpt><trkpt lat="43.4841782" lon="11.253931"><ele>486.42857142857144</ele><time>2026-03-28T14:49:06.007Z</time></trkpt><trkpt lat="43.4841523" lon="11.253835"><ele>486.28571428571433</ele><time>2026-03-28T14:49:07.005Z</time></trkpt><trkpt lat="43.4841302" lon="11.2537353"><ele>486.1428571428571</ele><time>2026-03-28T14:49:08.012Z</time></trkpt><trkpt lat="43.4841102" lon="11.2536398"><ele>486.0</ele><time>2026-03-28T14:49:09.033Z</time></trkpt><trkpt lat="43.4840868" lon="11.2535407"><ele>486.0</ele><time>2026-03-28T14:49:10.017Z</time></trkpt><trkpt lat="43.4840638" lon="11.2534377"><ele>486.0</ele><time>2026-03-28T14:49:11.012Z</time></trkpt><trkpt lat="43.4840435" lon="11.2533331"><ele>486.0</ele><time>2026-03-28T14:49:12.012Z</time></trkpt><trkpt lat="43.4840299" lon="11.2532283"><ele>486.0</ele><time>2026-03-28T14:49:13.015Z</time></trkpt><trkpt lat="43.4840241" lon="11.2531202"><ele>486.0</ele><time>2026-03-28T14:49:14.023Z</time></trkpt><trkpt lat="43.4840327" lon="11.2530118"><ele>486.0</ele><time>2026-03-28T14:49:15.025Z</time></trkpt><trkpt lat="43.4840498" lon="11.2529023"><ele>485.0</ele><time>2026-03-28T14:49:16.023Z</time></trkpt><trkpt lat="43.4840839" lon="11.2528003"><ele>484.0</ele><time>2026-03-28T14:49:17.004Z</time></trkpt><trkpt lat="43.4841301" lon="11.2527079"><ele>483.0</ele><time>2026-03-28T14:49:18.022Z</time></trkpt><trkpt lat="43.4841862" lon="11.25263"><ele>482.0</ele><time>2026-03-28T14:49:19.005Z</time></trkpt><trkpt lat="43.4842461" lon="11.2525628"><ele>481.0</ele><time>2026-03-28T14:49:20.011Z</time></trkpt><trkpt lat="43.4843142" lon="11.2525136"><ele>480.0</ele><time>2026-03-28T14:49:21.01Z</time></trkpt><trkpt lat="43.4843873" lon="11.252476"><ele>480.0</ele><time>2026-03-28T14:49:22.016Z</time></trkpt><trkpt lat="43.4844613" lon="11.2524554"><ele>480.0</ele><time>2026-03-28T14:49:23.008Z</time></trkpt><trkpt lat="43.4845359" lon="11.2524468"><ele>480.0</ele><time>2026-03-28T14:49:24.029Z</time></trkpt><trkpt lat="43.4846114" lon="11.2524436"><ele>480.0</ele><time>2026-03-28T14:49:25.015Z</time></trkpt><trkpt lat="43.484685" lon="11.2524422"><ele>480.0</ele><time>2026-03-28T14:49:26.008Z</time></trkpt><trkpt lat="43.4847579" lon="11.2524461"><ele>480.0</ele><time>2026-03-28T14:49:27.002Z</time></trkpt><trkpt lat="43.484828" lon="11.2524603"><ele>480.0</ele><time>2026-03-28T14:49:28.014Z</time></trkpt><trkpt lat="43.4848982" lon="11.2524816"><ele>480.42857142857144</ele><time>2026-03-28T14:49:29.014Z</time></trkpt><trkpt lat="43.4849701" lon="11.2525028"><ele>480.85714285714283</ele><time>2026-03-28T14:49:30.007Z</time></trkpt><trkpt lat="43.4850373" lon="11.2525328"><ele>481.2857142857143</ele><time>2026-03-28T14:49:31.022Z</time></trkpt><trkpt lat="43.4851063" lon="11.2525641"><ele>481.7142857142857</ele><time>2026-03-28T14:49:32.008Z</time></trkpt><trkpt lat="43.4851756" lon="11.2525947"><ele>482.1428571428571</ele><time>2026-03-28T14:49:33.006Z</time></trkpt><trkpt lat="43.4852398" lon="11.2526266"><ele>482.57142857142856</ele><time>2026-03-28T14:49:34.017Z</time></trkpt><trkpt lat="43.4853036" lon="11.2526604"><ele>483.0</ele><time>2026-03-28T14:49:35.008Z</time></trkpt><trkpt lat="43.4853641" lon="11.2526975"><ele>483.0</ele><time>2026-03-28T14:49:36.01Z</time></trkpt><trkpt lat="43.4854213" lon="11.2527388"><ele>483.0</ele><time>2026-03-28T14:49:37.023Z</time></trkpt><trkpt lat="43.4854804" lon="11.2527899"><ele>483.0</ele><time>2026-03-28T14:49:38.001Z</time></trkpt><trkpt lat="43.4855329" lon="11.2528435"><ele>483.0</ele><time>2026-03-28T14:49:39.022Z</time></trkpt><trkpt lat="43.4855893" lon="11.2529063"><ele>483.0</ele><time>2026-03-28T14:49:40.005Z</time></trkpt><trkpt lat="43.4856425" lon="11.2529719"><ele>483.0</ele><time>2026-03-28T14:49:41.009Z</time></trkpt><trkpt lat="43.485697" lon="11.2530332"><ele>483.0</ele><time>2026-03-28T14:49:42.011Z</time></trkpt><trkpt lat="43.4857546" lon="11.2530966"><ele>484.5</ele><time>2026-03-28T14:49:43.003Z</time></trkpt><trkpt lat="43.4858162" lon="11.2531559"><ele>486.0</ele><time>2026-03-28T14:49:44.012Z</time></trkpt><trkpt lat="43.4858755" lon="11.2532185"><ele>487.5</ele><time>2026-03-28T14:49:45.016Z</time></trkpt><trkpt lat="43.4859425" lon="11.2532604"><ele>489.0</ele><time>2026-03-28T14:49:46.027Z</time></trkpt><trkpt lat="43.4860182" lon="11.253276"><ele>490.5</ele><time>2026-03-28T14:49:46.999Z</time></trkpt><trkpt lat="43.4860956" lon="11.2532765"><ele>492.0</ele><time>2026-03-28T14:49:48.019Z</time></trkpt><trkpt lat="43.4861712" lon="11.2532583"><ele>492.0</ele><time>2026-03-28T14:49:49.011Z</time></trkpt><trkpt lat="43.486244" lon="11.2532114"><ele>492.0</ele><time>2026-03-28T14:49:50.007Z</time></trkpt><trkpt lat="43.4863149" lon="11.2531514"><ele>492.0</ele><time>2026-03-28T14:49:51.015Z</time></trkpt><trkpt lat="43.486382" lon="11.2530705"><ele>492.0</ele><time>2026-03-28T14:49:52.012Z</time></trkpt><trkpt lat="43.4864223" lon="11.2529654"><ele>492.0</ele><time>2026-03-28T14:49:53.02Z</time></trkpt><trkpt lat="43.4864513" lon="11.2528508"><ele>492.0</ele><time>2026-03-28T14:49:54.008Z</time></trkpt><trkpt lat="43.4864591" lon="11.2527363"><ele>489.8</ele><time>2026-03-28T14:49:55.02Z</time></trkpt><trkpt lat="43.4864515" lon="11.2526083"><ele>487.6</ele><time>2026-03-28T14:49:56.011Z</time></trkpt><trkpt lat="43.4864424" lon="11.2524784"><ele>485.40000000000003</ele><time>2026-03-28T14:49:57.022Z</time></trkpt><trkpt lat="43.4864274" lon="11.2523581"><ele>483.20000000000005</ele><time>2026-03-28T14:49:58.015Z</time></trkpt><trkpt lat="43.4864127" lon="11.2522356"><ele>481.0</ele><time>2026-03-28T14:49:59.027Z</time></trkpt><trkpt lat="43.4864038" lon="11.2521137"><ele>479.6</ele><time>2026-03-28T14:50:00.036Z</time></trkpt><trkpt lat="43.4863999" lon="11.251991"><ele>478.20000000000005</ele><time>2026-03-28T14:50:01.013Z</time></trkpt><trkpt lat="43.4864131" lon="11.2518666"><ele>476.79999999999995</ele><time>2026-03-28T14:50:02.014Z</time></trkpt><trkpt lat="43.4864497" lon="11.2517485"><ele>475.4</ele><time>2026-03-28T14:50:03.02Z</time></trkpt><trkpt lat="43.4865093" lon="11.251656"><ele>474.0</ele><time>2026-03-28T14:50:04.018Z</time></trkpt><trkpt lat="43.4865977" lon="11.2516156"><ele>474.0</ele><time>2026-03-28T14:50:05.003Z</time></trkpt><trkpt lat="43.4866895" lon="11.2515994"><ele>474.0</ele><time>2026-03-28T14:50:06.028Z</time></trkpt><trkpt lat="43.4867762" lon="11.2515956"><ele>474.0</ele><time>2026-03-28T14:50:07.012Z</time></trkpt><trkpt lat="43.4868682" lon="11.251589"><ele>474.0</ele><time>2026-03-28T14:50:08.007Z</time></trkpt><trkpt lat="43.4869576" lon="11.2515827"><ele>474.0</ele><time>2026-03-28T14:50:09.025Z</time></trkpt><trkpt lat="43.487048" lon="11.2515745"><ele>473.8333333333333</ele><time>2026-03-28T14:50:10.017Z</time></trkpt><trkpt lat="43.4871358" lon="11.2515662"><ele>473.66666666666663</ele><time>2026-03-28T14:50:11.013Z</time></trkpt><trkpt lat="43.4872224" lon="11.2515576"><ele>473.5</ele><time>2026-03-28T14:50:12.019Z</time></trkpt><trkpt lat="43.4873097" lon="11.2515571"><ele>473.3333333333333</ele><time>2026-03-28T14:50:13.009Z</time></trkpt><trkpt lat="43.4873976" lon="11.2515522"><ele>473.16666666666663</ele><time>2026-03-28T14:50:14.017Z</time></trkpt><trkpt lat="43.487483" lon="11.2515472"><ele>473.0</ele><time>2026-03-28T14:50:15.02Z</time></trkpt><trkpt lat="43.4875695" lon="11.2515432"><ele>472.99999999999994</ele><time>2026-03-28T14:50:16.006Z</time></trkpt><trkpt lat="43.4876536" lon="11.2515294"><ele>473.0</ele><time>2026-03-28T14:50:17.02Z</time></trkpt><trkpt lat="43.4877367" lon="11.2515036"><ele>473.0</ele><time>2026-03-28T14:50:18.013Z</time></trkpt><trkpt lat="43.4878131" lon="11.2514531"><ele>473.0</ele><time>2026-03-28T14:50:19.032Z</time></trkpt><trkpt lat="43.4878843" lon="11.2513724"><ele>472.99999999999994</ele><time>2026-03-28T14:50:20.017Z</time></trkpt><trkpt lat="43.4879389" lon="11.2512777"><ele>473.0</ele><time>2026-03-28T14:50:21.022Z</time></trkpt><trkpt lat="43.4879837" lon="11.2511729"><ele>473.8333333333333</ele><time>2026-03-28T14:50:22.014Z</time></trkpt><trkpt lat="43.488001" lon="11.2510571"><ele>474.66666666666663</ele><time>2026-03-28T14:50:23.014Z</time></trkpt><trkpt lat="43.4879928" lon="11.2509431"><ele>475.5</ele><time>2026-03-28T14:50:24.017Z</time></trkpt><trkpt lat="43.4879723" lon="11.2508332"><ele>476.33333333333337</ele><time>2026-03-28T14:50:25.018Z</time></trkpt><trkpt lat="43.4879397" lon="11.2507259"><ele>477.1666666666667</ele><time>2026-03-28T14:50:26.013Z</time></trkpt><trkpt lat="43.4879119" lon="11.2506162"><ele>478.0</ele><time>2026-03-28T14:50:27.025Z</time></trkpt><trkpt lat="43.4878834" lon="11.2505022"><ele>474.50000000000006</ele><time>2026-03-28T14:50:28.041Z</time></trkpt><trkpt lat="43.4878549" lon="11.2503933"><ele>471.0</ele><time>2026-03-28T14:50:29.021Z</time></trkpt><trkpt lat="43.4878283" lon="11.2502841"><ele>467.5</ele><time>2026-03-28T14:50:30.076Z</time></trkpt><trkpt lat="43.4878029" lon="11.2501792"><ele>464.0</ele><time>2026-03-28T14:50:31.04Z</time></trkpt><trkpt lat="43.4877788" lon="11.2500739"><ele>460.50000000000006</ele><time>2026-03-28T14:50:32.015Z</time></trkpt><trkpt lat="43.4877603" lon="11.2499626"><ele>457.0</ele><time>2026-03-28T14:50:33.045Z</time></trkpt><trkpt lat="43.4877445" lon="11.2498523"><ele>456.83333333333337</ele><time>2026-03-28T14:50:34.046Z</time></trkpt><trkpt lat="43.48773" lon="11.2497409"><ele>456.6666666666667</ele><time>2026-03-28T14:50:35.014Z</time></trkpt><trkpt lat="43.4877161" lon="11.2496268"><ele>456.5</ele><time>2026-03-28T14:50:36.033Z</time></trkpt><trkpt lat="43.4877004" lon="11.2495173"><ele>456.33333333333337</ele><time>2026-03-28T14:50:37.008Z</time></trkpt><trkpt lat="43.4876923" lon="11.2494141"><ele>456.1666666666667</ele><time>2026-03-28T14:50:38.013Z</time></trkpt><trkpt lat="43.4876838" lon="11.249313"><ele>456.0</ele><time>2026-03-28T14:50:39.036Z</time></trkpt><trkpt lat="43.4876747" lon="11.2492152"><ele>456.0</ele><time>2026-03-28T14:50:40.038Z</time></trkpt><trkpt lat="43.4876665" lon="11.2491214"><ele>455.99999999999994</ele><time>2026-03-28T14:50:41.011Z</time></trkpt><trkpt lat="43.487662" lon="11.2490275"><ele>456.0</ele><time>2026-03-28T14:50:42.034Z</time></trkpt><trkpt lat="43.4876632" lon="11.2489364"><ele>456.0</ele><time>2026-03-28T14:50:43.012Z</time></trkpt><trkpt lat="43.4876649" lon="11.2488397"><ele>455.99999999999994</ele><time>2026-03-28T14:50:44.014Z</time></trkpt><trkpt lat="43.4876746" lon="11.2487465"><ele>456.0</ele><time>2026-03-28T14:50:45.006Z</time></trkpt><trkpt lat="43.4876932" lon="11.2486628"><ele>456.0</ele><time>2026-03-28T14:50:46.027Z</time></trkpt><trkpt lat="43.4877244" lon="11.2485846"><ele>455.1666666666667</ele><time>2026-03-28T14:50:47.008Z</time></trkpt><trkpt lat="43.487768" lon="11.2485146"><ele>454.33333333333337</ele><time>2026-03-28T14:50:48.011Z</time></trkpt><trkpt lat="43.4878199" lon="11.2484617"><ele>453.5</ele><time>2026-03-28T14:50:49.016Z</time></trkpt><trkpt lat="43.4878785" lon="11.2484142"><ele>452.6666666666667</ele><time>2026-03-28T14:50:50.002Z</time></trkpt><trkpt lat="43.4879393" lon="11.2483749"><ele>451.83333333333337</ele><time>2026-03-28T14:50:50.998Z</time></trkpt><trkpt lat="43.4880606" lon="11.2483262"><ele>451.0</ele><time>2026-03-28T14:50:53.022Z</time></trkpt><trkpt lat="43.4881262" lon="11.2483027"><ele>450.71428571428567</ele><time>2026-03-28T14:50:54.008Z</time></trkpt><trkpt lat="43.4881932" lon="11.2482786"><ele>450.42857142857144</ele><time>2026-03-28T14:50:55.018Z</time></trkpt><trkpt lat="43.4882595" lon="11.2482522"><ele>450.1428571428571</ele><time>2026-03-28T14:50:56.031Z</time></trkpt><trkpt lat="43.4883241" lon="11.2482043"><ele>449.85714285714283</ele><time>2026-03-28T14:50:57.02Z</time></trkpt><trkpt lat="43.488386" lon="11.2481376"><ele>449.57142857142856</ele><time>2026-03-28T14:50:58.017Z</time></trkpt><trkpt lat="43.4884427" lon="11.2480637"><ele>449.2857142857143</ele><time>2026-03-28T14:50:59.013Z</time></trkpt><trkpt lat="43.4885004" lon="11.2479888"><ele>449.0</ele><time>2026-03-28T14:51:00.02Z</time></trkpt><trkpt lat="43.4885636" lon="11.2479195"><ele>448.99999999999994</ele><time>2026-03-28T14:51:01.013Z</time></trkpt><trkpt lat="43.4886286" lon="11.2478556"><ele>449.0</ele><time>2026-03-28T14:51:02.016Z</time></trkpt><trkpt lat="43.4886972" lon="11.2477923"><ele>449.0</ele><time>2026-03-28T14:51:03.019Z</time></trkpt><trkpt lat="43.4887722" lon="11.2477303"><ele>449.0</ele><time>2026-03-28T14:51:04.005Z</time></trkpt><trkpt lat="43.4888409" lon="11.2476682"><ele>448.99999999999994</ele><time>2026-03-28T14:51:04.998Z</time></trkpt><trkpt lat="43.4889125" lon="11.2476019"><ele>449.0</ele><time>2026-03-28T14:51:06.005Z</time></trkpt><trkpt lat="43.4889872" lon="11.2475307"><ele>450.79999999999995</ele><time>2026-03-28T14:51:07.005Z</time></trkpt><trkpt lat="43.489071" lon="11.2474776"><ele>452.59999999999997</ele><time>2026-03-28T14:51:08.013Z</time></trkpt><trkpt lat="43.4891624" lon="11.2474511"><ele>454.4</ele><time>2026-03-28T14:51:09.022Z</time></trkpt><trkpt lat="43.4892529" lon="11.2474516"><ele>456.2</ele><time>2026-03-28T14:51:10Z</time></trkpt><trkpt lat="43.4893443" lon="11.2474748"><ele>458.0</ele><time>2026-03-28T14:51:11.016Z</time></trkpt><trkpt lat="43.4894282" lon="11.2475091"><ele>457.99999999999994</ele><time>2026-03-28T14:51:12.005Z</time></trkpt><trkpt lat="43.4895102" lon="11.2475478"><ele>458.0</ele><time>2026-03-28T14:51:13.014Z</time></trkpt><trkpt lat="43.4895913" lon="11.2475889"><ele>458.0</ele><time>2026-03-28T14:51:14.016Z</time></trkpt><trkpt lat="43.4896756" lon="11.2476262"><ele>458.0</ele><time>2026-03-28T14:51:15.008Z</time></trkpt><trkpt lat="43.4897622" lon="11.2476339"><ele>457.99999999999994</ele><time>2026-03-28T14:51:16.003Z</time></trkpt><trkpt lat="43.4898448" lon="11.2476214"><ele>458.0</ele><time>2026-03-28T14:51:17.006Z</time></trkpt><trkpt lat="43.4899331" lon="11.2475885"><ele>457.59999999999997</ele><time>2026-03-28T14:51:18.008Z</time></trkpt><trkpt lat="43.4900234" lon="11.2475481"><ele>457.19999999999993</ele><time>2026-03-28T14:51:19.022Z</time></trkpt><trkpt lat="43.4901181" lon="11.2475166"><ele>456.8</ele><time>2026-03-28T14:51:20.022Z</time></trkpt><trkpt lat="43.4902202" lon="11.2475022"><ele>456.4</ele><time>2026-03-28T14:51:21.005Z</time></trkpt><trkpt lat="43.4903298" lon="11.2474926"><ele>456.0</ele><time>2026-03-28T14:51:21.999Z</time></trkpt><trkpt lat="43.490439" lon="11.2474872"><ele>455.0</ele><time>2026-03-28T14:51:23.011Z</time></trkpt><trkpt lat="43.4905424" lon="11.2474966"><ele>454.0</ele><time>2026-03-28T14:51:24.008Z</time></trkpt><trkpt lat="43.4906414" lon="11.2475082"><ele>453.0</ele><time>2026-03-28T14:51:25.023Z</time></trkpt><trkpt lat="43.4907369" lon="11.2475238"><ele>452.0</ele><time>2026-03-28T14:51:26.006Z</time></trkpt><trkpt lat="43.4908275" lon="11.2475438"><ele>451.0</ele><time>2026-03-28T14:51:27.023Z</time></trkpt><trkpt lat="43.4909158" lon="11.2475668"><ele>451.00000000000006</ele><time>2026-03-28T14:51:28.001Z</time></trkpt><trkpt lat="43.4909993" lon="11.2476046"><ele>451.0</ele><time>2026-03-28T14:51:29.006Z</time></trkpt><trkpt lat="43.4910791" lon="11.2476568"><ele>451.0</ele><time>2026-03-28T14:51:30.021Z</time></trkpt><trkpt lat="43.4911557" lon="11.2477142"><ele>451.0</ele><time>2026-03-28T14:51:31.019Z</time></trkpt><trkpt lat="43.491227" lon="11.2477712"><ele>451.00000000000006</ele><time>2026-03-28T14:51:32.022Z</time></trkpt><trkpt lat="43.4912964" lon="11.2478262"><ele>451.0</ele><time>2026-03-28T14:51:33.029Z</time></trkpt><trkpt lat="43.4913638" lon="11.2478842"><ele>449.1666666666667</ele><time>2026-03-28T14:51:34.019Z</time></trkpt><trkpt lat="43.4914295" lon="11.2479406"><ele>447.33333333333337</ele><time>2026-03-28T14:51:35.004Z</time></trkpt><trkpt lat="43.4914973" lon="11.2479938"><ele>445.5</ele><time>2026-03-28T14:51:36.027Z</time></trkpt><trkpt lat="43.4915661" lon="11.248043"><ele>443.66666666666663</ele><time>2026-03-28T14:51:37.012Z</time></trkpt><trkpt lat="43.4916397" lon="11.2480959"><ele>441.8333333333333</ele><time>2026-03-28T14:51:38.011Z</time></trkpt><trkpt lat="43.4917142" lon="11.2481357"><ele>440.0</ele><time>2026-03-28T14:51:39.02Z</time></trkpt><trkpt lat="43.4917849" lon="11.2481462"><ele>439.99999999999994</ele><time>2026-03-28T14:51:40.003Z</time></trkpt><trkpt lat="43.4918507" lon="11.2481363"><ele>440.0</ele><time>2026-03-28T14:51:41.004Z</time></trkpt><trkpt lat="43.4919185" lon="11.2481052"><ele>440.0</ele><time>2026-03-28T14:51:42.015Z</time></trkpt><trkpt lat="43.4919871" lon="11.2480536"><ele>440.0</ele><time>2026-03-28T14:51:42.993Z</time></trkpt><trkpt lat="43.4920556" lon="11.2479774"><ele>439.99999999999994</ele><time>2026-03-28T14:51:44Z</time></trkpt><trkpt lat="43.492117" lon="11.2478881"><ele>440.0</ele><time>2026-03-28T14:51:45.014Z</time></trkpt><trkpt lat="43.492167" lon="11.2477788"><ele>439.8</ele><time>2026-03-28T14:51:46.022Z</time></trkpt><trkpt lat="43.4922121" lon="11.2476644"><ele>439.6</ele><time>2026-03-28T14:51:47.003Z</time></trkpt><trkpt lat="43.4922577" lon="11.2475453"><ele>439.4</ele><time>2026-03-28T14:51:48.018Z</time></trkpt><trkpt lat="43.4923078" lon="11.2474277"><ele>439.2</ele><time>2026-03-28T14:51:49.013Z</time></trkpt><trkpt lat="43.4923608" lon="11.247317"><ele>439.0</ele><time>2026-03-28T14:51:50.006Z</time></trkpt><trkpt lat="43.4924149" lon="11.2472093"><ele>439.0</ele><time>2026-03-28T14:51:51Z</time></trkpt><trkpt lat="43.4924752" lon="11.2470956"><ele>439.0</ele><time>2026-03-28T14:51:52.022Z</time></trkpt><trkpt lat="43.4925325" lon="11.2469861"><ele>439.0</ele><time>2026-03-28T14:51:53.01Z</time></trkpt><trkpt lat="43.4925914" lon="11.2468756"><ele>439.0</ele><time>2026-03-28T14:51:54.006Z</time></trkpt><trkpt lat="43.4926496" lon="11.2467623"><ele>439.0</ele><time>2026-03-28T14:51:55.031Z</time></trkpt><trkpt lat="43.4927076" lon="11.2466505"><ele>439.0</ele><time>2026-03-28T14:51:56.019Z</time></trkpt><trkpt lat="43.4927658" lon="11.246545"><ele>439.0</ele><time>2026-03-28T14:51:57.034Z</time></trkpt><trkpt lat="43.492826" lon="11.2464444"><ele>439.0</ele><time>2026-03-28T14:51:58.011Z</time></trkpt><trkpt lat="43.4928905" lon="11.2463453"><ele>439.0</ele><time>2026-03-28T14:51:59.016Z</time></trkpt><trkpt lat="43.4929547" lon="11.246251"><ele>439.0</ele><time>2026-03-28T14:51:59.999Z</time></trkpt><trkpt lat="43.4930218" lon="11.2461587"><ele>439.00000000000006</ele><time>2026-03-28T14:52:01.014Z</time></trkpt><trkpt lat="43.493082" lon="11.2460678"><ele>439.0</ele><time>2026-03-28T14:52:02.013Z</time></trkpt><trkpt lat="43.4931375" lon="11.2459789"><ele>439.0</ele><time>2026-03-28T14:52:03.024Z</time></trkpt><trkpt lat="43.4931919" lon="11.2458925"><ele>439.0</ele><time>2026-03-28T14:52:04.028Z</time></trkpt><trkpt lat="43.4932439" lon="11.2458151"><ele>439.00000000000006</ele><time>2026-03-28T14:52:05.008Z</time></trkpt><trkpt lat="43.4933011" lon="11.2457379"><ele>439.0</ele><time>2026-03-28T14:52:06.017Z</time></trkpt><trkpt lat="43.4933655" lon="11.2456782"><ele>439.00000000000006</ele><time>2026-03-28T14:52:07.019Z</time></trkpt><trkpt lat="43.4934392" lon="11.2456318"><ele>439.0</ele><time>2026-03-28T14:52:08.018Z</time></trkpt><trkpt lat="43.4935179" lon="11.2456005"><ele>439.0</ele><time>2026-03-28T14:52:08.998Z</time></trkpt><trkpt lat="43.4935994" lon="11.2455804"><ele>439.0</ele><time>2026-03-28T14:52:10.026Z</time></trkpt><trkpt lat="43.4936782" lon="11.2455683"><ele>439.00000000000006</ele><time>2026-03-28T14:52:11.017Z</time></trkpt><trkpt lat="43.4937597" lon="11.2455573"><ele>439.0</ele><time>2026-03-28T14:52:12.021Z</time></trkpt><trkpt lat="43.4938402" lon="11.24554"><ele>438.6666666666667</ele><time>2026-03-28T14:52:13.003Z</time></trkpt><trkpt lat="43.4939229" lon="11.2455038"><ele>438.33333333333337</ele><time>2026-03-28T14:52:14.014Z</time></trkpt><trkpt lat="43.4939979" lon="11.2454409"><ele>438.0</ele><time>2026-03-28T14:52:15.005Z</time></trkpt><trkpt lat="43.4940501" lon="11.2453507"><ele>437.66666666666663</ele><time>2026-03-28T14:52:16.015Z</time></trkpt><trkpt lat="43.4940792" lon="11.2452418"><ele>437.3333333333333</ele><time>2026-03-28T14:52:17.019Z</time></trkpt><trkpt lat="43.4940835" lon="11.2451258"><ele>437.0</ele><time>2026-03-28T14:52:18.02Z</time></trkpt><trkpt lat="43.4940802" lon="11.2450067"><ele>436.99999999999994</ele><time>2026-03-28T14:52:19.022Z</time></trkpt><trkpt lat="43.4940755" lon="11.2448927"><ele>437.0</ele><time>2026-03-28T14:52:20.012Z</time></trkpt><trkpt lat="43.494065" lon="11.244776"><ele>437.0</ele><time>2026-03-28T14:52:21.01Z</time></trkpt><trkpt lat="43.4940523" lon="11.2446631"><ele>437.0</ele><time>2026-03-28T14:52:22.004Z</time></trkpt><trkpt lat="43.4940331" lon="11.2445522"><ele>436.99999999999994</ele><time>2026-03-28T14:52:23.014Z</time></trkpt><trkpt lat="43.4940141" lon="11.2444364"><ele>437.0</ele><time>2026-03-28T14:52:24.015Z</time></trkpt><trkpt lat="43.4940087" lon="11.2443249"><ele>436.49999999999994</ele><time>2026-03-28T14:52:25.018Z</time></trkpt><trkpt lat="43.4940168" lon="11.2442154"><ele>436.0</ele><time>2026-03-28T14:52:26.016Z</time></trkpt><trkpt lat="43.4940336" lon="11.2441048"><ele>435.5</ele><time>2026-03-28T14:52:27.002Z</time></trkpt><trkpt lat="43.4940573" lon="11.2440025"><ele>435.0</ele><time>2026-03-28T14:52:28.01Z</time></trkpt><trkpt lat="43.494085" lon="11.2439043"><ele>434.49999999999994</ele><time>2026-03-28T14:52:29.019Z</time></trkpt><trkpt lat="43.494116" lon="11.2438095"><ele>434.0</ele><time>2026-03-28T14:52:30.001Z</time></trkpt><trkpt lat="43.4941479" lon="11.2437179"><ele>433.57142857142856</ele><time>2026-03-28T14:52:31.01Z</time></trkpt><trkpt lat="43.4941777" lon="11.2436262"><ele>433.1428571428571</ele><time>2026-03-28T14:52:32.006Z</time></trkpt><trkpt lat="43.4942054" lon="11.2435333"><ele>432.7142857142857</ele><time>2026-03-28T14:52:33.004Z</time></trkpt><trkpt lat="43.4942349" lon="11.2434418"><ele>432.2857142857143</ele><time>2026-03-28T14:52:34.018Z</time></trkpt><trkpt lat="43.4942627" lon="11.2433516"><ele>431.85714285714283</ele><time>2026-03-28T14:52:35.015Z</time></trkpt><trkpt lat="43.494288" lon="11.2432646"><ele>431.42857142857144</ele><time>2026-03-28T14:52:36.009Z</time></trkpt><trkpt lat="43.4943053" lon="11.2431766"><ele>431.0</ele><time>2026-03-28T14:52:37.02Z</time></trkpt><trkpt lat="43.4943183" lon="11.2430876"><ele>430.5714285714286</ele><time>2026-03-28T14:52:38.017Z</time></trkpt><trkpt lat="43.4943246" lon="11.2429918"><ele>430.1428571428571</ele><time>2026-03-28T14:52:39.004Z</time></trkpt><trkpt lat="43.4943257" lon="11.2428934"><ele>429.7142857142857</ele><time>2026-03-28T14:52:40.008Z</time></trkpt><trkpt lat="43.4943233" lon="11.242795"><ele>429.28571428571433</ele><time>2026-03-28T14:52:41.002Z</time></trkpt><trkpt lat="43.4943193" lon="11.242693"><ele>428.8571428571429</ele><time>2026-03-28T14:52:42.027Z</time></trkpt><trkpt lat="43.4943144" lon="11.2425935"><ele>428.42857142857144</ele><time>2026-03-28T14:52:43.017Z</time></trkpt><trkpt lat="43.4943093" lon="11.2424912"><ele>428.0</ele><time>2026-03-28T14:52:44.023Z</time></trkpt><trkpt lat="43.494304" lon="11.2423896"><ele>428.00000000000006</ele><time>2026-03-28T14:52:45.016Z</time></trkpt><trkpt lat="43.4943049" lon="11.2422898"><ele>428.0</ele><time>2026-03-28T14:52:46.017Z</time></trkpt><trkpt lat="43.4943064" lon="11.2421922"><ele>428.0</ele><time>2026-03-28T14:52:47.033Z</time></trkpt><trkpt lat="43.4943068" lon="11.2420932"><ele>428.0</ele><time>2026-03-28T14:52:48.016Z</time></trkpt><trkpt lat="43.494305" lon="11.2419931"><ele>428.0</ele><time>2026-03-28T14:52:49.009Z</time></trkpt><trkpt lat="43.4943017" lon="11.2418941"><ele>428.00000000000006</ele><time>2026-03-28T14:52:50.009Z</time></trkpt><trkpt lat="43.4943001" lon="11.2417913"><ele>428.0</ele><time>2026-03-28T14:52:51.009Z</time></trkpt><trkpt lat="43.4942983" lon="11.2416873"><ele>427.99999999999994</ele><time>2026-03-28T14:52:52.006Z</time></trkpt><trkpt lat="43.4942938" lon="11.2415844"><ele>428.0</ele><time>2026-03-28T14:52:53.001Z</time></trkpt><trkpt lat="43.4942887" lon="11.2414837"><ele>428.0</ele><time>2026-03-28T14:52:54.013Z</time></trkpt><trkpt lat="43.4942864" lon="11.241377"><ele>428.0</ele><time>2026-03-28T14:52:55.011Z</time></trkpt><trkpt lat="43.4942856" lon="11.2412701"><ele>427.99999999999994</ele><time>2026-03-28T14:52:56.003Z</time></trkpt><trkpt lat="43.4942769" lon="11.2411608"><ele>428.0</ele><time>2026-03-28T14:52:57.011Z</time></trkpt><trkpt lat="43.4942616" lon="11.2410508"><ele>427.99999999999994</ele><time>2026-03-28T14:52:58.018Z</time></trkpt><trkpt lat="43.4942379" lon="11.2409416"><ele>428.0</ele><time>2026-03-28T14:52:59.005Z</time></trkpt><trkpt lat="43.4942018" lon="11.2408365"><ele>428.0</ele><time>2026-03-28T14:53:00.004Z</time></trkpt><trkpt lat="43.4941559" lon="11.2407335"><ele>428.0</ele><time>2026-03-28T14:53:01.024Z</time></trkpt><trkpt lat="43.4941061" lon="11.240635"><ele>427.99999999999994</ele><time>2026-03-28T14:53:02.028Z</time></trkpt><trkpt lat="43.4940534" lon="11.2405305"><ele>428.0</ele><time>2026-03-28T14:53:03.028Z</time></trkpt><trkpt lat="43.494002" lon="11.2404282"><ele>429.0</ele><time>2026-03-28T14:53:04.015Z</time></trkpt><trkpt lat="43.4939482" lon="11.2403321"><ele>429.99999999999994</ele><time>2026-03-28T14:53:05.01Z</time></trkpt><trkpt lat="43.4938892" lon="11.2402373"><ele>430.99999999999994</ele><time>2026-03-28T14:53:06.018Z</time></trkpt><trkpt lat="43.4938236" lon="11.2401495"><ele>432.0</ele><time>2026-03-28T14:53:07.02Z</time></trkpt><trkpt lat="43.4937548" lon="11.240061"><ele>433.0</ele><time>2026-03-28T14:53:08.007Z</time></trkpt><trkpt lat="43.4936882" lon="11.2399733"><ele>431.50000000000006</ele><time>2026-03-28T14:53:09.019Z</time></trkpt><trkpt lat="43.4936251" lon="11.2398881"><ele>430.0</ele><time>2026-03-28T14:53:10.012Z</time></trkpt><trkpt lat="43.4935615" lon="11.2398086"><ele>428.5</ele><time>2026-03-28T14:53:11.014Z</time></trkpt><trkpt lat="43.4934953" lon="11.2397327"><ele>427.0</ele><time>2026-03-28T14:53:12.023Z</time></trkpt><trkpt lat="43.4934337" lon="11.239657"><ele>425.50000000000006</ele><time>2026-03-28T14:53:13.008Z</time></trkpt><trkpt lat="43.493371" lon="11.2395776"><ele>424.0</ele><time>2026-03-28T14:53:14.019Z</time></trkpt><trkpt lat="43.4933147" lon="11.2394913"><ele>424.00000000000006</ele><time>2026-03-28T14:53:15.02Z</time></trkpt><trkpt lat="43.4932655" lon="11.2393965"><ele>424.0</ele><time>2026-03-28T14:53:16.014Z</time></trkpt><trkpt lat="43.4932296" lon="11.2392974"><ele>424.0</ele><time>2026-03-28T14:53:17.028Z</time></trkpt><trkpt lat="43.4932051" lon="11.2391936"><ele>424.0</ele><time>2026-03-28T14:53:18.027Z</time></trkpt><trkpt lat="43.4931889" lon="11.2390817"><ele>424.00000000000006</ele><time>2026-03-28T14:53:19.015Z</time></trkpt><trkpt lat="43.4931775" lon="11.2389663"><ele>424.0</ele><time>2026-03-28T14:53:20.006Z</time></trkpt><trkpt lat="43.4931688" lon="11.2388509"><ele>424.50000000000006</ele><time>2026-03-28T14:53:21.02Z</time></trkpt><trkpt lat="43.4931595" lon="11.2387361"><ele>425.0</ele><time>2026-03-28T14:53:22.012Z</time></trkpt><trkpt lat="43.4931375" lon="11.2386216"><ele>425.5</ele><time>2026-03-28T14:53:23.01Z</time></trkpt><trkpt lat="43.493107" lon="11.2385086"><ele>426.0</ele><time>2026-03-28T14:53:24.025Z</time></trkpt><trkpt lat="43.4930691" lon="11.2384003"><ele>426.50000000000006</ele><time>2026-03-28T14:53:25.007Z</time></trkpt><trkpt lat="43.4930225" lon="11.2382981"><ele>427.0</ele><time>2026-03-28T14:53:26.009Z</time></trkpt><trkpt lat="43.4929672" lon="11.2382034"><ele>426.6</ele><time>2026-03-28T14:53:27.007Z</time></trkpt><trkpt lat="43.4929042" lon="11.238117"><ele>426.20000000000005</ele><time>2026-03-28T14:53:28.015Z</time></trkpt><trkpt lat="43.4928342" lon="11.2380391"><ele>425.8</ele><time>2026-03-28T14:53:29.012Z</time></trkpt><trkpt lat="43.4927595" lon="11.2379698"><ele>425.4</ele><time>2026-03-28T14:53:30.014Z</time></trkpt><trkpt lat="43.4926814" lon="11.2379085"><ele>425.0</ele><time>2026-03-28T14:53:31.011Z</time></trkpt><trkpt lat="43.4925896" lon="11.2378619"><ele>424.99999999999994</ele><time>2026-03-28T14:53:32.001Z</time></trkpt><trkpt lat="43.4925043" lon="11.237814"><ele>425.0</ele><time>2026-03-28T14:53:33.028Z</time></trkpt><trkpt lat="43.4924235" lon="11.2377844"><ele>425.0</ele><time>2026-03-28T14:53:34.021Z</time></trkpt><trkpt lat="43.4923367" lon="11.2377628"><ele>425.0</ele><time>2026-03-28T14:53:35.013Z</time></trkpt><trkpt lat="43.492251" lon="11.2377574"><ele>424.99999999999994</ele><time>2026-03-28T14:53:36.004Z</time></trkpt><trkpt lat="43.4921654" lon="11.2377584"><ele>425.0</ele><time>2026-03-28T14:53:37.004Z</time></trkpt><trkpt lat="43.4920825" lon="11.2377587"><ele>423.8333333333333</ele><time>2026-03-28T14:53:38.023Z</time></trkpt><trkpt lat="43.4919978" lon="11.2377548"><ele>422.66666666666663</ele><time>2026-03-28T14:53:39.009Z</time></trkpt><trkpt lat="43.4919135" lon="11.2377396"><ele>421.5</ele><time>2026-03-28T14:53:40.007Z</time></trkpt><trkpt lat="43.491832" lon="11.2377039"><ele>420.33333333333337</ele><time>2026-03-28T14:53:41.009Z</time></trkpt><trkpt lat="43.4917567" lon="11.2376602"><ele>419.1666666666667</ele><time>2026-03-28T14:53:42.011Z</time></trkpt><trkpt lat="43.49168" lon="11.2376107"><ele>418.0</ele><time>2026-03-28T14:53:43.009Z</time></trkpt><trkpt lat="43.4916131" lon="11.2375437"><ele>418.00000000000006</ele><time>2026-03-28T14:53:44.016Z</time></trkpt><trkpt lat="43.4915556" lon="11.2374634"><ele>418.0</ele><time>2026-03-28T14:53:45.016Z</time></trkpt><trkpt lat="43.4914974" lon="11.2373793"><ele>418.0</ele><time>2026-03-28T14:53:46.015Z</time></trkpt><trkpt lat="43.491442" lon="11.2372986"><ele>418.0</ele><time>2026-03-28T14:53:47.012Z</time></trkpt><trkpt lat="43.4913871" lon="11.2372219"><ele>418.00000000000006</ele><time>2026-03-28T14:53:48.022Z</time></trkpt><trkpt lat="43.4913289" lon="11.2371417"><ele>418.0</ele><time>2026-03-28T14:53:49.02Z</time></trkpt><trkpt lat="43.491269" lon="11.237071"><ele>419.6666666666667</ele><time>2026-03-28T14:53:50.003Z</time></trkpt><trkpt lat="43.491202" lon="11.2370118"><ele>421.33333333333337</ele><time>2026-03-28T14:53:51.001Z</time></trkpt><trkpt lat="43.4911259" lon="11.2369594"><ele>423.0</ele><time>2026-03-28T14:53:52.002Z</time></trkpt><trkpt lat="43.491051" lon="11.2369173"><ele>424.66666666666663</ele><time>2026-03-28T14:53:53.03Z</time></trkpt><trkpt lat="43.4909777" lon="11.23689"><ele>426.3333333333333</ele><time>2026-03-28T14:53:54.017Z</time></trkpt><trkpt lat="43.4909007" lon="11.2368741"><ele>428.0</ele><time>2026-03-28T14:53:55.011Z</time></trkpt><trkpt lat="43.4908245" lon="11.2368583"><ele>427.99999999999994</ele><time>2026-03-28T14:53:56.007Z</time></trkpt><trkpt lat="43.4907451" lon="11.2368413"><ele>428.0</ele><time>2026-03-28T14:53:57.017Z</time></trkpt><trkpt lat="43.4906686" lon="11.2368264"><ele>428.0</ele><time>2026-03-28T14:53:58.019Z</time></trkpt><trkpt lat="43.4905919" lon="11.2368116"><ele>428.0</ele><time>2026-03-28T14:53:58.995Z</time></trkpt><trkpt lat="43.4905144" lon="11.2367981"><ele>427.99999999999994</ele><time>2026-03-28T14:53:59.997Z</time></trkpt><trkpt lat="43.4904345" lon="11.2367879"><ele>428.0</ele><time>2026-03-28T14:54:01.007Z</time></trkpt><trkpt lat="43.4903568" lon="11.236779"><ele>426.8333333333333</ele><time>2026-03-28T14:54:02.017Z</time></trkpt><trkpt lat="43.4902821" lon="11.2367656"><ele>425.66666666666663</ele><time>2026-03-28T14:54:03.009Z</time></trkpt><trkpt lat="43.4902061" lon="11.236752"><ele>424.5</ele><time>2026-03-28T14:54:04.01Z</time></trkpt><trkpt lat="43.490132" lon="11.2367358"><ele>423.33333333333337</ele><time>2026-03-28T14:54:05.024Z</time></trkpt><trkpt lat="43.4900564" lon="11.2367216"><ele>422.1666666666667</ele><time>2026-03-28T14:54:06.032Z</time></trkpt><trkpt lat="43.4899798" lon="11.2367105"><ele>421.0</ele><time>2026-03-28T14:54:07.02Z</time></trkpt><trkpt lat="43.4899053" lon="11.2367018"><ele>421.00000000000006</ele><time>2026-03-28T14:54:08.019Z</time></trkpt><trkpt lat="43.4898386" lon="11.2366926"><ele>421.0</ele><time>2026-03-28T14:54:09.008Z</time></trkpt><trkpt lat="43.489769" lon="11.2366756"><ele>421.0</ele><time>2026-03-28T14:54:09.998Z</time></trkpt><trkpt lat="43.4897002" lon="11.2366601"><ele>421.0</ele><time>2026-03-28T14:54:11.019Z</time></trkpt><trkpt lat="43.4896305" lon="11.2366494"><ele>421.0</ele><time>2026-03-28T14:54:12.013Z</time></trkpt><trkpt lat="43.4895644" lon="11.23664"><ele>421.00000000000006</ele><time>2026-03-28T14:54:13.02Z</time></trkpt><trkpt lat="43.4895014" lon="11.2366305"><ele>421.0</ele><time>2026-03-28T14:54:14.017Z</time></trkpt><trkpt lat="43.489437" lon="11.2366233"><ele>420.42857142857144</ele><time>2026-03-28T14:54:15.006Z</time></trkpt><trkpt lat="43.4893676" lon="11.2366197"><ele>419.8571428571429</ele><time>2026-03-28T14:54:16.027Z</time></trkpt><trkpt lat="43.4892973" lon="11.2366149"><ele>419.28571428571433</ele><time>2026-03-28T14:54:17.004Z</time></trkpt><trkpt lat="43.4892265" lon="11.2366129"><ele>418.7142857142857</ele><time>2026-03-28T14:54:18.007Z</time></trkpt><trkpt lat="43.4891583" lon="11.236611"><ele>418.1428571428571</ele><time>2026-03-28T14:54:19.017Z</time></trkpt><trkpt lat="43.4890905" lon="11.2366209"><ele>417.5714285714286</ele><time>2026-03-28T14:54:20.009Z</time></trkpt><trkpt lat="43.4890179" lon="11.2366318"><ele>417.0</ele><time>2026-03-28T14:54:21.02Z</time></trkpt><trkpt lat="43.4889502" lon="11.2366372"><ele>417.0</ele><time>2026-03-28T14:54:22.003Z</time></trkpt><trkpt lat="43.4888845" lon="11.2366364"><ele>417.0</ele><time>2026-03-28T14:54:23.028Z</time></trkpt><trkpt lat="43.4888209" lon="11.2366353"><ele>417.0</ele><time>2026-03-28T14:54:24.041Z</time></trkpt><trkpt lat="43.4886994" lon="11.2366444"><ele>417.0</ele><time>2026-03-28T14:54:26.008Z</time></trkpt><trkpt lat="43.4885925" lon="11.2366387"><ele>417.0</ele><time>2026-03-28T14:54:28Z</time></trkpt><trkpt lat="43.4884988" lon="11.2366325"><ele>417.0</ele><time>2026-03-28T14:54:30.023Z</time></trkpt><trkpt lat="43.488392" lon="11.2366182"><ele>417.0</ele><time>2026-03-28T14:54:32Z</time></trkpt><trkpt lat="43.4882887" lon="11.2365944"><ele>417.0</ele><time>2026-03-28T14:54:34.011Z</time></trkpt><trkpt lat="43.4881819" lon="11.2365788"><ele>417.0</ele><time>2026-03-28T14:54:36.01Z</time></trkpt><trkpt lat="43.488079" lon="11.2365756"><ele>417.0</ele><time>2026-03-28T14:54:38.01Z</time></trkpt><trkpt lat="43.4879623" lon="11.2365742"><ele>417.5</ele><time>2026-03-28T14:54:40.017Z</time></trkpt><trkpt lat="43.4878509" lon="11.2365657"><ele>418.0</ele><time>2026-03-28T14:54:42.017Z</time></trkpt><trkpt lat="43.4877462" lon="11.2365988"><ele>418.5</ele><time>2026-03-28T14:54:44.012Z</time></trkpt><trkpt lat="43.4876334" lon="11.2366614"><ele>419.0</ele><time>2026-03-28T14:54:46.004Z</time></trkpt><trkpt lat="43.4875318" lon="11.2367347"><ele>419.0</ele><time>2026-03-28T14:54:48.015Z</time></trkpt><trkpt lat="43.4874422" lon="11.2368242"><ele>419.0</ele><time>2026-03-28T14:54:50.015Z</time></trkpt><trkpt lat="43.4873449" lon="11.2369239"><ele>419.0</ele><time>2026-03-28T14:54:52.031Z</time></trkpt><trkpt lat="43.4872305" lon="11.2370001"><ele>419.0</ele><time>2026-03-28T14:54:54.019Z</time></trkpt><trkpt lat="43.4871082" lon="11.2370193"><ele>418.57142857142856</ele><time>2026-03-28T14:54:56.015Z</time></trkpt><trkpt lat="43.4870418" lon="11.2370041"><ele>418.1428571428571</ele><time>2026-03-28T14:54:57.025Z</time></trkpt><trkpt lat="43.4869765" lon="11.2369811"><ele>417.71428571428567</ele><time>2026-03-28T14:54:58.012Z</time></trkpt><trkpt lat="43.486911" lon="11.2369506"><ele>417.2857142857143</ele><time>2026-03-28T14:54:59.032Z</time></trkpt><trkpt lat="43.4868539" lon="11.2368993"><ele>416.8571428571429</ele><time>2026-03-28T14:55:00.009Z</time></trkpt><trkpt lat="43.4867993" lon="11.2368381"><ele>416.4285714285714</ele><time>2026-03-28T14:55:01.021Z</time></trkpt><trkpt lat="43.4867331" lon="11.2367803"><ele>416.0</ele><time>2026-03-28T14:55:02.015Z</time></trkpt><trkpt lat="43.486667" lon="11.2367186"><ele>415.99999999999994</ele><time>2026-03-28T14:55:03.005Z</time></trkpt><trkpt lat="43.4866" lon="11.23666"><ele>416.0</ele><time>2026-03-28T14:55:04.024Z</time></trkpt><trkpt lat="43.4865261" lon="11.2366023"><ele>416.0</ele><time>2026-03-28T14:55:05.021Z</time></trkpt><trkpt lat="43.4864445" lon="11.2365572"><ele>416.0</ele><time>2026-03-28T14:55:06.019Z</time></trkpt><trkpt lat="43.4863634" lon="11.2365316"><ele>415.99999999999994</ele><time>2026-03-28T14:55:07.003Z</time></trkpt><trkpt lat="43.4862802" lon="11.2365188"><ele>416.0</ele><time>2026-03-28T14:55:08.003Z</time></trkpt><trkpt lat="43.4861974" lon="11.2365148"><ele>415.1428571428571</ele><time>2026-03-28T14:55:09.015Z</time></trkpt><trkpt lat="43.4861176" lon="11.2365104"><ele>414.28571428571433</ele><time>2026-03-28T14:55:10.024Z</time></trkpt><trkpt lat="43.4860421" lon="11.2365074"><ele>413.42857142857144</ele><time>2026-03-28T14:55:11.016Z</time></trkpt><trkpt lat="43.4859656" lon="11.2365014"><ele>412.57142857142856</ele><time>2026-03-28T14:55:12.016Z</time></trkpt><trkpt lat="43.4858905" lon="11.2364978"><ele>411.71428571428567</ele><time>2026-03-28T14:55:13.009Z</time></trkpt><trkpt lat="43.4858211" lon="11.2365008"><ele>410.8571428571429</ele><time>2026-03-28T14:55:14.005Z</time></trkpt><trkpt lat="43.4857542" lon="11.2365045"><ele>410.0</ele><time>2026-03-28T14:55:15.015Z</time></trkpt><trkpt lat="43.4856884" lon="11.2365079"><ele>410.0</ele><time>2026-03-28T14:55:16.021Z</time></trkpt><trkpt lat="43.4856225" lon="11.23651"><ele>410.0</ele><time>2026-03-28T14:55:17.006Z</time></trkpt><trkpt lat="43.4855572" lon="11.2365084"><ele>410.0</ele><time>2026-03-28T14:55:18.024Z</time></trkpt><trkpt lat="43.4854349" lon="11.2365012"><ele>410.0</ele><time>2026-03-28T14:55:20.014Z</time></trkpt><trkpt lat="43.4853212" lon="11.2364938"><ele>410.0</ele><time>2026-03-28T14:55:22.025Z</time></trkpt><trkpt lat="43.4852129" lon="11.236496"><ele>409.0</ele><time>2026-03-28T14:55:24.02Z</time></trkpt><trkpt lat="43.4851018" lon="11.2364801"><ele>408.0</ele><time>2026-03-28T14:55:26.011Z</time></trkpt><trkpt lat="43.4849917" lon="11.2364456"><ele>407.0</ele><time>2026-03-28T14:55:28.011Z</time></trkpt><trkpt lat="43.4848944" lon="11.2363696"><ele>406.0</ele><time>2026-03-28T14:55:30.006Z</time></trkpt><trkpt lat="43.4848124" lon="11.2362706"><ele>405.0</ele><time>2026-03-28T14:55:32.016Z</time></trkpt><trkpt lat="43.4847302" lon="11.2361424"><ele>404.0</ele><time>2026-03-28T14:55:34.009Z</time></trkpt><trkpt lat="43.4846568" lon="11.236013"><ele>403.0</ele><time>2026-03-28T14:55:36Z</time></trkpt><trkpt lat="43.4845891" lon="11.2358819"><ele>402.0</ele><time>2026-03-28T14:55:38.007Z</time></trkpt><trkpt lat="43.4845342" lon="11.2357544"><ele>401.0</ele><time>2026-03-28T14:55:40.021Z</time></trkpt><trkpt lat="43.4845178" lon="11.2356174"><ele>400.0</ele><time>2026-03-28T14:55:42.027Z</time></trkpt><trkpt lat="43.4845504" lon="11.2354764"><ele>405.0</ele><time>2026-03-28T14:55:44.02Z</time></trkpt><trkpt lat="43.4846276" lon="11.2353544"><ele>410.0</ele><time>2026-03-28T14:55:46.002Z</time></trkpt><trkpt lat="43.4847166" lon="11.2352473"><ele>415.0</ele><time>2026-03-28T14:55:48.016Z</time></trkpt><trkpt lat="43.4847982" lon="11.2351379"><ele>420.0</ele><time>2026-03-28T14:55:50.023Z</time></trkpt><trkpt lat="43.4848787" lon="11.2350269"><ele>420.0</ele><time>2026-03-28T14:55:52.016Z</time></trkpt><trkpt lat="43.4849281" lon="11.2348973"><ele>420.0</ele><time>2026-03-28T14:55:54.015Z</time></trkpt><trkpt lat="43.4849317" lon="11.2347352"><ele>420.0</ele><time>2026-03-28T14:55:56.001Z</time></trkpt><trkpt lat="43.4849252" lon="11.2346458"><ele>420.0</ele><time>2026-03-28T14:55:57.023Z</time></trkpt><trkpt lat="43.4848938" lon="11.2345636"><ele>420.0</ele><time>2026-03-28T14:55:58.018Z</time></trkpt><trkpt lat="43.4848198" lon="11.2344958"><ele>420.0</ele><time>2026-03-28T14:55:59.008Z</time></trkpt><trkpt lat="43.4847297" lon="11.2344383"><ele>420.8</ele><time>2026-03-28T14:56:00.006Z</time></trkpt><trkpt lat="43.4846366" lon="11.2343941"><ele>421.6</ele><time>2026-03-28T14:56:01.017Z</time></trkpt><trkpt lat="43.4845443" lon="11.2343527"><ele>422.4</ele><time>2026-03-28T14:56:02.023Z</time></trkpt><trkpt lat="43.4844522" lon="11.2343126"><ele>423.2</ele><time>2026-03-28T14:56:03.007Z</time></trkpt><trkpt lat="43.4843571" lon="11.2342671"><ele>424.0</ele><time>2026-03-28T14:56:04.02Z</time></trkpt><trkpt lat="43.4842626" lon="11.2342206"><ele>423.4</ele><time>2026-03-28T14:56:05.02Z</time></trkpt><trkpt lat="43.4841701" lon="11.2341717"><ele>422.79999999999995</ele><time>2026-03-28T14:56:06.025Z</time></trkpt><trkpt lat="43.4840781" lon="11.2341225"><ele>422.20000000000005</ele><time>2026-03-28T14:56:07.008Z</time></trkpt><trkpt lat="43.4839872" lon="11.234071"><ele>421.6</ele><time>2026-03-28T14:56:08.027Z</time></trkpt><trkpt lat="43.4838967" lon="11.2340118"><ele>421.0</ele><time>2026-03-28T14:56:09.008Z</time></trkpt><trkpt lat="43.4838052" lon="11.2339475"><ele>418.0</ele><time>2026-03-28T14:56:10.017Z</time></trkpt><trkpt lat="43.4837147" lon="11.2338869"><ele>415.0</ele><time>2026-03-28T14:56:11.03Z</time></trkpt><trkpt lat="43.4836244" lon="11.2338296"><ele>412.0</ele><time>2026-03-28T14:56:12.016Z</time></trkpt><trkpt lat="43.483538" lon="11.233774"><ele>409.0</ele><time>2026-03-28T14:56:13.014Z</time></trkpt><trkpt lat="43.4834523" lon="11.2337149"><ele>406.0</ele><time>2026-03-28T14:56:14.009Z</time></trkpt><trkpt lat="43.4833693" lon="11.2336461"><ele>406.0</ele><time>2026-03-28T14:56:15.036Z</time></trkpt><trkpt lat="43.4832901" lon="11.2335758"><ele>406.0</ele><time>2026-03-28T14:56:16.025Z</time></trkpt><trkpt lat="43.4832103" lon="11.2334977"><ele>406.0</ele><time>2026-03-28T14:56:17.007Z</time></trkpt><trkpt lat="43.483135" lon="11.2334112"><ele>406.0</ele><time>2026-03-28T14:56:18.022Z</time></trkpt><trkpt lat="43.4830649" lon="11.2333106"><ele>406.0</ele><time>2026-03-28T14:56:19.018Z</time></trkpt><trkpt lat="43.4830131" lon="11.2331952"><ele>406.6</ele><time>2026-03-28T14:56:20.015Z</time></trkpt><trkpt lat="43.4829686" lon="11.2330648"><ele>407.20000000000005</ele><time>2026-03-28T14:56:21.01Z</time></trkpt><trkpt lat="43.4829296" lon="11.2329342"><ele>407.79999999999995</ele><time>2026-03-28T14:56:22.014Z</time></trkpt><trkpt lat="43.4828872" lon="11.2328073"><ele>408.4</ele><time>2026-03-28T14:56:23.033Z</time></trkpt><trkpt lat="43.4828348" lon="11.2326866"><ele>409.0</ele><time>2026-03-28T14:56:24.005Z</time></trkpt><trkpt lat="43.4827587" lon="11.2325801"><ele>407.0</ele><time>2026-03-28T14:56:25.006Z</time></trkpt><trkpt lat="43.4826687" lon="11.2324996"><ele>405.0</ele><time>2026-03-28T14:56:26.008Z</time></trkpt><trkpt lat="43.4825673" lon="11.2324369"><ele>403.0</ele><time>2026-03-28T14:56:27.029Z</time></trkpt><trkpt lat="43.4824702" lon="11.2323839"><ele>401.0</ele><time>2026-03-28T14:56:28.018Z</time></trkpt><trkpt lat="43.4823818" lon="11.2323342"><ele>399.0</ele><time>2026-03-28T14:56:29.014Z</time></trkpt><trkpt lat="43.4823048" lon="11.2322625"><ele>399.0</ele><time>2026-03-28T14:56:30.011Z</time></trkpt><trkpt lat="43.4822387" lon="11.2321601"><ele>399.0</ele><time>2026-03-28T14:56:31.024Z</time></trkpt><trkpt lat="43.4821872" lon="11.2320399"><ele>399.0</ele><time>2026-03-28T14:56:32.015Z</time></trkpt><trkpt lat="43.4821534" lon="11.2319078"><ele>399.0</ele><time>2026-03-28T14:56:33.007Z</time></trkpt><trkpt lat="43.4821336" lon="11.2317699"><ele>399.0</ele><time>2026-03-28T14:56:34.029Z</time></trkpt><trkpt lat="43.4821199" lon="11.2316341"><ele>399.0</ele><time>2026-03-28T14:56:35.017Z</time></trkpt><trkpt lat="43.4821045" lon="11.2314985"><ele>399.0</ele><time>2026-03-28T14:56:36.008Z</time></trkpt><trkpt lat="43.4820803" lon="11.2313683"><ele>399.0</ele><time>2026-03-28T14:56:37Z</time></trkpt><trkpt lat="43.4820463" lon="11.2312388"><ele>399.0</ele><time>2026-03-28T14:56:38.014Z</time></trkpt><trkpt lat="43.4820009" lon="11.2311139"><ele>399.0</ele><time>2026-03-28T14:56:39.017Z</time></trkpt><trkpt lat="43.48195" lon="11.2309987"><ele>395.79999999999995</ele><time>2026-03-28T14:56:40.008Z</time></trkpt><trkpt lat="43.4818965" lon="11.2308846"><ele>392.59999999999997</ele><time>2026-03-28T14:56:41.019Z</time></trkpt><trkpt lat="43.4818423" lon="11.2307672"><ele>389.4</ele><time>2026-03-28T14:56:42.016Z</time></trkpt><trkpt lat="43.4817904" lon="11.2306505"><ele>386.2</ele><time>2026-03-28T14:56:43.009Z</time></trkpt><trkpt lat="43.481738" lon="11.2305336"><ele>383.0</ele><time>2026-03-28T14:56:44.004Z</time></trkpt><trkpt lat="43.4816906" lon="11.2304137"><ele>383.0</ele><time>2026-03-28T14:56:45.017Z</time></trkpt><trkpt lat="43.4816682" lon="11.2302817"><ele>383.0</ele><time>2026-03-28T14:56:46.021Z</time></trkpt><trkpt lat="43.4816678" lon="11.230143"><ele>383.0</ele><time>2026-03-28T14:56:47.007Z</time></trkpt><trkpt lat="43.4816946" lon="11.2300122"><ele>383.0</ele><time>2026-03-28T14:56:48.03Z</time></trkpt><trkpt lat="43.4817381" lon="11.2298916"><ele>383.0</ele><time>2026-03-28T14:56:49.008Z</time></trkpt><trkpt lat="43.481785" lon="11.2297743"><ele>383.79999999999995</ele><time>2026-03-28T14:56:50.017Z</time></trkpt><trkpt lat="43.4818265" lon="11.2296593"><ele>384.6</ele><time>2026-03-28T14:56:51.029Z</time></trkpt><trkpt lat="43.4818408" lon="11.229536"><ele>385.4</ele><time>2026-03-28T14:56:52.02Z</time></trkpt><trkpt lat="43.4818262" lon="11.2294114"><ele>386.20000000000005</ele><time>2026-03-28T14:56:53.015Z</time></trkpt><trkpt lat="43.4817847" lon="11.229294"><ele>387.0</ele><time>2026-03-28T14:56:54.055Z</time></trkpt><trkpt lat="43.4817215" lon="11.2292025"><ele>387.0</ele><time>2026-03-28T14:56:55.027Z</time></trkpt><trkpt lat="43.4816457" lon="11.2291304"><ele>387.0</ele><time>2026-03-28T14:56:56.018Z</time></trkpt><trkpt lat="43.4815595" lon="11.2290796"><ele>387.0</ele><time>2026-03-28T14:56:57.043Z</time></trkpt><trkpt lat="43.4814709" lon="11.2290669"><ele>387.0</ele><time>2026-03-28T14:56:58.022Z</time></trkpt><trkpt lat="43.4813803" lon="11.2290635"><ele>387.0</ele><time>2026-03-28T14:56:59.019Z</time></trkpt><trkpt lat="43.4812896" lon="11.2290648"><ele>385.8333333333333</ele><time>2026-03-28T14:57:00.041Z</time></trkpt><trkpt lat="43.4811986" lon="11.2290651"><ele>384.6666666666667</ele><time>2026-03-28T14:57:01.028Z</time></trkpt><trkpt lat="43.4811107" lon="11.2290635"><ele>383.5</ele><time>2026-03-28T14:57:02.007Z</time></trkpt><trkpt lat="43.4810234" lon="11.2290613"><ele>382.33333333333337</ele><time>2026-03-28T14:57:03.008Z</time></trkpt><trkpt lat="43.4809407" lon="11.2290567"><ele>381.1666666666667</ele><time>2026-03-28T14:57:04.023Z</time></trkpt><trkpt lat="43.4808597" lon="11.2290524"><ele>380.0</ele><time>2026-03-28T14:57:05.026Z</time></trkpt><trkpt lat="43.4807828" lon="11.2290481"><ele>380.0</ele><time>2026-03-28T14:57:06.025Z</time></trkpt><trkpt lat="43.4807081" lon="11.2290388"><ele>380.0</ele><time>2026-03-28T14:57:07.007Z</time></trkpt><trkpt lat="43.4806296" lon="11.2290197"><ele>380.0</ele><time>2026-03-28T14:57:07.998Z</time></trkpt><trkpt lat="43.4805442" lon="11.2289907"><ele>380.0</ele><time>2026-03-28T14:57:09.027Z</time></trkpt><trkpt lat="43.4804667" lon="11.2289445"><ele>380.0</ele><time>2026-03-28T14:57:10.029Z</time></trkpt><trkpt lat="43.4803981" lon="11.2288759"><ele>380.0</ele><time>2026-03-28T14:57:11.019Z</time></trkpt><trkpt lat="43.4803381" lon="11.2287935"><ele>379.33333333333337</ele><time>2026-03-28T14:57:11.998Z</time></trkpt><trkpt lat="43.480289" lon="11.2286985"><ele>378.6666666666667</ele><time>2026-03-28T14:57:13.016Z</time></trkpt><trkpt lat="43.4802506" lon="11.2286014"><ele>378.0</ele><time>2026-03-28T14:57:14.009Z</time></trkpt><trkpt lat="43.48022" lon="11.2285003"><ele>377.3333333333333</ele><time>2026-03-28T14:57:15.022Z</time></trkpt><trkpt lat="43.4801982" lon="11.2284022"><ele>376.66666666666663</ele><time>2026-03-28T14:57:16.009Z</time></trkpt><trkpt lat="43.480181" lon="11.2282998"><ele>376.0</ele><time>2026-03-28T14:57:17.013Z</time></trkpt><trkpt lat="43.4801664" lon="11.2281982"><ele>375.7142857142857</ele><time>2026-03-28T14:57:18.012Z</time></trkpt><trkpt lat="43.4801494" lon="11.2280976"><ele>375.42857142857144</ele><time>2026-03-28T14:57:19.003Z</time></trkpt><trkpt lat="43.4801332" lon="11.2279964"><ele>375.1428571428571</ele><time>2026-03-28T14:57:20.015Z</time></trkpt><trkpt lat="43.4801225" lon="11.2278983"><ele>374.8571428571429</ele><time>2026-03-28T14:57:21.015Z</time></trkpt><trkpt lat="43.4801197" lon="11.2277993"><ele>374.5714285714286</ele><time>2026-03-28T14:57:22.01Z</time></trkpt><trkpt lat="43.4801294" lon="11.227697"><ele>374.2857142857143</ele><time>2026-03-28T14:57:23.02Z</time></trkpt><trkpt lat="43.4801479" lon="11.2275945"><ele>374.0</ele><time>2026-03-28T14:57:24Z</time></trkpt><trkpt lat="43.4801735" lon="11.2274955"><ele>374.0</ele><time>2026-03-28T14:57:25.03Z</time></trkpt><trkpt lat="43.480205" lon="11.2274024"><ele>374.0</ele><time>2026-03-28T14:57:26.012Z</time></trkpt><trkpt lat="43.48024" lon="11.2273098"><ele>374.0</ele><time>2026-03-28T14:57:27.013Z</time></trkpt><trkpt lat="43.4802763" lon="11.2272108"><ele>374.0</ele><time>2026-03-28T14:57:28.022Z</time></trkpt><trkpt lat="43.4803093" lon="11.2271134"><ele>374.0</ele><time>2026-03-28T14:57:29.015Z</time></trkpt><trkpt lat="43.4803391" lon="11.2270168"><ele>374.0</ele><time>2026-03-28T14:57:30.021Z</time></trkpt><trkpt lat="43.4803644" lon="11.226918"><ele>374.0</ele><time>2026-03-28T14:57:31.021Z</time></trkpt><trkpt lat="43.4803751" lon="11.2268083"><ele>374.0</ele><time>2026-03-28T14:57:32.015Z</time></trkpt><trkpt lat="43.4803713" lon="11.2266958"><ele>374.0</ele><time>2026-03-28T14:57:33.018Z</time></trkpt><trkpt lat="43.4803525" lon="11.2265858"><ele>374.0</ele><time>2026-03-28T14:57:34.014Z</time></trkpt><trkpt lat="43.4803117" lon="11.2264781"><ele>374.0</ele><time>2026-03-28T14:57:35.02Z</time></trkpt><trkpt lat="43.480256" lon="11.2263794"><ele>374.0</ele><time>2026-03-28T14:57:35.998Z</time></trkpt><trkpt lat="43.4801828" lon="11.2262978"><ele>374.0</ele><time>2026-03-28T14:57:37.001Z</time></trkpt><trkpt lat="43.4800994" lon="11.2262347"><ele>374.0</ele><time>2026-03-28T14:57:38.03Z</time></trkpt><trkpt lat="43.4800139" lon="11.2261872"><ele>374.0</ele><time>2026-03-28T14:57:39.02Z</time></trkpt><trkpt lat="43.4799263" lon="11.226138"><ele>374.0</ele><time>2026-03-28T14:57:40.006Z</time></trkpt><trkpt lat="43.4798436" lon="11.226087"><ele>374.0</ele><time>2026-03-28T14:57:41.013Z</time></trkpt><trkpt lat="43.4797637" lon="11.2260341"><ele>374.0</ele><time>2026-03-28T14:57:42.022Z</time></trkpt><trkpt lat="43.4796847" lon="11.2259815"><ele>374.0</ele><time>2026-03-28T14:57:43.02Z</time></trkpt><trkpt lat="43.4796056" lon="11.2259265"><ele>374.0</ele><time>2026-03-28T14:57:44.025Z</time></trkpt><trkpt lat="43.4795269" lon="11.2258705"><ele>374.0</ele><time>2026-03-28T14:57:45.01Z</time></trkpt><trkpt lat="43.4794434" lon="11.2258156"><ele>374.0</ele><time>2026-03-28T14:57:46.019Z</time></trkpt><trkpt lat="43.4793598" lon="11.2257641"><ele>374.0</ele><time>2026-03-28T14:57:47.005Z</time></trkpt><trkpt lat="43.479271" lon="11.2257276"><ele>373.6</ele><time>2026-03-28T14:57:48.016Z</time></trkpt><trkpt lat="43.4791808" lon="11.2257121"><ele>373.2</ele><time>2026-03-28T14:57:49.006Z</time></trkpt><trkpt lat="43.4790914" lon="11.2257135"><ele>372.8</ele><time>2026-03-28T14:57:50.014Z</time></trkpt><trkpt lat="43.4790016" lon="11.2257368"><ele>372.40000000000003</ele><time>2026-03-28T14:57:51.03Z</time></trkpt><trkpt lat="43.4789123" lon="11.2257709"><ele>372.0</ele><time>2026-03-28T14:57:52.026Z</time></trkpt><trkpt lat="43.4788282" lon="11.22582"><ele>372.0</ele><time>2026-03-28T14:57:53.005Z</time></trkpt><trkpt lat="43.478751" lon="11.2258839"><ele>372.0</ele><time>2026-03-28T14:57:54.01Z</time></trkpt><trkpt lat="43.4786718" lon="11.2259581"><ele>372.0</ele><time>2026-03-28T14:57:55.016Z</time></trkpt><trkpt lat="43.4785964" lon="11.2260318"><ele>372.0</ele><time>2026-03-28T14:57:56.016Z</time></trkpt><trkpt lat="43.4785207" lon="11.2261079"><ele>372.0</ele><time>2026-03-28T14:57:57.022Z</time></trkpt><trkpt lat="43.4784441" lon="11.2261842"><ele>372.0</ele><time>2026-03-28T14:57:58.004Z</time></trkpt><trkpt lat="43.4783677" lon="11.2262629"><ele>372.0</ele><time>2026-03-28T14:57:59.012Z</time></trkpt><trkpt lat="43.4782922" lon="11.2263407"><ele>372.0</ele><time>2026-03-28T14:58:00.01Z</time></trkpt><trkpt lat="43.4782147" lon="11.2264158"><ele>372.0</ele><time>2026-03-28T14:58:01.013Z</time></trkpt><trkpt lat="43.4781331" lon="11.2264834"><ele>372.0</ele><time>2026-03-28T14:58:02.008Z</time></trkpt><trkpt lat="43.4780508" lon="11.2265411"><ele>370.6666666666667</ele><time>2026-03-28T14:58:03.007Z</time></trkpt><trkpt lat="43.4779653" lon="11.2265598"><ele>369.3333333333333</ele><time>2026-03-28T14:58:04.03Z</time></trkpt><trkpt lat="43.4778793" lon="11.2265448"><ele>368.0</ele><time>2026-03-28T14:58:05.021Z</time></trkpt><trkpt lat="43.4777982" lon="11.2265212"><ele>366.66666666666663</ele><time>2026-03-28T14:58:06.02Z</time></trkpt><trkpt lat="43.4777228" lon="11.2264725"><ele>365.3333333333333</ele><time>2026-03-28T14:58:07.015Z</time></trkpt><trkpt lat="43.4776525" lon="11.2263871"><ele>364.0</ele><time>2026-03-28T14:58:08.007Z</time></trkpt><trkpt lat="43.4775934" lon="11.22628"><ele>363.6</ele><time>2026-03-28T14:58:09.008Z</time></trkpt><trkpt lat="43.4775502" lon="11.226158"><ele>363.2</ele><time>2026-03-28T14:58:10.014Z</time></trkpt><trkpt lat="43.4775171" lon="11.2260328"><ele>362.8</ele><time>2026-03-28T14:58:11.018Z</time></trkpt><trkpt lat="43.4775011" lon="11.225898"><ele>362.40000000000003</ele><time>2026-03-28T14:58:12.012Z</time></trkpt><trkpt lat="43.4774938" lon="11.2257607"><ele>362.0</ele><time>2026-03-28T14:58:13.023Z</time></trkpt><trkpt lat="43.4774873" lon="11.2256277"><ele>362.0</ele><time>2026-03-28T14:58:14.024Z</time></trkpt><trkpt lat="43.4774814" lon="11.2254955"><ele>362.0</ele><time>2026-03-28T14:58:15.024Z</time></trkpt><trkpt lat="43.4774747" lon="11.2253635"><ele>362.0</ele><time>2026-03-28T14:58:16.021Z</time></trkpt><trkpt lat="43.4774685" lon="11.2252346"><ele>362.0</ele><time>2026-03-28T14:58:17.012Z</time></trkpt><trkpt lat="43.4774626" lon="11.2251029"><ele>362.0</ele><time>2026-03-28T14:58:18.013Z</time></trkpt><trkpt lat="43.4774548" lon="11.2249715"><ele>362.0</ele><time>2026-03-28T14:58:19.021Z</time></trkpt><trkpt lat="43.4774497" lon="11.2248441"><ele>362.0</ele><time>2026-03-28T14:58:20.005Z</time></trkpt><trkpt lat="43.4774451" lon="11.2247205"><ele>362.0</ele><time>2026-03-28T14:58:21.01Z</time></trkpt><trkpt lat="43.4774416" lon="11.2245965"><ele>362.0</ele><time>2026-03-28T14:58:22.01Z</time></trkpt><trkpt lat="43.4774365" lon="11.2244725"><ele>362.0</ele><time>2026-03-28T14:58:23.02Z</time></trkpt><trkpt lat="43.4774345" lon="11.2243547"><ele>362.0</ele><time>2026-03-28T14:58:24.005Z</time></trkpt><trkpt lat="43.4774313" lon="11.2242349"><ele>362.0</ele><time>2026-03-28T14:58:25.012Z</time></trkpt><trkpt lat="43.4774197" lon="11.2241186"><ele>362.0</ele><time>2026-03-28T14:58:26.014Z</time></trkpt><trkpt lat="43.4773885" lon="11.2240098"><ele>362.0</ele><time>2026-03-28T14:58:27.003Z</time></trkpt><trkpt lat="43.4773373" lon="11.2239086"><ele>362.0</ele><time>2026-03-28T14:58:28.001Z</time></trkpt><trkpt lat="43.4772707" lon="11.2238162"><ele>362.0</ele><time>2026-03-28T14:58:29.013Z</time></trkpt><trkpt lat="43.4771883" lon="11.223743"><ele>361.20000000000005</ele><time>2026-03-28T14:58:30.02Z</time></trkpt><trkpt lat="43.4771057" lon="11.2237017"><ele>360.4</ele><time>2026-03-28T14:58:31.015Z</time></trkpt><trkpt lat="43.4770154" lon="11.2236836"><ele>359.6</ele><time>2026-03-28T14:58:32.011Z</time></trkpt><trkpt lat="43.4769203" lon="11.2236656"><ele>358.79999999999995</ele><time>2026-03-28T14:58:33.022Z</time></trkpt><trkpt lat="43.4768295" lon="11.2236469"><ele>358.0</ele><time>2026-03-28T14:58:34.017Z</time></trkpt><trkpt lat="43.4767396" lon="11.2236226"><ele>358.0</ele><time>2026-03-28T14:58:35.016Z</time></trkpt><trkpt lat="43.476656" lon="11.223589"><ele>358.0</ele><time>2026-03-28T14:58:36.003Z</time></trkpt><trkpt lat="43.4765752" lon="11.223549"><ele>358.0</ele><time>2026-03-28T14:58:37.024Z</time></trkpt><trkpt lat="43.4764952" lon="11.2235086"><ele>358.0</ele><time>2026-03-28T14:58:38.013Z</time></trkpt><trkpt lat="43.4764104" lon="11.2234706"><ele>358.0</ele><time>2026-03-28T14:58:39.019Z</time></trkpt><trkpt lat="43.4763267" lon="11.223435"><ele>358.0</ele><time>2026-03-28T14:58:40.016Z</time></trkpt><trkpt lat="43.4762487" lon="11.2233976"><ele>357.0</ele><time>2026-03-28T14:58:41.014Z</time></trkpt><trkpt lat="43.4761698" lon="11.223358"><ele>356.0</ele><time>2026-03-28T14:58:42.027Z</time></trkpt><trkpt lat="43.4760952" lon="11.2233132"><ele>355.0</ele><time>2026-03-28T14:58:43.014Z</time></trkpt><trkpt lat="43.4760212" lon="11.2232651"><ele>354.0</ele><time>2026-03-28T14:58:44.014Z</time></trkpt><trkpt lat="43.4759562" lon="11.2231991"><ele>353.0</ele><time>2026-03-28T14:58:45.012Z</time></trkpt><trkpt lat="43.4758946" lon="11.2231223"><ele>352.0</ele><time>2026-03-28T14:58:46.018Z</time></trkpt><trkpt lat="43.4758407" lon="11.2230376"><ele>352.0</ele><time>2026-03-28T14:58:47.034Z</time></trkpt><trkpt lat="43.4757981" lon="11.2229436"><ele>352.0</ele><time>2026-03-28T14:58:48.018Z</time></trkpt><trkpt lat="43.4757668" lon="11.222839"><ele>352.0</ele><time>2026-03-28T14:58:49.002Z</time></trkpt><trkpt lat="43.4757516" lon="11.2227195"><ele>352.0</ele><time>2026-03-28T14:58:50.019Z</time></trkpt><trkpt lat="43.4757544" lon="11.2225954"><ele>352.0</ele><time>2026-03-28T14:58:51.035Z</time></trkpt><trkpt lat="43.4757664" lon="11.2224788"><ele>352.0</ele><time>2026-03-28T14:58:52.02Z</time></trkpt><trkpt lat="43.4757875" lon="11.2223695"><ele>352.8333333333333</ele><time>2026-03-28T14:58:53.007Z</time></trkpt><trkpt lat="43.475807" lon="11.2222584"><ele>353.66666666666663</ele><time>2026-03-28T14:58:54.018Z</time></trkpt><trkpt lat="43.4758096" lon="11.2221563"><ele>354.5</ele><time>2026-03-28T14:58:55.024Z</time></trkpt><trkpt lat="43.4757846" lon="11.2220599"><ele>355.3333333333333</ele><time>2026-03-28T14:58:56.013Z</time></trkpt><trkpt lat="43.4757329" lon="11.2219756"><ele>356.1666666666667</ele><time>2026-03-28T14:58:57.012Z</time></trkpt><trkpt lat="43.4756592" lon="11.2219116"><ele>357.0</ele><time>2026-03-28T14:58:58.005Z</time></trkpt><trkpt lat="43.4755756" lon="11.2218578"><ele>357.0</ele><time>2026-03-28T14:58:59.025Z</time></trkpt><trkpt lat="43.4754836" lon="11.2218193"><ele>357.0</ele><time>2026-03-28T14:59:00.021Z</time></trkpt><trkpt lat="43.4753957" lon="11.221792"><ele>357.0</ele><time>2026-03-28T14:59:01.039Z</time></trkpt><trkpt lat="43.4753082" lon="11.2217762"><ele>357.0</ele><time>2026-03-28T14:59:02.019Z</time></trkpt><trkpt lat="43.4752214" lon="11.2217668"><ele>357.0</ele><time>2026-03-28T14:59:03.017Z</time></trkpt><trkpt lat="43.4751384" lon="11.2217485"><ele>357.0</ele><time>2026-03-28T14:59:04.023Z</time></trkpt><trkpt lat="43.4750609" lon="11.2217109"><ele>355.0</ele><time>2026-03-28T14:59:05.014Z</time></trkpt><trkpt lat="43.4749864" lon="11.2216534"><ele>353.0</ele><time>2026-03-28T14:59:06.015Z</time></trkpt><trkpt lat="43.4749248" lon="11.2215761"><ele>351.0</ele><time>2026-03-28T14:59:07.019Z</time></trkpt><trkpt lat="43.4748794" lon="11.2214718"><ele>349.0</ele><time>2026-03-28T14:59:08.009Z</time></trkpt><trkpt lat="43.4748532" lon="11.2213528"><ele>347.0</ele><time>2026-03-28T14:59:09.018Z</time></trkpt><trkpt lat="43.474847" lon="11.221227"><ele>345.0</ele><time>2026-03-28T14:59:10.024Z</time></trkpt><trkpt lat="43.4748549" lon="11.2211031"><ele>345.0</ele><time>2026-03-28T14:59:11.02Z</time></trkpt><trkpt lat="43.4748733" lon="11.2209865"><ele>345.0</ele><time>2026-03-28T14:59:12.014Z</time></trkpt><trkpt lat="43.4748997" lon="11.2208721"><ele>345.0</ele><time>2026-03-28T14:59:13.013Z</time></trkpt><trkpt lat="43.474926" lon="11.2207572"><ele>345.0</ele><time>2026-03-28T14:59:14.029Z</time></trkpt><trkpt lat="43.4749435" lon="11.2206442"><ele>345.0</ele><time>2026-03-28T14:59:15.014Z</time></trkpt><trkpt lat="43.474955" lon="11.2205295"><ele>345.0</ele><time>2026-03-28T14:59:16.016Z</time></trkpt><trkpt lat="43.4749547" lon="11.2204144"><ele>345.5</ele><time>2026-03-28T14:59:17.015Z</time></trkpt><trkpt lat="43.4749396" lon="11.2203073"><ele>346.0</ele><time>2026-03-28T14:59:18.009Z</time></trkpt><trkpt lat="43.4749071" lon="11.2202049"><ele>346.5</ele><time>2026-03-28T14:59:19Z</time></trkpt><trkpt lat="43.4748612" lon="11.2201036"><ele>347.0</ele><time>2026-03-28T14:59:20.023Z</time></trkpt><trkpt lat="43.474796" lon="11.2200162"><ele>347.5</ele><time>2026-03-28T14:59:21.016Z</time></trkpt><trkpt lat="43.4747148" lon="11.2199478"><ele>348.0</ele><time>2026-03-28T14:59:22.006Z</time></trkpt><trkpt lat="43.4746265" lon="11.2199015"><ele>346.79999999999995</ele><time>2026-03-28T14:59:23.021Z</time></trkpt><trkpt lat="43.4745318" lon="11.2198691"><ele>345.6</ele><time>2026-03-28T14:59:24Z</time></trkpt><trkpt lat="43.4744325" lon="11.2198419"><ele>344.4</ele><time>2026-03-28T14:59:25.015Z</time></trkpt><trkpt lat="43.4743303" lon="11.2198117"><ele>343.20000000000005</ele><time>2026-03-28T14:59:26.018Z</time></trkpt><trkpt lat="43.474228" lon="11.2197768"><ele>342.0</ele><time>2026-03-28T14:59:27.018Z</time></trkpt><trkpt lat="43.4741297" lon="11.2197377"><ele>342.0</ele><time>2026-03-28T14:59:28.01Z</time></trkpt><trkpt lat="43.474037" lon="11.219699"><ele>342.0</ele><time>2026-03-28T14:59:29.005Z</time></trkpt><trkpt lat="43.4739448" lon="11.2196603"><ele>342.0</ele><time>2026-03-28T14:59:30.012Z</time></trkpt><trkpt lat="43.473852" lon="11.219617"><ele>342.0</ele><time>2026-03-28T14:59:31.006Z</time></trkpt><trkpt lat="43.4737589" lon="11.2195657"><ele>342.0</ele><time>2026-03-28T14:59:32.018Z</time></trkpt><trkpt lat="43.4736803" lon="11.2194938"><ele>339.20000000000005</ele><time>2026-03-28T14:59:33.031Z</time></trkpt><trkpt lat="43.4736172" lon="11.2193934"><ele>336.4</ele><time>2026-03-28T14:59:34.01Z</time></trkpt><trkpt lat="43.4735761" lon="11.219261"><ele>333.6</ele><time>2026-03-28T14:59:35.023Z</time></trkpt><trkpt lat="43.4735664" lon="11.2191146"><ele>330.79999999999995</ele><time>2026-03-28T14:59:36.016Z</time></trkpt><trkpt lat="43.4735846" lon="11.2189711"><ele>328.0</ele><time>2026-03-28T14:59:37.02Z</time></trkpt><trkpt lat="43.473629" lon="11.2188385"><ele>327.79999999999995</ele><time>2026-03-28T14:59:38.017Z</time></trkpt><trkpt lat="43.4736951" lon="11.2187184"><ele>327.6</ele><time>2026-03-28T14:59:39.01Z</time></trkpt><trkpt lat="43.4737683" lon="11.2186082"><ele>327.4</ele><time>2026-03-28T14:59:39.999Z</time></trkpt><trkpt lat="43.4738399" lon="11.218505"><ele>327.20000000000005</ele><time>2026-03-28T14:59:41.034Z</time></trkpt><trkpt lat="43.4738964" lon="11.2184046"><ele>327.0</ele><time>2026-03-28T14:59:42.008Z</time></trkpt><trkpt lat="43.4739301" lon="11.2182985"><ele>328.0</ele><time>2026-03-28T14:59:43.02Z</time></trkpt><trkpt lat="43.4739276" lon="11.2181854"><ele>329.0</ele><time>2026-03-28T14:59:44.009Z</time></trkpt><trkpt lat="43.4738856" lon="11.218074"><ele>330.0</ele><time>2026-03-28T14:59:45.004Z</time></trkpt><trkpt lat="43.4738076" lon="11.2180059"><ele>331.0</ele><time>2026-03-28T14:59:46.021Z</time></trkpt><trkpt lat="43.4737152" lon="11.2179637"><ele>332.0</ele><time>2026-03-28T14:59:47.004Z</time></trkpt><trkpt lat="43.4736259" lon="11.2179273"><ele>332.0</ele><time>2026-03-28T14:59:48.017Z</time></trkpt><trkpt lat="43.4735328" lon="11.2179127"><ele>332.0</ele><time>2026-03-28T14:59:49.017Z</time></trkpt><trkpt lat="43.4734381" lon="11.2179008"><ele>332.0</ele><time>2026-03-28T14:59:50.005Z</time></trkpt><trkpt lat="43.4733437" lon="11.2178813"><ele>332.0</ele><time>2026-03-28T14:59:51.011Z</time></trkpt><trkpt lat="43.4732572" lon="11.2178497"><ele>332.0</ele><time>2026-03-28T14:59:52.003Z</time></trkpt><trkpt lat="43.473176" lon="11.2177949"><ele>332.0</ele><time>2026-03-28T14:59:53.024Z</time></trkpt><trkpt lat="43.4730972" lon="11.2177302"><ele>332.0</ele><time>2026-03-28T14:59:54.008Z</time></trkpt><trkpt lat="43.4730175" lon="11.2176638"><ele>332.0</ele><time>2026-03-28T14:59:55.016Z</time></trkpt><trkpt lat="43.4729326" lon="11.2175915"><ele>332.0</ele><time>2026-03-28T14:59:55.995Z</time></trkpt><trkpt lat="43.4728523" lon="11.2175188"><ele>332.0</ele><time>2026-03-28T14:59:57.026Z</time></trkpt><trkpt lat="43.4727787" lon="11.2174465"><ele>330.33333333333337</ele><time>2026-03-28T14:59:58.01Z</time></trkpt><trkpt lat="43.4727111" lon="11.2173703"><ele>328.6666666666667</ele><time>2026-03-28T14:59:58.997Z</time></trkpt><trkpt lat="43.4726514" lon="11.2172827"><ele>327.0</ele><time>2026-03-28T15:00:00.014Z</time></trkpt><trkpt lat="43.4726018" lon="11.2171832"><ele>325.3333333333333</ele><time>2026-03-28T15:00:01.01Z</time></trkpt><trkpt lat="43.4725634" lon="11.2170782"><ele>323.66666666666663</ele><time>2026-03-28T15:00:02.007Z</time></trkpt><trkpt lat="43.4725438" lon="11.2169632"><ele>322.0</ele><time>2026-03-28T15:00:03.025Z</time></trkpt><trkpt lat="43.4725354" lon="11.2168454"><ele>322.0</ele><time>2026-03-28T15:00:04.012Z</time></trkpt><trkpt lat="43.4725364" lon="11.2167195"><ele>322.0</ele><time>2026-03-28T15:00:05.009Z</time></trkpt><trkpt lat="43.4725467" lon="11.2165978"><ele>322.0</ele><time>2026-03-28T15:00:06.015Z</time></trkpt><trkpt lat="43.4725649" lon="11.2164837"><ele>322.0</ele><time>2026-03-28T15:00:07.014Z</time></trkpt><trkpt lat="43.4725988" lon="11.2163777"><ele>322.0</ele><time>2026-03-28T15:00:08.023Z</time></trkpt><trkpt lat="43.4726447" lon="11.2162808"><ele>322.0</ele><time>2026-03-28T15:00:09.01Z</time></trkpt><trkpt lat="43.4727032" lon="11.2161966"><ele>321.3333333333333</ele><time>2026-03-28T15:00:10.013Z</time></trkpt><trkpt lat="43.4727654" lon="11.2161269"><ele>320.66666666666663</ele><time>2026-03-28T15:00:11.011Z</time></trkpt><trkpt lat="43.4728349" lon="11.2160647"><ele>320.0</ele><time>2026-03-28T15:00:12.018Z</time></trkpt><trkpt lat="43.4729089" lon="11.216021"><ele>319.3333333333333</ele><time>2026-03-28T15:00:13.005Z</time></trkpt><trkpt lat="43.472987" lon="11.2159876"><ele>318.6666666666667</ele><time>2026-03-28T15:00:14.029Z</time></trkpt><trkpt lat="43.4730603" lon="11.2159693"><ele>318.0</ele><time>2026-03-28T15:00:15.037Z</time></trkpt><trkpt lat="43.4731301" lon="11.2159643"><ele>318.0</ele><time>2026-03-28T15:00:16.012Z</time></trkpt><trkpt lat="43.4732518" lon="11.2159646"><ele>318.0</ele><time>2026-03-28T15:00:18.011Z</time></trkpt><trkpt lat="43.4733286" lon="11.2159367"><ele>318.0</ele><time>2026-03-28T15:00:20.013Z</time></trkpt><trkpt lat="43.4732972" lon="11.2158448"><ele>318.0</ele><time>2026-03-28T15:00:22.015Z</time></trkpt><trkpt lat="43.4731954" lon="11.2157425"><ele>318.0</ele><time>2026-03-28T15:00:24.014Z</time></trkpt><trkpt lat="43.4731389" lon="11.2156852"><ele>316.1666666666667</ele><time>2026-03-28T15:00:25Z</time></trkpt><trkpt lat="43.473086" lon="11.2156246"><ele>314.3333333333333</ele><time>2026-03-28T15:00:26.008Z</time></trkpt><trkpt lat="43.4730336" lon="11.2155656"><ele>312.5</ele><time>2026-03-28T15:00:27.006Z</time></trkpt><trkpt lat="43.4729838" lon="11.2155019"><ele>310.66666666666663</ele><time>2026-03-28T15:00:28.031Z</time></trkpt><trkpt lat="43.4728858" lon="11.215397"><ele>308.8333333333333</ele><time>2026-03-28T15:00:30.013Z</time></trkpt><trkpt lat="43.472821" lon="11.2153608"><ele>307.0</ele><time>2026-03-28T15:00:30.995Z</time></trkpt><trkpt lat="43.4727374" lon="11.2153288"><ele>306.75</ele><time>2026-03-28T15:00:32.02Z</time></trkpt><trkpt lat="43.4726381" lon="11.2152964"><ele>306.5</ele><time>2026-03-28T15:00:33.005Z</time></trkpt><trkpt lat="43.4725255" lon="11.2152428"><ele>306.25</ele><time>2026-03-28T15:00:34.016Z</time></trkpt><trkpt lat="43.4723996" lon="11.2151558"><ele>306.0</ele><time>2026-03-28T15:00:35.008Z</time></trkpt><trkpt lat="43.4722712" lon="11.2150522"><ele>306.0</ele><time>2026-03-28T15:00:36.009Z</time></trkpt><trkpt lat="43.4721479" lon="11.2149551"><ele>306.0</ele><time>2026-03-28T15:00:37.023Z</time></trkpt><trkpt lat="43.4720317" lon="11.2148656"><ele>306.0</ele><time>2026-03-28T15:00:38.007Z</time></trkpt><trkpt lat="43.4719286" lon="11.2147927"><ele>306.0</ele><time>2026-03-28T15:00:39.02Z</time></trkpt><trkpt lat="43.4718346" lon="11.2147244"><ele>302.8333333333333</ele><time>2026-03-28T15:00:40.008Z</time></trkpt><trkpt lat="43.4717486" lon="11.2146618"><ele>299.6666666666667</ele><time>2026-03-28T15:00:41.006Z</time></trkpt><trkpt lat="43.4716717" lon="11.2145996"><ele>296.5</ele><time>2026-03-28T15:00:42.009Z</time></trkpt><trkpt lat="43.4716064" lon="11.2145317"><ele>293.33333333333337</ele><time>2026-03-28T15:00:43.015Z</time></trkpt><trkpt lat="43.4715496" lon="11.2144568"><ele>290.1666666666667</ele><time>2026-03-28T15:00:44.005Z</time></trkpt><trkpt lat="43.4714982" lon="11.2143694"><ele>287.0</ele><time>2026-03-28T15:00:45.007Z</time></trkpt><trkpt lat="43.471451" lon="11.2142784"><ele>287.0</ele><time>2026-03-28T15:00:46.025Z</time></trkpt><trkpt lat="43.4713982" lon="11.2141905"><ele>287.0</ele><time>2026-03-28T15:00:47.008Z</time></trkpt><trkpt lat="43.4713283" lon="11.21411"><ele>287.0</ele><time>2026-03-28T15:00:48.026Z</time></trkpt><trkpt lat="43.4712468" lon="11.2140455"><ele>287.0</ele><time>2026-03-28T15:00:49.021Z</time></trkpt><trkpt lat="43.4711544" lon="11.2140067"><ele>287.0</ele><time>2026-03-28T15:00:50.006Z</time></trkpt><trkpt lat="43.4710569" lon="11.2139728"><ele>284.0</ele><time>2026-03-28T15:00:51.026Z</time></trkpt><trkpt lat="43.4709595" lon="11.2139373"><ele>281.0</ele><time>2026-03-28T15:00:52.026Z</time></trkpt><trkpt lat="43.4708563" lon="11.2139027"><ele>278.0</ele><time>2026-03-28T15:00:53.026Z</time></trkpt><trkpt lat="43.4707615" lon="11.2138386"><ele>275.0</ele><time>2026-03-28T15:00:54.012Z</time></trkpt><trkpt lat="43.4706599" lon="11.2137732"><ele>272.0</ele><time>2026-03-28T15:00:55.008Z</time></trkpt><trkpt lat="43.4705552" lon="11.2137226"><ele>272.0</ele><time>2026-03-28T15:00:56.011Z</time></trkpt><trkpt lat="43.4704579" lon="11.2136583"><ele>272.0</ele><time>2026-03-28T15:00:57.017Z</time></trkpt><trkpt lat="43.4703706" lon="11.2135705"><ele>272.0</ele><time>2026-03-28T15:00:58.024Z</time></trkpt><trkpt lat="43.4702881" lon="11.2134656"><ele>272.0</ele><time>2026-03-28T15:00:59.01Z</time></trkpt><trkpt lat="43.470201" lon="11.2133597"><ele>272.0</ele><time>2026-03-28T15:01:00.016Z</time></trkpt><trkpt lat="43.4701105" lon="11.2132873"><ele>271.8</ele><time>2026-03-28T15:01:01.024Z</time></trkpt><trkpt lat="43.4700148" lon="11.2132375"><ele>271.6</ele><time>2026-03-28T15:01:02.028Z</time></trkpt><trkpt lat="43.4699113" lon="11.2131905"><ele>271.40000000000003</ele><time>2026-03-28T15:01:03.012Z</time></trkpt><trkpt lat="43.4698138" lon="11.21314"><ele>271.2</ele><time>2026-03-28T15:01:04.012Z</time></trkpt><trkpt lat="43.4697149" lon="11.2130829"><ele>271.0</ele><time>2026-03-28T15:01:05.01Z</time></trkpt><trkpt lat="43.4696234" lon="11.2130116"><ele>272.6</ele><time>2026-03-28T15:01:06.014Z</time></trkpt><trkpt lat="43.4695358" lon="11.2129377"><ele>274.20000000000005</ele><time>2026-03-28T15:01:07.006Z</time></trkpt><trkpt lat="43.4694508" lon="11.2128648"><ele>275.79999999999995</ele><time>2026-03-28T15:01:08.01Z</time></trkpt><trkpt lat="43.4693694" lon="11.2127921"><ele>277.4</ele><time>2026-03-28T15:01:09.012Z</time></trkpt><trkpt lat="43.4692995" lon="11.2127113"><ele>279.0</ele><time>2026-03-28T15:01:10.013Z</time></trkpt><trkpt lat="43.4692461" lon="11.2126145"><ele>279.0</ele><time>2026-03-28T15:01:11.033Z</time></trkpt><trkpt lat="43.4692089" lon="11.2125054"><ele>279.0</ele><time>2026-03-28T15:01:12.025Z</time></trkpt><trkpt lat="43.4691938" lon="11.2124015"><ele>279.0</ele><time>2026-03-28T15:01:13.018Z</time></trkpt><trkpt lat="43.4691851" lon="11.2123132"><ele>279.0</ele><time>2026-03-28T15:01:14.012Z</time></trkpt><trkpt lat="43.4691353" lon="11.2122121"><ele>279.0</ele><time>2026-03-28T15:01:16.012Z</time></trkpt><trkpt lat="43.4690526" lon="11.212166"><ele>279.0</ele><time>2026-03-28T15:01:18.017Z</time></trkpt><trkpt lat="43.468966" lon="11.2121643"><ele>278.5</ele><time>2026-03-28T15:01:20.017Z</time></trkpt><trkpt lat="43.4688926" lon="11.2121596"><ele>278.0</ele><time>2026-03-28T15:01:22.021Z</time></trkpt><trkpt lat="43.468831" lon="11.2121296"><ele>277.5</ele><time>2026-03-28T15:01:24.008Z</time></trkpt><trkpt lat="43.4688" lon="11.2120352"><ele>277.0</ele><time>2026-03-28T15:01:26.02Z</time></trkpt><trkpt lat="43.46877" lon="11.2119279"><ele>276.5</ele><time>2026-03-28T15:01:28.015Z</time></trkpt><trkpt lat="43.4687435" lon="11.2118157"><ele>276.0</ele><time>2026-03-28T15:01:30.018Z</time></trkpt><trkpt lat="43.4687184" lon="11.2116967"><ele>276.0</ele><time>2026-03-28T15:01:32.007Z</time></trkpt><trkpt lat="43.4686927" lon="11.2115693"><ele>276.0</ele><time>2026-03-28T15:01:34.006Z</time></trkpt><trkpt lat="43.4686565" lon="11.2114308"><ele>276.0</ele><time>2026-03-28T15:01:36.008Z</time></trkpt><trkpt lat="43.4686279" lon="11.2112861"><ele>276.0</ele><time>2026-03-28T15:01:38.016Z</time></trkpt><trkpt lat="43.4686034" lon="11.2111407"><ele>276.0</ele><time>2026-03-28T15:01:40.006Z</time></trkpt><trkpt lat="43.4685656" lon="11.2109988"><ele>276.0</ele><time>2026-03-28T15:01:42.011Z</time></trkpt><trkpt lat="43.4685276" lon="11.2108552"><ele>276.0</ele><time>2026-03-28T15:01:44.016Z</time></trkpt><trkpt lat="43.4684894" lon="11.2107003"><ele>276.0</ele><time>2026-03-28T15:01:46.021Z</time></trkpt><trkpt lat="43.4684556" lon="11.2105714"><ele>276.0</ele><time>2026-03-28T15:01:48.013Z</time></trkpt><trkpt lat="43.4683766" lon="11.2105031"><ele>276.0</ele><time>2026-03-28T15:01:50.026Z</time></trkpt><trkpt lat="43.4682558" lon="11.2104854"><ele>276.0</ele><time>2026-03-28T15:01:52.002Z</time></trkpt><trkpt lat="43.4681308" lon="11.2104804"><ele>276.0</ele><time>2026-03-28T15:01:54.009Z</time></trkpt><trkpt lat="43.4680647" lon="11.2104456"><ele>276.0</ele><time>2026-03-28T15:01:55.007Z</time></trkpt><trkpt lat="43.4679939" lon="11.2103996"><ele>276.0</ele><time>2026-03-28T15:01:56.016Z</time></trkpt><trkpt lat="43.4679179" lon="11.2103576"><ele>276.0</ele><time>2026-03-28T15:01:57.02Z</time></trkpt><trkpt lat="43.467841" lon="11.2103157"><ele>276.0</ele><time>2026-03-28T15:01:58.013Z</time></trkpt><trkpt lat="43.4677543" lon="11.2102746"><ele>275.5</ele><time>2026-03-28T15:01:59.024Z</time></trkpt><trkpt lat="43.4676726" lon="11.2102393"><ele>275.0</ele><time>2026-03-28T15:02:00.01Z</time></trkpt><trkpt lat="43.4675911" lon="11.2102135"><ele>274.5</ele><time>2026-03-28T15:02:01.03Z</time></trkpt><trkpt lat="43.4675136" lon="11.2101984"><ele>274.0</ele><time>2026-03-28T15:02:02.021Z</time></trkpt><trkpt lat="43.4674352" lon="11.2101845"><ele>273.5</ele><time>2026-03-28T15:02:03.006Z</time></trkpt><trkpt lat="43.4673585" lon="11.2101684"><ele>273.0</ele><time>2026-03-28T15:02:04Z</time></trkpt><trkpt lat="43.4672831" lon="11.2101532"><ele>273.0</ele><time>2026-03-28T15:02:05.024Z</time></trkpt><trkpt lat="43.4672074" lon="11.2101424"><ele>273.0</ele><time>2026-03-28T15:02:06.01Z</time></trkpt><trkpt lat="43.4671314" lon="11.2101302"><ele>273.0</ele><time>2026-03-28T15:02:06.998Z</time></trkpt><trkpt lat="43.4670577" lon="11.210119"><ele>273.0</ele><time>2026-03-28T15:02:08.014Z</time></trkpt><trkpt lat="43.4669836" lon="11.2101087"><ele>273.0</ele><time>2026-03-28T15:02:09.013Z</time></trkpt><trkpt lat="43.4669119" lon="11.2100966"><ele>273.0</ele><time>2026-03-28T15:02:10.002Z</time></trkpt><trkpt lat="43.4668427" lon="11.2100804"><ele>273.0</ele><time>2026-03-28T15:02:11.004Z</time></trkpt><trkpt lat="43.466776" lon="11.2100577"><ele>273.0</ele><time>2026-03-28T15:02:12.012Z</time></trkpt><trkpt lat="43.4667081" lon="11.2100267"><ele>273.0</ele><time>2026-03-28T15:02:13.014Z</time></trkpt><trkpt lat="43.4666405" lon="11.2099905"><ele>273.0</ele><time>2026-03-28T15:02:14.016Z</time></trkpt><trkpt lat="43.4665713" lon="11.209947"><ele>273.0</ele><time>2026-03-28T15:02:15.031Z</time></trkpt><trkpt lat="43.4665031" lon="11.2098905"><ele>273.0</ele><time>2026-03-28T15:02:16.016Z</time></trkpt><trkpt lat="43.466444" lon="11.2098151"><ele>273.0</ele><time>2026-03-28T15:02:17.003Z</time></trkpt><trkpt lat="43.4663935" lon="11.2097333"><ele>273.0</ele><time>2026-03-28T15:02:18.005Z</time></trkpt><trkpt lat="43.4663411" lon="11.2096472"><ele>273.0</ele><time>2026-03-28T15:02:19.018Z</time></trkpt><trkpt lat="43.4662776" lon="11.2095649"><ele>273.0</ele><time>2026-03-28T15:02:20.001Z</time></trkpt><trkpt lat="43.4662101" lon="11.2094831"><ele>273.0</ele><time>2026-03-28T15:02:21.013Z</time></trkpt><trkpt lat="43.4661429" lon="11.2094033"><ele>273.0</ele><time>2026-03-28T15:02:22.013Z</time></trkpt><trkpt lat="43.4660761" lon="11.2093272"><ele>273.0</ele><time>2026-03-28T15:02:23.015Z</time></trkpt><trkpt lat="43.4660127" lon="11.209255"><ele>273.1666666666667</ele><time>2026-03-28T15:02:24.012Z</time></trkpt><trkpt lat="43.4659509" lon="11.2091892"><ele>273.3333333333333</ele><time>2026-03-28T15:02:25.009Z</time></trkpt><trkpt lat="43.4658844" lon="11.2091341"><ele>273.5</ele><time>2026-03-28T15:02:26.018Z</time></trkpt><trkpt lat="43.4658155" lon="11.2090751"><ele>273.66666666666663</ele><time>2026-03-28T15:02:27.032Z</time></trkpt><trkpt lat="43.4657469" lon="11.2090177"><ele>273.8333333333333</ele><time>2026-03-28T15:02:28.021Z</time></trkpt><trkpt lat="43.4656821" lon="11.2089661"><ele>274.0</ele><time>2026-03-28T15:02:29.004Z</time></trkpt><trkpt lat="43.4656181" lon="11.2089209"><ele>274.0</ele><time>2026-03-28T15:02:30.02Z</time></trkpt><trkpt lat="43.4655451" lon="11.2088824"><ele>274.0</ele><time>2026-03-28T15:02:31.013Z</time></trkpt><trkpt lat="43.4654682" lon="11.2088477"><ele>274.0</ele><time>2026-03-28T15:02:32.023Z</time></trkpt><trkpt lat="43.4653943" lon="11.2088216"><ele>274.0</ele><time>2026-03-28T15:02:33.014Z</time></trkpt><trkpt lat="43.4653175" lon="11.2088109"><ele>274.0</ele><time>2026-03-28T15:02:34.009Z</time></trkpt><trkpt lat="43.4652411" lon="11.2088011"><ele>274.0</ele><time>2026-03-28T15:02:35.019Z</time></trkpt><trkpt lat="43.4651609" lon="11.2087946"><ele>272.5714285714286</ele><time>2026-03-28T15:02:36.026Z</time></trkpt><trkpt lat="43.4650836" lon="11.2087812"><ele>271.14285714285717</ele><time>2026-03-28T15:02:37.002Z</time></trkpt><trkpt lat="43.4650067" lon="11.2087689"><ele>269.7142857142857</ele><time>2026-03-28T15:02:38.023Z</time></trkpt><trkpt lat="43.4649334" lon="11.2087441"><ele>268.28571428571433</ele><time>2026-03-28T15:02:39.004Z</time></trkpt><trkpt lat="43.4648627" lon="11.2087122"><ele>266.8571428571429</ele><time>2026-03-28T15:02:40.007Z</time></trkpt><trkpt lat="43.4647984" lon="11.2086833"><ele>265.42857142857144</ele><time>2026-03-28T15:02:41.017Z</time></trkpt><trkpt lat="43.4647365" lon="11.2086491"><ele>264.0</ele><time>2026-03-28T15:02:42.018Z</time></trkpt><trkpt lat="43.4646747" lon="11.2086119"><ele>264.0</ele><time>2026-03-28T15:02:43.016Z</time></trkpt><trkpt lat="43.4646162" lon="11.2085765"><ele>264.0</ele><time>2026-03-28T15:02:44.015Z</time></trkpt><trkpt lat="43.4645582" lon="11.2085418"><ele>264.0</ele><time>2026-03-28T15:02:45.008Z</time></trkpt><trkpt lat="43.464453" lon="11.2084726"><ele>264.0</ele><time>2026-03-28T15:02:47.017Z</time></trkpt><trkpt lat="43.4643574" lon="11.2084186"><ele>264.0</ele><time>2026-03-28T15:02:49.009Z</time></trkpt><trkpt lat="43.4642595" lon="11.208364"><ele>265.2</ele><time>2026-03-28T15:02:51.009Z</time></trkpt><trkpt lat="43.4641708" lon="11.2083212"><ele>266.4</ele><time>2026-03-28T15:02:53.015Z</time></trkpt><trkpt lat="43.4640945" lon="11.2082902"><ele>267.6</ele><time>2026-03-28T15:02:55.015Z</time></trkpt><trkpt lat="43.4640102" lon="11.208252"><ele>268.8</ele><time>2026-03-28T15:02:57.045Z</time></trkpt><trkpt lat="43.463918" lon="11.2082014"><ele>270.0</ele><time>2026-03-28T15:02:59.025Z</time></trkpt><trkpt lat="43.4638106" lon="11.2081304"><ele>268.25</ele><time>2026-03-28T15:03:01.01Z</time></trkpt><trkpt lat="43.4637062" lon="11.2080554"><ele>266.5</ele><time>2026-03-28T15:03:03.022Z</time></trkpt><trkpt lat="43.4636078" lon="11.2079916"><ele>264.75</ele><time>2026-03-28T15:03:05.001Z</time></trkpt><trkpt lat="43.46351" lon="11.2079222"><ele>263.0</ele><time>2026-03-28T15:03:07.026Z</time></trkpt><trkpt lat="43.4634034" lon="11.2078571"><ele>263.0</ele><time>2026-03-28T15:03:09.035Z</time></trkpt><trkpt lat="43.4632915" lon="11.2077853"><ele>263.0</ele><time>2026-03-28T15:03:11.025Z</time></trkpt><trkpt lat="43.4631851" lon="11.2077265"><ele>263.0</ele><time>2026-03-28T15:03:13.026Z</time></trkpt><trkpt lat="43.4630837" lon="11.2076635"><ele>263.0</ele><time>2026-03-28T15:03:15.002Z</time></trkpt><trkpt lat="43.4629771" lon="11.2076026"><ele>264.8</ele><time>2026-03-28T15:03:17.01Z</time></trkpt><trkpt lat="43.4628823" lon="11.2075461"><ele>266.6</ele><time>2026-03-28T15:03:19.031Z</time></trkpt><trkpt lat="43.4627913" lon="11.2074913"><ele>268.4</ele><time>2026-03-28T15:03:21.005Z</time></trkpt><trkpt lat="43.4626952" lon="11.2074556"><ele>270.2</ele><time>2026-03-28T15:03:23.01Z</time></trkpt><trkpt lat="43.4625871" lon="11.2074262"><ele>272.0</ele><time>2026-03-28T15:03:25.019Z</time></trkpt><trkpt lat="43.4624703" lon="11.2073993"><ele>272.0</ele><time>2026-03-28T15:03:27.02Z</time></trkpt><trkpt lat="43.4623627" lon="11.2073767"><ele>272.0</ele><time>2026-03-28T15:03:29.015Z</time></trkpt><trkpt lat="43.4622523" lon="11.2073531"><ele>272.0</ele><time>2026-03-28T15:03:31.026Z</time></trkpt><trkpt lat="43.4621465" lon="11.2073339"><ele>272.0</ele><time>2026-03-28T15:03:33.02Z</time></trkpt><trkpt lat="43.4620471" lon="11.2073027"><ele>272.0</ele><time>2026-03-28T15:03:35.024Z</time></trkpt><trkpt lat="43.4619507" lon="11.2072643"><ele>270.6</ele><time>2026-03-28T15:03:37.011Z</time></trkpt><trkpt lat="43.4618523" lon="11.2072192"><ele>269.2</ele><time>2026-03-28T15:03:39.005Z</time></trkpt><trkpt lat="43.4617603" lon="11.2071614"><ele>267.8</ele><time>2026-03-28T15:03:41.012Z</time></trkpt><trkpt lat="43.4616525" lon="11.2070861"><ele>266.4</ele><time>2026-03-28T15:03:43.011Z</time></trkpt><trkpt lat="43.4615448" lon="11.2070253"><ele>265.0</ele><time>2026-03-28T15:03:45.022Z</time></trkpt><trkpt lat="43.461441" lon="11.2069682"><ele>265.0</ele><time>2026-03-28T15:03:47.015Z</time></trkpt><trkpt lat="43.4613597" lon="11.2068728"><ele>265.0</ele><time>2026-03-28T15:03:49.005Z</time></trkpt><trkpt lat="43.4612859" lon="11.2067788"><ele>265.0</ele><time>2026-03-28T15:03:51.03Z</time></trkpt><trkpt lat="43.4612077" lon="11.2066754"><ele>265.0</ele><time>2026-03-28T15:03:53.022Z</time></trkpt><trkpt lat="43.461113" lon="11.2065633"><ele>265.0</ele><time>2026-03-28T15:03:55.014Z</time></trkpt><trkpt lat="43.4610483" lon="11.2065076"><ele>263.4</ele><time>2026-03-28T15:03:56.021Z</time></trkpt><trkpt lat="43.4609717" lon="11.2064579"><ele>261.8</ele><time>2026-03-28T15:03:57.026Z</time></trkpt><trkpt lat="43.4608901" lon="11.2064057"><ele>260.2</ele><time>2026-03-28T15:03:58.018Z</time></trkpt><trkpt lat="43.4608054" lon="11.2063509"><ele>258.6</ele><time>2026-03-28T15:03:59.018Z</time></trkpt><trkpt lat="43.4607152" lon="11.206299"><ele>257.0</ele><time>2026-03-28T15:04:00.018Z</time></trkpt><trkpt lat="43.4606189" lon="11.2062523"><ele>257.0</ele><time>2026-03-28T15:04:01.014Z</time></trkpt><trkpt lat="43.4605212" lon="11.2062158"><ele>257.0</ele><time>2026-03-28T15:04:02.027Z</time></trkpt><trkpt lat="43.4604208" lon="11.2062"><ele>257.0</ele><time>2026-03-28T15:04:03.012Z</time></trkpt><trkpt lat="43.4603248" lon="11.2061899"><ele>257.0</ele><time>2026-03-28T15:04:04.01Z</time></trkpt><trkpt lat="43.460231" lon="11.2061872"><ele>257.0</ele><time>2026-03-28T15:04:05Z</time></trkpt><trkpt lat="43.4601367" lon="11.2061828"><ele>257.4</ele><time>2026-03-28T15:04:06.013Z</time></trkpt><trkpt lat="43.4600411" lon="11.2061828"><ele>257.79999999999995</ele><time>2026-03-28T15:04:07.013Z</time></trkpt><trkpt lat="43.4599441" lon="11.2061833"><ele>258.2</ele><time>2026-03-28T15:04:08.015Z</time></trkpt><trkpt lat="43.4598428" lon="11.2061855"><ele>258.59999999999997</ele><time>2026-03-28T15:04:09.01Z</time></trkpt><trkpt lat="43.4597397" lon="11.2061759"><ele>259.0</ele><time>2026-03-28T15:04:10.014Z</time></trkpt><trkpt lat="43.4596358" lon="11.2061629"><ele>258.4</ele><time>2026-03-28T15:04:11.013Z</time></trkpt><trkpt lat="43.4595383" lon="11.2061315"><ele>257.79999999999995</ele><time>2026-03-28T15:04:12.014Z</time></trkpt><trkpt lat="43.4594439" lon="11.2060833"><ele>257.20000000000005</ele><time>2026-03-28T15:04:13.023Z</time></trkpt><trkpt lat="43.4593554" lon="11.2060368"><ele>256.6</ele><time>2026-03-28T15:04:14Z</time></trkpt><trkpt lat="43.4592686" lon="11.2059919"><ele>256.0</ele><time>2026-03-28T15:04:15.014Z</time></trkpt><trkpt lat="43.4591879" lon="11.2059405"><ele>256.0</ele><time>2026-03-28T15:04:16.02Z</time></trkpt><trkpt lat="43.4591168" lon="11.2058795"><ele>256.0</ele><time>2026-03-28T15:04:17.017Z</time></trkpt><trkpt lat="43.4590493" lon="11.2058071"><ele>256.0</ele><time>2026-03-28T15:04:18.014Z</time></trkpt><trkpt lat="43.4589851" lon="11.2057251"><ele>256.0</ele><time>2026-03-28T15:04:19.005Z</time></trkpt><trkpt lat="43.4589262" lon="11.2056198"><ele>256.0</ele><time>2026-03-28T15:04:20.013Z</time></trkpt><trkpt lat="43.458875" lon="11.2055011"><ele>254.8</ele><time>2026-03-28T15:04:21.007Z</time></trkpt><trkpt lat="43.4588241" lon="11.2053804"><ele>253.60000000000002</ele><time>2026-03-28T15:04:22.019Z</time></trkpt><trkpt lat="43.4587708" lon="11.2052615"><ele>252.4</ele><time>2026-03-28T15:04:23.008Z</time></trkpt><trkpt lat="43.4587146" lon="11.2051416"><ele>251.2</ele><time>2026-03-28T15:04:24.011Z</time></trkpt><trkpt lat="43.4586598" lon="11.205016"><ele>250.0</ele><time>2026-03-28T15:04:25.022Z</time></trkpt><trkpt lat="43.4586079" lon="11.2048895"><ele>248.8</ele><time>2026-03-28T15:04:26.02Z</time></trkpt><trkpt lat="43.4585564" lon="11.204766"><ele>247.6</ele><time>2026-03-28T15:04:27.008Z</time></trkpt><trkpt lat="43.4585053" lon="11.2046433"><ele>246.39999999999998</ele><time>2026-03-28T15:04:28.007Z</time></trkpt><trkpt lat="43.4584538" lon="11.2045185"><ele>245.2</ele><time>2026-03-28T15:04:29.007Z</time></trkpt><trkpt lat="43.4584012" lon="11.2044002"><ele>244.0</ele><time>2026-03-28T15:04:30.021Z</time></trkpt><trkpt lat="43.4583515" lon="11.2042874"><ele>244.0</ele><time>2026-03-28T15:04:31.011Z</time></trkpt><trkpt lat="43.4583084" lon="11.2041705"><ele>243.99999999999997</ele><time>2026-03-28T15:04:32.021Z</time></trkpt><trkpt lat="43.458276" lon="11.2040505"><ele>243.99999999999997</ele><time>2026-03-28T15:04:33.007Z</time></trkpt><trkpt lat="43.4582575" lon="11.2039302"><ele>244.0</ele><time>2026-03-28T15:04:34.008Z</time></trkpt><trkpt lat="43.4582406" lon="11.2038062"><ele>244.0</ele><time>2026-03-28T15:04:35.008Z</time></trkpt><trkpt lat="43.4582272" lon="11.2036875"><ele>243.83333333333331</ele><time>2026-03-28T15:04:36.018Z</time></trkpt><trkpt lat="43.4582182" lon="11.2035718"><ele>243.66666666666666</ele><time>2026-03-28T15:04:37.019Z</time></trkpt><trkpt lat="43.4582067" lon="11.2034559"><ele>243.5</ele><time>2026-03-28T15:04:38.024Z</time></trkpt><trkpt lat="43.4581999" lon="11.2033467"><ele>243.33333333333331</ele><time>2026-03-28T15:04:39.006Z</time></trkpt><trkpt lat="43.4581953" lon="11.2032409"><ele>243.16666666666666</ele><time>2026-03-28T15:04:40.004Z</time></trkpt><trkpt lat="43.4581954" lon="11.2031376"><ele>243.0</ele><time>2026-03-28T15:04:41.026Z</time></trkpt><trkpt lat="43.4582028" lon="11.2030319"><ele>242.16666666666666</ele><time>2026-03-28T15:04:42.015Z</time></trkpt><trkpt lat="43.4582186" lon="11.2029272"><ele>241.33333333333331</ele><time>2026-03-28T15:04:43.019Z</time></trkpt><trkpt lat="43.4582363" lon="11.2028188"><ele>240.5</ele><time>2026-03-28T15:04:44.013Z</time></trkpt><trkpt lat="43.458252" lon="11.2027084"><ele>239.66666666666666</ele><time>2026-03-28T15:04:45.011Z</time></trkpt><trkpt lat="43.4582708" lon="11.2025971"><ele>238.83333333333331</ele><time>2026-03-28T15:04:46.008Z</time></trkpt><trkpt lat="43.4582909" lon="11.2024808"><ele>238.0</ele><time>2026-03-28T15:04:47.024Z</time></trkpt><trkpt lat="43.4583093" lon="11.2023651"><ele>237.2</ele><time>2026-03-28T15:04:48.024Z</time></trkpt><trkpt lat="43.4583311" lon="11.2022513"><ele>236.4</ele><time>2026-03-28T15:04:49.01Z</time></trkpt><trkpt lat="43.4583524" lon="11.2021297"><ele>235.59999999999997</ele><time>2026-03-28T15:04:50.009Z</time></trkpt><trkpt lat="43.4583708" lon="11.2020092"><ele>234.79999999999998</ele><time>2026-03-28T15:04:51.029Z</time></trkpt><trkpt lat="43.4583909" lon="11.2018831"><ele>234.0</ele><time>2026-03-28T15:04:52.006Z</time></trkpt><trkpt lat="43.4584106" lon="11.2017554"><ele>234.0</ele><time>2026-03-28T15:04:53.019Z</time></trkpt><trkpt lat="43.458432" lon="11.2016231"><ele>233.99999999999997</ele><time>2026-03-28T15:04:54.025Z</time></trkpt><trkpt lat="43.458451" lon="11.2014935"><ele>233.99999999999997</ele><time>2026-03-28T15:04:55.017Z</time></trkpt><trkpt lat="43.4584689" lon="11.2013559"><ele>234.0</ele><time>2026-03-28T15:04:56.033Z</time></trkpt><trkpt lat="43.4584908" lon="11.2012149"><ele>234.0</ele><time>2026-03-28T15:04:57.01Z</time></trkpt><trkpt lat="43.4585179" lon="11.2010728"><ele>232.6</ele><time>2026-03-28T15:04:58.015Z</time></trkpt><trkpt lat="43.4585473" lon="11.2009318"><ele>231.2</ele><time>2026-03-28T15:04:59.013Z</time></trkpt><trkpt lat="43.4585802" lon="11.2007833"><ele>229.79999999999998</ele><time>2026-03-28T15:05:00.013Z</time></trkpt><trkpt lat="43.4586101" lon="11.2006362"><ele>228.39999999999998</ele><time>2026-03-28T15:05:01.002Z</time></trkpt><trkpt lat="43.4586319" lon="11.20048"><ele>227.0</ele><time>2026-03-28T15:05:02.016Z</time></trkpt><trkpt lat="43.45864" lon="11.2003252"><ele>225.8</ele><time>2026-03-28T15:05:03.012Z</time></trkpt><trkpt lat="43.4586206" lon="11.2001766"><ele>224.6</ele><time>2026-03-28T15:05:04.027Z</time></trkpt><trkpt lat="43.4585929" lon="11.2000355"><ele>223.40000000000003</ele><time>2026-03-28T15:05:05.023Z</time></trkpt><trkpt lat="43.4585649" lon="11.1998921"><ele>222.20000000000002</ele><time>2026-03-28T15:05:06.017Z</time></trkpt><trkpt lat="43.4585437" lon="11.1997414"><ele>221.0</ele><time>2026-03-28T15:05:07.015Z</time></trkpt><trkpt lat="43.4585235" lon="11.1995902"><ele>220.4</ele><time>2026-03-28T15:05:08.014Z</time></trkpt><trkpt lat="43.4585032" lon="11.199446"><ele>219.8</ele><time>2026-03-28T15:05:09.002Z</time></trkpt><trkpt lat="43.4584857" lon="11.1993125"><ele>219.20000000000002</ele><time>2026-03-28T15:05:10.02Z</time></trkpt><trkpt lat="43.4584678" lon="11.1991923"><ele>218.60000000000002</ele><time>2026-03-28T15:05:11.029Z</time></trkpt><trkpt lat="43.4584371" lon="11.1990802"><ele>218.0</ele><time>2026-03-28T15:05:12.019Z</time></trkpt><trkpt lat="43.4583881" lon="11.1989744"><ele>217.60000000000002</ele><time>2026-03-28T15:05:13.016Z</time></trkpt><trkpt lat="43.4583235" lon="11.1988842"><ele>217.20000000000002</ele><time>2026-03-28T15:05:14.037Z</time></trkpt><trkpt lat="43.4582534" lon="11.1988033"><ele>216.8</ele><time>2026-03-28T15:05:15.012Z</time></trkpt><trkpt lat="43.4581851" lon="11.1987226"><ele>216.4</ele><time>2026-03-28T15:05:16.016Z</time></trkpt><trkpt lat="43.4581142" lon="11.1986422"><ele>216.0</ele><time>2026-03-28T15:05:17.016Z</time></trkpt><trkpt lat="43.458044" lon="11.1985569"><ele>216.0</ele><time>2026-03-28T15:05:18.016Z</time></trkpt><trkpt lat="43.457975" lon="11.1984733"><ele>216.00000000000003</ele><time>2026-03-28T15:05:19.018Z</time></trkpt><trkpt lat="43.4579042" lon="11.1983842"><ele>216.00000000000003</ele><time>2026-03-28T15:05:20.018Z</time></trkpt><trkpt lat="43.4578304" lon="11.1982975"><ele>216.0</ele><time>2026-03-28T15:05:21.021Z</time></trkpt><trkpt lat="43.4577573" lon="11.198206"><ele>216.0</ele><time>2026-03-28T15:05:22.023Z</time></trkpt><trkpt lat="43.4576773" lon="11.1981167"><ele>214.20000000000002</ele><time>2026-03-28T15:05:23.022Z</time></trkpt><trkpt lat="43.4575934" lon="11.1980274"><ele>212.40000000000003</ele><time>2026-03-28T15:05:24.019Z</time></trkpt><trkpt lat="43.4575094" lon="11.1979396"><ele>210.6</ele><time>2026-03-28T15:05:25.031Z</time></trkpt><trkpt lat="43.4574264" lon="11.1978509"><ele>208.8</ele><time>2026-03-28T15:05:26.018Z</time></trkpt><trkpt lat="43.4573421" lon="11.1977636"><ele>207.0</ele><time>2026-03-28T15:05:27.023Z</time></trkpt><trkpt lat="43.457257" lon="11.1976843"><ele>207.0</ele><time>2026-03-28T15:05:28.023Z</time></trkpt><trkpt lat="43.4571734" lon="11.1976074"><ele>207.0</ele><time>2026-03-28T15:05:29.013Z</time></trkpt><trkpt lat="43.4570885" lon="11.1975282"><ele>207.0</ele><time>2026-03-28T15:05:30.009Z</time></trkpt><trkpt lat="43.4570015" lon="11.1974457"><ele>207.0</ele><time>2026-03-28T15:05:31.022Z</time></trkpt><trkpt lat="43.4569136" lon="11.1973629"><ele>207.0</ele><time>2026-03-28T15:05:32.033Z</time></trkpt><trkpt lat="43.4568246" lon="11.197275"><ele>206.2</ele><time>2026-03-28T15:05:33.008Z</time></trkpt><trkpt lat="43.456734" lon="11.1971875"><ele>205.39999999999998</ele><time>2026-03-28T15:05:34.021Z</time></trkpt><trkpt lat="43.456649" lon="11.1970999"><ele>204.60000000000002</ele><time>2026-03-28T15:05:35.009Z</time></trkpt><trkpt lat="43.456569" lon="11.1970073"><ele>203.8</ele><time>2026-03-28T15:05:36.018Z</time></trkpt><trkpt lat="43.4564965" lon="11.1969158"><ele>203.0</ele><time>2026-03-28T15:05:37.005Z</time></trkpt><trkpt lat="43.4564265" lon="11.1968281"><ele>203.00000000000003</ele><time>2026-03-28T15:05:38.02Z</time></trkpt><trkpt lat="43.4563589" lon="11.1967514"><ele>203.0</ele><time>2026-03-28T15:05:39.012Z</time></trkpt><trkpt lat="43.4562932" lon="11.1966827"><ele>203.0</ele><time>2026-03-28T15:05:40.008Z</time></trkpt><trkpt lat="43.4562337" lon="11.1966216"><ele>203.0</ele><time>2026-03-28T15:05:41.012Z</time></trkpt><trkpt lat="43.456175" lon="11.1965628"><ele>203.00000000000003</ele><time>2026-03-28T15:05:42.009Z</time></trkpt><trkpt lat="43.4561194" lon="11.1965072"><ele>203.0</ele><time>2026-03-28T15:05:43.024Z</time></trkpt><trkpt lat="43.4560667" lon="11.196456"><ele>205.0</ele><time>2026-03-28T15:05:44.012Z</time></trkpt><trkpt lat="43.4560124" lon="11.196408"><ele>207.0</ele><time>2026-03-28T15:05:45.012Z</time></trkpt><trkpt lat="43.4559546" lon="11.1963707"><ele>209.0</ele><time>2026-03-28T15:05:46.012Z</time></trkpt><trkpt lat="43.4558465" lon="11.1963001"><ele>211.0</ele><time>2026-03-28T15:05:48.011Z</time></trkpt><trkpt lat="43.455748" lon="11.1962347"><ele>213.0</ele><time>2026-03-28T15:05:50.011Z</time></trkpt><trkpt lat="43.4556569" lon="11.1961717"><ele>213.0</ele><time>2026-03-28T15:05:52.012Z</time></trkpt><trkpt lat="43.4555734" lon="11.1961133"><ele>213.0</ele><time>2026-03-28T15:05:54.01Z</time></trkpt><trkpt lat="43.4554945" lon="11.1960498"><ele>213.0</ele><time>2026-03-28T15:05:56.01Z</time></trkpt><trkpt lat="43.4554211" lon="11.1959657"><ele>213.0</ele><time>2026-03-28T15:05:58.016Z</time></trkpt><trkpt lat="43.4553457" lon="11.1958583"><ele>213.0</ele><time>2026-03-28T15:06:00.015Z</time></trkpt><trkpt lat="43.4552682" lon="11.1957433"><ele>212.0</ele><time>2026-03-28T15:06:02.013Z</time></trkpt><trkpt lat="43.4551937" lon="11.195612"><ele>211.0</ele><time>2026-03-28T15:06:04.005Z</time></trkpt><trkpt lat="43.4551528" lon="11.1954555"><ele>210.0</ele><time>2026-03-28T15:06:06.015Z</time></trkpt><trkpt lat="43.4551375" lon="11.19529"><ele>209.0</ele><time>2026-03-28T15:06:08.01Z</time></trkpt><trkpt lat="43.4551406" lon="11.1951961"><ele>208.0</ele><time>2026-03-28T15:06:09.018Z</time></trkpt><trkpt lat="43.4551487" lon="11.1951004"><ele>207.99999999999997</ele><time>2026-03-28T15:06:10.013Z</time></trkpt><trkpt lat="43.4551575" lon="11.1950016"><ele>208.0</ele><time>2026-03-28T15:06:11.008Z</time></trkpt><trkpt lat="43.4551714" lon="11.1949022"><ele>208.0</ele><time>2026-03-28T15:06:12.008Z</time></trkpt><trkpt lat="43.455189" lon="11.1948025"><ele>208.0</ele><time>2026-03-28T15:06:13.02Z</time></trkpt><trkpt lat="43.4551996" lon="11.1946992"><ele>207.99999999999997</ele><time>2026-03-28T15:06:14.017Z</time></trkpt><trkpt lat="43.45521" lon="11.1945948"><ele>208.0</ele><time>2026-03-28T15:06:15.008Z</time></trkpt><trkpt lat="43.4552263" lon="11.1944881"><ele>207.33333333333331</ele><time>2026-03-28T15:06:16.019Z</time></trkpt><trkpt lat="43.4552419" lon="11.1943792"><ele>206.66666666666666</ele><time>2026-03-28T15:06:17.034Z</time></trkpt><trkpt lat="43.4552544" lon="11.1942713"><ele>206.0</ele><time>2026-03-28T15:06:18.018Z</time></trkpt><trkpt lat="43.4552612" lon="11.1941604"><ele>205.33333333333331</ele><time>2026-03-28T15:06:19.02Z</time></trkpt><trkpt lat="43.4552578" lon="11.1940493"><ele>204.66666666666666</ele><time>2026-03-28T15:06:20.025Z</time></trkpt><trkpt lat="43.4552342" lon="11.1939417"><ele>204.0</ele><time>2026-03-28T15:06:21.026Z</time></trkpt><trkpt lat="43.4551896" lon="11.1938363"><ele>203.0</ele><time>2026-03-28T15:06:22.01Z</time></trkpt><trkpt lat="43.4551289" lon="11.1937328"><ele>202.0</ele><time>2026-03-28T15:06:22.999Z</time></trkpt><trkpt lat="43.4550606" lon="11.1936303"><ele>201.0</ele><time>2026-03-28T15:06:24.022Z</time></trkpt><trkpt lat="43.4549906" lon="11.193526"><ele>200.0</ele><time>2026-03-28T15:06:25.024Z</time></trkpt><trkpt lat="43.4549237" lon="11.1934205"><ele>199.0</ele><time>2026-03-28T15:06:26.005Z</time></trkpt><trkpt lat="43.4548581" lon="11.1933111"><ele>199.0</ele><time>2026-03-28T15:06:27.021Z</time></trkpt><trkpt lat="43.4547935" lon="11.1932032"><ele>199.0</ele><time>2026-03-28T15:06:28.007Z</time></trkpt><trkpt lat="43.4547279" lon="11.1930935"><ele>199.0</ele><time>2026-03-28T15:06:29.002Z</time></trkpt><trkpt lat="43.4546588" lon="11.1929818"><ele>199.0</ele><time>2026-03-28T15:06:30.007Z</time></trkpt><trkpt lat="43.4545878" lon="11.1928693"><ele>199.0</ele><time>2026-03-28T15:06:31.031Z</time></trkpt><trkpt lat="43.454518" lon="11.1927535"><ele>197.0</ele><time>2026-03-28T15:06:32.019Z</time></trkpt><trkpt lat="43.454445" lon="11.1926381"><ele>195.0</ele><time>2026-03-28T15:06:33.013Z</time></trkpt><trkpt lat="43.4543727" lon="11.1925199"><ele>193.0</ele><time>2026-03-28T15:06:34.013Z</time></trkpt><trkpt lat="43.4543011" lon="11.1923961"><ele>191.0</ele><time>2026-03-28T15:06:35.035Z</time></trkpt><trkpt lat="43.4542307" lon="11.1922696"><ele>189.75</ele><time>2026-03-28T15:06:36.015Z</time></trkpt><trkpt lat="43.4541614" lon="11.1921404"><ele>188.5</ele><time>2026-03-28T15:06:37.013Z</time></trkpt><trkpt lat="43.4540917" lon="11.1920105"><ele>187.25</ele><time>2026-03-28T15:06:38.02Z</time></trkpt><trkpt lat="43.4540199" lon="11.1918781"><ele>186.0</ele><time>2026-03-28T15:06:39.024Z</time></trkpt><trkpt lat="43.4539416" lon="11.1917472"><ele>186.0</ele><time>2026-03-28T15:06:40.014Z</time></trkpt><trkpt lat="43.4538611" lon="11.1916159"><ele>186.0</ele><time>2026-03-28T15:06:41.015Z</time></trkpt><trkpt lat="43.4537802" lon="11.1914797"><ele>186.0</ele><time>2026-03-28T15:06:42.025Z</time></trkpt><trkpt lat="43.4537001" lon="11.1913417"><ele>186.0</ele><time>2026-03-28T15:06:43.02Z</time></trkpt><trkpt lat="43.4536187" lon="11.1912009"><ele>184.0</ele><time>2026-03-28T15:06:44.017Z</time></trkpt><trkpt lat="43.4535372" lon="11.191058"><ele>182.0</ele><time>2026-03-28T15:06:45.021Z</time></trkpt><trkpt lat="43.4534545" lon="11.1909098"><ele>180.0</ele><time>2026-03-28T15:06:46.012Z</time></trkpt><trkpt lat="43.4533696" lon="11.1907591"><ele>178.0</ele><time>2026-03-28T15:06:47.028Z</time></trkpt><trkpt lat="43.4532835" lon="11.1906084"><ele>177.25</ele><time>2026-03-28T15:06:48.018Z</time></trkpt><trkpt lat="43.4531981" lon="11.1904592"><ele>176.5</ele><time>2026-03-28T15:06:49.007Z</time></trkpt><trkpt lat="43.4531116" lon="11.1903104"><ele>175.75</ele><time>2026-03-28T15:06:50.021Z</time></trkpt><trkpt lat="43.4530298" lon="11.190164"><ele>175.0</ele><time>2026-03-28T15:06:51.014Z</time></trkpt><trkpt lat="43.4529501" lon="11.1900194"><ele>173.0</ele><time>2026-03-28T15:06:52.012Z</time></trkpt><trkpt lat="43.4528683" lon="11.1898741"><ele>171.0</ele><time>2026-03-28T15:06:53.005Z</time></trkpt><trkpt lat="43.4527907" lon="11.189729"><ele>169.0</ele><time>2026-03-28T15:06:54.018Z</time></trkpt><trkpt lat="43.4527122" lon="11.1895883"><ele>167.0</ele><time>2026-03-28T15:06:55.008Z</time></trkpt><trkpt lat="43.4526352" lon="11.1894518"><ele>166.5</ele><time>2026-03-28T15:06:56.012Z</time></trkpt><trkpt lat="43.45256" lon="11.1893185"><ele>166.0</ele><time>2026-03-28T15:06:57.005Z</time></trkpt><trkpt lat="43.4524872" lon="11.189189"><ele>165.5</ele><time>2026-03-28T15:06:58.014Z</time></trkpt><trkpt lat="43.4524148" lon="11.1890646"><ele>165.0</ele><time>2026-03-28T15:06:59.015Z</time></trkpt><trkpt lat="43.4523487" lon="11.1889463"><ele>165.0</ele><time>2026-03-28T15:07:00.028Z</time></trkpt><trkpt lat="43.452283" lon="11.1888357"><ele>165.0</ele><time>2026-03-28T15:07:01.013Z</time></trkpt><trkpt lat="43.4522229" lon="11.1887346"><ele>165.0</ele><time>2026-03-28T15:07:02.004Z</time></trkpt><trkpt lat="43.4521647" lon="11.1886307"><ele>165.0</ele><time>2026-03-28T15:07:03.012Z</time></trkpt><trkpt lat="43.4521022" lon="11.1885244"><ele>165.0</ele><time>2026-03-28T15:07:04.011Z</time></trkpt><trkpt lat="43.4520411" lon="11.1884217"><ele>165.0</ele><time>2026-03-28T15:07:05.018Z</time></trkpt><trkpt lat="43.4519771" lon="11.1883167"><ele>165.0</ele><time>2026-03-28T15:07:06.046Z</time></trkpt><trkpt lat="43.4519167" lon="11.1882084"><ele>165.0</ele><time>2026-03-28T15:07:07.013Z</time></trkpt><trkpt lat="43.451852" lon="11.1880999"><ele>165.0</ele><time>2026-03-28T15:07:08.01Z</time></trkpt><trkpt lat="43.4517865" lon="11.1879888"><ele>165.0</ele><time>2026-03-28T15:07:09.015Z</time></trkpt><trkpt lat="43.4517181" lon="11.1878701"><ele>164.0</ele><time>2026-03-28T15:07:10.013Z</time></trkpt><trkpt lat="43.4516495" lon="11.18775"><ele>163.0</ele><time>2026-03-28T15:07:11.018Z</time></trkpt><trkpt lat="43.4515837" lon="11.1876375"><ele>162.0</ele><time>2026-03-28T15:07:12.023Z</time></trkpt><trkpt lat="43.4515224" lon="11.1875314"><ele>161.0</ele><time>2026-03-28T15:07:13.006Z</time></trkpt><trkpt lat="43.451461" lon="11.1874265"><ele>160.0</ele><time>2026-03-28T15:07:14.022Z</time></trkpt><trkpt lat="43.4514028" lon="11.1873301"><ele>159.16666666666669</ele><time>2026-03-28T15:07:15.017Z</time></trkpt><trkpt lat="43.4513457" lon="11.1872392"><ele>158.33333333333334</ele><time>2026-03-28T15:07:16.014Z</time></trkpt><trkpt lat="43.4512855" lon="11.1871472"><ele>157.5</ele><time>2026-03-28T15:07:17.007Z</time></trkpt><trkpt lat="43.4512259" lon="11.1870522"><ele>156.66666666666666</ele><time>2026-03-28T15:07:18.017Z</time></trkpt><trkpt lat="43.4511763" lon="11.186959"><ele>155.83333333333331</ele><time>2026-03-28T15:07:19.004Z</time></trkpt><trkpt lat="43.4511323" lon="11.1868706"><ele>155.0</ele><time>2026-03-28T15:07:20.017Z</time></trkpt><trkpt lat="43.4510849" lon="11.1867951"><ele>154.33333333333331</ele><time>2026-03-28T15:07:21.013Z</time></trkpt><trkpt lat="43.4510407" lon="11.1867322"><ele>153.66666666666666</ele><time>2026-03-28T15:07:22.007Z</time></trkpt><trkpt lat="43.4509659" lon="11.1866"><ele>153.0</ele><time>2026-03-28T15:07:24.022Z</time></trkpt><trkpt lat="43.4509397" lon="11.1865184"><ele>152.33333333333334</ele><time>2026-03-28T15:07:25.019Z</time></trkpt><trkpt lat="43.450923" lon="11.1864264"><ele>151.66666666666669</ele><time>2026-03-28T15:07:26.013Z</time></trkpt><trkpt lat="43.4509027" lon="11.1863246"><ele>151.0</ele><time>2026-03-28T15:07:27.046Z</time></trkpt><trkpt lat="43.4508867" lon="11.1862239"><ele>150.83333333333334</ele><time>2026-03-28T15:07:28.012Z</time></trkpt><trkpt lat="43.4508645" lon="11.1861175"><ele>150.66666666666669</ele><time>2026-03-28T15:07:29.019Z</time></trkpt><trkpt lat="43.4508431" lon="11.1860051"><ele>150.5</ele><time>2026-03-28T15:07:30.013Z</time></trkpt><trkpt lat="43.4508257" lon="11.1858861"><ele>150.33333333333334</ele><time>2026-03-28T15:07:31.023Z</time></trkpt><trkpt lat="43.4508069" lon="11.1857691"><ele>150.16666666666666</ele><time>2026-03-28T15:07:32.014Z</time></trkpt><trkpt lat="43.4507837" lon="11.1856493"><ele>150.0</ele><time>2026-03-28T15:07:33.024Z</time></trkpt><trkpt lat="43.4507662" lon="11.1855285"><ele>149.5</ele><time>2026-03-28T15:07:34.024Z</time></trkpt><trkpt lat="43.4507502" lon="11.1854136"><ele>149.0</ele><time>2026-03-28T15:07:35.01Z</time></trkpt><trkpt lat="43.4507348" lon="11.1852975"><ele>148.5</ele><time>2026-03-28T15:07:36.044Z</time></trkpt><trkpt lat="43.4507209" lon="11.1851868"><ele>148.0</ele><time>2026-03-28T15:07:37.022Z</time></trkpt><trkpt lat="43.4507085" lon="11.1850781"><ele>147.5</ele><time>2026-03-28T15:07:38.044Z</time></trkpt><trkpt lat="43.4506979" lon="11.1849693"><ele>147.0</ele><time>2026-03-28T15:07:39.027Z</time></trkpt><trkpt lat="43.4506961" lon="11.1848648"><ele>146.5</ele><time>2026-03-28T15:07:40.026Z</time></trkpt><trkpt lat="43.4506964" lon="11.1847663"><ele>146.0</ele><time>2026-03-28T15:07:41.022Z</time></trkpt><trkpt lat="43.4506984" lon="11.1846709"><ele>145.5</ele><time>2026-03-28T15:07:42.02Z</time></trkpt><trkpt lat="43.4507071" lon="11.1845781"><ele>145.0</ele><time>2026-03-28T15:07:43.008Z</time></trkpt><trkpt lat="43.4507114" lon="11.1844873"><ele>144.5</ele><time>2026-03-28T15:07:44.028Z</time></trkpt><trkpt lat="43.4507203" lon="11.1843183"><ele>144.0</ele><time>2026-03-28T15:07:46.035Z</time></trkpt><trkpt lat="43.4507358" lon="11.1841518"><ele>144.0</ele><time>2026-03-28T15:07:48.029Z</time></trkpt><trkpt lat="43.4507352" lon="11.1840625"><ele>144.0</ele><time>2026-03-28T15:07:49.031Z</time></trkpt><trkpt lat="43.4507228" lon="11.1838933"><ele>144.0</ele><time>2026-03-28T15:07:51.039Z</time></trkpt><trkpt lat="43.4507157" lon="11.183806"><ele>144.0</ele><time>2026-03-28T15:07:52.021Z</time></trkpt><trkpt lat="43.4507088" lon="11.183719"><ele>144.0</ele><time>2026-03-28T15:07:53.029Z</time></trkpt><trkpt lat="43.4506976" lon="11.1836296"><ele>144.0</ele><time>2026-03-28T15:07:54.022Z</time></trkpt><trkpt lat="43.4506814" lon="11.1835377"><ele>143.85714285714286</ele><time>2026-03-28T15:07:55.026Z</time></trkpt><trkpt lat="43.45067" lon="11.1834422"><ele>143.71428571428572</ele><time>2026-03-28T15:07:56.004Z</time></trkpt><trkpt lat="43.4506571" lon="11.1833456"><ele>143.57142857142856</ele><time>2026-03-28T15:07:57.017Z</time></trkpt><trkpt lat="43.4506404" lon="11.1832439"><ele>143.42857142857144</ele><time>2026-03-28T15:07:58.009Z</time></trkpt><trkpt lat="43.4506198" lon="11.1831454"><ele>143.28571428571428</ele><time>2026-03-28T15:07:59.02Z</time></trkpt><trkpt lat="43.4506021" lon="11.1830516"><ele>143.14285714285714</ele><time>2026-03-28T15:08:00.017Z</time></trkpt><trkpt lat="43.450587" lon="11.1829573"><ele>143.0</ele><time>2026-03-28T15:08:01.029Z</time></trkpt><trkpt lat="43.4505702" lon="11.1828598"><ele>142.7142857142857</ele><time>2026-03-28T15:08:02.018Z</time></trkpt><trkpt lat="43.4505612" lon="11.1827603"><ele>142.42857142857142</ele><time>2026-03-28T15:08:03.016Z</time></trkpt><trkpt lat="43.4505528" lon="11.182663"><ele>142.14285714285714</ele><time>2026-03-28T15:08:04.033Z</time></trkpt><trkpt lat="43.4505428" lon="11.1825709"><ele>141.85714285714283</ele><time>2026-03-28T15:08:05.015Z</time></trkpt><trkpt lat="43.450537" lon="11.1824754"><ele>141.57142857142856</ele><time>2026-03-28T15:08:06.031Z</time></trkpt><trkpt lat="43.4505304" lon="11.1823783"><ele>141.28571428571428</ele><time>2026-03-28T15:08:07.022Z</time></trkpt><trkpt lat="43.4505238" lon="11.1822816"><ele>141.0</ele><time>2026-03-28T15:08:08.018Z</time></trkpt><trkpt lat="43.4505257" lon="11.1821827"><ele>140.71428571428572</ele><time>2026-03-28T15:08:09.017Z</time></trkpt><trkpt lat="43.4505274" lon="11.1820852"><ele>140.42857142857142</ele><time>2026-03-28T15:08:10.012Z</time></trkpt><trkpt lat="43.4505274" lon="11.1819861"><ele>140.14285714285714</ele><time>2026-03-28T15:08:11.019Z</time></trkpt><trkpt lat="43.4505258" lon="11.1818882"><ele>139.85714285714286</ele><time>2026-03-28T15:08:12.021Z</time></trkpt><trkpt lat="43.4505283" lon="11.1817904"><ele>139.57142857142858</ele><time>2026-03-28T15:08:13.031Z</time></trkpt><trkpt lat="43.4505283" lon="11.181696"><ele>139.28571428571428</ele><time>2026-03-28T15:08:14.036Z</time></trkpt><trkpt lat="43.4505309" lon="11.1815993"><ele>139.0</ele><time>2026-03-28T15:08:15.012Z</time></trkpt><trkpt lat="43.4505325" lon="11.1815029"><ele>139.0</ele><time>2026-03-28T15:08:16.025Z</time></trkpt><trkpt lat="43.4505336" lon="11.1814035"><ele>139.0</ele><time>2026-03-28T15:08:17.007Z</time></trkpt><trkpt lat="43.4505346" lon="11.1813041"><ele>139.0</ele><time>2026-03-28T15:08:18.032Z</time></trkpt><trkpt lat="43.4505347" lon="11.181204"><ele>139.0</ele><time>2026-03-28T15:08:19.02Z</time></trkpt><trkpt lat="43.4505381" lon="11.1811046"><ele>139.0</ele><time>2026-03-28T15:08:20.01Z</time></trkpt><trkpt lat="43.4505458" lon="11.1810041"><ele>139.0</ele><time>2026-03-28T15:08:21.023Z</time></trkpt><trkpt lat="43.4505499" lon="11.1809016"><ele>139.0</ele><time>2026-03-28T15:08:22.022Z</time></trkpt><trkpt lat="43.4505474" lon="11.1808014"><ele>139.0</ele><time>2026-03-28T15:08:23.027Z</time></trkpt><trkpt lat="43.4505429" lon="11.1806996"><ele>139.0</ele><time>2026-03-28T15:08:24.025Z</time></trkpt><trkpt lat="43.4505447" lon="11.1805985"><ele>139.0</ele><time>2026-03-28T15:08:25.041Z</time></trkpt><trkpt lat="43.4505493" lon="11.180499"><ele>139.0</ele><time>2026-03-28T15:08:26.009Z</time></trkpt><trkpt lat="43.4505521" lon="11.1803966"><ele>139.0</ele><time>2026-03-28T15:08:27.031Z</time></trkpt><trkpt lat="43.4505518" lon="11.1802966"><ele>139.0</ele><time>2026-03-28T15:08:28.029Z</time></trkpt><trkpt lat="43.4505546" lon="11.1801967"><ele>139.0</ele><time>2026-03-28T15:08:29.017Z</time></trkpt><trkpt lat="43.4505605" lon="11.1800984"><ele>138.71428571428572</ele><time>2026-03-28T15:08:30.021Z</time></trkpt><trkpt lat="43.4505625" lon="11.1800018"><ele>138.42857142857144</ele><time>2026-03-28T15:08:31.011Z</time></trkpt><trkpt lat="43.4505671" lon="11.1798999"><ele>138.14285714285717</ele><time>2026-03-28T15:08:32.009Z</time></trkpt><trkpt lat="43.4505745" lon="11.1797986"><ele>137.85714285714286</ele><time>2026-03-28T15:08:33.017Z</time></trkpt><trkpt lat="43.4505824" lon="11.179701"><ele>137.57142857142858</ele><time>2026-03-28T15:08:34.03Z</time></trkpt><trkpt lat="43.4505961" lon="11.1796105"><ele>137.2857142857143</ele><time>2026-03-28T15:08:35.013Z</time></trkpt><trkpt lat="43.4506152" lon="11.1795187"><ele>137.0</ele><time>2026-03-28T15:08:36.033Z</time></trkpt><trkpt lat="43.4506396" lon="11.1794253"><ele>136.16666666666666</ele><time>2026-03-28T15:08:37.014Z</time></trkpt><trkpt lat="43.4506658" lon="11.1793285"><ele>135.33333333333331</ele><time>2026-03-28T15:08:38.027Z</time></trkpt><trkpt lat="43.4506875" lon="11.1792346"><ele>134.5</ele><time>2026-03-28T15:08:39.01Z</time></trkpt><trkpt lat="43.450708" lon="11.1791449"><ele>133.66666666666666</ele><time>2026-03-28T15:08:40.009Z</time></trkpt><trkpt lat="43.4507338" lon="11.1790633"><ele>132.83333333333334</ele><time>2026-03-28T15:08:41.017Z</time></trkpt><trkpt lat="43.4507899" lon="11.1789197"><ele>132.0</ele><time>2026-03-28T15:08:43.018Z</time></trkpt><trkpt lat="43.4508178" lon="11.178798"><ele>131.0</ele><time>2026-03-28T15:08:45.025Z</time></trkpt><trkpt lat="43.4507678" lon="11.178737"><ele>130.0</ele><time>2026-03-28T15:08:47.029Z</time></trkpt><trkpt lat="43.4506799" lon="11.1787806"><ele>129.0</ele><time>2026-03-28T15:08:49.021Z</time></trkpt><trkpt lat="43.4506056" lon="11.1788548"><ele>128.0</ele><time>2026-03-28T15:08:51.006Z</time></trkpt><trkpt lat="43.4505294" lon="11.1789377"><ele>127.0</ele><time>2026-03-28T15:08:53.012Z</time></trkpt><trkpt lat="43.45045" lon="11.17902"><ele>126.0</ele><time>2026-03-28T15:08:55.015Z</time></trkpt><trkpt lat="43.4503652" lon="11.179092"><ele>126.0</ele><time>2026-03-28T15:08:57.014Z</time></trkpt><trkpt lat="43.4502603" lon="11.1791757"><ele>126.0</ele><time>2026-03-28T15:08:59.034Z</time></trkpt><trkpt lat="43.4502029" lon="11.1792233"><ele>126.0</ele><time>2026-03-28T15:09:00.036Z</time></trkpt><trkpt lat="43.4501419" lon="11.179273"><ele>126.0</ele><time>2026-03-28T15:09:01.022Z</time></trkpt><trkpt lat="43.4500779" lon="11.1793206"><ele>126.0</ele><time>2026-03-28T15:09:02.017Z</time></trkpt><trkpt lat="43.4500121" lon="11.1793614"><ele>126.0</ele><time>2026-03-28T15:09:03.005Z</time></trkpt><trkpt lat="43.4499416" lon="11.179392"><ele>126.0</ele><time>2026-03-28T15:09:04.015Z</time></trkpt><trkpt lat="43.4498725" lon="11.1794154"><ele>126.0</ele><time>2026-03-28T15:09:05.01Z</time></trkpt><trkpt lat="43.4497995" lon="11.179435"><ele>126.0</ele><time>2026-03-28T15:09:06.037Z</time></trkpt><trkpt lat="43.4497269" lon="11.1794477"><ele>126.0</ele><time>2026-03-28T15:09:07.011Z</time></trkpt><trkpt lat="43.4496574" lon="11.1794577"><ele>126.0</ele><time>2026-03-28T15:09:08.023Z</time></trkpt><trkpt lat="43.4495934" lon="11.1794689"><ele>126.0</ele><time>2026-03-28T15:09:09.009Z</time></trkpt><trkpt lat="43.4495281" lon="11.179483"><ele>126.0</ele><time>2026-03-28T15:09:10.003Z</time></trkpt><trkpt lat="43.449463" lon="11.1794978"><ele>125.75</ele><time>2026-03-28T15:09:11.017Z</time></trkpt><trkpt lat="43.4493461" lon="11.17955"><ele>125.5</ele><time>2026-03-28T15:09:13.017Z</time></trkpt><trkpt lat="43.4492441" lon="11.1796236"><ele>125.25</ele><time>2026-03-28T15:09:15.008Z</time></trkpt><trkpt lat="43.4491466" lon="11.179709"><ele>125.0</ele><time>2026-03-28T15:09:17.006Z</time></trkpt><trkpt lat="43.4490543" lon="11.1797859"><ele>125.0</ele><time>2026-03-28T15:09:19.01Z</time></trkpt><trkpt lat="43.4489749" lon="11.1798595"><ele>125.0</ele><time>2026-03-28T15:09:21.019Z</time></trkpt><trkpt lat="43.4488954" lon="11.179926"><ele>125.0</ele><time>2026-03-28T15:09:23.023Z</time></trkpt><trkpt lat="43.44881" lon="11.1799848"><ele>125.0</ele><time>2026-03-28T15:09:25.019Z</time></trkpt><trkpt lat="43.4487188" lon="11.1800513"><ele>125.0</ele><time>2026-03-28T15:09:27.022Z</time></trkpt><trkpt lat="43.4486309" lon="11.180113"><ele>125.4</ele><time>2026-03-28T15:09:29.008Z</time></trkpt><trkpt lat="43.4485333" lon="11.1801766"><ele>125.8</ele><time>2026-03-28T15:09:31.015Z</time></trkpt><trkpt lat="43.4484332" lon="11.1802488"><ele>126.19999999999999</ele><time>2026-03-28T15:09:33.026Z</time></trkpt><trkpt lat="43.448343" lon="11.1803177"><ele>126.6</ele><time>2026-03-28T15:09:35.01Z</time></trkpt><trkpt lat="43.4482523" lon="11.1803846"><ele>127.0</ele><time>2026-03-28T15:09:37.014Z</time></trkpt><trkpt lat="43.4481593" lon="11.1804644"><ele>127.0</ele><time>2026-03-28T15:09:39.03Z</time></trkpt><trkpt lat="43.4480742" lon="11.1805585"><ele>126.99999999999999</ele><time>2026-03-28T15:09:41.009Z</time></trkpt><trkpt lat="43.4479891" lon="11.1806512"><ele>126.99999999999999</ele><time>2026-03-28T15:09:43.027Z</time></trkpt><trkpt lat="43.4478983" lon="11.1807448"><ele>127.0</ele><time>2026-03-28T15:09:45.009Z</time></trkpt><trkpt lat="43.4478125" lon="11.1808414"><ele>127.0</ele><time>2026-03-28T15:09:47.015Z</time></trkpt><trkpt lat="43.4477317" lon="11.1809389"><ele>126.8</ele><time>2026-03-28T15:09:49.011Z</time></trkpt><trkpt lat="43.4476506" lon="11.1810272"><ele>126.6</ele><time>2026-03-28T15:09:51.026Z</time></trkpt><trkpt lat="43.4475733" lon="11.1811122"><ele>126.39999999999999</ele><time>2026-03-28T15:09:53.006Z</time></trkpt><trkpt lat="43.4474976" lon="11.1812056"><ele>126.19999999999999</ele><time>2026-03-28T15:09:55.006Z</time></trkpt><trkpt lat="43.4474157" lon="11.1812945"><ele>126.0</ele><time>2026-03-28T15:09:57.012Z</time></trkpt><trkpt lat="43.4473431" lon="11.1813844"><ele>126.0</ele><time>2026-03-28T15:09:59.024Z</time></trkpt><trkpt lat="43.4472659" lon="11.1814635"><ele>126.0</ele><time>2026-03-28T15:10:01.016Z</time></trkpt><trkpt lat="43.4471878" lon="11.1815464"><ele>126.0</ele><time>2026-03-28T15:10:03.04Z</time></trkpt><trkpt lat="43.4471115" lon="11.1816298"><ele>126.0</ele><time>2026-03-28T15:10:05.006Z</time></trkpt><trkpt lat="43.4470309" lon="11.1817112"><ele>126.0</ele><time>2026-03-28T15:10:07.019Z</time></trkpt><trkpt lat="43.4469561" lon="11.1817976"><ele>126.33333333333333</ele><time>2026-03-28T15:10:09.006Z</time></trkpt><trkpt lat="43.4468871" lon="11.1818805"><ele>126.66666666666666</ele><time>2026-03-28T15:10:11.007Z</time></trkpt><trkpt lat="43.4468197" lon="11.1819533"><ele>127.0</ele><time>2026-03-28T15:10:13.007Z</time></trkpt><trkpt lat="43.4467528" lon="11.1820217"><ele>127.33333333333333</ele><time>2026-03-28T15:10:15.018Z</time></trkpt><trkpt lat="43.4466862" lon="11.1820868"><ele>127.66666666666666</ele><time>2026-03-28T15:10:17.019Z</time></trkpt><trkpt lat="43.4466286" lon="11.1821457"><ele>128.0</ele><time>2026-03-28T15:10:19.019Z</time></trkpt><trkpt lat="43.4465749" lon="11.1822042"><ele>127.99999999999999</ele><time>2026-03-28T15:10:21.009Z</time></trkpt><trkpt lat="43.4465193" lon="11.1822576"><ele>128.0</ele><time>2026-03-28T15:10:23.038Z</time></trkpt><trkpt lat="43.4464694" lon="11.1823314"><ele>128.0</ele><time>2026-03-28T15:10:27.004Z</time></trkpt><trkpt lat="43.4464183" lon="11.1824321"><ele>128.0</ele><time>2026-03-28T15:10:30.014Z</time></trkpt><trkpt lat="43.4463659" lon="11.1825203"><ele>127.99999999999999</ele><time>2026-03-28T15:10:33.026Z</time></trkpt><trkpt lat="43.4462916" lon="11.1825701"><ele>128.0</ele><time>2026-03-28T15:10:36.006Z</time></trkpt><trkpt lat="43.4461976" lon="11.1825708"><ele>128.6</ele><time>2026-03-28T15:10:38.022Z</time></trkpt><trkpt lat="43.4460971" lon="11.1825127"><ele>129.20000000000002</ele><time>2026-03-28T15:10:40.017Z</time></trkpt><trkpt lat="43.4459994" lon="11.1824289"><ele>129.8</ele><time>2026-03-28T15:10:42.026Z</time></trkpt><trkpt lat="43.4459048" lon="11.1823393"><ele>130.4</ele><time>2026-03-28T15:10:44.009Z</time></trkpt><trkpt lat="43.4458215" lon="11.1822523"><ele>131.0</ele><time>2026-03-28T15:10:46.016Z</time></trkpt><trkpt lat="43.4457457" lon="11.1821708"><ele>131.0</ele><time>2026-03-28T15:10:48.014Z</time></trkpt><trkpt lat="43.445659" lon="11.1821131"><ele>131.0</ele><time>2026-03-28T15:10:50.019Z</time></trkpt><trkpt lat="43.4455708" lon="11.1820987"><ele>131.0</ele><time>2026-03-28T15:10:52.014Z</time></trkpt><trkpt lat="43.4454865" lon="11.1821354"><ele>131.0</ele><time>2026-03-28T15:10:54.005Z</time></trkpt><trkpt lat="43.4454145" lon="11.182206"><ele>131.0</ele><time>2026-03-28T15:10:56.036Z</time></trkpt><trkpt lat="43.4453491" lon="11.1822885"><ele>132.33333333333331</ele><time>2026-03-28T15:10:58.008Z</time></trkpt><trkpt lat="43.4452871" lon="11.1823801"><ele>133.66666666666666</ele><time>2026-03-28T15:11:00.006Z</time></trkpt><trkpt lat="43.4452256" lon="11.1824648"><ele>135.0</ele><time>2026-03-28T15:11:02.012Z</time></trkpt><trkpt lat="43.4451649" lon="11.1825459"><ele>136.33333333333334</ele><time>2026-03-28T15:11:04.031Z</time></trkpt><trkpt lat="43.4451048" lon="11.1826181"><ele>137.66666666666669</ele><time>2026-03-28T15:11:06.015Z</time></trkpt><trkpt lat="43.4450509" lon="11.1826861"><ele>139.0</ele><time>2026-03-28T15:11:08.025Z</time></trkpt><trkpt lat="43.44498" lon="11.1827669"><ele>139.0</ele><time>2026-03-28T15:11:11.023Z</time></trkpt><trkpt lat="43.4449141" lon="11.1828303"><ele>139.0</ele><time>2026-03-28T15:11:14.025Z</time></trkpt><trkpt lat="43.44485" lon="11.1828726"><ele>139.0</ele><time>2026-03-28T15:11:17.006Z</time></trkpt><trkpt lat="43.4447864" lon="11.1828862"><ele>139.0</ele><time>2026-03-28T15:11:20.016Z</time></trkpt><trkpt lat="43.4447159" lon="11.1828631"><ele>139.0</ele><time>2026-03-28T15:11:24.011Z</time></trkpt><trkpt lat="43.4446516" lon="11.1828171"><ele>139.0</ele><time>2026-03-28T15:11:28.022Z</time></trkpt><trkpt lat="43.4445861" lon="11.1827695"><ele>139.0</ele><time>2026-03-28T15:11:33.016Z</time></trkpt><trkpt lat="43.4445263" lon="11.1827056"><ele>140.71428571428572</ele><time>2026-03-28T15:11:38.019Z</time></trkpt><trkpt lat="43.4444892" lon="11.1826287"><ele>142.42857142857144</ele><time>2026-03-28T15:11:42.009Z</time></trkpt><trkpt lat="43.4444539" lon="11.1825466"><ele>144.14285714285717</ele><time>2026-03-28T15:11:46.016Z</time></trkpt><trkpt lat="43.4444417" lon="11.1824528"><ele>145.85714285714286</ele><time>2026-03-28T15:11:50.028Z</time></trkpt><trkpt lat="43.4444335" lon="11.1823624"><ele>147.57142857142858</ele><time>2026-03-28T15:11:55.019Z</time></trkpt><trkpt lat="43.4444039" lon="11.1822696"><ele>149.2857142857143</ele><time>2026-03-28T15:12:01.009Z</time></trkpt><trkpt lat="43.4443649" lon="11.182193"><ele>151.0</ele><time>2026-03-28T15:12:06.029Z</time></trkpt><trkpt lat="43.4443173" lon="11.1821136"><ele>151.42857142857144</ele><time>2026-03-28T15:12:12.014Z</time></trkpt><trkpt lat="43.4442634" lon="11.1820567"><ele>151.85714285714286</ele><time>2026-03-28T15:12:19.017Z</time></trkpt><trkpt lat="43.4441969" lon="11.182004"><ele>152.28571428571428</ele><time>2026-03-28T15:12:25.034Z</time></trkpt><trkpt lat="43.4441473" lon="11.1819383"><ele>152.71428571428572</ele><time>2026-03-28T15:12:31.013Z</time></trkpt><trkpt lat="43.4440986" lon="11.1818677"><ele>153.14285714285714</ele><time>2026-03-28T15:13:00.009Z</time></trkpt><trkpt lat="43.4440528" lon="11.1817955"><ele>153.57142857142858</ele><time>2026-03-28T15:13:08.019Z</time></trkpt><trkpt lat="43.4440373" lon="11.1817094"><ele>154.0</ele><time>2026-03-28T15:13:20.027Z</time></trkpt><trkpt lat="43.4440242" lon="11.1816213"><ele>154.0</ele><time>2026-03-28T15:13:24.025Z</time></trkpt><trkpt lat="43.444013" lon="11.181532"><ele>154.0</ele><time>2026-03-28T15:13:29.015Z</time></trkpt><trkpt lat="43.4439931" lon="11.1814327"><ele>154.0</ele><time>2026-03-28T15:13:36.003Z</time></trkpt><trkpt lat="43.4439806" lon="11.1813317"><ele>154.0</ele><time>2026-03-28T15:13:41.006Z</time></trkpt><trkpt lat="43.443979" lon="11.1812274"><ele>154.0</ele><time>2026-03-28T15:13:47.027Z</time></trkpt><trkpt lat="43.4439698" lon="11.1811398"><ele>154.0</ele><time>2026-03-28T15:13:52.012Z</time></trkpt><trkpt lat="43.4439505" lon="11.1810403"><ele>154.0</ele><time>2026-03-28T15:13:58.01Z</time></trkpt><trkpt lat="43.4439138" lon="11.1809505"><ele>154.57142857142858</ele><time>2026-03-28T15:14:04.004Z</time></trkpt><trkpt lat="43.4438863" lon="11.180858"><ele>155.14285714285714</ele><time>2026-03-28T15:14:10.01Z</time></trkpt><trkpt lat="43.4438528" lon="11.1807678"><ele>155.71428571428572</ele><time>2026-03-28T15:14:17.021Z</time></trkpt><trkpt lat="43.4438233" lon="11.1806912"><ele>156.28571428571428</ele><time>2026-03-28T15:14:24.032Z</time></trkpt><trkpt lat="43.4437849" lon="11.1806006"><ele>156.85714285714286</ele><time>2026-03-28T15:14:31.013Z</time></trkpt><trkpt lat="43.4437472" lon="11.1805219"><ele>157.42857142857144</ele><time>2026-03-28T15:14:38.006Z</time></trkpt><trkpt lat="43.4437188" lon="11.1804323"><ele>158.0</ele><time>2026-03-28T15:14:45.018Z</time></trkpt><trkpt lat="43.4436832" lon="11.1803566"><ele>160.33333333333331</ele><time>2026-03-28T15:14:50.014Z</time></trkpt><trkpt lat="43.4436508" lon="11.1802644"><ele>162.66666666666666</ele><time>2026-03-28T15:14:57.016Z</time></trkpt><trkpt lat="43.4436121" lon="11.1801772"><ele>165.0</ele><time>2026-03-28T15:15:03.017Z</time></trkpt><trkpt lat="43.4435771" lon="11.1800971"><ele>167.33333333333334</ele><time>2026-03-28T15:15:09.014Z</time></trkpt><trkpt lat="43.4435454" lon="11.1800164"><ele>169.66666666666669</ele><time>2026-03-28T15:15:14.007Z</time></trkpt><trkpt lat="43.4435015" lon="11.1798938"><ele>172.0</ele><time>2026-03-28T15:15:22.013Z</time></trkpt><trkpt lat="43.4434705" lon="11.1798074"><ele>173.00000000000003</ele><time>2026-03-28T15:15:28.015Z</time></trkpt><trkpt lat="43.443444" lon="11.1797277"><ele>174.0</ele><time>2026-03-28T15:15:34.015Z</time></trkpt><trkpt lat="43.4434254" lon="11.1796322"><ele>175.0</ele><time>2026-03-28T15:15:43.008Z</time></trkpt><trkpt lat="43.4434253" lon="11.1795282"><ele>176.0</ele><time>2026-03-28T15:15:50.006Z</time></trkpt><trkpt lat="43.4434086" lon="11.1794126"><ele>177.0</ele><time>2026-03-28T15:15:57.003Z</time></trkpt><trkpt lat="43.4433997" lon="11.1793125"><ele>178.00000000000003</ele><time>2026-03-28T15:16:02.007Z</time></trkpt><trkpt lat="43.4433775" lon="11.1792148"><ele>179.0</ele><time>2026-03-28T15:16:08.017Z</time></trkpt><trkpt lat="43.4433432" lon="11.1791413"><ele>179.00000000000003</ele><time>2026-03-28T15:16:13.02Z</time></trkpt><trkpt lat="43.443291" lon="11.1790857"><ele>179.0</ele><time>2026-03-28T15:16:18.007Z</time></trkpt><trkpt lat="43.4432248" lon="11.1790577"><ele>179.0</ele><time>2026-03-28T15:16:23.002Z</time></trkpt><trkpt lat="43.4431584" lon="11.1790458"><ele>179.0</ele><time>2026-03-28T15:16:28.003Z</time></trkpt><trkpt lat="43.4430965" lon="11.1790801"><ele>179.0</ele><time>2026-03-28T15:16:34.005Z</time></trkpt><trkpt lat="43.443036" lon="11.1791331"><ele>179.00000000000003</ele><time>2026-03-28T15:16:40.015Z</time></trkpt><trkpt lat="43.4429731" lon="11.1791761"><ele>179.0</ele><time>2026-03-28T15:16:47.009Z</time></trkpt><trkpt lat="43.4429261" lon="11.1792532"><ele>178.83333333333331</ele><time>2026-03-28T15:16:52.006Z</time></trkpt><trkpt lat="43.4428821" lon="11.1793398"><ele>178.66666666666666</ele><time>2026-03-28T15:16:56.008Z</time></trkpt><trkpt lat="43.4428508" lon="11.1794366"><ele>178.5</ele><time>2026-03-28T15:16:59.023Z</time></trkpt><trkpt lat="43.4428164" lon="11.1795146"><ele>178.33333333333334</ele><time>2026-03-28T15:17:01.015Z</time></trkpt><trkpt lat="43.4427711" lon="11.1796"><ele>178.16666666666669</ele><time>2026-03-28T15:17:03.008Z</time></trkpt><trkpt lat="43.4427113" lon="11.1796962"><ele>178.0</ele><time>2026-03-28T15:17:05.024Z</time></trkpt><trkpt lat="43.4426447" lon="11.1797895"><ele>178.0</ele><time>2026-03-28T15:17:07.016Z</time></trkpt><trkpt lat="43.4425633" lon="11.1798802"><ele>178.0</ele><time>2026-03-28T15:17:09.026Z</time></trkpt><trkpt lat="43.4424656" lon="11.1799812"><ele>178.0</ele><time>2026-03-28T15:17:11.012Z</time></trkpt><trkpt lat="43.4424169" lon="11.1800363"><ele>178.0</ele><time>2026-03-28T15:17:12.012Z</time></trkpt><trkpt lat="43.4423261" lon="11.1801512"><ele>178.0</ele><time>2026-03-28T15:17:14.015Z</time></trkpt><trkpt lat="43.4422395" lon="11.1802576"><ele>178.0</ele><time>2026-03-28T15:17:16.025Z</time></trkpt><trkpt lat="43.4421565" lon="11.1803638"><ele>178.0</ele><time>2026-03-28T15:17:18.008Z</time></trkpt><trkpt lat="43.4420829" lon="11.1804539"><ele>178.0</ele><time>2026-03-28T15:17:20.021Z</time></trkpt><trkpt lat="43.4420133" lon="11.1805388"><ele>178.0</ele><time>2026-03-28T15:17:22.014Z</time></trkpt><trkpt lat="43.4419432" lon="11.1806195"><ele>178.0</ele><time>2026-03-28T15:17:24.014Z</time></trkpt><trkpt lat="43.4418871" lon="11.1807046"><ele>178.16666666666669</ele><time>2026-03-28T15:17:26.016Z</time></trkpt><trkpt lat="43.4418318" lon="11.180784"><ele>178.33333333333334</ele><time>2026-03-28T15:17:28.008Z</time></trkpt><trkpt lat="43.4417739" lon="11.1808554"><ele>178.5</ele><time>2026-03-28T15:17:30.021Z</time></trkpt><trkpt lat="43.4417091" lon="11.1808967"><ele>178.66666666666666</ele><time>2026-03-28T15:17:32.015Z</time></trkpt><trkpt lat="43.441641" lon="11.1809525"><ele>178.83333333333331</ele><time>2026-03-28T15:17:34.004Z</time></trkpt><trkpt lat="43.4415799" lon="11.1810186"><ele>179.0</ele><time>2026-03-28T15:17:36.008Z</time></trkpt><trkpt lat="43.4415271" lon="11.1810858"><ele>179.00000000000003</ele><time>2026-03-28T15:17:38.019Z</time></trkpt><trkpt lat="43.4414706" lon="11.1811516"><ele>179.0</ele><time>2026-03-28T15:17:40.011Z</time></trkpt><trkpt lat="43.441416" lon="11.1812158"><ele>179.0</ele><time>2026-03-28T15:17:42.006Z</time></trkpt><trkpt lat="43.4413631" lon="11.1812912"><ele>179.0</ele><time>2026-03-28T15:17:44.009Z</time></trkpt><trkpt lat="43.4413166" lon="11.1813702"><ele>179.0</ele><time>2026-03-28T15:17:46.008Z</time></trkpt><trkpt lat="43.4412644" lon="11.1814519"><ele>179.00000000000003</ele><time>2026-03-28T15:17:48.016Z</time></trkpt><trkpt lat="43.4412183" lon="11.1815302"><ele>179.0</ele><time>2026-03-28T15:17:50.01Z</time></trkpt><trkpt lat="43.4411673" lon="11.1816045"><ele>178.66666666666666</ele><time>2026-03-28T15:17:52.002Z</time></trkpt><trkpt lat="43.4411135" lon="11.1816757"><ele>178.33333333333331</ele><time>2026-03-28T15:17:54.004Z</time></trkpt><trkpt lat="43.4410646" lon="11.181747"><ele>178.0</ele><time>2026-03-28T15:17:56.021Z</time></trkpt><trkpt lat="43.441018" lon="11.1818407"><ele>177.66666666666666</ele><time>2026-03-28T15:17:58.014Z</time></trkpt><trkpt lat="43.4409684" lon="11.1819325"><ele>177.33333333333334</ele><time>2026-03-28T15:18:00.029Z</time></trkpt><trkpt lat="43.4409153" lon="11.1820324"><ele>177.0</ele><time>2026-03-28T15:18:02.015Z</time></trkpt><trkpt lat="43.4408591" lon="11.1821406"><ele>177.0</ele><time>2026-03-28T15:18:04.016Z</time></trkpt><trkpt lat="43.4408015" lon="11.1822478"><ele>177.0</ele><time>2026-03-28T15:18:06.014Z</time></trkpt><trkpt lat="43.4407445" lon="11.1823556"><ele>177.0</ele><time>2026-03-28T15:18:08.016Z</time></trkpt><trkpt lat="43.4406872" lon="11.1824598"><ele>177.0</ele><time>2026-03-28T15:18:10.007Z</time></trkpt><trkpt lat="43.4406288" lon="11.1825616"><ele>177.0</ele><time>2026-03-28T15:18:12.029Z</time></trkpt><trkpt lat="43.4405681" lon="11.1826697"><ele>177.0</ele><time>2026-03-28T15:18:14.004Z</time></trkpt><trkpt lat="43.4405084" lon="11.1827753"><ele>177.0</ele><time>2026-03-28T15:18:16.005Z</time></trkpt><trkpt lat="43.4404462" lon="11.182883"><ele>177.0</ele><time>2026-03-28T15:18:18.01Z</time></trkpt><trkpt lat="43.4403832" lon="11.1829967"><ele>177.0</ele><time>2026-03-28T15:18:20.023Z</time></trkpt><trkpt lat="43.4403151" lon="11.1831062"><ele>177.0</ele><time>2026-03-28T15:18:22.038Z</time></trkpt><trkpt lat="43.4402536" lon="11.1832082"><ele>177.83333333333334</ele><time>2026-03-28T15:18:24.014Z</time></trkpt><trkpt lat="43.440199" lon="11.1833167"><ele>178.66666666666666</ele><time>2026-03-28T15:18:26.005Z</time></trkpt><trkpt lat="43.4401435" lon="11.1834262"><ele>179.5</ele><time>2026-03-28T15:18:28.011Z</time></trkpt><trkpt lat="43.4400882" lon="11.1835271"><ele>180.33333333333331</ele><time>2026-03-28T15:18:30.011Z</time></trkpt><trkpt lat="43.4400387" lon="11.1836195"><ele>181.16666666666666</ele><time>2026-03-28T15:18:32.004Z</time></trkpt><trkpt lat="43.439993" lon="11.1837054"><ele>182.0</ele><time>2026-03-28T15:18:34.018Z</time></trkpt><trkpt lat="43.4399509" lon="11.1837824"><ele>182.0</ele><time>2026-03-28T15:18:36.021Z</time></trkpt><trkpt lat="43.4399129" lon="11.1838525"><ele>182.0</ele><time>2026-03-28T15:18:38.006Z</time></trkpt><trkpt lat="43.4398747" lon="11.1839246"><ele>182.0</ele><time>2026-03-28T15:18:40.009Z</time></trkpt><trkpt lat="43.4398198" lon="11.1840251"><ele>182.0</ele><time>2026-03-28T15:18:43.006Z</time></trkpt><trkpt lat="43.4397603" lon="11.1841228"><ele>182.0</ele><time>2026-03-28T15:18:46.024Z</time></trkpt><trkpt lat="43.4397043" lon="11.1842245"><ele>182.0</ele><time>2026-03-28T15:18:49.009Z</time></trkpt><trkpt lat="43.4396639" lon="11.1842942"><ele>182.14285714285714</ele><time>2026-03-28T15:18:51.013Z</time></trkpt><trkpt lat="43.4396258" lon="11.1843661"><ele>182.28571428571428</ele><time>2026-03-28T15:18:53.009Z</time></trkpt><trkpt lat="43.4395863" lon="11.1844366"><ele>182.42857142857144</ele><time>2026-03-28T15:18:55.012Z</time></trkpt><trkpt lat="43.4395448" lon="11.1845069"><ele>182.57142857142856</ele><time>2026-03-28T15:18:57.008Z</time></trkpt><trkpt lat="43.4395053" lon="11.1845786"><ele>182.71428571428572</ele><time>2026-03-28T15:18:59.014Z</time></trkpt><trkpt lat="43.4394466" lon="11.1846739"><ele>182.85714285714286</ele><time>2026-03-28T15:19:02.017Z</time></trkpt><trkpt lat="43.4393885" lon="11.1847738"><ele>183.0</ele><time>2026-03-28T15:19:05.015Z</time></trkpt><trkpt lat="43.439348" lon="11.1848405"><ele>184.66666666666666</ele><time>2026-03-28T15:19:07.01Z</time></trkpt><trkpt lat="43.4392864" lon="11.184939"><ele>186.33333333333331</ele><time>2026-03-28T15:19:10.005Z</time></trkpt><trkpt lat="43.4392428" lon="11.185006"><ele>188.0</ele><time>2026-03-28T15:19:12.012Z</time></trkpt><trkpt lat="43.4391794" lon="11.185099"><ele>189.66666666666666</ele><time>2026-03-28T15:19:15.033Z</time></trkpt><trkpt lat="43.4391313" lon="11.1851609"><ele>191.33333333333331</ele><time>2026-03-28T15:19:17.002Z</time></trkpt><trkpt lat="43.4390658" lon="11.1852483"><ele>193.0</ele><time>2026-03-28T15:19:20.015Z</time></trkpt><trkpt lat="43.4390053" lon="11.1853106"><ele>192.99999999999997</ele><time>2026-03-28T15:19:23.004Z</time></trkpt><trkpt lat="43.438949" lon="11.1853688"><ele>193.0</ele><time>2026-03-28T15:19:26.01Z</time></trkpt><trkpt lat="43.4388894" lon="11.185412"><ele>193.0</ele><time>2026-03-28T15:19:29.005Z</time></trkpt><trkpt lat="43.4388284" lon="11.185494"><ele>193.0</ele><time>2026-03-28T15:19:32.009Z</time></trkpt><trkpt lat="43.4387655" lon="11.1855634"><ele>192.99999999999997</ele><time>2026-03-28T15:19:35.008Z</time></trkpt><trkpt lat="43.438693" lon="11.185609"><ele>193.0</ele><time>2026-03-28T15:19:39.018Z</time></trkpt><trkpt lat="43.4386089" lon="11.1856096"><ele>192.66666666666666</ele><time>2026-03-28T15:19:42.014Z</time></trkpt><trkpt lat="43.4385344" lon="11.185596"><ele>192.33333333333331</ele><time>2026-03-28T15:19:44.018Z</time></trkpt><trkpt lat="43.4384622" lon="11.185593"><ele>192.0</ele><time>2026-03-28T15:19:46.005Z</time></trkpt><trkpt lat="43.4383714" lon="11.1856003"><ele>191.66666666666666</ele><time>2026-03-28T15:19:48.016Z</time></trkpt><trkpt lat="43.4382766" lon="11.1856213"><ele>191.33333333333331</ele><time>2026-03-28T15:19:50.008Z</time></trkpt><trkpt lat="43.4381866" lon="11.1856382"><ele>191.0</ele><time>2026-03-28T15:19:52.02Z</time></trkpt><trkpt lat="43.4380984" lon="11.1856539"><ele>191.0</ele><time>2026-03-28T15:19:54.016Z</time></trkpt><trkpt lat="43.438015" lon="11.1856659"><ele>191.0</ele><time>2026-03-28T15:19:56.028Z</time></trkpt><trkpt lat="43.4379323" lon="11.1856802"><ele>191.0</ele><time>2026-03-28T15:19:58.01Z</time></trkpt><trkpt lat="43.4378481" lon="11.1856904"><ele>191.0</ele><time>2026-03-28T15:20:00.005Z</time></trkpt><trkpt lat="43.4377676" lon="11.1857068"><ele>191.0</ele><time>2026-03-28T15:20:01.999Z</time></trkpt><trkpt lat="43.4376813" lon="11.1857177"><ele>191.0</ele><time>2026-03-28T15:20:04.01Z</time></trkpt><trkpt lat="43.4375765" lon="11.1857124"><ele>190.33333333333331</ele><time>2026-03-28T15:20:06.032Z</time></trkpt><trkpt lat="43.4374581" lon="11.1856938"><ele>189.66666666666666</ele><time>2026-03-28T15:20:08.01Z</time></trkpt><trkpt lat="43.4373937" lon="11.1856706"><ele>189.0</ele><time>2026-03-28T15:20:09.015Z</time></trkpt><trkpt lat="43.4373262" lon="11.1856396"><ele>188.33333333333334</ele><time>2026-03-28T15:20:10.016Z</time></trkpt><trkpt lat="43.437254" lon="11.1856069"><ele>187.66666666666669</ele><time>2026-03-28T15:20:11.014Z</time></trkpt><trkpt lat="43.4371772" lon="11.1855727"><ele>187.0</ele><time>2026-03-28T15:20:12.018Z</time></trkpt><trkpt lat="43.4370968" lon="11.1855348"><ele>186.6</ele><time>2026-03-28T15:20:13Z</time></trkpt><trkpt lat="43.437013" lon="11.1854881"><ele>186.2</ele><time>2026-03-28T15:20:14.012Z</time></trkpt><trkpt lat="43.4369256" lon="11.1854388"><ele>185.8</ele><time>2026-03-28T15:20:15.003Z</time></trkpt><trkpt lat="43.4368317" lon="11.1853848"><ele>185.4</ele><time>2026-03-28T15:20:16.01Z</time></trkpt><trkpt lat="43.4367391" lon="11.1853343"><ele>185.0</ele><time>2026-03-28T15:20:17.027Z</time></trkpt><trkpt lat="43.4366498" lon="11.1852957"><ele>185.0</ele><time>2026-03-28T15:20:18.002Z</time></trkpt><trkpt lat="43.4365622" lon="11.185256"><ele>185.0</ele><time>2026-03-28T15:20:19.009Z</time></trkpt><trkpt lat="43.4364758" lon="11.1852202"><ele>185.0</ele><time>2026-03-28T15:20:20.022Z</time></trkpt><trkpt lat="43.4363873" lon="11.1851926"><ele>185.0</ele><time>2026-03-28T15:20:21.009Z</time></trkpt><trkpt lat="43.4362984" lon="11.1851699"><ele>185.0</ele><time>2026-03-28T15:20:22.001Z</time></trkpt><trkpt lat="43.4362067" lon="11.1851495"><ele>184.6</ele><time>2026-03-28T15:20:22.999Z</time></trkpt><trkpt lat="43.436113" lon="11.185133"><ele>184.2</ele><time>2026-03-28T15:20:24.009Z</time></trkpt><trkpt lat="43.4360196" lon="11.1851139"><ele>183.8</ele><time>2026-03-28T15:20:25.019Z</time></trkpt><trkpt lat="43.435925" lon="11.1850987"><ele>183.4</ele><time>2026-03-28T15:20:26.014Z</time></trkpt><trkpt lat="43.4358301" lon="11.1850858"><ele>183.0</ele><time>2026-03-28T15:20:27.021Z</time></trkpt><trkpt lat="43.4357344" lon="11.1850734"><ele>183.0</ele><time>2026-03-28T15:20:28.016Z</time></trkpt><trkpt lat="43.4356402" lon="11.1850636"><ele>183.0</ele><time>2026-03-28T15:20:29.018Z</time></trkpt><trkpt lat="43.4355502" lon="11.18505"><ele>183.0</ele><time>2026-03-28T15:20:30.006Z</time></trkpt><trkpt lat="43.4354583" lon="11.1850338"><ele>183.0</ele><time>2026-03-28T15:20:31.01Z</time></trkpt><trkpt lat="43.4353692" lon="11.1850109"><ele>183.0</ele><time>2026-03-28T15:20:32.018Z</time></trkpt><trkpt lat="43.4352787" lon="11.184989"><ele>182.8</ele><time>2026-03-28T15:20:33.007Z</time></trkpt><trkpt lat="43.4351852" lon="11.1849668"><ele>182.60000000000002</ele><time>2026-03-28T15:20:34.01Z</time></trkpt><trkpt lat="43.43509" lon="11.1849461"><ele>182.39999999999998</ele><time>2026-03-28T15:20:35.019Z</time></trkpt><trkpt lat="43.4349852" lon="11.184931"><ele>182.2</ele><time>2026-03-28T15:20:36.019Z</time></trkpt><trkpt lat="43.434876" lon="11.1849128"><ele>182.0</ele><time>2026-03-28T15:20:37.008Z</time></trkpt><trkpt lat="43.4347578" lon="11.1848862"><ele>180.75</ele><time>2026-03-28T15:20:38.009Z</time></trkpt><trkpt lat="43.4346368" lon="11.1848494"><ele>179.5</ele><time>2026-03-28T15:20:39.029Z</time></trkpt><trkpt lat="43.4345175" lon="11.1848039"><ele>178.25</ele><time>2026-03-28T15:20:40.021Z</time></trkpt><trkpt lat="43.4343969" lon="11.1847517"><ele>177.0</ele><time>2026-03-28T15:20:41.027Z</time></trkpt><trkpt lat="43.4342769" lon="11.1846953"><ele>175.0</ele><time>2026-03-28T15:20:42.01Z</time></trkpt><trkpt lat="43.434153" lon="11.1846452"><ele>173.0</ele><time>2026-03-28T15:20:43.024Z</time></trkpt><trkpt lat="43.4340298" lon="11.1845983"><ele>171.0</ele><time>2026-03-28T15:20:44.008Z</time></trkpt><trkpt lat="43.4339067" lon="11.1845478"><ele>169.0</ele><time>2026-03-28T15:20:45.007Z</time></trkpt><trkpt lat="43.4337847" lon="11.1844912"><ele>168.5</ele><time>2026-03-28T15:20:46.027Z</time></trkpt><trkpt lat="43.4336645" lon="11.1844368"><ele>168.0</ele><time>2026-03-28T15:20:47.023Z</time></trkpt><trkpt lat="43.4335405" lon="11.1843861"><ele>167.5</ele><time>2026-03-28T15:20:48.017Z</time></trkpt><trkpt lat="43.4334191" lon="11.1843375"><ele>167.0</ele><time>2026-03-28T15:20:49.016Z</time></trkpt><trkpt lat="43.4333031" lon="11.1842903"><ele>167.0</ele><time>2026-03-28T15:20:50.011Z</time></trkpt><trkpt lat="43.4331876" lon="11.1842423"><ele>167.0</ele><time>2026-03-28T15:20:51.008Z</time></trkpt><trkpt lat="43.4330729" lon="11.1841964"><ele>167.0</ele><time>2026-03-28T15:20:52.015Z</time></trkpt><trkpt lat="43.4329631" lon="11.18415"><ele>167.0</ele><time>2026-03-28T15:20:53.013Z</time></trkpt><trkpt lat="43.4328542" lon="11.1841028"><ele>167.39999999999998</ele><time>2026-03-28T15:20:54.013Z</time></trkpt><trkpt lat="43.4327465" lon="11.1840556"><ele>167.79999999999998</ele><time>2026-03-28T15:20:55.011Z</time></trkpt><trkpt lat="43.4326442" lon="11.1840119"><ele>168.2</ele><time>2026-03-28T15:20:56.01Z</time></trkpt><trkpt lat="43.4325488" lon="11.1839752"><ele>168.6</ele><time>2026-03-28T15:20:57.03Z</time></trkpt><trkpt lat="43.4324572" lon="11.1839381"><ele>169.0</ele><time>2026-03-28T15:20:58.018Z</time></trkpt><trkpt lat="43.4323606" lon="11.1839022"><ele>167.0</ele><time>2026-03-28T15:20:59.013Z</time></trkpt><trkpt lat="43.4322616" lon="11.1838745"><ele>165.0</ele><time>2026-03-28T15:21:00.018Z</time></trkpt><trkpt lat="43.4321652" lon="11.1838555"><ele>163.0</ele><time>2026-03-28T15:21:01.014Z</time></trkpt><trkpt lat="43.4320724" lon="11.1838346"><ele>161.0</ele><time>2026-03-28T15:21:02.017Z</time></trkpt><trkpt lat="43.4319826" lon="11.1838127"><ele>159.0</ele><time>2026-03-28T15:21:03.017Z</time></trkpt><trkpt lat="43.431888" lon="11.1837934"><ele>158.0</ele><time>2026-03-28T15:21:04.008Z</time></trkpt><trkpt lat="43.4317898" lon="11.1837786"><ele>157.0</ele><time>2026-03-28T15:21:05.001Z</time></trkpt><trkpt lat="43.4316943" lon="11.1837653"><ele>156.0</ele><time>2026-03-28T15:21:06.01Z</time></trkpt><trkpt lat="43.4315999" lon="11.1837552"><ele>155.0</ele><time>2026-03-28T15:21:07.013Z</time></trkpt><trkpt lat="43.4315051" lon="11.1837356"><ele>154.0</ele><time>2026-03-28T15:21:08.01Z</time></trkpt><trkpt lat="43.4314102" lon="11.1836942"><ele>154.0</ele><time>2026-03-28T15:21:09.028Z</time></trkpt><trkpt lat="43.4313229" lon="11.1836302"><ele>154.0</ele><time>2026-03-28T15:21:10Z</time></trkpt><trkpt lat="43.431246" lon="11.1835299"><ele>154.0</ele><time>2026-03-28T15:21:11.017Z</time></trkpt><trkpt lat="43.4311922" lon="11.1834104"><ele>154.0</ele><time>2026-03-28T15:21:12.01Z</time></trkpt><trkpt lat="43.4311572" lon="11.1832904"><ele>154.0</ele><time>2026-03-28T15:21:13.02Z</time></trkpt><trkpt lat="43.431135" lon="11.1831764"><ele>156.5</ele><time>2026-03-28T15:21:14.002Z</time></trkpt><trkpt lat="43.431121" lon="11.1830689"><ele>159.0</ele><time>2026-03-28T15:21:15.017Z</time></trkpt><trkpt lat="43.4311097" lon="11.1829781"><ele>161.5</ele><time>2026-03-28T15:21:16.019Z</time></trkpt><trkpt lat="43.4310881" lon="11.1828337"><ele>164.0</ele><time>2026-03-28T15:21:18.022Z</time></trkpt><trkpt lat="43.4310609" lon="11.1827239"><ele>166.5</ele><time>2026-03-28T15:21:20.006Z</time></trkpt><trkpt lat="43.431041" lon="11.1826269"><ele>169.0</ele><time>2026-03-28T15:21:22.02Z</time></trkpt><trkpt lat="43.4310268" lon="11.1825364"><ele>169.0</ele><time>2026-03-28T15:21:24.014Z</time></trkpt><trkpt lat="43.4310135" lon="11.1824177"><ele>169.0</ele><time>2026-03-28T15:21:27.012Z</time></trkpt><trkpt lat="43.4310108" lon="11.1823112"><ele>169.0</ele><time>2026-03-28T15:21:30.005Z</time></trkpt><trkpt lat="43.4309985" lon="11.1821968"><ele>169.0</ele><time>2026-03-28T15:21:33.011Z</time></trkpt><trkpt lat="43.4309792" lon="11.1820914"><ele>169.0</ele><time>2026-03-28T15:21:36.026Z</time></trkpt><trkpt lat="43.4309615" lon="11.1819784"><ele>169.0</ele><time>2026-03-28T15:21:39.017Z</time></trkpt><trkpt lat="43.430927" lon="11.1818668"><ele>168.83333333333334</ele><time>2026-03-28T15:21:42.006Z</time></trkpt><trkpt lat="43.4308874" lon="11.1817538"><ele>168.66666666666669</ele><time>2026-03-28T15:21:45.009Z</time></trkpt><trkpt lat="43.4308485" lon="11.181644"><ele>168.5</ele><time>2026-03-28T15:21:48.024Z</time></trkpt><trkpt lat="43.4308107" lon="11.1815658"><ele>168.33333333333334</ele><time>2026-03-28T15:21:50.024Z</time></trkpt><trkpt lat="43.4307568" lon="11.1814779"><ele>168.16666666666666</ele><time>2026-03-28T15:21:53Z</time></trkpt><trkpt lat="43.4307044" lon="11.1813912"><ele>168.0</ele><time>2026-03-28T15:21:56.001Z</time></trkpt><trkpt lat="43.4306407" lon="11.1813129"><ele>167.16666666666666</ele><time>2026-03-28T15:21:59.015Z</time></trkpt><trkpt lat="43.4305791" lon="11.1812248"><ele>166.33333333333334</ele><time>2026-03-28T15:22:02.003Z</time></trkpt><trkpt lat="43.4305129" lon="11.1811406"><ele>165.5</ele><time>2026-03-28T15:22:05.005Z</time></trkpt><trkpt lat="43.4304327" lon="11.1810711"><ele>164.66666666666669</ele><time>2026-03-28T15:22:08Z</time></trkpt><trkpt lat="43.4303795" lon="11.1810131"><ele>163.83333333333334</ele><time>2026-03-28T15:22:10.018Z</time></trkpt><trkpt lat="43.430334" lon="11.1809454"><ele>163.0</ele><time>2026-03-28T15:22:12.01Z</time></trkpt><trkpt lat="43.4302783" lon="11.180897"><ele>163.0</ele><time>2026-03-28T15:22:14.014Z</time></trkpt><trkpt lat="43.4302128" lon="11.1808648"><ele>163.0</ele><time>2026-03-28T15:22:16.017Z</time></trkpt><trkpt lat="43.4301364" lon="11.1808562"><ele>163.0</ele><time>2026-03-28T15:22:18.023Z</time></trkpt><trkpt lat="43.4300476" lon="11.1808731"><ele>163.0</ele><time>2026-03-28T15:22:20.032Z</time></trkpt><trkpt lat="43.4299516" lon="11.1809199"><ele>163.0</ele><time>2026-03-28T15:22:22.014Z</time></trkpt><trkpt lat="43.4298451" lon="11.1809874"><ele>163.0</ele><time>2026-03-28T15:22:24.01Z</time></trkpt><trkpt lat="43.4297849" lon="11.1810243"><ele>163.0</ele><time>2026-03-28T15:22:25.013Z</time></trkpt><trkpt lat="43.4297229" lon="11.1810616"><ele>163.0</ele><time>2026-03-28T15:22:26.022Z</time></trkpt><trkpt lat="43.4296572" lon="11.1810941"><ele>163.0</ele><time>2026-03-28T15:22:27.004Z</time></trkpt><trkpt lat="43.4295865" lon="11.1811215"><ele>163.0</ele><time>2026-03-28T15:22:28.004Z</time></trkpt><trkpt lat="43.4295114" lon="11.1811437"><ele>163.0</ele><time>2026-03-28T15:22:29.016Z</time></trkpt><trkpt lat="43.4294336" lon="11.181146"><ele>163.0</ele><time>2026-03-28T15:22:30.007Z</time></trkpt><trkpt lat="43.4293547" lon="11.1811288"><ele>162.33333333333334</ele><time>2026-03-28T15:22:31.001Z</time></trkpt><trkpt lat="43.4292759" lon="11.1810934"><ele>161.66666666666669</ele><time>2026-03-28T15:22:32.006Z</time></trkpt><trkpt lat="43.4292" lon="11.1810411"><ele>161.0</ele><time>2026-03-28T15:22:33.01Z</time></trkpt><trkpt lat="43.4291318" lon="11.1809705"><ele>160.33333333333334</ele><time>2026-03-28T15:22:34.024Z</time></trkpt><trkpt lat="43.4290736" lon="11.1808915"><ele>159.66666666666666</ele><time>2026-03-28T15:22:35.039Z</time></trkpt><trkpt lat="43.4290226" lon="11.180806"><ele>159.0</ele><time>2026-03-28T15:22:36.013Z</time></trkpt><trkpt lat="43.428973" lon="11.1807165"><ele>158.0</ele><time>2026-03-28T15:22:37.022Z</time></trkpt><trkpt lat="43.4289234" lon="11.1806341"><ele>157.0</ele><time>2026-03-28T15:22:38.022Z</time></trkpt><trkpt lat="43.4288697" lon="11.1805769"><ele>156.0</ele><time>2026-03-28T15:22:39.019Z</time></trkpt><trkpt lat="43.4288071" lon="11.1805456"><ele>155.0</ele><time>2026-03-28T15:22:40.015Z</time></trkpt><trkpt lat="43.4287387" lon="11.1805487"><ele>154.0</ele><time>2026-03-28T15:22:41.012Z</time></trkpt><trkpt lat="43.4286699" lon="11.1805845"><ele>153.0</ele><time>2026-03-28T15:22:42.012Z</time></trkpt><trkpt lat="43.4286031" lon="11.1806385"><ele>152.0</ele><time>2026-03-28T15:22:43.019Z</time></trkpt><trkpt lat="43.4285476" lon="11.1807065"><ele>152.0</ele><time>2026-03-28T15:22:44.014Z</time></trkpt><trkpt lat="43.4285018" lon="11.1807864"><ele>152.0</ele><time>2026-03-28T15:22:45.014Z</time></trkpt><trkpt lat="43.4284593" lon="11.1808792"><ele>152.0</ele><time>2026-03-28T15:22:46.025Z</time></trkpt><trkpt lat="43.4284177" lon="11.1809797"><ele>152.0</ele><time>2026-03-28T15:22:47.008Z</time></trkpt><trkpt lat="43.4283761" lon="11.1810868"><ele>152.0</ele><time>2026-03-28T15:22:48.017Z</time></trkpt><trkpt lat="43.4283322" lon="11.181189"><ele>152.0</ele><time>2026-03-28T15:22:49.004Z</time></trkpt><trkpt lat="43.4282839" lon="11.1812942"><ele>152.0</ele><time>2026-03-28T15:22:50.03Z</time></trkpt><trkpt lat="43.4282292" lon="11.181397"><ele>152.0</ele><time>2026-03-28T15:22:51.028Z</time></trkpt><trkpt lat="43.4281753" lon="11.1814984"><ele>152.0</ele><time>2026-03-28T15:22:52.003Z</time></trkpt><trkpt lat="43.4281278" lon="11.1815929"><ele>152.0</ele><time>2026-03-28T15:22:53.019Z</time></trkpt><trkpt lat="43.4280818" lon="11.1816752"><ele>152.0</ele><time>2026-03-28T15:22:54.013Z</time></trkpt><trkpt lat="43.4280287" lon="11.181744"><ele>152.0</ele><time>2026-03-28T15:22:55.024Z</time></trkpt><trkpt lat="43.4279669" lon="11.1817778"><ele>151.42857142857142</ele><time>2026-03-28T15:22:56.03Z</time></trkpt><trkpt lat="43.4278993" lon="11.181778"><ele>150.85714285714286</ele><time>2026-03-28T15:22:57.028Z</time></trkpt><trkpt lat="43.4278303" lon="11.1817616"><ele>150.28571428571428</ele><time>2026-03-28T15:22:58.011Z</time></trkpt><trkpt lat="43.4277552" lon="11.1817332"><ele>149.71428571428572</ele><time>2026-03-28T15:22:59.021Z</time></trkpt><trkpt lat="43.4276844" lon="11.181698"><ele>149.14285714285714</ele><time>2026-03-28T15:23:00.022Z</time></trkpt><trkpt lat="43.4276151" lon="11.1816598"><ele>148.57142857142858</ele><time>2026-03-28T15:23:01.009Z</time></trkpt><trkpt lat="43.4275393" lon="11.1816463"><ele>148.0</ele><time>2026-03-28T15:23:02.012Z</time></trkpt><trkpt lat="43.4274618" lon="11.1816623"><ele>148.0</ele><time>2026-03-28T15:23:03.03Z</time></trkpt><trkpt lat="43.4273914" lon="11.1816947"><ele>148.0</ele><time>2026-03-28T15:23:04.014Z</time></trkpt><trkpt lat="43.4273248" lon="11.1817409"><ele>148.0</ele><time>2026-03-28T15:23:05.015Z</time></trkpt><trkpt lat="43.4272636" lon="11.1817794"><ele>148.0</ele><time>2026-03-28T15:23:06.011Z</time></trkpt><trkpt lat="43.4271601" lon="11.1818479"><ele>148.0</ele><time>2026-03-28T15:23:08.012Z</time></trkpt><trkpt lat="43.4270445" lon="11.1818959"><ele>147.28571428571428</ele><time>2026-03-28T15:23:10.006Z</time></trkpt><trkpt lat="43.4269815" lon="11.181921"><ele>146.57142857142856</ele><time>2026-03-28T15:23:11.013Z</time></trkpt><trkpt lat="43.4269175" lon="11.1819429"><ele>145.85714285714283</ele><time>2026-03-28T15:23:12.024Z</time></trkpt><trkpt lat="43.4268535" lon="11.1819613"><ele>145.14285714285714</ele><time>2026-03-28T15:23:13.015Z</time></trkpt><trkpt lat="43.4267857" lon="11.1819801"><ele>144.42857142857142</ele><time>2026-03-28T15:23:14.006Z</time></trkpt><trkpt lat="43.4267079" lon="11.1819999"><ele>143.7142857142857</ele><time>2026-03-28T15:23:15.019Z</time></trkpt><trkpt lat="43.4266255" lon="11.1820236"><ele>143.0</ele><time>2026-03-28T15:23:16.019Z</time></trkpt><trkpt lat="43.4265425" lon="11.1820486"><ele>143.0</ele><time>2026-03-28T15:23:17.001Z</time></trkpt><trkpt lat="43.4264551" lon="11.1820712"><ele>143.0</ele><time>2026-03-28T15:23:18.022Z</time></trkpt><trkpt lat="43.4263612" lon="11.1820862"><ele>143.0</ele><time>2026-03-28T15:23:19.006Z</time></trkpt><trkpt lat="43.4262665" lon="11.182089"><ele>143.0</ele><time>2026-03-28T15:23:20.025Z</time></trkpt><trkpt lat="43.4261758" lon="11.1820771"><ele>143.0</ele><time>2026-03-28T15:23:21.023Z</time></trkpt><trkpt lat="43.4260927" lon="11.1820619"><ele>142.83333333333331</ele><time>2026-03-28T15:23:22.006Z</time></trkpt><trkpt lat="43.4260136" lon="11.1820587"><ele>142.66666666666666</ele><time>2026-03-28T15:23:23.034Z</time></trkpt><trkpt lat="43.4259372" lon="11.182079"><ele>142.5</ele><time>2026-03-28T15:23:24.022Z</time></trkpt><trkpt lat="43.425868" lon="11.182121"><ele>142.33333333333334</ele><time>2026-03-28T15:23:25.015Z</time></trkpt><trkpt lat="43.4258073" lon="11.1821851"><ele>142.16666666666669</ele><time>2026-03-28T15:23:26.03Z</time></trkpt><trkpt lat="43.4257612" lon="11.1822661"><ele>142.0</ele><time>2026-03-28T15:23:27.01Z</time></trkpt><trkpt lat="43.4257216" lon="11.1823542"><ele>142.0</ele><time>2026-03-28T15:23:28.009Z</time></trkpt><trkpt lat="43.4256846" lon="11.1824394"><ele>142.0</ele><time>2026-03-28T15:23:29.002Z</time></trkpt><trkpt lat="43.4256471" lon="11.1825217"><ele>142.0</ele><time>2026-03-28T15:23:30.008Z</time></trkpt><trkpt lat="43.4256131" lon="11.182603"><ele>142.0</ele><time>2026-03-28T15:23:31.012Z</time></trkpt><trkpt lat="43.4255782" lon="11.1826806"><ele>142.0</ele><time>2026-03-28T15:23:32.012Z</time></trkpt><trkpt lat="43.4255092" lon="11.1828209"><ele>142.0</ele><time>2026-03-28T15:23:34.019Z</time></trkpt><trkpt lat="43.4254477" lon="11.1829486"><ele>143.71428571428572</ele><time>2026-03-28T15:23:36.015Z</time></trkpt><trkpt lat="43.4253931" lon="11.1830522"><ele>145.42857142857142</ele><time>2026-03-28T15:23:38.028Z</time></trkpt><trkpt lat="43.4253421" lon="11.183133"><ele>147.14285714285714</ele><time>2026-03-28T15:23:40.005Z</time></trkpt><trkpt lat="43.4253033" lon="11.1832049"><ele>148.85714285714286</ele><time>2026-03-28T15:23:42.01Z</time></trkpt><trkpt lat="43.4252502" lon="11.1832756"><ele>150.57142857142856</ele><time>2026-03-28T15:23:45.011Z</time></trkpt><trkpt lat="43.4251881" lon="11.1833044"><ele>152.28571428571428</ele><time>2026-03-28T15:23:48.019Z</time></trkpt><trkpt lat="43.4251233" lon="11.1832756"><ele>154.0</ele><time>2026-03-28T15:23:51.018Z</time></trkpt><trkpt lat="43.4250729" lon="11.1832194"><ele>155.0</ele><time>2026-03-28T15:23:54.015Z</time></trkpt><trkpt lat="43.4250187" lon="11.1831328"><ele>156.0</ele><time>2026-03-28T15:23:58.016Z</time></trkpt><trkpt lat="43.4249674" lon="11.1830693"><ele>157.0</ele><time>2026-03-28T15:24:01.003Z</time></trkpt><trkpt lat="43.4249192" lon="11.1830064"><ele>158.0</ele><time>2026-03-28T15:24:04.019Z</time></trkpt><trkpt lat="43.4248693" lon="11.1829271"><ele>159.0</ele><time>2026-03-28T15:24:08.029Z</time></trkpt><trkpt lat="43.4248107" lon="11.1828447"><ele>160.0</ele><time>2026-03-28T15:24:12.007Z</time></trkpt><trkpt lat="43.4247734" lon="11.1827594"><ele>160.0</ele><time>2026-03-28T15:24:15.011Z</time></trkpt><trkpt lat="43.4247341" lon="11.1826847"><ele>160.0</ele><time>2026-03-28T15:24:18Z</time></trkpt><trkpt lat="43.4246928" lon="11.1826138"><ele>160.0</ele><time>2026-03-28T15:24:21Z</time></trkpt><trkpt lat="43.4246574" lon="11.1825411"><ele>160.0</ele><time>2026-03-28T15:24:24.02Z</time></trkpt><trkpt lat="43.4246169" lon="11.1824689"><ele>160.0</ele><time>2026-03-28T15:24:28.01Z</time></trkpt><trkpt lat="43.4245599" lon="11.1824316"><ele>160.0</ele><time>2026-03-28T15:24:32.008Z</time></trkpt><trkpt lat="43.4244913" lon="11.1823923"><ele>160.0</ele><time>2026-03-28T15:24:37.008Z</time></trkpt><trkpt lat="43.4244217" lon="11.1823851"><ele>160.71428571428572</ele><time>2026-03-28T15:24:43.012Z</time></trkpt><trkpt lat="43.4243479" lon="11.1823726"><ele>161.42857142857144</ele><time>2026-03-28T15:24:48.014Z</time></trkpt><trkpt lat="43.4242845" lon="11.1823352"><ele>162.14285714285717</ele><time>2026-03-28T15:24:53.002Z</time></trkpt><trkpt lat="43.4242201" lon="11.1823201"><ele>162.85714285714286</ele><time>2026-03-28T15:24:56.999Z</time></trkpt><trkpt lat="43.4241798" lon="11.1822353"><ele>163.57142857142858</ele><time>2026-03-28T15:25:03.016Z</time></trkpt><trkpt lat="43.4241822" lon="11.1821237"><ele>164.2857142857143</ele><time>2026-03-28T15:25:07.011Z</time></trkpt><trkpt lat="43.4241955" lon="11.1820309"><ele>165.0</ele><time>2026-03-28T15:25:10.018Z</time></trkpt><trkpt lat="43.4242108" lon="11.1819264"><ele>165.0</ele><time>2026-03-28T15:25:13.008Z</time></trkpt><trkpt lat="43.4242429" lon="11.1818278"><ele>165.0</ele><time>2026-03-28T15:25:16.029Z</time></trkpt><trkpt lat="43.4243051" lon="11.1817365"><ele>165.0</ele><time>2026-03-28T15:25:19.027Z</time></trkpt><trkpt lat="43.4243416" lon="11.1816647"><ele>165.0</ele><time>2026-03-28T15:25:21.023Z</time></trkpt><trkpt lat="43.424388" lon="11.1815592"><ele>165.0</ele><time>2026-03-28T15:25:24.009Z</time></trkpt><trkpt lat="43.4244382" lon="11.1814656"><ele>165.0</ele><time>2026-03-28T15:25:27.031Z</time></trkpt><trkpt lat="43.4244849" lon="11.1813699"><ele>165.16666666666666</ele><time>2026-03-28T15:25:30.018Z</time></trkpt><trkpt lat="43.424517" lon="11.181265"><ele>165.33333333333334</ele><time>2026-03-28T15:25:33.016Z</time></trkpt><trkpt lat="43.4244445" lon="11.181203"><ele>165.5</ele><time>2026-03-28T15:25:35.997Z</time></trkpt><trkpt lat="43.4243721" lon="11.1812049"><ele>165.66666666666669</ele><time>2026-03-28T15:25:39.024Z</time></trkpt><trkpt lat="43.4242853" lon="11.1812144"><ele>165.83333333333334</ele><time>2026-03-28T15:25:42.02Z</time></trkpt><trkpt lat="43.424221" lon="11.181221"><ele>166.0</ele><time>2026-03-28T15:25:44.034Z</time></trkpt><trkpt lat="43.4241341" lon="11.1812257"><ele>166.0</ele><time>2026-03-28T15:25:47.027Z</time></trkpt><trkpt lat="43.4240462" lon="11.1812406"><ele>166.0</ele><time>2026-03-28T15:25:50.023Z</time></trkpt><trkpt lat="43.423984" lon="11.1812593"><ele>166.0</ele><time>2026-03-28T15:25:52.028Z</time></trkpt><trkpt lat="43.4239023" lon="11.1812773"><ele>166.0</ele><time>2026-03-28T15:25:55.022Z</time></trkpt><trkpt lat="43.4238249" lon="11.18128"><ele>166.0</ele><time>2026-03-28T15:25:58.033Z</time></trkpt><trkpt lat="43.4237479" lon="11.1812944"><ele>166.0</ele><time>2026-03-28T15:26:01.015Z</time></trkpt><trkpt lat="43.4236644" lon="11.1813054"><ele>166.33333333333334</ele><time>2026-03-28T15:26:04Z</time></trkpt><trkpt lat="43.423583" lon="11.1813075"><ele>166.66666666666669</ele><time>2026-03-28T15:26:07.015Z</time></trkpt><trkpt lat="43.423497" lon="11.1813142"><ele>167.0</ele><time>2026-03-28T15:26:10.024Z</time></trkpt><trkpt lat="43.4234159" lon="11.1813402"><ele>167.33333333333334</ele><time>2026-03-28T15:26:13.006Z</time></trkpt><trkpt lat="43.4233307" lon="11.1813722"><ele>167.66666666666666</ele><time>2026-03-28T15:26:16.022Z</time></trkpt><trkpt lat="43.4232462" lon="11.1813921"><ele>168.0</ele><time>2026-03-28T15:26:19.007Z</time></trkpt><trkpt lat="43.4231834" lon="11.1814038"><ele>168.0</ele><time>2026-03-28T15:26:21.014Z</time></trkpt><trkpt lat="43.4230924" lon="11.181429"><ele>168.0</ele><time>2026-03-28T15:26:24.021Z</time></trkpt><trkpt lat="43.4230012" lon="11.1814442"><ele>168.0</ele><time>2026-03-28T15:26:27.014Z</time></trkpt><trkpt lat="43.4229104" lon="11.1814623"><ele>168.0</ele><time>2026-03-28T15:26:30.007Z</time></trkpt><trkpt lat="43.4228147" lon="11.1814891"><ele>168.0</ele><time>2026-03-28T15:26:33.029Z</time></trkpt><trkpt lat="43.4227526" lon="11.1815087"><ele>168.0</ele><time>2026-03-28T15:26:35.021Z</time></trkpt><trkpt lat="43.4226808" lon="11.1815219"><ele>168.28571428571428</ele><time>2026-03-28T15:26:37.006Z</time></trkpt><trkpt lat="43.4226119" lon="11.1815208"><ele>168.57142857142856</ele><time>2026-03-28T15:26:39.015Z</time></trkpt><trkpt lat="43.4225362" lon="11.1815213"><ele>168.85714285714286</ele><time>2026-03-28T15:26:41.015Z</time></trkpt><trkpt lat="43.4224607" lon="11.1815288"><ele>169.14285714285714</ele><time>2026-03-28T15:26:42.998Z</time></trkpt><trkpt lat="43.4223904" lon="11.1815192"><ele>169.42857142857142</ele><time>2026-03-28T15:26:45.003Z</time></trkpt><trkpt lat="43.4223462" lon="11.1814536"><ele>169.71428571428572</ele><time>2026-03-28T15:26:47.018Z</time></trkpt><trkpt lat="43.4223267" lon="11.1813615"><ele>170.0</ele><time>2026-03-28T15:26:49.013Z</time></trkpt><trkpt lat="43.4222941" lon="11.1812497"><ele>170.0</ele><time>2026-03-28T15:26:52.019Z</time></trkpt><trkpt lat="43.4222756" lon="11.1811451"><ele>170.0</ele><time>2026-03-28T15:26:55.021Z</time></trkpt><trkpt lat="43.4222421" lon="11.1810713"><ele>170.0</ele><time>2026-03-28T15:26:58.016Z</time></trkpt><trkpt lat="43.4221716" lon="11.1810813"><ele>170.0</ele><time>2026-03-28T15:27:02.006Z</time></trkpt><trkpt lat="43.4221069" lon="11.1811275"><ele>174.0</ele><time>2026-03-28T15:27:06.018Z</time></trkpt><trkpt lat="43.422044" lon="11.1811319"><ele>174.0</ele><time>2026-03-28T15:29:27.008Z</time></trkpt></trkseg></trk></gpx>